<?xml version="1.0" encoding="UTF-8" standalone="no" ?>
<gpx xmlns="http://www.topografix.com/GPX/1/1" xmlns:xsi="http://www.w3.org/2001/XMLSchema-instance" xsi:schemaLocation="http://www.topografix.com/GPX/1/1 http://www.topografix.com/GPX/1/1/gpx.xsd" version="1.1" creator="VisuGPX - https://www.visugpx.com">
  <metadata>
    <name>150909ROBBenjamins</name>
    <desc><![CDATA[excellente sortie de reprise]]></desc>
  </metadata>
  <trk>
    <name><![CDATA[150909ROBBenjamins]]></name>
    <trkseg>
      <trkpt lat="43.41581" lon="6.07041">
        <ele>200.60000610352</ele>
        <time>2015-09-09T12:10:48Z</time>
      </trkpt>
      <trkpt lat="43.41581" lon="6.07041">
        <ele>200.60000610352</ele>
        <time>2015-09-09T12:10:50Z</time>
      </trkpt>
      <trkpt lat="43.41581" lon="6.07041">
        <ele>200.60000610352</ele>
        <time>2015-09-09T12:10:52Z</time>
      </trkpt>
      <trkpt lat="43.41581" lon="6.07041">
        <ele>200.60000610352</ele>
        <time>2015-09-09T12:10:54Z</time>
      </trkpt>
      <trkpt lat="43.41581" lon="6.07042">
        <ele>200.60000610352</ele>
        <time>2015-09-09T12:10:56Z</time>
      </trkpt>
      <trkpt lat="43.41581" lon="6.07042">
        <ele>200.60000610352</ele>
        <time>2015-09-09T12:10:58Z</time>
      </trkpt>
      <trkpt lat="43.4158" lon="6.07043">
        <ele>200.80000305176</ele>
        <time>2015-09-09T12:10:59Z</time>
      </trkpt>
      <trkpt lat="43.41581" lon="6.07044">
        <ele>201</ele>
        <time>2015-09-09T12:11:02Z</time>
      </trkpt>
      <trkpt lat="43.41581" lon="6.07045">
        <ele>200.60000610352</ele>
        <time>2015-09-09T12:11:04Z</time>
      </trkpt>
      <trkpt lat="43.41581" lon="6.07048">
        <ele>200.60000610352</ele>
        <time>2015-09-09T12:11:06Z</time>
      </trkpt>
      <trkpt lat="43.41581" lon="6.07052">
        <ele>200.60000610352</ele>
        <time>2015-09-09T12:11:08Z</time>
      </trkpt>
      <trkpt lat="43.41582" lon="6.07057">
        <ele>200.60000610352</ele>
        <time>2015-09-09T12:11:10Z</time>
      </trkpt>
      <trkpt lat="43.41582" lon="6.07063">
        <ele>200.60000610352</ele>
        <time>2015-09-09T12:11:12Z</time>
      </trkpt>
      <trkpt lat="43.41582" lon="6.07068">
        <ele>200.80000305176</ele>
        <time>2015-09-09T12:11:14Z</time>
      </trkpt>
      <trkpt lat="43.41583" lon="6.07071">
        <ele>200.60000610352</ele>
        <time>2015-09-09T12:11:15Z</time>
      </trkpt>
      <trkpt lat="43.41583" lon="6.07074">
        <ele>200.60000610352</ele>
        <time>2015-09-09T12:11:16Z</time>
      </trkpt>
      <trkpt lat="43.41584" lon="6.07081">
        <ele>200.80000305176</ele>
        <time>2015-09-09T12:11:18Z</time>
      </trkpt>
      <trkpt lat="43.41584" lon="6.07085">
        <ele>200.80000305176</ele>
        <time>2015-09-09T12:11:19Z</time>
      </trkpt>
      <trkpt lat="43.41585" lon="6.07089">
        <ele>200.80000305176</ele>
        <time>2015-09-09T12:11:20Z</time>
      </trkpt>
      <trkpt lat="43.41585" lon="6.07098">
        <ele>200.60000610352</ele>
        <time>2015-09-09T12:11:22Z</time>
      </trkpt>
      <trkpt lat="43.41586" lon="6.07106">
        <ele>200.60000610352</ele>
        <time>2015-09-09T12:11:24Z</time>
      </trkpt>
      <trkpt lat="43.41584" lon="6.07113">
        <ele>200.60000610352</ele>
        <time>2015-09-09T12:11:26Z</time>
      </trkpt>
      <trkpt lat="43.41579" lon="6.07113">
        <ele>200.39999389648</ele>
        <time>2015-09-09T12:11:28Z</time>
      </trkpt>
      <trkpt lat="43.41576" lon="6.07114">
        <ele>200.39999389648</ele>
        <time>2015-09-09T12:11:29Z</time>
      </trkpt>
      <trkpt lat="43.41573" lon="6.07116">
        <ele>200.60000610352</ele>
        <time>2015-09-09T12:11:30Z</time>
      </trkpt>
      <trkpt lat="43.41568" lon="6.0712">
        <ele>200.80000305176</ele>
        <time>2015-09-09T12:11:32Z</time>
      </trkpt>
      <trkpt lat="43.41565" lon="6.07121">
        <ele>200.60000610352</ele>
        <time>2015-09-09T12:11:33Z</time>
      </trkpt>
      <trkpt lat="43.41562" lon="6.07121">
        <ele>200.39999389648</ele>
        <time>2015-09-09T12:11:34Z</time>
      </trkpt>
      <trkpt lat="43.41555" lon="6.07121">
        <ele>200.19999694824</ele>
        <time>2015-09-09T12:11:36Z</time>
      </trkpt>
      <trkpt lat="43.41552" lon="6.0712">
        <ele>200</ele>
        <time>2015-09-09T12:11:37Z</time>
      </trkpt>
      <trkpt lat="43.41549" lon="6.07118">
        <ele>200</ele>
        <time>2015-09-09T12:11:38Z</time>
      </trkpt>
      <trkpt lat="43.41546" lon="6.0711">
        <ele>200.19999694824</ele>
        <time>2015-09-09T12:11:40Z</time>
      </trkpt>
      <trkpt lat="43.41545" lon="6.07105">
        <ele>200.19999694824</ele>
        <time>2015-09-09T12:11:41Z</time>
      </trkpt>
      <trkpt lat="43.41545" lon="6.07095">
        <ele>200</ele>
        <time>2015-09-09T12:11:44Z</time>
      </trkpt>
      <trkpt lat="43.41545" lon="6.07089">
        <ele>200.19999694824</ele>
        <time>2015-09-09T12:11:46Z</time>
      </trkpt>
      <trkpt lat="43.41544" lon="6.07086">
        <ele>200</ele>
        <time>2015-09-09T12:11:47Z</time>
      </trkpt>
      <trkpt lat="43.41543" lon="6.07083">
        <ele>200</ele>
        <time>2015-09-09T12:11:48Z</time>
      </trkpt>
      <trkpt lat="43.41541" lon="6.0708">
        <ele>200</ele>
        <time>2015-09-09T12:11:49Z</time>
      </trkpt>
      <trkpt lat="43.41538" lon="6.07079">
        <ele>200.19999694824</ele>
        <time>2015-09-09T12:11:50Z</time>
      </trkpt>
      <trkpt lat="43.41534" lon="6.07079">
        <ele>200</ele>
        <time>2015-09-09T12:11:51Z</time>
      </trkpt>
      <trkpt lat="43.41531" lon="6.07079">
        <ele>200.19999694824</ele>
        <time>2015-09-09T12:11:52Z</time>
      </trkpt>
      <trkpt lat="43.41523" lon="6.07081">
        <ele>199.60000610352</ele>
        <time>2015-09-09T12:11:54Z</time>
      </trkpt>
      <trkpt lat="43.41518" lon="6.07082">
        <ele>199.19999694824</ele>
        <time>2015-09-09T12:11:55Z</time>
      </trkpt>
      <trkpt lat="43.41514" lon="6.07083">
        <ele>199.19999694824</ele>
        <time>2015-09-09T12:11:56Z</time>
      </trkpt>
      <trkpt lat="43.41506" lon="6.07085">
        <ele>199</ele>
        <time>2015-09-09T12:11:58Z</time>
      </trkpt>
      <trkpt lat="43.41498" lon="6.07084">
        <ele>198.80000305176</ele>
        <time>2015-09-09T12:12:00Z</time>
      </trkpt>
      <trkpt lat="43.41491" lon="6.0708">
        <ele>198.80000305176</ele>
        <time>2015-09-09T12:12:02Z</time>
      </trkpt>
      <trkpt lat="43.41483" lon="6.07077">
        <ele>198.60000610352</ele>
        <time>2015-09-09T12:12:04Z</time>
      </trkpt>
      <trkpt lat="43.41476" lon="6.07075">
        <ele>198.80000305176</ele>
        <time>2015-09-09T12:12:06Z</time>
      </trkpt>
      <trkpt lat="43.41471" lon="6.07074">
        <ele>198.80000305176</ele>
        <time>2015-09-09T12:12:08Z</time>
      </trkpt>
      <trkpt lat="43.41469" lon="6.07071">
        <ele>198.60000610352</ele>
        <time>2015-09-09T12:12:10Z</time>
      </trkpt>
      <trkpt lat="43.41468" lon="6.0707">
        <ele>198.19999694824</ele>
        <time>2015-09-09T12:12:11Z</time>
      </trkpt>
      <trkpt lat="43.41468" lon="6.07069">
        <ele>198</ele>
        <time>2015-09-09T12:12:12Z</time>
      </trkpt>
      <trkpt lat="43.41469" lon="6.07064">
        <ele>197.80000305176</ele>
        <time>2015-09-09T12:12:14Z</time>
      </trkpt>
      <trkpt lat="43.41472" lon="6.07057">
        <ele>197.80000305176</ele>
        <time>2015-09-09T12:12:16Z</time>
      </trkpt>
      <trkpt lat="43.41474" lon="6.07053">
        <ele>197.80000305176</ele>
        <time>2015-09-09T12:12:17Z</time>
      </trkpt>
      <trkpt lat="43.41476" lon="6.07048">
        <ele>198</ele>
        <time>2015-09-09T12:12:18Z</time>
      </trkpt>
      <trkpt lat="43.4148" lon="6.07037">
        <ele>198</ele>
        <time>2015-09-09T12:12:20Z</time>
      </trkpt>
      <trkpt lat="43.41484" lon="6.07025">
        <ele>198</ele>
        <time>2015-09-09T12:12:22Z</time>
      </trkpt>
      <trkpt lat="43.41489" lon="6.07012">
        <ele>198.19999694824</ele>
        <time>2015-09-09T12:12:24Z</time>
      </trkpt>
      <trkpt lat="43.41493" lon="6.06999">
        <ele>198.60000610352</ele>
        <time>2015-09-09T12:12:26Z</time>
      </trkpt>
      <trkpt lat="43.41494" lon="6.06988">
        <ele>198.80000305176</ele>
        <time>2015-09-09T12:12:28Z</time>
      </trkpt>
      <trkpt lat="43.41493" lon="6.06977">
        <ele>199</ele>
        <time>2015-09-09T12:12:30Z</time>
      </trkpt>
      <trkpt lat="43.41489" lon="6.06969">
        <ele>199</ele>
        <time>2015-09-09T12:12:32Z</time>
      </trkpt>
      <trkpt lat="43.41485" lon="6.06961">
        <ele>199.19999694824</ele>
        <time>2015-09-09T12:12:34Z</time>
      </trkpt>
      <trkpt lat="43.41478" lon="6.0695">
        <ele>199.60000610352</ele>
        <time>2015-09-09T12:12:37Z</time>
      </trkpt>
      <trkpt lat="43.41475" lon="6.06946">
        <ele>199.60000610352</ele>
        <time>2015-09-09T12:12:38Z</time>
      </trkpt>
      <trkpt lat="43.41471" lon="6.06939">
        <ele>199.80000305176</ele>
        <time>2015-09-09T12:12:40Z</time>
      </trkpt>
      <trkpt lat="43.41467" lon="6.06934">
        <ele>200</ele>
        <time>2015-09-09T12:12:42Z</time>
      </trkpt>
      <trkpt lat="43.41467" lon="6.06929">
        <ele>200</ele>
        <time>2015-09-09T12:12:44Z</time>
      </trkpt>
      <trkpt lat="43.41473" lon="6.06917">
        <ele>200</ele>
        <time>2015-09-09T12:12:48Z</time>
      </trkpt>
      <trkpt lat="43.41475" lon="6.06909">
        <ele>200</ele>
        <time>2015-09-09T12:12:50Z</time>
      </trkpt>
      <trkpt lat="43.41476" lon="6.06903">
        <ele>200.19999694824</ele>
        <time>2015-09-09T12:12:52Z</time>
      </trkpt>
      <trkpt lat="43.41476" lon="6.06899">
        <ele>200.19999694824</ele>
        <time>2015-09-09T12:12:53Z</time>
      </trkpt>
      <trkpt lat="43.41475" lon="6.06897">
        <ele>200</ele>
        <time>2015-09-09T12:12:54Z</time>
      </trkpt>
      <trkpt lat="43.41475" lon="6.0689">
        <ele>200.19999694824</ele>
        <time>2015-09-09T12:12:56Z</time>
      </trkpt>
      <trkpt lat="43.41476" lon="6.06882">
        <ele>200.19999694824</ele>
        <time>2015-09-09T12:12:58Z</time>
      </trkpt>
      <trkpt lat="43.41477" lon="6.06877">
        <ele>200.19999694824</ele>
        <time>2015-09-09T12:12:59Z</time>
      </trkpt>
      <trkpt lat="43.41477" lon="6.06873">
        <ele>200.39999389648</ele>
        <time>2015-09-09T12:13:00Z</time>
      </trkpt>
      <trkpt lat="43.41474" lon="6.06862">
        <ele>200.60000610352</ele>
        <time>2015-09-09T12:13:02Z</time>
      </trkpt>
      <trkpt lat="43.41475" lon="6.0685">
        <ele>200.60000610352</ele>
        <time>2015-09-09T12:13:04Z</time>
      </trkpt>
      <trkpt lat="43.41476" lon="6.06837">
        <ele>200.19999694824</ele>
        <time>2015-09-09T12:13:06Z</time>
      </trkpt>
      <trkpt lat="43.41478" lon="6.06831">
        <ele>200</ele>
        <time>2015-09-09T12:13:07Z</time>
      </trkpt>
      <trkpt lat="43.41481" lon="6.06826">
        <ele>199.80000305176</ele>
        <time>2015-09-09T12:13:08Z</time>
      </trkpt>
      <trkpt lat="43.41486" lon="6.06815">
        <ele>200</ele>
        <time>2015-09-09T12:13:10Z</time>
      </trkpt>
      <trkpt lat="43.4149" lon="6.06803">
        <ele>200</ele>
        <time>2015-09-09T12:13:12Z</time>
      </trkpt>
      <trkpt lat="43.41493" lon="6.06789">
        <ele>200.39999389648</ele>
        <time>2015-09-09T12:13:14Z</time>
      </trkpt>
      <trkpt lat="43.41495" lon="6.06776">
        <ele>200.80000305176</ele>
        <time>2015-09-09T12:13:16Z</time>
      </trkpt>
      <trkpt lat="43.41499" lon="6.06749">
        <ele>201</ele>
        <time>2015-09-09T12:13:20Z</time>
      </trkpt>
      <trkpt lat="43.41499" lon="6.06736">
        <ele>201.80000305176</ele>
        <time>2015-09-09T12:13:22Z</time>
      </trkpt>
      <trkpt lat="43.415" lon="6.06723">
        <ele>202</ele>
        <time>2015-09-09T12:13:24Z</time>
      </trkpt>
      <trkpt lat="43.415" lon="6.06709">
        <ele>202</ele>
        <time>2015-09-09T12:13:26Z</time>
      </trkpt>
      <trkpt lat="43.41501" lon="6.06695">
        <ele>202.19999694824</ele>
        <time>2015-09-09T12:13:28Z</time>
      </trkpt>
      <trkpt lat="43.41503" lon="6.06668">
        <ele>202.80000305176</ele>
        <time>2015-09-09T12:13:32Z</time>
      </trkpt>
      <trkpt lat="43.41505" lon="6.06655">
        <ele>203</ele>
        <time>2015-09-09T12:13:34Z</time>
      </trkpt>
      <trkpt lat="43.41508" lon="6.06641">
        <ele>203.19999694824</ele>
        <time>2015-09-09T12:13:36Z</time>
      </trkpt>
      <trkpt lat="43.4151" lon="6.06628">
        <ele>203.19999694824</ele>
        <time>2015-09-09T12:13:38Z</time>
      </trkpt>
      <trkpt lat="43.41514" lon="6.066">
        <ele>203.39999389648</ele>
        <time>2015-09-09T12:13:42Z</time>
      </trkpt>
      <trkpt lat="43.41518" lon="6.06572">
        <ele>203.19999694824</ele>
        <time>2015-09-09T12:13:46Z</time>
      </trkpt>
      <trkpt lat="43.4152" lon="6.06557">
        <ele>203.39999389648</ele>
        <time>2015-09-09T12:13:48Z</time>
      </trkpt>
      <trkpt lat="43.41523" lon="6.06543">
        <ele>203.80000305176</ele>
        <time>2015-09-09T12:13:50Z</time>
      </trkpt>
      <trkpt lat="43.41523" lon="6.06536">
        <ele>203.80000305176</ele>
        <time>2015-09-09T12:13:51Z</time>
      </trkpt>
      <trkpt lat="43.41525" lon="6.0653">
        <ele>203.80000305176</ele>
        <time>2015-09-09T12:13:52Z</time>
      </trkpt>
      <trkpt lat="43.41532" lon="6.06506">
        <ele>204</ele>
        <time>2015-09-09T12:13:56Z</time>
      </trkpt>
      <trkpt lat="43.41543" lon="6.06489">
        <ele>204.80000305176</ele>
        <time>2015-09-09T12:14:00Z</time>
      </trkpt>
      <trkpt lat="43.41547" lon="6.0648">
        <ele>205.19999694824</ele>
        <time>2015-09-09T12:14:02Z</time>
      </trkpt>
      <trkpt lat="43.41549" lon="6.06469">
        <ele>205.80000305176</ele>
        <time>2015-09-09T12:14:04Z</time>
      </trkpt>
      <trkpt lat="43.41548" lon="6.06458">
        <ele>205.39999389648</ele>
        <time>2015-09-09T12:14:06Z</time>
      </trkpt>
      <trkpt lat="43.41547" lon="6.06447">
        <ele>205.19999694824</ele>
        <time>2015-09-09T12:14:08Z</time>
      </trkpt>
      <trkpt lat="43.41548" lon="6.06436">
        <ele>205.39999389648</ele>
        <time>2015-09-09T12:14:10Z</time>
      </trkpt>
      <trkpt lat="43.4155" lon="6.06425">
        <ele>206</ele>
        <time>2015-09-09T12:14:12Z</time>
      </trkpt>
      <trkpt lat="43.41552" lon="6.06415">
        <ele>206.60000610352</ele>
        <time>2015-09-09T12:14:14Z</time>
      </trkpt>
      <trkpt lat="43.41559" lon="6.06381">
        <ele>207.80000305176</ele>
        <time>2015-09-09T12:14:21Z</time>
      </trkpt>
      <trkpt lat="43.41562" lon="6.06367">
        <ele>208.80000305176</ele>
        <time>2015-09-09T12:14:24Z</time>
      </trkpt>
      <trkpt lat="43.41564" lon="6.06359">
        <ele>209.39999389648</ele>
        <time>2015-09-09T12:14:26Z</time>
      </trkpt>
      <trkpt lat="43.41567" lon="6.06352">
        <ele>209.80000305176</ele>
        <time>2015-09-09T12:14:28Z</time>
      </trkpt>
      <trkpt lat="43.41571" lon="6.06344">
        <ele>210.19999694824</ele>
        <time>2015-09-09T12:14:30Z</time>
      </trkpt>
      <trkpt lat="43.41577" lon="6.06334">
        <ele>211</ele>
        <time>2015-09-09T12:14:33Z</time>
      </trkpt>
      <trkpt lat="43.41587" lon="6.06317">
        <ele>211.80000305176</ele>
        <time>2015-09-09T12:14:38Z</time>
      </trkpt>
      <trkpt lat="43.41588" lon="6.06314">
        <ele>212</ele>
        <time>2015-09-09T12:14:39Z</time>
      </trkpt>
      <trkpt lat="43.41589" lon="6.0631">
        <ele>212.19999694824</ele>
        <time>2015-09-09T12:14:40Z</time>
      </trkpt>
      <trkpt lat="43.4159" lon="6.06301">
        <ele>212.39999389648</ele>
        <time>2015-09-09T12:14:42Z</time>
      </trkpt>
      <trkpt lat="43.4159" lon="6.06293">
        <ele>212.80000305176</ele>
        <time>2015-09-09T12:14:44Z</time>
      </trkpt>
      <trkpt lat="43.41588" lon="6.06277">
        <ele>213.19999694824</ele>
        <time>2015-09-09T12:14:48Z</time>
      </trkpt>
      <trkpt lat="43.41595" lon="6.06265">
        <ele>213.60000610352</ele>
        <time>2015-09-09T12:14:52Z</time>
      </trkpt>
      <trkpt lat="43.416" lon="6.06261">
        <ele>213.80000305176</ele>
        <time>2015-09-09T12:14:54Z</time>
      </trkpt>
      <trkpt lat="43.41602" lon="6.0626">
        <ele>214</ele>
        <time>2015-09-09T12:14:55Z</time>
      </trkpt>
      <trkpt lat="43.41604" lon="6.06259">
        <ele>214.19999694824</ele>
        <time>2015-09-09T12:14:56Z</time>
      </trkpt>
      <trkpt lat="43.41606" lon="6.06256">
        <ele>214.19999694824</ele>
        <time>2015-09-09T12:14:58Z</time>
      </trkpt>
      <trkpt lat="43.41605" lon="6.0625">
        <ele>214.39999389648</ele>
        <time>2015-09-09T12:15:00Z</time>
      </trkpt>
      <trkpt lat="43.41606" lon="6.06244">
        <ele>214.39999389648</ele>
        <time>2015-09-09T12:15:02Z</time>
      </trkpt>
      <trkpt lat="43.41608" lon="6.0624">
        <ele>214.19999694824</ele>
        <time>2015-09-09T12:15:03Z</time>
      </trkpt>
      <trkpt lat="43.4161" lon="6.06237">
        <ele>214</ele>
        <time>2015-09-09T12:15:04Z</time>
      </trkpt>
      <trkpt lat="43.41615" lon="6.06236">
        <ele>214</ele>
        <time>2015-09-09T12:15:06Z</time>
      </trkpt>
      <trkpt lat="43.41618" lon="6.06234">
        <ele>214.19999694824</ele>
        <time>2015-09-09T12:15:07Z</time>
      </trkpt>
      <trkpt lat="43.41619" lon="6.06233">
        <ele>214.60000610352</ele>
        <time>2015-09-09T12:15:08Z</time>
      </trkpt>
      <trkpt lat="43.41625" lon="6.0623">
        <ele>215</ele>
        <time>2015-09-09T12:15:11Z</time>
      </trkpt>
      <trkpt lat="43.41627" lon="6.06229">
        <ele>215.19999694824</ele>
        <time>2015-09-09T12:15:13Z</time>
      </trkpt>
      <trkpt lat="43.41628" lon="6.06228">
        <ele>215.19999694824</ele>
        <time>2015-09-09T12:15:14Z</time>
      </trkpt>
      <trkpt lat="43.41629" lon="6.06227">
        <ele>215.19999694824</ele>
        <time>2015-09-09T12:15:16Z</time>
      </trkpt>
      <trkpt lat="43.41631" lon="6.06227">
        <ele>215</ele>
        <time>2015-09-09T12:15:17Z</time>
      </trkpt>
      <trkpt lat="43.41634" lon="6.06234">
        <ele>215.39999389648</ele>
        <time>2015-09-09T12:15:20Z</time>
      </trkpt>
      <trkpt lat="43.41637" lon="6.06237">
        <ele>215.60000610352</ele>
        <time>2015-09-09T12:15:22Z</time>
      </trkpt>
      <trkpt lat="43.41639" lon="6.06239">
        <ele>215.60000610352</ele>
        <time>2015-09-09T12:15:23Z</time>
      </trkpt>
      <trkpt lat="43.41645" lon="6.06244">
        <ele>216</ele>
        <time>2015-09-09T12:15:26Z</time>
      </trkpt>
      <trkpt lat="43.4165" lon="6.06245">
        <ele>216</ele>
        <time>2015-09-09T12:15:28Z</time>
      </trkpt>
      <trkpt lat="43.41656" lon="6.06248">
        <ele>216.19999694824</ele>
        <time>2015-09-09T12:15:30Z</time>
      </trkpt>
      <trkpt lat="43.41661" lon="6.06249">
        <ele>216.19999694824</ele>
        <time>2015-09-09T12:15:32Z</time>
      </trkpt>
      <trkpt lat="43.41667" lon="6.0625">
        <ele>216.39999389648</ele>
        <time>2015-09-09T12:15:34Z</time>
      </trkpt>
      <trkpt lat="43.41673" lon="6.06252">
        <ele>216.60000610352</ele>
        <time>2015-09-09T12:15:36Z</time>
      </trkpt>
      <trkpt lat="43.4168" lon="6.06253">
        <ele>216.39999389648</ele>
        <time>2015-09-09T12:15:38Z</time>
      </trkpt>
      <trkpt lat="43.41687" lon="6.06253">
        <ele>216.60000610352</ele>
        <time>2015-09-09T12:15:40Z</time>
      </trkpt>
      <trkpt lat="43.41693" lon="6.06253">
        <ele>216.39999389648</ele>
        <time>2015-09-09T12:15:42Z</time>
      </trkpt>
      <trkpt lat="43.417" lon="6.06253">
        <ele>216.39999389648</ele>
        <time>2015-09-09T12:15:44Z</time>
      </trkpt>
      <trkpt lat="43.41706" lon="6.06253">
        <ele>216.39999389648</ele>
        <time>2015-09-09T12:15:46Z</time>
      </trkpt>
      <trkpt lat="43.41713" lon="6.06253">
        <ele>216.60000610352</ele>
        <time>2015-09-09T12:15:48Z</time>
      </trkpt>
      <trkpt lat="43.41727" lon="6.06253">
        <ele>216.60000610352</ele>
        <time>2015-09-09T12:15:52Z</time>
      </trkpt>
      <trkpt lat="43.41734" lon="6.06254">
        <ele>217</ele>
        <time>2015-09-09T12:15:54Z</time>
      </trkpt>
      <trkpt lat="43.41742" lon="6.06254">
        <ele>217.39999389648</ele>
        <time>2015-09-09T12:15:56Z</time>
      </trkpt>
      <trkpt lat="43.41748" lon="6.06255">
        <ele>217.60000610352</ele>
        <time>2015-09-09T12:15:58Z</time>
      </trkpt>
      <trkpt lat="43.41754" lon="6.06257">
        <ele>218.19999694824</ele>
        <time>2015-09-09T12:16:00Z</time>
      </trkpt>
      <trkpt lat="43.4176" lon="6.0626">
        <ele>218.19999694824</ele>
        <time>2015-09-09T12:16:02Z</time>
      </trkpt>
      <trkpt lat="43.41766" lon="6.06262">
        <ele>218.60000610352</ele>
        <time>2015-09-09T12:16:04Z</time>
      </trkpt>
      <trkpt lat="43.41769" lon="6.06263">
        <ele>219</ele>
        <time>2015-09-09T12:16:05Z</time>
      </trkpt>
      <trkpt lat="43.41777" lon="6.06269">
        <ele>219.60000610352</ele>
        <time>2015-09-09T12:16:08Z</time>
      </trkpt>
      <trkpt lat="43.41782" lon="6.06272">
        <ele>219.80000305176</ele>
        <time>2015-09-09T12:16:10Z</time>
      </trkpt>
      <trkpt lat="43.41788" lon="6.06276">
        <ele>220.39999389648</ele>
        <time>2015-09-09T12:16:12Z</time>
      </trkpt>
      <trkpt lat="43.41797" lon="6.06286">
        <ele>220.80000305176</ele>
        <time>2015-09-09T12:16:16Z</time>
      </trkpt>
      <trkpt lat="43.41808" lon="6.06294">
        <ele>221.80000305176</ele>
        <time>2015-09-09T12:16:20Z</time>
      </trkpt>
      <trkpt lat="43.41814" lon="6.06294">
        <ele>221.80000305176</ele>
        <time>2015-09-09T12:16:22Z</time>
      </trkpt>
      <trkpt lat="43.41819" lon="6.06295">
        <ele>222.19999694824</ele>
        <time>2015-09-09T12:16:24Z</time>
      </trkpt>
      <trkpt lat="43.41825" lon="6.06296">
        <ele>222.19999694824</ele>
        <time>2015-09-09T12:16:26Z</time>
      </trkpt>
      <trkpt lat="43.41832" lon="6.06296">
        <ele>222.39999389648</ele>
        <time>2015-09-09T12:16:28Z</time>
      </trkpt>
      <trkpt lat="43.41856" lon="6.06294">
        <ele>223.60000610352</ele>
        <time>2015-09-09T12:16:36Z</time>
      </trkpt>
      <trkpt lat="43.41862" lon="6.06294">
        <ele>224.19999694824</ele>
        <time>2015-09-09T12:16:38Z</time>
      </trkpt>
      <trkpt lat="43.41874" lon="6.06295">
        <ele>225.19999694824</ele>
        <time>2015-09-09T12:16:42Z</time>
      </trkpt>
      <trkpt lat="43.41881" lon="6.06294">
        <ele>225.60000610352</ele>
        <time>2015-09-09T12:16:44Z</time>
      </trkpt>
      <trkpt lat="43.41887" lon="6.06294">
        <ele>226.19999694824</ele>
        <time>2015-09-09T12:16:46Z</time>
      </trkpt>
      <trkpt lat="43.41893" lon="6.06295">
        <ele>226.39999389648</ele>
        <time>2015-09-09T12:16:48Z</time>
      </trkpt>
      <trkpt lat="43.41898" lon="6.06295">
        <ele>226.80000305176</ele>
        <time>2015-09-09T12:16:50Z</time>
      </trkpt>
      <trkpt lat="43.41903" lon="6.06295">
        <ele>227.19999694824</ele>
        <time>2015-09-09T12:16:52Z</time>
      </trkpt>
      <trkpt lat="43.41909" lon="6.06295">
        <ele>227.60000610352</ele>
        <time>2015-09-09T12:16:54Z</time>
      </trkpt>
      <trkpt lat="43.41914" lon="6.06295">
        <ele>228</ele>
        <time>2015-09-09T12:16:56Z</time>
      </trkpt>
      <trkpt lat="43.41919" lon="6.06294">
        <ele>228.19999694824</ele>
        <time>2015-09-09T12:16:58Z</time>
      </trkpt>
      <trkpt lat="43.41927" lon="6.06293">
        <ele>228.80000305176</ele>
        <time>2015-09-09T12:17:01Z</time>
      </trkpt>
      <trkpt lat="43.41929" lon="6.06292">
        <ele>228.80000305176</ele>
        <time>2015-09-09T12:17:02Z</time>
      </trkpt>
      <trkpt lat="43.41935" lon="6.06291">
        <ele>229</ele>
        <time>2015-09-09T12:17:04Z</time>
      </trkpt>
      <trkpt lat="43.4194" lon="6.06289">
        <ele>229.19999694824</ele>
        <time>2015-09-09T12:17:06Z</time>
      </trkpt>
      <trkpt lat="43.41945" lon="6.06287">
        <ele>229.39999389648</ele>
        <time>2015-09-09T12:17:08Z</time>
      </trkpt>
      <trkpt lat="43.41955" lon="6.06282">
        <ele>229.39999389648</ele>
        <time>2015-09-09T12:17:12Z</time>
      </trkpt>
      <trkpt lat="43.41961" lon="6.06281">
        <ele>229.60000610352</ele>
        <time>2015-09-09T12:17:14Z</time>
      </trkpt>
      <trkpt lat="43.41963" lon="6.06281">
        <ele>229.80000305176</ele>
        <time>2015-09-09T12:17:15Z</time>
      </trkpt>
      <trkpt lat="43.41968" lon="6.06279">
        <ele>230</ele>
        <time>2015-09-09T12:17:17Z</time>
      </trkpt>
      <trkpt lat="43.41975" lon="6.06278">
        <ele>230.60000610352</ele>
        <time>2015-09-09T12:17:20Z</time>
      </trkpt>
      <trkpt lat="43.41977" lon="6.06277">
        <ele>230.80000305176</ele>
        <time>2015-09-09T12:17:21Z</time>
      </trkpt>
      <trkpt lat="43.41979" lon="6.06277">
        <ele>231.19999694824</ele>
        <time>2015-09-09T12:17:22Z</time>
      </trkpt>
      <trkpt lat="43.41986" lon="6.06274">
        <ele>232</ele>
        <time>2015-09-09T12:17:25Z</time>
      </trkpt>
      <trkpt lat="43.41988" lon="6.06273">
        <ele>232.39999389648</ele>
        <time>2015-09-09T12:17:26Z</time>
      </trkpt>
      <trkpt lat="43.41994" lon="6.0627">
        <ele>233.19999694824</ele>
        <time>2015-09-09T12:17:29Z</time>
      </trkpt>
      <trkpt lat="43.41996" lon="6.06269">
        <ele>233.60000610352</ele>
        <time>2015-09-09T12:17:30Z</time>
      </trkpt>
      <trkpt lat="43.42006" lon="6.06267">
        <ele>235</ele>
        <time>2015-09-09T12:17:34Z</time>
      </trkpt>
      <trkpt lat="43.4201" lon="6.06266">
        <ele>235.39999389648</ele>
        <time>2015-09-09T12:17:36Z</time>
      </trkpt>
      <trkpt lat="43.42014" lon="6.06264">
        <ele>235.80000305176</ele>
        <time>2015-09-09T12:17:38Z</time>
      </trkpt>
      <trkpt lat="43.42019" lon="6.06262">
        <ele>236.39999389648</ele>
        <time>2015-09-09T12:17:41Z</time>
      </trkpt>
      <trkpt lat="43.42029" lon="6.06259">
        <ele>237.39999389648</ele>
        <time>2015-09-09T12:17:46Z</time>
      </trkpt>
      <trkpt lat="43.42033" lon="6.06257">
        <ele>238</ele>
        <time>2015-09-09T12:17:48Z</time>
      </trkpt>
      <trkpt lat="43.42036" lon="6.06257">
        <ele>238.39999389648</ele>
        <time>2015-09-09T12:17:50Z</time>
      </trkpt>
      <trkpt lat="43.42038" lon="6.06256">
        <ele>238.60000610352</ele>
        <time>2015-09-09T12:17:51Z</time>
      </trkpt>
      <trkpt lat="43.42039" lon="6.06256">
        <ele>238.80000305176</ele>
        <time>2015-09-09T12:17:52Z</time>
      </trkpt>
      <trkpt lat="43.42043" lon="6.06254">
        <ele>239.39999389648</ele>
        <time>2015-09-09T12:17:54Z</time>
      </trkpt>
      <trkpt lat="43.42047" lon="6.06253">
        <ele>239.80000305176</ele>
        <time>2015-09-09T12:17:56Z</time>
      </trkpt>
      <trkpt lat="43.4205" lon="6.06252">
        <ele>240</ele>
        <time>2015-09-09T12:17:58Z</time>
      </trkpt>
      <trkpt lat="43.42053" lon="6.0625">
        <ele>240.19999694824</ele>
        <time>2015-09-09T12:18:00Z</time>
      </trkpt>
      <trkpt lat="43.4206" lon="6.06247">
        <ele>241.19999694824</ele>
        <time>2015-09-09T12:18:04Z</time>
      </trkpt>
      <trkpt lat="43.42064" lon="6.06245">
        <ele>241.60000610352</ele>
        <time>2015-09-09T12:18:06Z</time>
      </trkpt>
      <trkpt lat="43.42069" lon="6.06244">
        <ele>242</ele>
        <time>2015-09-09T12:18:09Z</time>
      </trkpt>
      <trkpt lat="43.42071" lon="6.06243">
        <ele>242.39999389648</ele>
        <time>2015-09-09T12:18:10Z</time>
      </trkpt>
      <trkpt lat="43.42074" lon="6.06242">
        <ele>242.80000305176</ele>
        <time>2015-09-09T12:18:12Z</time>
      </trkpt>
      <trkpt lat="43.42076" lon="6.06242">
        <ele>243</ele>
        <time>2015-09-09T12:18:13Z</time>
      </trkpt>
      <trkpt lat="43.42078" lon="6.06241">
        <ele>243.39999389648</ele>
        <time>2015-09-09T12:18:14Z</time>
      </trkpt>
      <trkpt lat="43.42084" lon="6.06238">
        <ele>244</ele>
        <time>2015-09-09T12:18:18Z</time>
      </trkpt>
      <trkpt lat="43.42087" lon="6.06237">
        <ele>244.39999389648</ele>
        <time>2015-09-09T12:18:20Z</time>
      </trkpt>
      <trkpt lat="43.42091" lon="6.06236">
        <ele>244.80000305176</ele>
        <time>2015-09-09T12:18:22Z</time>
      </trkpt>
      <trkpt lat="43.42094" lon="6.06235">
        <ele>245.19999694824</ele>
        <time>2015-09-09T12:18:24Z</time>
      </trkpt>
      <trkpt lat="43.42097" lon="6.06233">
        <ele>245.60000610352</ele>
        <time>2015-09-09T12:18:26Z</time>
      </trkpt>
      <trkpt lat="43.42101" lon="6.06232">
        <ele>245.80000305176</ele>
        <time>2015-09-09T12:18:28Z</time>
      </trkpt>
      <trkpt lat="43.42104" lon="6.06231">
        <ele>246</ele>
        <time>2015-09-09T12:18:30Z</time>
      </trkpt>
      <trkpt lat="43.42106" lon="6.0623">
        <ele>246.19999694824</ele>
        <time>2015-09-09T12:18:31Z</time>
      </trkpt>
      <trkpt lat="43.42111" lon="6.06229">
        <ele>246.60000610352</ele>
        <time>2015-09-09T12:18:34Z</time>
      </trkpt>
      <trkpt lat="43.42115" lon="6.06229">
        <ele>246.80000305176</ele>
        <time>2015-09-09T12:18:36Z</time>
      </trkpt>
      <trkpt lat="43.42122" lon="6.06226">
        <ele>247</ele>
        <time>2015-09-09T12:18:40Z</time>
      </trkpt>
      <trkpt lat="43.42125" lon="6.06224">
        <ele>247.39999389648</ele>
        <time>2015-09-09T12:18:42Z</time>
      </trkpt>
      <trkpt lat="43.42129" lon="6.06224">
        <ele>247.80000305176</ele>
        <time>2015-09-09T12:18:44Z</time>
      </trkpt>
      <trkpt lat="43.42132" lon="6.06224">
        <ele>247.80000305176</ele>
        <time>2015-09-09T12:18:46Z</time>
      </trkpt>
      <trkpt lat="43.42135" lon="6.06223">
        <ele>248</ele>
        <time>2015-09-09T12:18:48Z</time>
      </trkpt>
      <trkpt lat="43.42137" lon="6.06223">
        <ele>248.19999694824</ele>
        <time>2015-09-09T12:18:49Z</time>
      </trkpt>
      <trkpt lat="43.42138" lon="6.06222">
        <ele>248.39999389648</ele>
        <time>2015-09-09T12:18:50Z</time>
      </trkpt>
      <trkpt lat="43.42141" lon="6.06221">
        <ele>248.60000610352</ele>
        <time>2015-09-09T12:18:52Z</time>
      </trkpt>
      <trkpt lat="43.42142" lon="6.06219">
        <ele>248.60000610352</ele>
        <time>2015-09-09T12:18:53Z</time>
      </trkpt>
      <trkpt lat="43.42143" lon="6.06218">
        <ele>248.80000305176</ele>
        <time>2015-09-09T12:18:54Z</time>
      </trkpt>
      <trkpt lat="43.42146" lon="6.06215">
        <ele>248.80000305176</ele>
        <time>2015-09-09T12:18:56Z</time>
      </trkpt>
      <trkpt lat="43.42147" lon="6.06212">
        <ele>248.80000305176</ele>
        <time>2015-09-09T12:18:58Z</time>
      </trkpt>
      <trkpt lat="43.42147" lon="6.06207">
        <ele>248.80000305176</ele>
        <time>2015-09-09T12:19:00Z</time>
      </trkpt>
      <trkpt lat="43.42147" lon="6.06202">
        <ele>249</ele>
        <time>2015-09-09T12:19:02Z</time>
      </trkpt>
      <trkpt lat="43.42146" lon="6.06197">
        <ele>249</ele>
        <time>2015-09-09T12:19:04Z</time>
      </trkpt>
      <trkpt lat="43.42145" lon="6.06191">
        <ele>249</ele>
        <time>2015-09-09T12:19:06Z</time>
      </trkpt>
      <trkpt lat="43.42145" lon="6.06186">
        <ele>248.80000305176</ele>
        <time>2015-09-09T12:19:08Z</time>
      </trkpt>
      <trkpt lat="43.42144" lon="6.06182">
        <ele>248.60000610352</ele>
        <time>2015-09-09T12:19:10Z</time>
      </trkpt>
      <trkpt lat="43.42141" lon="6.06178">
        <ele>248.39999389648</ele>
        <time>2015-09-09T12:19:12Z</time>
      </trkpt>
      <trkpt lat="43.42139" lon="6.06175">
        <ele>248.19999694824</ele>
        <time>2015-09-09T12:19:13Z</time>
      </trkpt>
      <trkpt lat="43.42139" lon="6.06173">
        <ele>248.19999694824</ele>
        <time>2015-09-09T12:19:14Z</time>
      </trkpt>
      <trkpt lat="43.42138" lon="6.0617">
        <ele>247.80000305176</ele>
        <time>2015-09-09T12:19:16Z</time>
      </trkpt>
      <trkpt lat="43.42136" lon="6.06167">
        <ele>247.60000610352</ele>
        <time>2015-09-09T12:19:18Z</time>
      </trkpt>
      <trkpt lat="43.42134" lon="6.06163">
        <ele>247.19999694824</ele>
        <time>2015-09-09T12:19:20Z</time>
      </trkpt>
      <trkpt lat="43.42134" lon="6.06159">
        <ele>247</ele>
        <time>2015-09-09T12:19:22Z</time>
      </trkpt>
      <trkpt lat="43.42133" lon="6.06155">
        <ele>247</ele>
        <time>2015-09-09T12:19:24Z</time>
      </trkpt>
      <trkpt lat="43.42133" lon="6.06152">
        <ele>246.60000610352</ele>
        <time>2015-09-09T12:19:26Z</time>
      </trkpt>
      <trkpt lat="43.42133" lon="6.06152">
        <ele>246.60000610352</ele>
        <time>2015-09-09T12:19:28Z</time>
      </trkpt>
      <trkpt lat="43.42132" lon="6.06153">
        <ele>246.60000610352</ele>
        <time>2015-09-09T12:19:30Z</time>
      </trkpt>
      <trkpt lat="43.42133" lon="6.06153">
        <ele>246.80000305176</ele>
        <time>2015-09-09T12:19:32Z</time>
      </trkpt>
      <trkpt lat="43.42133" lon="6.06153">
        <ele>247</ele>
        <time>2015-09-09T12:19:33Z</time>
      </trkpt>
      <trkpt lat="43.42133" lon="6.06153">
        <ele>247</ele>
        <time>2015-09-09T12:19:34Z</time>
      </trkpt>
      <trkpt lat="43.42133" lon="6.06153">
        <ele>247</ele>
        <time>2015-09-09T12:19:38Z</time>
      </trkpt>
      <trkpt lat="43.42133" lon="6.06153">
        <ele>246.80000305176</ele>
        <time>2015-09-09T12:19:44Z</time>
      </trkpt>
      <trkpt lat="43.42133" lon="6.06153">
        <ele>247</ele>
        <time>2015-09-09T12:19:50Z</time>
      </trkpt>
      <trkpt lat="43.42133" lon="6.06153">
        <ele>246.80000305176</ele>
        <time>2015-09-09T12:19:52Z</time>
      </trkpt>
      <trkpt lat="43.42132" lon="6.06152">
        <ele>246.80000305176</ele>
        <time>2015-09-09T12:19:54Z</time>
      </trkpt>
      <trkpt lat="43.4213" lon="6.06147">
        <ele>246.80000305176</ele>
        <time>2015-09-09T12:19:57Z</time>
      </trkpt>
      <trkpt lat="43.4213" lon="6.06145">
        <ele>246.80000305176</ele>
        <time>2015-09-09T12:19:58Z</time>
      </trkpt>
      <trkpt lat="43.42128" lon="6.06139">
        <ele>247</ele>
        <time>2015-09-09T12:20:00Z</time>
      </trkpt>
      <trkpt lat="43.42126" lon="6.06131">
        <ele>247</ele>
        <time>2015-09-09T12:20:02Z</time>
      </trkpt>
      <trkpt lat="43.42124" lon="6.06124">
        <ele>247</ele>
        <time>2015-09-09T12:20:04Z</time>
      </trkpt>
      <trkpt lat="43.42123" lon="6.06116">
        <ele>247.39999389648</ele>
        <time>2015-09-09T12:20:06Z</time>
      </trkpt>
      <trkpt lat="43.42122" lon="6.06108">
        <ele>247.60000610352</ele>
        <time>2015-09-09T12:20:08Z</time>
      </trkpt>
      <trkpt lat="43.42121" lon="6.061">
        <ele>247.80000305176</ele>
        <time>2015-09-09T12:20:10Z</time>
      </trkpt>
      <trkpt lat="43.42118" lon="6.06086">
        <ele>248.60000610352</ele>
        <time>2015-09-09T12:20:14Z</time>
      </trkpt>
      <trkpt lat="43.42117" lon="6.06079">
        <ele>249.19999694824</ele>
        <time>2015-09-09T12:20:16Z</time>
      </trkpt>
      <trkpt lat="43.42113" lon="6.06057">
        <ele>250</ele>
        <time>2015-09-09T12:20:22Z</time>
      </trkpt>
      <trkpt lat="43.42112" lon="6.06049">
        <ele>250.19999694824</ele>
        <time>2015-09-09T12:20:24Z</time>
      </trkpt>
      <trkpt lat="43.4211" lon="6.06041">
        <ele>250.39999389648</ele>
        <time>2015-09-09T12:20:26Z</time>
      </trkpt>
      <trkpt lat="43.42109" lon="6.06034">
        <ele>250.60000610352</ele>
        <time>2015-09-09T12:20:28Z</time>
      </trkpt>
      <trkpt lat="43.42105" lon="6.06019">
        <ele>251.19999694824</ele>
        <time>2015-09-09T12:20:32Z</time>
      </trkpt>
      <trkpt lat="43.42099" lon="6.05992">
        <ele>250.60000610352</ele>
        <time>2015-09-09T12:20:38Z</time>
      </trkpt>
      <trkpt lat="43.42097" lon="6.05982">
        <ele>250.60000610352</ele>
        <time>2015-09-09T12:20:40Z</time>
      </trkpt>
      <trkpt lat="43.42095" lon="6.05972">
        <ele>250.60000610352</ele>
        <time>2015-09-09T12:20:42Z</time>
      </trkpt>
      <trkpt lat="43.42092" lon="6.0596">
        <ele>250.60000610352</ele>
        <time>2015-09-09T12:20:44Z</time>
      </trkpt>
      <trkpt lat="43.42089" lon="6.05949">
        <ele>250.19999694824</ele>
        <time>2015-09-09T12:20:46Z</time>
      </trkpt>
      <trkpt lat="43.42087" lon="6.05937">
        <ele>250.19999694824</ele>
        <time>2015-09-09T12:20:48Z</time>
      </trkpt>
      <trkpt lat="43.42083" lon="6.05925">
        <ele>250.19999694824</ele>
        <time>2015-09-09T12:20:50Z</time>
      </trkpt>
      <trkpt lat="43.4208" lon="6.05912">
        <ele>249.80000305176</ele>
        <time>2015-09-09T12:20:52Z</time>
      </trkpt>
      <trkpt lat="43.42077" lon="6.05899">
        <ele>249.60000610352</ele>
        <time>2015-09-09T12:20:54Z</time>
      </trkpt>
      <trkpt lat="43.42073" lon="6.05885">
        <ele>249.80000305176</ele>
        <time>2015-09-09T12:20:56Z</time>
      </trkpt>
      <trkpt lat="43.4207" lon="6.05872">
        <ele>249.60000610352</ele>
        <time>2015-09-09T12:20:58Z</time>
      </trkpt>
      <trkpt lat="43.42068" lon="6.05865">
        <ele>249.39999389648</ele>
        <time>2015-09-09T12:20:59Z</time>
      </trkpt>
      <trkpt lat="43.42062" lon="6.05841">
        <ele>247.80000305176</ele>
        <time>2015-09-09T12:21:02Z</time>
      </trkpt>
      <trkpt lat="43.4206" lon="6.05831">
        <ele>246.80000305176</ele>
        <time>2015-09-09T12:21:03Z</time>
      </trkpt>
      <trkpt lat="43.42058" lon="6.05821">
        <ele>246.39999389648</ele>
        <time>2015-09-09T12:21:04Z</time>
      </trkpt>
      <trkpt lat="43.42054" lon="6.058">
        <ele>245.80000305176</ele>
        <time>2015-09-09T12:21:06Z</time>
      </trkpt>
      <trkpt lat="43.4205" lon="6.05781">
        <ele>245.80000305176</ele>
        <time>2015-09-09T12:21:08Z</time>
      </trkpt>
      <trkpt lat="43.42049" lon="6.05771">
        <ele>245.80000305176</ele>
        <time>2015-09-09T12:21:09Z</time>
      </trkpt>
      <trkpt lat="43.42047" lon="6.05762">
        <ele>245.80000305176</ele>
        <time>2015-09-09T12:21:10Z</time>
      </trkpt>
      <trkpt lat="43.42043" lon="6.05742">
        <ele>245.80000305176</ele>
        <time>2015-09-09T12:21:12Z</time>
      </trkpt>
      <trkpt lat="43.42039" lon="6.05721">
        <ele>246</ele>
        <time>2015-09-09T12:21:14Z</time>
      </trkpt>
      <trkpt lat="43.42036" lon="6.05702">
        <ele>245.60000610352</ele>
        <time>2015-09-09T12:21:16Z</time>
      </trkpt>
      <trkpt lat="43.42032" lon="6.05683">
        <ele>245.60000610352</ele>
        <time>2015-09-09T12:21:18Z</time>
      </trkpt>
      <trkpt lat="43.42027" lon="6.05654">
        <ele>246.60000610352</ele>
        <time>2015-09-09T12:21:22Z</time>
      </trkpt>
      <trkpt lat="43.42025" lon="6.05642">
        <ele>246.80000305176</ele>
        <time>2015-09-09T12:21:24Z</time>
      </trkpt>
      <trkpt lat="43.42021" lon="6.05619">
        <ele>248.39999389648</ele>
        <time>2015-09-09T12:21:28Z</time>
      </trkpt>
      <trkpt lat="43.42019" lon="6.05609">
        <ele>248.80000305176</ele>
        <time>2015-09-09T12:21:30Z</time>
      </trkpt>
      <trkpt lat="43.42017" lon="6.05599">
        <ele>249.39999389648</ele>
        <time>2015-09-09T12:21:32Z</time>
      </trkpt>
      <trkpt lat="43.42014" lon="6.05579">
        <ele>250.60000610352</ele>
        <time>2015-09-09T12:21:36Z</time>
      </trkpt>
      <trkpt lat="43.42012" lon="6.05569">
        <ele>251</ele>
        <time>2015-09-09T12:21:38Z</time>
      </trkpt>
      <trkpt lat="43.42011" lon="6.0556">
        <ele>251.60000610352</ele>
        <time>2015-09-09T12:21:40Z</time>
      </trkpt>
      <trkpt lat="43.42009" lon="6.05546">
        <ele>252.19999694824</ele>
        <time>2015-09-09T12:21:43Z</time>
      </trkpt>
      <trkpt lat="43.42005" lon="6.05525">
        <ele>253.60000610352</ele>
        <time>2015-09-09T12:21:48Z</time>
      </trkpt>
      <trkpt lat="43.42004" lon="6.05513">
        <ele>254.19999694824</ele>
        <time>2015-09-09T12:21:51Z</time>
      </trkpt>
      <trkpt lat="43.42002" lon="6.05502">
        <ele>254.39999389648</ele>
        <time>2015-09-09T12:21:54Z</time>
      </trkpt>
      <trkpt lat="43.42" lon="6.0549">
        <ele>254.80000305176</ele>
        <time>2015-09-09T12:21:57Z</time>
      </trkpt>
      <trkpt lat="43.41999" lon="6.05486">
        <ele>255</ele>
        <time>2015-09-09T12:21:58Z</time>
      </trkpt>
      <trkpt lat="43.41997" lon="6.05479">
        <ele>254.80000305176</ele>
        <time>2015-09-09T12:22:00Z</time>
      </trkpt>
      <trkpt lat="43.41995" lon="6.05469">
        <ele>254.60000610352</ele>
        <time>2015-09-09T12:22:02Z</time>
      </trkpt>
      <trkpt lat="43.41992" lon="6.0546">
        <ele>254</ele>
        <time>2015-09-09T12:22:04Z</time>
      </trkpt>
      <trkpt lat="43.41989" lon="6.0545">
        <ele>253.80000305176</ele>
        <time>2015-09-09T12:22:06Z</time>
      </trkpt>
      <trkpt lat="43.41982" lon="6.05423">
        <ele>253.19999694824</ele>
        <time>2015-09-09T12:22:10Z</time>
      </trkpt>
      <trkpt lat="43.41978" lon="6.05407">
        <ele>252.19999694824</ele>
        <time>2015-09-09T12:22:12Z</time>
      </trkpt>
      <trkpt lat="43.41973" lon="6.05391">
        <ele>251.60000610352</ele>
        <time>2015-09-09T12:22:14Z</time>
      </trkpt>
      <trkpt lat="43.41969" lon="6.05374">
        <ele>251.19999694824</ele>
        <time>2015-09-09T12:22:16Z</time>
      </trkpt>
      <trkpt lat="43.41965" lon="6.05355">
        <ele>250.60000610352</ele>
        <time>2015-09-09T12:22:18Z</time>
      </trkpt>
      <trkpt lat="43.41957" lon="6.05324">
        <ele>249.19999694824</ele>
        <time>2015-09-09T12:22:21Z</time>
      </trkpt>
      <trkpt lat="43.41956" lon="6.05314">
        <ele>248.80000305176</ele>
        <time>2015-09-09T12:22:22Z</time>
      </trkpt>
      <trkpt lat="43.41951" lon="6.05292">
        <ele>247</ele>
        <time>2015-09-09T12:22:24Z</time>
      </trkpt>
      <trkpt lat="43.41949" lon="6.0528">
        <ele>246.60000610352</ele>
        <time>2015-09-09T12:22:25Z</time>
      </trkpt>
      <trkpt lat="43.41946" lon="6.05268">
        <ele>246.39999389648</ele>
        <time>2015-09-09T12:22:26Z</time>
      </trkpt>
      <trkpt lat="43.41945" lon="6.05256">
        <ele>245.80000305176</ele>
        <time>2015-09-09T12:22:27Z</time>
      </trkpt>
      <trkpt lat="43.41943" lon="6.05243">
        <ele>245.19999694824</ele>
        <time>2015-09-09T12:22:28Z</time>
      </trkpt>
      <trkpt lat="43.41941" lon="6.05218">
        <ele>244.60000610352</ele>
        <time>2015-09-09T12:22:30Z</time>
      </trkpt>
      <trkpt lat="43.4194" lon="6.05207">
        <ele>244</ele>
        <time>2015-09-09T12:22:31Z</time>
      </trkpt>
      <trkpt lat="43.4194" lon="6.05198">
        <ele>243.80000305176</ele>
        <time>2015-09-09T12:22:32Z</time>
      </trkpt>
      <trkpt lat="43.41938" lon="6.05179">
        <ele>242.80000305176</ele>
        <time>2015-09-09T12:22:34Z</time>
      </trkpt>
      <trkpt lat="43.41939" lon="6.05163">
        <ele>241.60000610352</ele>
        <time>2015-09-09T12:22:36Z</time>
      </trkpt>
      <trkpt lat="43.4194" lon="6.05156">
        <ele>241</ele>
        <time>2015-09-09T12:22:37Z</time>
      </trkpt>
      <trkpt lat="43.41944" lon="6.05152">
        <ele>240.60000610352</ele>
        <time>2015-09-09T12:22:38Z</time>
      </trkpt>
      <trkpt lat="43.41948" lon="6.05148">
        <ele>240.39999389648</ele>
        <time>2015-09-09T12:22:39Z</time>
      </trkpt>
      <trkpt lat="43.41951" lon="6.05145">
        <ele>240.39999389648</ele>
        <time>2015-09-09T12:22:40Z</time>
      </trkpt>
      <trkpt lat="43.4196" lon="6.05142">
        <ele>240.60000610352</ele>
        <time>2015-09-09T12:22:42Z</time>
      </trkpt>
      <trkpt lat="43.41964" lon="6.05141">
        <ele>240.80000305176</ele>
        <time>2015-09-09T12:22:43Z</time>
      </trkpt>
      <trkpt lat="43.41968" lon="6.0514">
        <ele>241.19999694824</ele>
        <time>2015-09-09T12:22:44Z</time>
      </trkpt>
      <trkpt lat="43.41975" lon="6.05137">
        <ele>241.60000610352</ele>
        <time>2015-09-09T12:22:46Z</time>
      </trkpt>
      <trkpt lat="43.41982" lon="6.05135">
        <ele>242</ele>
        <time>2015-09-09T12:22:48Z</time>
      </trkpt>
      <trkpt lat="43.41986" lon="6.05134">
        <ele>242.19999694824</ele>
        <time>2015-09-09T12:22:49Z</time>
      </trkpt>
      <trkpt lat="43.4199" lon="6.05134">
        <ele>242.39999389648</ele>
        <time>2015-09-09T12:22:50Z</time>
      </trkpt>
      <trkpt lat="43.42001" lon="6.05133">
        <ele>242.80000305176</ele>
        <time>2015-09-09T12:22:53Z</time>
      </trkpt>
      <trkpt lat="43.42004" lon="6.05132">
        <ele>243.19999694824</ele>
        <time>2015-09-09T12:22:54Z</time>
      </trkpt>
      <trkpt lat="43.42012" lon="6.05129">
        <ele>243.39999389648</ele>
        <time>2015-09-09T12:22:56Z</time>
      </trkpt>
      <trkpt lat="43.4202" lon="6.05126">
        <ele>243.60000610352</ele>
        <time>2015-09-09T12:22:58Z</time>
      </trkpt>
      <trkpt lat="43.42028" lon="6.05124">
        <ele>243.60000610352</ele>
        <time>2015-09-09T12:23:00Z</time>
      </trkpt>
      <trkpt lat="43.42032" lon="6.05123">
        <ele>243.60000610352</ele>
        <time>2015-09-09T12:23:01Z</time>
      </trkpt>
      <trkpt lat="43.42036" lon="6.05122">
        <ele>243.80000305176</ele>
        <time>2015-09-09T12:23:02Z</time>
      </trkpt>
      <trkpt lat="43.42039" lon="6.05121">
        <ele>244</ele>
        <time>2015-09-09T12:23:03Z</time>
      </trkpt>
      <trkpt lat="43.42043" lon="6.05121">
        <ele>244</ele>
        <time>2015-09-09T12:23:04Z</time>
      </trkpt>
      <trkpt lat="43.4205" lon="6.05119">
        <ele>244.19999694824</ele>
        <time>2015-09-09T12:23:06Z</time>
      </trkpt>
      <trkpt lat="43.42057" lon="6.05118">
        <ele>244.19999694824</ele>
        <time>2015-09-09T12:23:08Z</time>
      </trkpt>
      <trkpt lat="43.4206" lon="6.05118">
        <ele>244.39999389648</ele>
        <time>2015-09-09T12:23:09Z</time>
      </trkpt>
      <trkpt lat="43.42063" lon="6.05117">
        <ele>244.60000610352</ele>
        <time>2015-09-09T12:23:10Z</time>
      </trkpt>
      <trkpt lat="43.42067" lon="6.05117">
        <ele>245</ele>
        <time>2015-09-09T12:23:11Z</time>
      </trkpt>
      <trkpt lat="43.42076" lon="6.05116">
        <ele>245.19999694824</ele>
        <time>2015-09-09T12:23:14Z</time>
      </trkpt>
      <trkpt lat="43.42083" lon="6.05116">
        <ele>245.39999389648</ele>
        <time>2015-09-09T12:23:16Z</time>
      </trkpt>
      <trkpt lat="43.42089" lon="6.05116">
        <ele>245.80000305176</ele>
        <time>2015-09-09T12:23:18Z</time>
      </trkpt>
      <trkpt lat="43.42102" lon="6.05116">
        <ele>246.80000305176</ele>
        <time>2015-09-09T12:23:22Z</time>
      </trkpt>
      <trkpt lat="43.42109" lon="6.05116">
        <ele>247.19999694824</ele>
        <time>2015-09-09T12:23:24Z</time>
      </trkpt>
      <trkpt lat="43.42115" lon="6.05115">
        <ele>247</ele>
        <time>2015-09-09T12:23:26Z</time>
      </trkpt>
      <trkpt lat="43.4212" lon="6.05116">
        <ele>247.80000305176</ele>
        <time>2015-09-09T12:23:28Z</time>
      </trkpt>
      <trkpt lat="43.42125" lon="6.05119">
        <ele>248.19999694824</ele>
        <time>2015-09-09T12:23:30Z</time>
      </trkpt>
      <trkpt lat="43.42127" lon="6.05121">
        <ele>248.19999694824</ele>
        <time>2015-09-09T12:23:31Z</time>
      </trkpt>
      <trkpt lat="43.42128" lon="6.05123">
        <ele>248.39999389648</ele>
        <time>2015-09-09T12:23:32Z</time>
      </trkpt>
      <trkpt lat="43.42132" lon="6.05127">
        <ele>249</ele>
        <time>2015-09-09T12:23:34Z</time>
      </trkpt>
      <trkpt lat="43.42136" lon="6.05132">
        <ele>248.80000305176</ele>
        <time>2015-09-09T12:23:36Z</time>
      </trkpt>
      <trkpt lat="43.42137" lon="6.05134">
        <ele>249</ele>
        <time>2015-09-09T12:23:37Z</time>
      </trkpt>
      <trkpt lat="43.42141" lon="6.05141">
        <ele>249.39999389648</ele>
        <time>2015-09-09T12:23:40Z</time>
      </trkpt>
      <trkpt lat="43.42144" lon="6.05145">
        <ele>249.80000305176</ele>
        <time>2015-09-09T12:23:42Z</time>
      </trkpt>
      <trkpt lat="43.42147" lon="6.0515">
        <ele>250</ele>
        <time>2015-09-09T12:23:44Z</time>
      </trkpt>
      <trkpt lat="43.42151" lon="6.05154">
        <ele>249.80000305176</ele>
        <time>2015-09-09T12:23:46Z</time>
      </trkpt>
      <trkpt lat="43.42152" lon="6.05155">
        <ele>250</ele>
        <time>2015-09-09T12:23:47Z</time>
      </trkpt>
      <trkpt lat="43.42154" lon="6.05156">
        <ele>250.19999694824</ele>
        <time>2015-09-09T12:23:48Z</time>
      </trkpt>
      <trkpt lat="43.42156" lon="6.05158">
        <ele>249.80000305176</ele>
        <time>2015-09-09T12:23:50Z</time>
      </trkpt>
      <trkpt lat="43.42159" lon="6.0516">
        <ele>249.80000305176</ele>
        <time>2015-09-09T12:23:52Z</time>
      </trkpt>
      <trkpt lat="43.42162" lon="6.05162">
        <ele>250</ele>
        <time>2015-09-09T12:23:54Z</time>
      </trkpt>
      <trkpt lat="43.4217" lon="6.05168">
        <ele>250.19999694824</ele>
        <time>2015-09-09T12:24:00Z</time>
      </trkpt>
      <trkpt lat="43.42173" lon="6.05169">
        <ele>250.39999389648</ele>
        <time>2015-09-09T12:24:02Z</time>
      </trkpt>
      <trkpt lat="43.42175" lon="6.0517">
        <ele>250.60000610352</ele>
        <time>2015-09-09T12:24:04Z</time>
      </trkpt>
      <trkpt lat="43.42176" lon="6.0517">
        <ele>250.60000610352</ele>
        <time>2015-09-09T12:24:05Z</time>
      </trkpt>
      <trkpt lat="43.42177" lon="6.05171">
        <ele>250.39999389648</ele>
        <time>2015-09-09T12:24:06Z</time>
      </trkpt>
      <trkpt lat="43.4218" lon="6.05169">
        <ele>250.60000610352</ele>
        <time>2015-09-09T12:24:08Z</time>
      </trkpt>
      <trkpt lat="43.42183" lon="6.05169">
        <ele>250.60000610352</ele>
        <time>2015-09-09T12:24:10Z</time>
      </trkpt>
      <trkpt lat="43.42185" lon="6.05174">
        <ele>250.60000610352</ele>
        <time>2015-09-09T12:24:12Z</time>
      </trkpt>
      <trkpt lat="43.42187" lon="6.05177">
        <ele>250.80000305176</ele>
        <time>2015-09-09T12:24:14Z</time>
      </trkpt>
      <trkpt lat="43.4219" lon="6.05178">
        <ele>250.80000305176</ele>
        <time>2015-09-09T12:24:16Z</time>
      </trkpt>
      <trkpt lat="43.42192" lon="6.05181">
        <ele>251</ele>
        <time>2015-09-09T12:24:18Z</time>
      </trkpt>
      <trkpt lat="43.42194" lon="6.05183">
        <ele>251</ele>
        <time>2015-09-09T12:24:20Z</time>
      </trkpt>
      <trkpt lat="43.42196" lon="6.05184">
        <ele>251.19999694824</ele>
        <time>2015-09-09T12:24:21Z</time>
      </trkpt>
      <trkpt lat="43.42197" lon="6.05184">
        <ele>251.19999694824</ele>
        <time>2015-09-09T12:24:22Z</time>
      </trkpt>
      <trkpt lat="43.42197" lon="6.05185">
        <ele>251</ele>
        <time>2015-09-09T12:24:24Z</time>
      </trkpt>
      <trkpt lat="43.42197" lon="6.05186">
        <ele>251.39999389648</ele>
        <time>2015-09-09T12:24:26Z</time>
      </trkpt>
      <trkpt lat="43.42198" lon="6.05186">
        <ele>251.39999389648</ele>
        <time>2015-09-09T12:24:27Z</time>
      </trkpt>
      <trkpt lat="43.42198" lon="6.05186">
        <ele>251.60000610352</ele>
        <time>2015-09-09T12:24:28Z</time>
      </trkpt>
      <trkpt lat="43.42199" lon="6.05187">
        <ele>251.19999694824</ele>
        <time>2015-09-09T12:24:30Z</time>
      </trkpt>
      <trkpt lat="43.42202" lon="6.05188">
        <ele>251.19999694824</ele>
        <time>2015-09-09T12:24:32Z</time>
      </trkpt>
      <trkpt lat="43.42205" lon="6.0519">
        <ele>251.39999389648</ele>
        <time>2015-09-09T12:24:34Z</time>
      </trkpt>
      <trkpt lat="43.42209" lon="6.05192">
        <ele>251.60000610352</ele>
        <time>2015-09-09T12:24:36Z</time>
      </trkpt>
      <trkpt lat="43.42213" lon="6.05195">
        <ele>252.19999694824</ele>
        <time>2015-09-09T12:24:38Z</time>
      </trkpt>
      <trkpt lat="43.42219" lon="6.05196">
        <ele>252.19999694824</ele>
        <time>2015-09-09T12:24:41Z</time>
      </trkpt>
      <trkpt lat="43.42221" lon="6.05197">
        <ele>252.39999389648</ele>
        <time>2015-09-09T12:24:42Z</time>
      </trkpt>
      <trkpt lat="43.42223" lon="6.05198">
        <ele>252.60000610352</ele>
        <time>2015-09-09T12:24:43Z</time>
      </trkpt>
      <trkpt lat="43.42224" lon="6.05199">
        <ele>252.60000610352</ele>
        <time>2015-09-09T12:24:44Z</time>
      </trkpt>
      <trkpt lat="43.42229" lon="6.05208">
        <ele>253</ele>
        <time>2015-09-09T12:24:48Z</time>
      </trkpt>
      <trkpt lat="43.42232" lon="6.05212">
        <ele>253.39999389648</ele>
        <time>2015-09-09T12:24:50Z</time>
      </trkpt>
      <trkpt lat="43.42233" lon="6.05213">
        <ele>253.60000610352</ele>
        <time>2015-09-09T12:24:51Z</time>
      </trkpt>
      <trkpt lat="43.42235" lon="6.05215">
        <ele>253.80000305176</ele>
        <time>2015-09-09T12:24:52Z</time>
      </trkpt>
      <trkpt lat="43.42239" lon="6.05216">
        <ele>253.80000305176</ele>
        <time>2015-09-09T12:24:54Z</time>
      </trkpt>
      <trkpt lat="43.42241" lon="6.05216">
        <ele>253.80000305176</ele>
        <time>2015-09-09T12:24:55Z</time>
      </trkpt>
      <trkpt lat="43.42247" lon="6.05216">
        <ele>254.39999389648</ele>
        <time>2015-09-09T12:24:58Z</time>
      </trkpt>
      <trkpt lat="43.42252" lon="6.05216">
        <ele>254.60000610352</ele>
        <time>2015-09-09T12:25:00Z</time>
      </trkpt>
      <trkpt lat="43.42256" lon="6.05217">
        <ele>254.39999389648</ele>
        <time>2015-09-09T12:25:02Z</time>
      </trkpt>
      <trkpt lat="43.42262" lon="6.05217">
        <ele>254.80000305176</ele>
        <time>2015-09-09T12:25:04Z</time>
      </trkpt>
      <trkpt lat="43.42267" lon="6.05217">
        <ele>255</ele>
        <time>2015-09-09T12:25:06Z</time>
      </trkpt>
      <trkpt lat="43.42277" lon="6.05218">
        <ele>254.80000305176</ele>
        <time>2015-09-09T12:25:10Z</time>
      </trkpt>
      <trkpt lat="43.42282" lon="6.05219">
        <ele>255</ele>
        <time>2015-09-09T12:25:12Z</time>
      </trkpt>
      <trkpt lat="43.42285" lon="6.05219">
        <ele>255.19999694824</ele>
        <time>2015-09-09T12:25:13Z</time>
      </trkpt>
      <trkpt lat="43.42297" lon="6.05222">
        <ele>255.60000610352</ele>
        <time>2015-09-09T12:25:18Z</time>
      </trkpt>
      <trkpt lat="43.42299" lon="6.05224">
        <ele>255.80000305176</ele>
        <time>2015-09-09T12:25:19Z</time>
      </trkpt>
      <trkpt lat="43.42305" lon="6.05226">
        <ele>256.20001220703</ele>
        <time>2015-09-09T12:25:22Z</time>
      </trkpt>
      <trkpt lat="43.42314" lon="6.05227">
        <ele>256.79998779297</ele>
        <time>2015-09-09T12:25:26Z</time>
      </trkpt>
      <trkpt lat="43.42319" lon="6.05228">
        <ele>257.20001220703</ele>
        <time>2015-09-09T12:25:29Z</time>
      </trkpt>
      <trkpt lat="43.42322" lon="6.05229">
        <ele>257.60000610352</ele>
        <time>2015-09-09T12:25:30Z</time>
      </trkpt>
      <trkpt lat="43.42326" lon="6.05231">
        <ele>257.79998779297</ele>
        <time>2015-09-09T12:25:32Z</time>
      </trkpt>
      <trkpt lat="43.4233" lon="6.05233">
        <ele>258.39999389648</ele>
        <time>2015-09-09T12:25:35Z</time>
      </trkpt>
      <trkpt lat="43.42332" lon="6.05233">
        <ele>258.60000610352</ele>
        <time>2015-09-09T12:25:36Z</time>
      </trkpt>
      <trkpt lat="43.42335" lon="6.05235">
        <ele>259</ele>
        <time>2015-09-09T12:25:38Z</time>
      </trkpt>
      <trkpt lat="43.42338" lon="6.05235">
        <ele>259.39999389648</ele>
        <time>2015-09-09T12:25:40Z</time>
      </trkpt>
      <trkpt lat="43.42348" lon="6.05235">
        <ele>260.20001220703</ele>
        <time>2015-09-09T12:25:46Z</time>
      </trkpt>
      <trkpt lat="43.42352" lon="6.05235">
        <ele>260.20001220703</ele>
        <time>2015-09-09T12:25:48Z</time>
      </trkpt>
      <trkpt lat="43.42354" lon="6.05234">
        <ele>260.39999389648</ele>
        <time>2015-09-09T12:25:49Z</time>
      </trkpt>
      <trkpt lat="43.42359" lon="6.05232">
        <ele>260.39999389648</ele>
        <time>2015-09-09T12:25:52Z</time>
      </trkpt>
      <trkpt lat="43.42363" lon="6.05231">
        <ele>260.60000610352</ele>
        <time>2015-09-09T12:25:54Z</time>
      </trkpt>
      <trkpt lat="43.42367" lon="6.05229">
        <ele>261.20001220703</ele>
        <time>2015-09-09T12:25:56Z</time>
      </trkpt>
      <trkpt lat="43.42368" lon="6.05229">
        <ele>261.39999389648</ele>
        <time>2015-09-09T12:25:57Z</time>
      </trkpt>
      <trkpt lat="43.4237" lon="6.05229">
        <ele>261.60000610352</ele>
        <time>2015-09-09T12:25:58Z</time>
      </trkpt>
      <trkpt lat="43.42377" lon="6.05229">
        <ele>262</ele>
        <time>2015-09-09T12:26:02Z</time>
      </trkpt>
      <trkpt lat="43.42383" lon="6.05229">
        <ele>262.60000610352</ele>
        <time>2015-09-09T12:26:05Z</time>
      </trkpt>
      <trkpt lat="43.42385" lon="6.05228">
        <ele>262.60000610352</ele>
        <time>2015-09-09T12:26:06Z</time>
      </trkpt>
      <trkpt lat="43.42389" lon="6.05228">
        <ele>262.60000610352</ele>
        <time>2015-09-09T12:26:08Z</time>
      </trkpt>
      <trkpt lat="43.42392" lon="6.05227">
        <ele>262.79998779297</ele>
        <time>2015-09-09T12:26:10Z</time>
      </trkpt>
      <trkpt lat="43.42396" lon="6.05226">
        <ele>263</ele>
        <time>2015-09-09T12:26:12Z</time>
      </trkpt>
      <trkpt lat="43.424" lon="6.05225">
        <ele>263.20001220703</ele>
        <time>2015-09-09T12:26:14Z</time>
      </trkpt>
      <trkpt lat="43.42402" lon="6.05224">
        <ele>263.39999389648</ele>
        <time>2015-09-09T12:26:15Z</time>
      </trkpt>
      <trkpt lat="43.42403" lon="6.05224">
        <ele>263.39999389648</ele>
        <time>2015-09-09T12:26:16Z</time>
      </trkpt>
      <trkpt lat="43.42412" lon="6.05224">
        <ele>263.79998779297</ele>
        <time>2015-09-09T12:26:20Z</time>
      </trkpt>
      <trkpt lat="43.42414" lon="6.05224">
        <ele>263.79998779297</ele>
        <time>2015-09-09T12:26:21Z</time>
      </trkpt>
      <trkpt lat="43.42419" lon="6.05225">
        <ele>263.60000610352</ele>
        <time>2015-09-09T12:26:24Z</time>
      </trkpt>
      <trkpt lat="43.42424" lon="6.05225">
        <ele>263.60000610352</ele>
        <time>2015-09-09T12:26:26Z</time>
      </trkpt>
      <trkpt lat="43.42428" lon="6.05224">
        <ele>263.79998779297</ele>
        <time>2015-09-09T12:26:28Z</time>
      </trkpt>
      <trkpt lat="43.42431" lon="6.05226">
        <ele>263.60000610352</ele>
        <time>2015-09-09T12:26:30Z</time>
      </trkpt>
      <trkpt lat="43.42435" lon="6.05225">
        <ele>263.60000610352</ele>
        <time>2015-09-09T12:26:32Z</time>
      </trkpt>
      <trkpt lat="43.4244" lon="6.05225">
        <ele>264</ele>
        <time>2015-09-09T12:26:34Z</time>
      </trkpt>
      <trkpt lat="43.42444" lon="6.05223">
        <ele>264.39999389648</ele>
        <time>2015-09-09T12:26:36Z</time>
      </trkpt>
      <trkpt lat="43.4245" lon="6.0522">
        <ele>264.60000610352</ele>
        <time>2015-09-09T12:26:38Z</time>
      </trkpt>
      <trkpt lat="43.42455" lon="6.05219">
        <ele>265.60000610352</ele>
        <time>2015-09-09T12:26:40Z</time>
      </trkpt>
      <trkpt lat="43.42457" lon="6.05217">
        <ele>266</ele>
        <time>2015-09-09T12:26:41Z</time>
      </trkpt>
      <trkpt lat="43.42458" lon="6.05217">
        <ele>266.20001220703</ele>
        <time>2015-09-09T12:26:42Z</time>
      </trkpt>
      <trkpt lat="43.42461" lon="6.05215">
        <ele>266.60000610352</ele>
        <time>2015-09-09T12:26:44Z</time>
      </trkpt>
      <trkpt lat="43.42463" lon="6.05215">
        <ele>267.60000610352</ele>
        <time>2015-09-09T12:26:46Z</time>
      </trkpt>
      <trkpt lat="43.42466" lon="6.05215">
        <ele>268</ele>
        <time>2015-09-09T12:26:48Z</time>
      </trkpt>
      <trkpt lat="43.42469" lon="6.05216">
        <ele>268</ele>
        <time>2015-09-09T12:26:50Z</time>
      </trkpt>
      <trkpt lat="43.42472" lon="6.05216">
        <ele>268.20001220703</ele>
        <time>2015-09-09T12:26:52Z</time>
      </trkpt>
      <trkpt lat="43.42474" lon="6.05216">
        <ele>268.39999389648</ele>
        <time>2015-09-09T12:26:53Z</time>
      </trkpt>
      <trkpt lat="43.42476" lon="6.05217">
        <ele>268.39999389648</ele>
        <time>2015-09-09T12:26:54Z</time>
      </trkpt>
      <trkpt lat="43.4248" lon="6.05218">
        <ele>268</ele>
        <time>2015-09-09T12:26:56Z</time>
      </trkpt>
      <trkpt lat="43.42484" lon="6.05219">
        <ele>267.79998779297</ele>
        <time>2015-09-09T12:26:58Z</time>
      </trkpt>
      <trkpt lat="43.42488" lon="6.05221">
        <ele>268.20001220703</ele>
        <time>2015-09-09T12:27:00Z</time>
      </trkpt>
      <trkpt lat="43.42494" lon="6.05224">
        <ele>267.60000610352</ele>
        <time>2015-09-09T12:27:02Z</time>
      </trkpt>
      <trkpt lat="43.42498" lon="6.05226">
        <ele>267.79998779297</ele>
        <time>2015-09-09T12:27:04Z</time>
      </trkpt>
      <trkpt lat="43.42502" lon="6.05226">
        <ele>267.79998779297</ele>
        <time>2015-09-09T12:27:06Z</time>
      </trkpt>
      <trkpt lat="43.42506" lon="6.05227">
        <ele>267.79998779297</ele>
        <time>2015-09-09T12:27:08Z</time>
      </trkpt>
      <trkpt lat="43.4251" lon="6.05227">
        <ele>268.20001220703</ele>
        <time>2015-09-09T12:27:10Z</time>
      </trkpt>
      <trkpt lat="43.42514" lon="6.05227">
        <ele>267.79998779297</ele>
        <time>2015-09-09T12:27:12Z</time>
      </trkpt>
      <trkpt lat="43.42519" lon="6.05227">
        <ele>267.60000610352</ele>
        <time>2015-09-09T12:27:14Z</time>
      </trkpt>
      <trkpt lat="43.42524" lon="6.05227">
        <ele>267.79998779297</ele>
        <time>2015-09-09T12:27:16Z</time>
      </trkpt>
      <trkpt lat="43.42529" lon="6.05227">
        <ele>268.39999389648</ele>
        <time>2015-09-09T12:27:18Z</time>
      </trkpt>
      <trkpt lat="43.42531" lon="6.05227">
        <ele>268.39999389648</ele>
        <time>2015-09-09T12:27:19Z</time>
      </trkpt>
      <trkpt lat="43.42533" lon="6.05227">
        <ele>268.39999389648</ele>
        <time>2015-09-09T12:27:20Z</time>
      </trkpt>
      <trkpt lat="43.42538" lon="6.05226">
        <ele>268.39999389648</ele>
        <time>2015-09-09T12:27:22Z</time>
      </trkpt>
      <trkpt lat="43.42544" lon="6.05226">
        <ele>268.60000610352</ele>
        <time>2015-09-09T12:27:24Z</time>
      </trkpt>
      <trkpt lat="43.42546" lon="6.05225">
        <ele>269.20001220703</ele>
        <time>2015-09-09T12:27:25Z</time>
      </trkpt>
      <trkpt lat="43.42548" lon="6.05225">
        <ele>269.60000610352</ele>
        <time>2015-09-09T12:27:26Z</time>
      </trkpt>
      <trkpt lat="43.4255" lon="6.05224">
        <ele>269.60000610352</ele>
        <time>2015-09-09T12:27:28Z</time>
      </trkpt>
      <trkpt lat="43.42551" lon="6.05224">
        <ele>269.60000610352</ele>
        <time>2015-09-09T12:27:29Z</time>
      </trkpt>
      <trkpt lat="43.42552" lon="6.05223">
        <ele>269.79998779297</ele>
        <time>2015-09-09T12:27:30Z</time>
      </trkpt>
      <trkpt lat="43.42558" lon="6.05222">
        <ele>270.39999389648</ele>
        <time>2015-09-09T12:27:34Z</time>
      </trkpt>
      <trkpt lat="43.42562" lon="6.05222">
        <ele>270.79998779297</ele>
        <time>2015-09-09T12:27:36Z</time>
      </trkpt>
      <trkpt lat="43.42567" lon="6.05223">
        <ele>271</ele>
        <time>2015-09-09T12:27:38Z</time>
      </trkpt>
      <trkpt lat="43.42577" lon="6.05226">
        <ele>271.20001220703</ele>
        <time>2015-09-09T12:27:42Z</time>
      </trkpt>
      <trkpt lat="43.42582" lon="6.0523">
        <ele>270.79998779297</ele>
        <time>2015-09-09T12:27:44Z</time>
      </trkpt>
      <trkpt lat="43.42586" lon="6.05234">
        <ele>270.60000610352</ele>
        <time>2015-09-09T12:27:46Z</time>
      </trkpt>
      <trkpt lat="43.42588" lon="6.05236">
        <ele>270.79998779297</ele>
        <time>2015-09-09T12:27:48Z</time>
      </trkpt>
      <trkpt lat="43.42592" lon="6.05238">
        <ele>270.79998779297</ele>
        <time>2015-09-09T12:27:50Z</time>
      </trkpt>
      <trkpt lat="43.42595" lon="6.0524">
        <ele>270.79998779297</ele>
        <time>2015-09-09T12:27:52Z</time>
      </trkpt>
      <trkpt lat="43.42597" lon="6.05242">
        <ele>271</ele>
        <time>2015-09-09T12:27:54Z</time>
      </trkpt>
      <trkpt lat="43.42599" lon="6.05245">
        <ele>271</ele>
        <time>2015-09-09T12:27:56Z</time>
      </trkpt>
      <trkpt lat="43.42606" lon="6.05251">
        <ele>271</ele>
        <time>2015-09-09T12:28:00Z</time>
      </trkpt>
      <trkpt lat="43.42609" lon="6.05254">
        <ele>271</ele>
        <time>2015-09-09T12:28:02Z</time>
      </trkpt>
      <trkpt lat="43.42613" lon="6.05258">
        <ele>272.39999389648</ele>
        <time>2015-09-09T12:28:04Z</time>
      </trkpt>
      <trkpt lat="43.42617" lon="6.0526">
        <ele>272.79998779297</ele>
        <time>2015-09-09T12:28:06Z</time>
      </trkpt>
      <trkpt lat="43.42619" lon="6.05262">
        <ele>272.60000610352</ele>
        <time>2015-09-09T12:28:07Z</time>
      </trkpt>
      <trkpt lat="43.42623" lon="6.05265">
        <ele>272.79998779297</ele>
        <time>2015-09-09T12:28:10Z</time>
      </trkpt>
      <trkpt lat="43.42625" lon="6.05267">
        <ele>273</ele>
        <time>2015-09-09T12:28:12Z</time>
      </trkpt>
      <trkpt lat="43.42626" lon="6.05267">
        <ele>273</ele>
        <time>2015-09-09T12:28:14Z</time>
      </trkpt>
      <trkpt lat="43.42626" lon="6.05268">
        <ele>273</ele>
        <time>2015-09-09T12:28:16Z</time>
      </trkpt>
      <trkpt lat="43.42625" lon="6.05268">
        <ele>273</ele>
        <time>2015-09-09T12:28:18Z</time>
      </trkpt>
      <trkpt lat="43.42626" lon="6.05268">
        <ele>272.79998779297</ele>
        <time>2015-09-09T12:28:20Z</time>
      </trkpt>
      <trkpt lat="43.42626" lon="6.05268">
        <ele>273</ele>
        <time>2015-09-09T12:28:22Z</time>
      </trkpt>
      <trkpt lat="43.42626" lon="6.05268">
        <ele>273</ele>
        <time>2015-09-09T12:28:24Z</time>
      </trkpt>
      <trkpt lat="43.42626" lon="6.05268">
        <ele>273</ele>
        <time>2015-09-09T12:28:28Z</time>
      </trkpt>
      <trkpt lat="43.42626" lon="6.05268">
        <ele>273.20001220703</ele>
        <time>2015-09-09T12:28:32Z</time>
      </trkpt>
      <trkpt lat="43.42626" lon="6.05268">
        <ele>273.20001220703</ele>
        <time>2015-09-09T12:28:34Z</time>
      </trkpt>
      <trkpt lat="43.42626" lon="6.05268">
        <ele>273.39999389648</ele>
        <time>2015-09-09T12:28:37Z</time>
      </trkpt>
      <trkpt lat="43.42627" lon="6.05268">
        <ele>273.20001220703</ele>
        <time>2015-09-09T12:28:40Z</time>
      </trkpt>
      <trkpt lat="43.42627" lon="6.05268">
        <ele>272.79998779297</ele>
        <time>2015-09-09T12:28:42Z</time>
      </trkpt>
      <trkpt lat="43.42627" lon="6.05268">
        <ele>273</ele>
        <time>2015-09-09T12:28:44Z</time>
      </trkpt>
      <trkpt lat="43.42627" lon="6.05268">
        <ele>273.20001220703</ele>
        <time>2015-09-09T12:28:46Z</time>
      </trkpt>
      <trkpt lat="43.42627" lon="6.05268">
        <ele>273</ele>
        <time>2015-09-09T12:28:48Z</time>
      </trkpt>
      <trkpt lat="43.42627" lon="6.05268">
        <ele>273</ele>
        <time>2015-09-09T12:28:49Z</time>
      </trkpt>
      <trkpt lat="43.42627" lon="6.05268">
        <ele>273.20001220703</ele>
        <time>2015-09-09T12:28:54Z</time>
      </trkpt>
      <trkpt lat="43.42627" lon="6.05269">
        <ele>273</ele>
        <time>2015-09-09T12:29:00Z</time>
      </trkpt>
      <trkpt lat="43.42627" lon="6.05268">
        <ele>272.79998779297</ele>
        <time>2015-09-09T12:29:26Z</time>
      </trkpt>
      <trkpt lat="43.42627" lon="6.05268">
        <ele>272.60000610352</ele>
        <time>2015-09-09T12:29:28Z</time>
      </trkpt>
      <trkpt lat="43.42627" lon="6.05268">
        <ele>272.60000610352</ele>
        <time>2015-09-09T12:29:30Z</time>
      </trkpt>
      <trkpt lat="43.42627" lon="6.05268">
        <ele>272.20001220703</ele>
        <time>2015-09-09T12:29:32Z</time>
      </trkpt>
      <trkpt lat="43.42627" lon="6.05267">
        <ele>272.20001220703</ele>
        <time>2015-09-09T12:29:33Z</time>
      </trkpt>
      <trkpt lat="43.42627" lon="6.05267">
        <ele>272.39999389648</ele>
        <time>2015-09-09T12:29:34Z</time>
      </trkpt>
      <trkpt lat="43.42627" lon="6.05267">
        <ele>272.39999389648</ele>
        <time>2015-09-09T12:29:36Z</time>
      </trkpt>
      <trkpt lat="43.42627" lon="6.05267">
        <ele>272.60000610352</ele>
        <time>2015-09-09T12:29:38Z</time>
      </trkpt>
      <trkpt lat="43.42627" lon="6.05267">
        <ele>272.39999389648</ele>
        <time>2015-09-09T12:29:40Z</time>
      </trkpt>
      <trkpt lat="43.42627" lon="6.05267">
        <ele>272.20001220703</ele>
        <time>2015-09-09T12:29:43Z</time>
      </trkpt>
      <trkpt lat="43.42627" lon="6.05267">
        <ele>272.39999389648</ele>
        <time>2015-09-09T12:29:46Z</time>
      </trkpt>
      <trkpt lat="43.42627" lon="6.05267">
        <ele>272.60000610352</ele>
        <time>2015-09-09T12:29:50Z</time>
      </trkpt>
      <trkpt lat="43.42627" lon="6.05267">
        <ele>272.39999389648</ele>
        <time>2015-09-09T12:29:52Z</time>
      </trkpt>
      <trkpt lat="43.42627" lon="6.05267">
        <ele>272.39999389648</ele>
        <time>2015-09-09T12:29:54Z</time>
      </trkpt>
      <trkpt lat="43.42626" lon="6.05267">
        <ele>272.39999389648</ele>
        <time>2015-09-09T12:29:56Z</time>
      </trkpt>
      <trkpt lat="43.42626" lon="6.05267">
        <ele>272.60000610352</ele>
        <time>2015-09-09T12:29:58Z</time>
      </trkpt>
      <trkpt lat="43.42626" lon="6.05268">
        <ele>272.39999389648</ele>
        <time>2015-09-09T12:30:00Z</time>
      </trkpt>
      <trkpt lat="43.42626" lon="6.05268">
        <ele>272.39999389648</ele>
        <time>2015-09-09T12:30:02Z</time>
      </trkpt>
      <trkpt lat="43.42626" lon="6.05268">
        <ele>272.20001220703</ele>
        <time>2015-09-09T12:30:06Z</time>
      </trkpt>
      <trkpt lat="43.42626" lon="6.05268">
        <ele>272</ele>
        <time>2015-09-09T12:30:12Z</time>
      </trkpt>
      <trkpt lat="43.42626" lon="6.05268">
        <ele>272</ele>
        <time>2015-09-09T12:30:18Z</time>
      </trkpt>
      <trkpt lat="43.42625" lon="6.05268">
        <ele>272.39999389648</ele>
        <time>2015-09-09T12:30:20Z</time>
      </trkpt>
      <trkpt lat="43.42625" lon="6.05268">
        <ele>272.39999389648</ele>
        <time>2015-09-09T12:30:22Z</time>
      </trkpt>
      <trkpt lat="43.42625" lon="6.05268">
        <ele>272.20001220703</ele>
        <time>2015-09-09T12:30:28Z</time>
      </trkpt>
      <trkpt lat="43.42625" lon="6.05268">
        <ele>272.39999389648</ele>
        <time>2015-09-09T12:30:32Z</time>
      </trkpt>
      <trkpt lat="43.42625" lon="6.05268">
        <ele>272.39999389648</ele>
        <time>2015-09-09T12:30:38Z</time>
      </trkpt>
      <trkpt lat="43.42626" lon="6.05268">
        <ele>272.60000610352</ele>
        <time>2015-09-09T12:30:39Z</time>
      </trkpt>
      <trkpt lat="43.42626" lon="6.05268">
        <ele>272.60000610352</ele>
        <time>2015-09-09T12:30:40Z</time>
      </trkpt>
      <trkpt lat="43.42626" lon="6.05268">
        <ele>272.60000610352</ele>
        <time>2015-09-09T12:30:46Z</time>
      </trkpt>
      <trkpt lat="43.42626" lon="6.05268">
        <ele>272.60000610352</ele>
        <time>2015-09-09T12:30:56Z</time>
      </trkpt>
      <trkpt lat="43.42626" lon="6.05268">
        <ele>273.39999389648</ele>
        <time>2015-09-09T12:31:14Z</time>
      </trkpt>
      <trkpt lat="43.42626" lon="6.05269">
        <ele>273.20001220703</ele>
        <time>2015-09-09T12:31:40Z</time>
      </trkpt>
      <trkpt lat="43.42626" lon="6.05268">
        <ele>273.39999389648</ele>
        <time>2015-09-09T12:31:50Z</time>
      </trkpt>
      <trkpt lat="43.42626" lon="6.05268">
        <ele>273.39999389648</ele>
        <time>2015-09-09T12:31:52Z</time>
      </trkpt>
      <trkpt lat="43.42625" lon="6.05268">
        <ele>273.39999389648</ele>
        <time>2015-09-09T12:31:54Z</time>
      </trkpt>
      <trkpt lat="43.42625" lon="6.05268">
        <ele>273.39999389648</ele>
        <time>2015-09-09T12:31:58Z</time>
      </trkpt>
      <trkpt lat="43.42625" lon="6.05268">
        <ele>273.39999389648</ele>
        <time>2015-09-09T12:32:04Z</time>
      </trkpt>
      <trkpt lat="43.42625" lon="6.05269">
        <ele>273.39999389648</ele>
        <time>2015-09-09T12:32:10Z</time>
      </trkpt>
      <trkpt lat="43.42625" lon="6.05269">
        <ele>273.39999389648</ele>
        <time>2015-09-09T12:32:12Z</time>
      </trkpt>
      <trkpt lat="43.42625" lon="6.05269">
        <ele>273.39999389648</ele>
        <time>2015-09-09T12:32:14Z</time>
      </trkpt>
      <trkpt lat="43.42625" lon="6.05269">
        <ele>273.39999389648</ele>
        <time>2015-09-09T12:32:18Z</time>
      </trkpt>
      <trkpt lat="43.42625" lon="6.05269">
        <ele>273.39999389648</ele>
        <time>2015-09-09T12:32:28Z</time>
      </trkpt>
      <trkpt lat="43.42625" lon="6.05269">
        <ele>273.39999389648</ele>
        <time>2015-09-09T12:32:30Z</time>
      </trkpt>
      <trkpt lat="43.42625" lon="6.05269">
        <ele>273.60000610352</ele>
        <time>2015-09-09T12:32:32Z</time>
      </trkpt>
      <trkpt lat="43.42625" lon="6.05269">
        <ele>273.39999389648</ele>
        <time>2015-09-09T12:32:36Z</time>
      </trkpt>
      <trkpt lat="43.42625" lon="6.05269">
        <ele>273.39999389648</ele>
        <time>2015-09-09T12:32:40Z</time>
      </trkpt>
      <trkpt lat="43.42625" lon="6.0527">
        <ele>273.60000610352</ele>
        <time>2015-09-09T12:33:26Z</time>
      </trkpt>
      <trkpt lat="43.42625" lon="6.0527">
        <ele>273.20001220703</ele>
        <time>2015-09-09T12:33:40Z</time>
      </trkpt>
      <trkpt lat="43.42625" lon="6.0527">
        <ele>273</ele>
        <time>2015-09-09T12:33:46Z</time>
      </trkpt>
      <trkpt lat="43.42625" lon="6.0527">
        <ele>273.60000610352</ele>
        <time>2015-09-09T12:34:50Z</time>
      </trkpt>
      <trkpt lat="43.42625" lon="6.0527">
        <ele>273.79998779297</ele>
        <time>2015-09-09T12:35:06Z</time>
      </trkpt>
      <trkpt lat="43.42625" lon="6.0527">
        <ele>273.60000610352</ele>
        <time>2015-09-09T12:35:14Z</time>
      </trkpt>
      <trkpt lat="43.42625" lon="6.0527">
        <ele>273.60000610352</ele>
        <time>2015-09-09T12:35:24Z</time>
      </trkpt>
      <trkpt lat="43.42625" lon="6.0527">
        <ele>273.60000610352</ele>
        <time>2015-09-09T12:35:36Z</time>
      </trkpt>
      <trkpt lat="43.42625" lon="6.0527">
        <ele>273.60000610352</ele>
        <time>2015-09-09T12:35:45Z</time>
      </trkpt>
      <trkpt lat="43.42625" lon="6.0527">
        <ele>273.79998779297</ele>
        <time>2015-09-09T12:35:48Z</time>
      </trkpt>
      <trkpt lat="43.42625" lon="6.0527">
        <ele>274</ele>
        <time>2015-09-09T12:35:50Z</time>
      </trkpt>
      <trkpt lat="43.42625" lon="6.0527">
        <ele>274</ele>
        <time>2015-09-09T12:35:52Z</time>
      </trkpt>
      <trkpt lat="43.42625" lon="6.0527">
        <ele>273.79998779297</ele>
        <time>2015-09-09T12:35:56Z</time>
      </trkpt>
      <trkpt lat="43.42625" lon="6.0527">
        <ele>273.79998779297</ele>
        <time>2015-09-09T12:35:58Z</time>
      </trkpt>
      <trkpt lat="43.42625" lon="6.0527">
        <ele>273.79998779297</ele>
        <time>2015-09-09T12:36:02Z</time>
      </trkpt>
      <trkpt lat="43.42625" lon="6.0527">
        <ele>273.79998779297</ele>
        <time>2015-09-09T12:36:11Z</time>
      </trkpt>
      <trkpt lat="43.42625" lon="6.0527">
        <ele>273.79998779297</ele>
        <time>2015-09-09T12:36:12Z</time>
      </trkpt>
      <trkpt lat="43.42625" lon="6.0527">
        <ele>273.79998779297</ele>
        <time>2015-09-09T12:36:16Z</time>
      </trkpt>
      <trkpt lat="43.42625" lon="6.0527">
        <ele>273.79998779297</ele>
        <time>2015-09-09T12:36:22Z</time>
      </trkpt>
      <trkpt lat="43.42625" lon="6.0527">
        <ele>273.60000610352</ele>
        <time>2015-09-09T12:36:36Z</time>
      </trkpt>
      <trkpt lat="43.42625" lon="6.05271">
        <ele>273.60000610352</ele>
        <time>2015-09-09T12:36:38Z</time>
      </trkpt>
      <trkpt lat="43.42625" lon="6.05271">
        <ele>273.60000610352</ele>
        <time>2015-09-09T12:36:40Z</time>
      </trkpt>
      <trkpt lat="43.42624" lon="6.0527">
        <ele>273.79998779297</ele>
        <time>2015-09-09T12:36:42Z</time>
      </trkpt>
      <trkpt lat="43.42624" lon="6.0527">
        <ele>273.79998779297</ele>
        <time>2015-09-09T12:36:44Z</time>
      </trkpt>
      <trkpt lat="43.42624" lon="6.0527">
        <ele>273.79998779297</ele>
        <time>2015-09-09T12:36:46Z</time>
      </trkpt>
      <trkpt lat="43.42624" lon="6.05269">
        <ele>273.79998779297</ele>
        <time>2015-09-09T12:36:48Z</time>
      </trkpt>
      <trkpt lat="43.42625" lon="6.05269">
        <ele>273.60000610352</ele>
        <time>2015-09-09T12:36:50Z</time>
      </trkpt>
      <trkpt lat="43.42625" lon="6.05269">
        <ele>273.60000610352</ele>
        <time>2015-09-09T12:36:52Z</time>
      </trkpt>
      <trkpt lat="43.42625" lon="6.05269">
        <ele>273.60000610352</ele>
        <time>2015-09-09T12:36:54Z</time>
      </trkpt>
      <trkpt lat="43.42625" lon="6.05269">
        <ele>273.39999389648</ele>
        <time>2015-09-09T12:36:56Z</time>
      </trkpt>
      <trkpt lat="43.42625" lon="6.05269">
        <ele>273.60000610352</ele>
        <time>2015-09-09T12:37:00Z</time>
      </trkpt>
      <trkpt lat="43.42625" lon="6.0527">
        <ele>273.39999389648</ele>
        <time>2015-09-09T12:37:04Z</time>
      </trkpt>
      <trkpt lat="43.42625" lon="6.0527">
        <ele>273.79998779297</ele>
        <time>2015-09-09T12:37:12Z</time>
      </trkpt>
      <trkpt lat="43.42625" lon="6.0527">
        <ele>273.60000610352</ele>
        <time>2015-09-09T12:37:16Z</time>
      </trkpt>
      <trkpt lat="43.42625" lon="6.0527">
        <ele>273.79998779297</ele>
        <time>2015-09-09T12:37:18Z</time>
      </trkpt>
      <trkpt lat="43.42624" lon="6.05269">
        <ele>273.60000610352</ele>
        <time>2015-09-09T12:37:24Z</time>
      </trkpt>
      <trkpt lat="43.42625" lon="6.0527">
        <ele>273.60000610352</ele>
        <time>2015-09-09T12:37:28Z</time>
      </trkpt>
      <trkpt lat="43.42624" lon="6.0527">
        <ele>273.60000610352</ele>
        <time>2015-09-09T12:37:30Z</time>
      </trkpt>
      <trkpt lat="43.42624" lon="6.05269">
        <ele>273.60000610352</ele>
        <time>2015-09-09T12:37:32Z</time>
      </trkpt>
      <trkpt lat="43.42621" lon="6.05269">
        <ele>273.60000610352</ele>
        <time>2015-09-09T12:37:33Z</time>
      </trkpt>
      <trkpt lat="43.42621" lon="6.05268">
        <ele>273.39999389648</ele>
        <time>2015-09-09T12:37:34Z</time>
      </trkpt>
      <trkpt lat="43.42618" lon="6.05266">
        <ele>273.39999389648</ele>
        <time>2015-09-09T12:37:36Z</time>
      </trkpt>
      <trkpt lat="43.42612" lon="6.05261">
        <ele>273.39999389648</ele>
        <time>2015-09-09T12:37:38Z</time>
      </trkpt>
      <trkpt lat="43.4261" lon="6.0526">
        <ele>273.20001220703</ele>
        <time>2015-09-09T12:37:39Z</time>
      </trkpt>
      <trkpt lat="43.42606" lon="6.05257">
        <ele>273.20001220703</ele>
        <time>2015-09-09T12:37:40Z</time>
      </trkpt>
      <trkpt lat="43.42599" lon="6.0525">
        <ele>272.39999389648</ele>
        <time>2015-09-09T12:37:42Z</time>
      </trkpt>
      <trkpt lat="43.42596" lon="6.05247">
        <ele>271.79998779297</ele>
        <time>2015-09-09T12:37:43Z</time>
      </trkpt>
      <trkpt lat="43.42593" lon="6.05244">
        <ele>271.79998779297</ele>
        <time>2015-09-09T12:37:44Z</time>
      </trkpt>
      <trkpt lat="43.42588" lon="6.0524">
        <ele>271.60000610352</ele>
        <time>2015-09-09T12:37:46Z</time>
      </trkpt>
      <trkpt lat="43.42583" lon="6.05235">
        <ele>272</ele>
        <time>2015-09-09T12:37:48Z</time>
      </trkpt>
      <trkpt lat="43.42579" lon="6.05231">
        <ele>272</ele>
        <time>2015-09-09T12:37:50Z</time>
      </trkpt>
      <trkpt lat="43.42567" lon="6.05224">
        <ele>271.60000610352</ele>
        <time>2015-09-09T12:37:54Z</time>
      </trkpt>
      <trkpt lat="43.42561" lon="6.05223">
        <ele>271.20001220703</ele>
        <time>2015-09-09T12:37:56Z</time>
      </trkpt>
      <trkpt lat="43.42554" lon="6.05222">
        <ele>271.60000610352</ele>
        <time>2015-09-09T12:37:58Z</time>
      </trkpt>
      <trkpt lat="43.42546" lon="6.05224">
        <ele>271.39999389648</ele>
        <time>2015-09-09T12:38:00Z</time>
      </trkpt>
      <trkpt lat="43.42535" lon="6.05225">
        <ele>270</ele>
        <time>2015-09-09T12:38:02Z</time>
      </trkpt>
      <trkpt lat="43.42525" lon="6.05226">
        <ele>269.39999389648</ele>
        <time>2015-09-09T12:38:04Z</time>
      </trkpt>
      <trkpt lat="43.42515" lon="6.05226">
        <ele>268.79998779297</ele>
        <time>2015-09-09T12:38:06Z</time>
      </trkpt>
      <trkpt lat="43.42505" lon="6.05225">
        <ele>268.79998779297</ele>
        <time>2015-09-09T12:38:08Z</time>
      </trkpt>
      <trkpt lat="43.42498" lon="6.05223">
        <ele>268.60000610352</ele>
        <time>2015-09-09T12:38:10Z</time>
      </trkpt>
      <trkpt lat="43.4249" lon="6.05219">
        <ele>268.79998779297</ele>
        <time>2015-09-09T12:38:12Z</time>
      </trkpt>
      <trkpt lat="43.42482" lon="6.05215">
        <ele>268.79998779297</ele>
        <time>2015-09-09T12:38:14Z</time>
      </trkpt>
      <trkpt lat="43.42473" lon="6.05213">
        <ele>269.20001220703</ele>
        <time>2015-09-09T12:38:16Z</time>
      </trkpt>
      <trkpt lat="43.42465" lon="6.05212">
        <ele>269.20001220703</ele>
        <time>2015-09-09T12:38:18Z</time>
      </trkpt>
      <trkpt lat="43.42461" lon="6.05211">
        <ele>269</ele>
        <time>2015-09-09T12:38:19Z</time>
      </trkpt>
      <trkpt lat="43.42458" lon="6.05212">
        <ele>268.39999389648</ele>
        <time>2015-09-09T12:38:20Z</time>
      </trkpt>
      <trkpt lat="43.42451" lon="6.05215">
        <ele>267.60000610352</ele>
        <time>2015-09-09T12:38:22Z</time>
      </trkpt>
      <trkpt lat="43.42447" lon="6.05219">
        <ele>266.60000610352</ele>
        <time>2015-09-09T12:38:24Z</time>
      </trkpt>
      <trkpt lat="43.42445" lon="6.0522">
        <ele>266</ele>
        <time>2015-09-09T12:38:26Z</time>
      </trkpt>
      <trkpt lat="43.42445" lon="6.0522">
        <ele>265.60000610352</ele>
        <time>2015-09-09T12:38:28Z</time>
      </trkpt>
      <trkpt lat="43.42445" lon="6.05221">
        <ele>265.60000610352</ele>
        <time>2015-09-09T12:38:29Z</time>
      </trkpt>
      <trkpt lat="43.42442" lon="6.05222">
        <ele>265.39999389648</ele>
        <time>2015-09-09T12:38:30Z</time>
      </trkpt>
      <trkpt lat="43.42438" lon="6.05223">
        <ele>265.20001220703</ele>
        <time>2015-09-09T12:38:32Z</time>
      </trkpt>
      <trkpt lat="43.42435" lon="6.05223">
        <ele>265.20001220703</ele>
        <time>2015-09-09T12:38:33Z</time>
      </trkpt>
      <trkpt lat="43.42426" lon="6.05225">
        <ele>265.39999389648</ele>
        <time>2015-09-09T12:38:36Z</time>
      </trkpt>
      <trkpt lat="43.42418" lon="6.05224">
        <ele>264.79998779297</ele>
        <time>2015-09-09T12:38:38Z</time>
      </trkpt>
      <trkpt lat="43.42411" lon="6.05224">
        <ele>264.79998779297</ele>
        <time>2015-09-09T12:38:40Z</time>
      </trkpt>
      <trkpt lat="43.42404" lon="6.05224">
        <ele>264.60000610352</ele>
        <time>2015-09-09T12:38:42Z</time>
      </trkpt>
      <trkpt lat="43.42396" lon="6.05226">
        <ele>264.39999389648</ele>
        <time>2015-09-09T12:38:45Z</time>
      </trkpt>
      <trkpt lat="43.42395" lon="6.05227">
        <ele>264.60000610352</ele>
        <time>2015-09-09T12:38:46Z</time>
      </trkpt>
      <trkpt lat="43.42391" lon="6.05227">
        <ele>264.39999389648</ele>
        <time>2015-09-09T12:38:48Z</time>
      </trkpt>
      <trkpt lat="43.4239" lon="6.05225">
        <ele>264.20001220703</ele>
        <time>2015-09-09T12:38:49Z</time>
      </trkpt>
      <trkpt lat="43.4239" lon="6.05223">
        <ele>264.20001220703</ele>
        <time>2015-09-09T12:38:50Z</time>
      </trkpt>
      <trkpt lat="43.42393" lon="6.05221">
        <ele>264.20001220703</ele>
        <time>2015-09-09T12:38:52Z</time>
      </trkpt>
      <trkpt lat="43.42396" lon="6.05218">
        <ele>264.60000610352</ele>
        <time>2015-09-09T12:38:54Z</time>
      </trkpt>
      <trkpt lat="43.42399" lon="6.05214">
        <ele>264.79998779297</ele>
        <time>2015-09-09T12:38:56Z</time>
      </trkpt>
      <trkpt lat="43.42401" lon="6.0521">
        <ele>265.39999389648</ele>
        <time>2015-09-09T12:38:58Z</time>
      </trkpt>
      <trkpt lat="43.42402" lon="6.05208">
        <ele>265.60000610352</ele>
        <time>2015-09-09T12:38:59Z</time>
      </trkpt>
      <trkpt lat="43.42401" lon="6.05206">
        <ele>265.79998779297</ele>
        <time>2015-09-09T12:39:00Z</time>
      </trkpt>
      <trkpt lat="43.42401" lon="6.05207">
        <ele>266.20001220703</ele>
        <time>2015-09-09T12:39:02Z</time>
      </trkpt>
      <trkpt lat="43.42401" lon="6.05204">
        <ele>266.60000610352</ele>
        <time>2015-09-09T12:39:04Z</time>
      </trkpt>
      <trkpt lat="43.42401" lon="6.05202">
        <ele>267</ele>
        <time>2015-09-09T12:39:06Z</time>
      </trkpt>
      <trkpt lat="43.424" lon="6.052">
        <ele>267</ele>
        <time>2015-09-09T12:39:08Z</time>
      </trkpt>
      <trkpt lat="43.424" lon="6.05196">
        <ele>267.79998779297</ele>
        <time>2015-09-09T12:39:11Z</time>
      </trkpt>
      <trkpt lat="43.424" lon="6.05196">
        <ele>268</ele>
        <time>2015-09-09T12:39:12Z</time>
      </trkpt>
      <trkpt lat="43.42399" lon="6.05193">
        <ele>269</ele>
        <time>2015-09-09T12:39:16Z</time>
      </trkpt>
      <trkpt lat="43.42398" lon="6.05192">
        <ele>269</ele>
        <time>2015-09-09T12:39:18Z</time>
      </trkpt>
      <trkpt lat="43.42398" lon="6.0519">
        <ele>269.39999389648</ele>
        <time>2015-09-09T12:39:20Z</time>
      </trkpt>
      <trkpt lat="43.42397" lon="6.05187">
        <ele>269.79998779297</ele>
        <time>2015-09-09T12:39:22Z</time>
      </trkpt>
      <trkpt lat="43.42397" lon="6.05186">
        <ele>270</ele>
        <time>2015-09-09T12:39:24Z</time>
      </trkpt>
      <trkpt lat="43.42397" lon="6.05186">
        <ele>270</ele>
        <time>2015-09-09T12:39:25Z</time>
      </trkpt>
      <trkpt lat="43.42397" lon="6.05185">
        <ele>270.20001220703</ele>
        <time>2015-09-09T12:39:26Z</time>
      </trkpt>
      <trkpt lat="43.42395" lon="6.05182">
        <ele>270.39999389648</ele>
        <time>2015-09-09T12:39:28Z</time>
      </trkpt>
      <trkpt lat="43.42395" lon="6.0518">
        <ele>270.39999389648</ele>
        <time>2015-09-09T12:39:30Z</time>
      </trkpt>
      <trkpt lat="43.42395" lon="6.0518">
        <ele>270.60000610352</ele>
        <time>2015-09-09T12:39:32Z</time>
      </trkpt>
      <trkpt lat="43.42394" lon="6.05179">
        <ele>270.60000610352</ele>
        <time>2015-09-09T12:39:34Z</time>
      </trkpt>
      <trkpt lat="43.42394" lon="6.05178">
        <ele>270.60000610352</ele>
        <time>2015-09-09T12:39:36Z</time>
      </trkpt>
      <trkpt lat="43.42392" lon="6.0518">
        <ele>270.60000610352</ele>
        <time>2015-09-09T12:39:40Z</time>
      </trkpt>
      <trkpt lat="43.42389" lon="6.05183">
        <ele>269.79998779297</ele>
        <time>2015-09-09T12:39:42Z</time>
      </trkpt>
      <trkpt lat="43.42385" lon="6.05188">
        <ele>269.39999389648</ele>
        <time>2015-09-09T12:39:44Z</time>
      </trkpt>
      <trkpt lat="43.4238" lon="6.05187">
        <ele>269.20001220703</ele>
        <time>2015-09-09T12:39:46Z</time>
      </trkpt>
      <trkpt lat="43.42377" lon="6.05187">
        <ele>269</ele>
        <time>2015-09-09T12:39:47Z</time>
      </trkpt>
      <trkpt lat="43.42376" lon="6.05186">
        <ele>268</ele>
        <time>2015-09-09T12:39:48Z</time>
      </trkpt>
      <trkpt lat="43.4237" lon="6.05188">
        <ele>266.79998779297</ele>
        <time>2015-09-09T12:39:50Z</time>
      </trkpt>
      <trkpt lat="43.42363" lon="6.05191">
        <ele>266.20001220703</ele>
        <time>2015-09-09T12:39:52Z</time>
      </trkpt>
      <trkpt lat="43.42361" lon="6.05196">
        <ele>266</ele>
        <time>2015-09-09T12:39:54Z</time>
      </trkpt>
      <trkpt lat="43.42359" lon="6.05198">
        <ele>265.60000610352</ele>
        <time>2015-09-09T12:39:55Z</time>
      </trkpt>
      <trkpt lat="43.42356" lon="6.05198">
        <ele>265</ele>
        <time>2015-09-09T12:39:56Z</time>
      </trkpt>
      <trkpt lat="43.42353" lon="6.05199">
        <ele>264.39999389648</ele>
        <time>2015-09-09T12:39:57Z</time>
      </trkpt>
      <trkpt lat="43.42351" lon="6.05199">
        <ele>263.79998779297</ele>
        <time>2015-09-09T12:39:58Z</time>
      </trkpt>
      <trkpt lat="43.42349" lon="6.05198">
        <ele>263.39999389648</ele>
        <time>2015-09-09T12:39:59Z</time>
      </trkpt>
      <trkpt lat="43.42347" lon="6.05198">
        <ele>263.39999389648</ele>
        <time>2015-09-09T12:40:00Z</time>
      </trkpt>
      <trkpt lat="43.42342" lon="6.05198">
        <ele>263.20001220703</ele>
        <time>2015-09-09T12:40:02Z</time>
      </trkpt>
      <trkpt lat="43.42338" lon="6.05201">
        <ele>262.79998779297</ele>
        <time>2015-09-09T12:40:04Z</time>
      </trkpt>
      <trkpt lat="43.42335" lon="6.052">
        <ele>262.39999389648</ele>
        <time>2015-09-09T12:40:06Z</time>
      </trkpt>
      <trkpt lat="43.42333" lon="6.05199">
        <ele>262.39999389648</ele>
        <time>2015-09-09T12:40:07Z</time>
      </trkpt>
      <trkpt lat="43.42331" lon="6.05198">
        <ele>262.20001220703</ele>
        <time>2015-09-09T12:40:08Z</time>
      </trkpt>
      <trkpt lat="43.42328" lon="6.05197">
        <ele>262</ele>
        <time>2015-09-09T12:40:09Z</time>
      </trkpt>
      <trkpt lat="43.42325" lon="6.05198">
        <ele>261.39999389648</ele>
        <time>2015-09-09T12:40:10Z</time>
      </trkpt>
      <trkpt lat="43.42322" lon="6.052">
        <ele>261</ele>
        <time>2015-09-09T12:40:11Z</time>
      </trkpt>
      <trkpt lat="43.42319" lon="6.05203">
        <ele>260.39999389648</ele>
        <time>2015-09-09T12:40:12Z</time>
      </trkpt>
      <trkpt lat="43.42316" lon="6.05204">
        <ele>260.20001220703</ele>
        <time>2015-09-09T12:40:13Z</time>
      </trkpt>
      <trkpt lat="43.42313" lon="6.05203">
        <ele>260</ele>
        <time>2015-09-09T12:40:14Z</time>
      </trkpt>
      <trkpt lat="43.42306" lon="6.05203">
        <ele>260</ele>
        <time>2015-09-09T12:40:16Z</time>
      </trkpt>
      <trkpt lat="43.42303" lon="6.05202">
        <ele>260</ele>
        <time>2015-09-09T12:40:17Z</time>
      </trkpt>
      <trkpt lat="43.42302" lon="6.05202">
        <ele>259.79998779297</ele>
        <time>2015-09-09T12:40:18Z</time>
      </trkpt>
      <trkpt lat="43.42296" lon="6.05197">
        <ele>260</ele>
        <time>2015-09-09T12:40:20Z</time>
      </trkpt>
      <trkpt lat="43.42294" lon="6.05196">
        <ele>260</ele>
        <time>2015-09-09T12:40:21Z</time>
      </trkpt>
      <trkpt lat="43.42291" lon="6.05195">
        <ele>260</ele>
        <time>2015-09-09T12:40:22Z</time>
      </trkpt>
      <trkpt lat="43.42286" lon="6.05194">
        <ele>259.79998779297</ele>
        <time>2015-09-09T12:40:24Z</time>
      </trkpt>
      <trkpt lat="43.42281" lon="6.05198">
        <ele>259.79998779297</ele>
        <time>2015-09-09T12:40:26Z</time>
      </trkpt>
      <trkpt lat="43.42276" lon="6.05204">
        <ele>259</ele>
        <time>2015-09-09T12:40:28Z</time>
      </trkpt>
      <trkpt lat="43.42271" lon="6.05207">
        <ele>258.79998779297</ele>
        <time>2015-09-09T12:40:29Z</time>
      </trkpt>
      <trkpt lat="43.42267" lon="6.05208">
        <ele>258.20001220703</ele>
        <time>2015-09-09T12:40:30Z</time>
      </trkpt>
      <trkpt lat="43.42258" lon="6.0521">
        <ele>258.20001220703</ele>
        <time>2015-09-09T12:40:32Z</time>
      </trkpt>
      <trkpt lat="43.42253" lon="6.05209">
        <ele>257.39999389648</ele>
        <time>2015-09-09T12:40:33Z</time>
      </trkpt>
      <trkpt lat="43.42248" lon="6.05208">
        <ele>256.79998779297</ele>
        <time>2015-09-09T12:40:36Z</time>
      </trkpt>
      <trkpt lat="43.42245" lon="6.05207">
        <ele>257</ele>
        <time>2015-09-09T12:40:38Z</time>
      </trkpt>
      <trkpt lat="43.42242" lon="6.05205">
        <ele>256.79998779297</ele>
        <time>2015-09-09T12:40:39Z</time>
      </trkpt>
      <trkpt lat="43.4224" lon="6.05203">
        <ele>256.79998779297</ele>
        <time>2015-09-09T12:40:40Z</time>
      </trkpt>
      <trkpt lat="43.42233" lon="6.05199">
        <ele>256.20001220703</ele>
        <time>2015-09-09T12:40:42Z</time>
      </trkpt>
      <trkpt lat="43.42231" lon="6.05197">
        <ele>256.20001220703</ele>
        <time>2015-09-09T12:40:43Z</time>
      </trkpt>
      <trkpt lat="43.42231" lon="6.05196">
        <ele>256</ele>
        <time>2015-09-09T12:40:44Z</time>
      </trkpt>
      <trkpt lat="43.42231" lon="6.05194">
        <ele>256</ele>
        <time>2015-09-09T12:40:45Z</time>
      </trkpt>
      <trkpt lat="43.4223" lon="6.05193">
        <ele>256</ele>
        <time>2015-09-09T12:40:46Z</time>
      </trkpt>
      <trkpt lat="43.42225" lon="6.0519">
        <ele>256.20001220703</ele>
        <time>2015-09-09T12:40:48Z</time>
      </trkpt>
      <trkpt lat="43.42221" lon="6.05188">
        <ele>255.60000610352</ele>
        <time>2015-09-09T12:40:49Z</time>
      </trkpt>
      <trkpt lat="43.42218" lon="6.05186">
        <ele>255.19999694824</ele>
        <time>2015-09-09T12:40:50Z</time>
      </trkpt>
      <trkpt lat="43.42214" lon="6.05182">
        <ele>255.19999694824</ele>
        <time>2015-09-09T12:40:52Z</time>
      </trkpt>
      <trkpt lat="43.42209" lon="6.05179">
        <ele>255</ele>
        <time>2015-09-09T12:40:54Z</time>
      </trkpt>
      <trkpt lat="43.42207" lon="6.05176">
        <ele>255</ele>
        <time>2015-09-09T12:40:56Z</time>
      </trkpt>
      <trkpt lat="43.42201" lon="6.05173">
        <ele>254.80000305176</ele>
        <time>2015-09-09T12:40:58Z</time>
      </trkpt>
      <trkpt lat="43.42199" lon="6.0517">
        <ele>254.60000610352</ele>
        <time>2015-09-09T12:41:00Z</time>
      </trkpt>
      <trkpt lat="43.42195" lon="6.05167">
        <ele>253.80000305176</ele>
        <time>2015-09-09T12:41:02Z</time>
      </trkpt>
      <trkpt lat="43.42191" lon="6.05167">
        <ele>253.19999694824</ele>
        <time>2015-09-09T12:41:03Z</time>
      </trkpt>
      <trkpt lat="43.4219" lon="6.05168">
        <ele>253</ele>
        <time>2015-09-09T12:41:04Z</time>
      </trkpt>
      <trkpt lat="43.42189" lon="6.05175">
        <ele>252.80000305176</ele>
        <time>2015-09-09T12:41:06Z</time>
      </trkpt>
      <trkpt lat="43.42192" lon="6.05179">
        <ele>252.80000305176</ele>
        <time>2015-09-09T12:41:08Z</time>
      </trkpt>
      <trkpt lat="43.42195" lon="6.05182">
        <ele>253</ele>
        <time>2015-09-09T12:41:09Z</time>
      </trkpt>
      <trkpt lat="43.42197" lon="6.05184">
        <ele>253.39999389648</ele>
        <time>2015-09-09T12:41:10Z</time>
      </trkpt>
      <trkpt lat="43.42202" lon="6.05187">
        <ele>253.39999389648</ele>
        <time>2015-09-09T12:41:12Z</time>
      </trkpt>
      <trkpt lat="43.42207" lon="6.05189">
        <ele>253.39999389648</ele>
        <time>2015-09-09T12:41:14Z</time>
      </trkpt>
      <trkpt lat="43.4221" lon="6.05192">
        <ele>254</ele>
        <time>2015-09-09T12:41:16Z</time>
      </trkpt>
      <trkpt lat="43.42214" lon="6.05194">
        <ele>254.19999694824</ele>
        <time>2015-09-09T12:41:18Z</time>
      </trkpt>
      <trkpt lat="43.42219" lon="6.05196">
        <ele>254.39999389648</ele>
        <time>2015-09-09T12:41:20Z</time>
      </trkpt>
      <trkpt lat="43.42223" lon="6.05199">
        <ele>254.39999389648</ele>
        <time>2015-09-09T12:41:22Z</time>
      </trkpt>
      <trkpt lat="43.42226" lon="6.05204">
        <ele>254.80000305176</ele>
        <time>2015-09-09T12:41:24Z</time>
      </trkpt>
      <trkpt lat="43.4223" lon="6.05209">
        <ele>255</ele>
        <time>2015-09-09T12:41:26Z</time>
      </trkpt>
      <trkpt lat="43.42234" lon="6.05214">
        <ele>255.80000305176</ele>
        <time>2015-09-09T12:41:28Z</time>
      </trkpt>
      <trkpt lat="43.42236" lon="6.05214">
        <ele>255.80000305176</ele>
        <time>2015-09-09T12:41:29Z</time>
      </trkpt>
      <trkpt lat="43.42238" lon="6.05216">
        <ele>255.80000305176</ele>
        <time>2015-09-09T12:41:30Z</time>
      </trkpt>
      <trkpt lat="43.42242" lon="6.05216">
        <ele>255.60000610352</ele>
        <time>2015-09-09T12:41:32Z</time>
      </trkpt>
      <trkpt lat="43.42247" lon="6.05217">
        <ele>255.80000305176</ele>
        <time>2015-09-09T12:41:34Z</time>
      </trkpt>
      <trkpt lat="43.4225" lon="6.05217">
        <ele>256.20001220703</ele>
        <time>2015-09-09T12:41:36Z</time>
      </trkpt>
      <trkpt lat="43.42253" lon="6.05219">
        <ele>256.20001220703</ele>
        <time>2015-09-09T12:41:38Z</time>
      </trkpt>
      <trkpt lat="43.42254" lon="6.05218">
        <ele>256.39999389648</ele>
        <time>2015-09-09T12:41:39Z</time>
      </trkpt>
      <trkpt lat="43.42256" lon="6.05218">
        <ele>256.60000610352</ele>
        <time>2015-09-09T12:41:40Z</time>
      </trkpt>
      <trkpt lat="43.4226" lon="6.05218">
        <ele>256.79998779297</ele>
        <time>2015-09-09T12:41:42Z</time>
      </trkpt>
      <trkpt lat="43.42265" lon="6.05217">
        <ele>256.79998779297</ele>
        <time>2015-09-09T12:41:44Z</time>
      </trkpt>
      <trkpt lat="43.42269" lon="6.05217">
        <ele>256.60000610352</ele>
        <time>2015-09-09T12:41:46Z</time>
      </trkpt>
      <trkpt lat="43.42274" lon="6.05217">
        <ele>256.60000610352</ele>
        <time>2015-09-09T12:41:48Z</time>
      </trkpt>
      <trkpt lat="43.42279" lon="6.05219">
        <ele>256.79998779297</ele>
        <time>2015-09-09T12:41:50Z</time>
      </trkpt>
      <trkpt lat="43.42283" lon="6.0522">
        <ele>256.60000610352</ele>
        <time>2015-09-09T12:41:52Z</time>
      </trkpt>
      <trkpt lat="43.4229" lon="6.05222">
        <ele>256.79998779297</ele>
        <time>2015-09-09T12:41:55Z</time>
      </trkpt>
      <trkpt lat="43.42294" lon="6.05224">
        <ele>257.20001220703</ele>
        <time>2015-09-09T12:41:57Z</time>
      </trkpt>
      <trkpt lat="43.42296" lon="6.05224">
        <ele>257.20001220703</ele>
        <time>2015-09-09T12:41:58Z</time>
      </trkpt>
      <trkpt lat="43.42301" lon="6.05225">
        <ele>257.39999389648</ele>
        <time>2015-09-09T12:42:00Z</time>
      </trkpt>
      <trkpt lat="43.42305" lon="6.05227">
        <ele>257.60000610352</ele>
        <time>2015-09-09T12:42:02Z</time>
      </trkpt>
      <trkpt lat="43.42308" lon="6.05227">
        <ele>257.60000610352</ele>
        <time>2015-09-09T12:42:04Z</time>
      </trkpt>
      <trkpt lat="43.42313" lon="6.05228">
        <ele>258</ele>
        <time>2015-09-09T12:42:06Z</time>
      </trkpt>
      <trkpt lat="43.42317" lon="6.05229">
        <ele>258.60000610352</ele>
        <time>2015-09-09T12:42:08Z</time>
      </trkpt>
      <trkpt lat="43.42321" lon="6.0523">
        <ele>259.20001220703</ele>
        <time>2015-09-09T12:42:10Z</time>
      </trkpt>
      <trkpt lat="43.42325" lon="6.05231">
        <ele>260</ele>
        <time>2015-09-09T12:42:12Z</time>
      </trkpt>
      <trkpt lat="43.42328" lon="6.05232">
        <ele>260.20001220703</ele>
        <time>2015-09-09T12:42:14Z</time>
      </trkpt>
      <trkpt lat="43.42331" lon="6.05233">
        <ele>260.39999389648</ele>
        <time>2015-09-09T12:42:16Z</time>
      </trkpt>
      <trkpt lat="43.42333" lon="6.05233">
        <ele>260.39999389648</ele>
        <time>2015-09-09T12:42:17Z</time>
      </trkpt>
      <trkpt lat="43.42342" lon="6.05236">
        <ele>261</ele>
        <time>2015-09-09T12:42:22Z</time>
      </trkpt>
      <trkpt lat="43.4235" lon="6.05236">
        <ele>261.20001220703</ele>
        <time>2015-09-09T12:42:26Z</time>
      </trkpt>
      <trkpt lat="43.42354" lon="6.05234">
        <ele>261.60000610352</ele>
        <time>2015-09-09T12:42:28Z</time>
      </trkpt>
      <trkpt lat="43.42359" lon="6.05232">
        <ele>262</ele>
        <time>2015-09-09T12:42:30Z</time>
      </trkpt>
      <trkpt lat="43.42366" lon="6.0523">
        <ele>262.79998779297</ele>
        <time>2015-09-09T12:42:33Z</time>
      </trkpt>
      <trkpt lat="43.42368" lon="6.05229">
        <ele>263</ele>
        <time>2015-09-09T12:42:34Z</time>
      </trkpt>
      <trkpt lat="43.42372" lon="6.05229">
        <ele>263.20001220703</ele>
        <time>2015-09-09T12:42:36Z</time>
      </trkpt>
      <trkpt lat="43.42376" lon="6.05229">
        <ele>263.60000610352</ele>
        <time>2015-09-09T12:42:38Z</time>
      </trkpt>
      <trkpt lat="43.4238" lon="6.0523">
        <ele>264</ele>
        <time>2015-09-09T12:42:40Z</time>
      </trkpt>
      <trkpt lat="43.42388" lon="6.05229">
        <ele>263.79998779297</ele>
        <time>2015-09-09T12:42:44Z</time>
      </trkpt>
      <trkpt lat="43.42392" lon="6.05228">
        <ele>264</ele>
        <time>2015-09-09T12:42:46Z</time>
      </trkpt>
      <trkpt lat="43.42397" lon="6.05227">
        <ele>264.20001220703</ele>
        <time>2015-09-09T12:42:48Z</time>
      </trkpt>
      <trkpt lat="43.42402" lon="6.05226">
        <ele>264.60000610352</ele>
        <time>2015-09-09T12:42:50Z</time>
      </trkpt>
      <trkpt lat="43.42403" lon="6.05225">
        <ele>264.39999389648</ele>
        <time>2015-09-09T12:42:51Z</time>
      </trkpt>
      <trkpt lat="43.42405" lon="6.05224">
        <ele>264.39999389648</ele>
        <time>2015-09-09T12:42:52Z</time>
      </trkpt>
      <trkpt lat="43.42408" lon="6.05224">
        <ele>264.60000610352</ele>
        <time>2015-09-09T12:42:53Z</time>
      </trkpt>
      <trkpt lat="43.42414" lon="6.05225">
        <ele>264.60000610352</ele>
        <time>2015-09-09T12:42:56Z</time>
      </trkpt>
      <trkpt lat="43.42418" lon="6.05225">
        <ele>264.79998779297</ele>
        <time>2015-09-09T12:42:58Z</time>
      </trkpt>
      <trkpt lat="43.42427" lon="6.05225">
        <ele>264.79998779297</ele>
        <time>2015-09-09T12:43:02Z</time>
      </trkpt>
      <trkpt lat="43.42432" lon="6.05225">
        <ele>265.20001220703</ele>
        <time>2015-09-09T12:43:04Z</time>
      </trkpt>
      <trkpt lat="43.42436" lon="6.05225">
        <ele>265.39999389648</ele>
        <time>2015-09-09T12:43:06Z</time>
      </trkpt>
      <trkpt lat="43.4244" lon="6.05223">
        <ele>265.39999389648</ele>
        <time>2015-09-09T12:43:08Z</time>
      </trkpt>
      <trkpt lat="43.42443" lon="6.05222">
        <ele>265.79998779297</ele>
        <time>2015-09-09T12:43:10Z</time>
      </trkpt>
      <trkpt lat="43.42448" lon="6.05221">
        <ele>266.60000610352</ele>
        <time>2015-09-09T12:43:12Z</time>
      </trkpt>
      <trkpt lat="43.42451" lon="6.0522">
        <ele>267.20001220703</ele>
        <time>2015-09-09T12:43:14Z</time>
      </trkpt>
      <trkpt lat="43.42453" lon="6.05218">
        <ele>267.20001220703</ele>
        <time>2015-09-09T12:43:16Z</time>
      </trkpt>
      <trkpt lat="43.42458" lon="6.05216">
        <ele>268.39999389648</ele>
        <time>2015-09-09T12:43:20Z</time>
      </trkpt>
      <trkpt lat="43.42459" lon="6.05215">
        <ele>268.79998779297</ele>
        <time>2015-09-09T12:43:22Z</time>
      </trkpt>
      <trkpt lat="43.42461" lon="6.05214">
        <ele>268.60000610352</ele>
        <time>2015-09-09T12:43:24Z</time>
      </trkpt>
      <trkpt lat="43.42464" lon="6.05215">
        <ele>269</ele>
        <time>2015-09-09T12:43:26Z</time>
      </trkpt>
      <trkpt lat="43.42466" lon="6.05216">
        <ele>269.39999389648</ele>
        <time>2015-09-09T12:43:28Z</time>
      </trkpt>
      <trkpt lat="43.42467" lon="6.05216">
        <ele>269.60000610352</ele>
        <time>2015-09-09T12:43:29Z</time>
      </trkpt>
      <trkpt lat="43.42473" lon="6.05217">
        <ele>269.60000610352</ele>
        <time>2015-09-09T12:43:32Z</time>
      </trkpt>
      <trkpt lat="43.42477" lon="6.05217">
        <ele>269.79998779297</ele>
        <time>2015-09-09T12:43:34Z</time>
      </trkpt>
      <trkpt lat="43.42481" lon="6.05219">
        <ele>270</ele>
        <time>2015-09-09T12:43:36Z</time>
      </trkpt>
      <trkpt lat="43.42485" lon="6.05221">
        <ele>269.39999389648</ele>
        <time>2015-09-09T12:43:38Z</time>
      </trkpt>
      <trkpt lat="43.42491" lon="6.05224">
        <ele>269.39999389648</ele>
        <time>2015-09-09T12:43:40Z</time>
      </trkpt>
      <trkpt lat="43.42493" lon="6.05226">
        <ele>269.20001220703</ele>
        <time>2015-09-09T12:43:41Z</time>
      </trkpt>
      <trkpt lat="43.42495" lon="6.05225">
        <ele>269.20001220703</ele>
        <time>2015-09-09T12:43:42Z</time>
      </trkpt>
      <trkpt lat="43.42498" lon="6.05226">
        <ele>269.39999389648</ele>
        <time>2015-09-09T12:43:44Z</time>
      </trkpt>
      <trkpt lat="43.42501" lon="6.05225">
        <ele>269</ele>
        <time>2015-09-09T12:43:46Z</time>
      </trkpt>
      <trkpt lat="43.42505" lon="6.05226">
        <ele>269.20001220703</ele>
        <time>2015-09-09T12:43:48Z</time>
      </trkpt>
      <trkpt lat="43.42509" lon="6.05226">
        <ele>269</ele>
        <time>2015-09-09T12:43:50Z</time>
      </trkpt>
      <trkpt lat="43.42514" lon="6.05227">
        <ele>269</ele>
        <time>2015-09-09T12:43:52Z</time>
      </trkpt>
      <trkpt lat="43.42518" lon="6.05226">
        <ele>269</ele>
        <time>2015-09-09T12:43:54Z</time>
      </trkpt>
      <trkpt lat="43.42521" lon="6.05226">
        <ele>269.20001220703</ele>
        <time>2015-09-09T12:43:55Z</time>
      </trkpt>
      <trkpt lat="43.42523" lon="6.05226">
        <ele>269.20001220703</ele>
        <time>2015-09-09T12:43:56Z</time>
      </trkpt>
      <trkpt lat="43.42527" lon="6.05226">
        <ele>269.39999389648</ele>
        <time>2015-09-09T12:43:58Z</time>
      </trkpt>
      <trkpt lat="43.42533" lon="6.05226">
        <ele>270</ele>
        <time>2015-09-09T12:44:01Z</time>
      </trkpt>
      <trkpt lat="43.42536" lon="6.05226">
        <ele>270</ele>
        <time>2015-09-09T12:44:02Z</time>
      </trkpt>
      <trkpt lat="43.42541" lon="6.05225">
        <ele>270.39999389648</ele>
        <time>2015-09-09T12:44:04Z</time>
      </trkpt>
      <trkpt lat="43.42545" lon="6.05224">
        <ele>270.79998779297</ele>
        <time>2015-09-09T12:44:06Z</time>
      </trkpt>
      <trkpt lat="43.42552" lon="6.05222">
        <ele>271.20001220703</ele>
        <time>2015-09-09T12:44:10Z</time>
      </trkpt>
      <trkpt lat="43.42556" lon="6.05221">
        <ele>271.79998779297</ele>
        <time>2015-09-09T12:44:12Z</time>
      </trkpt>
      <trkpt lat="43.42559" lon="6.05222">
        <ele>272</ele>
        <time>2015-09-09T12:44:14Z</time>
      </trkpt>
      <trkpt lat="43.42567" lon="6.05224">
        <ele>272.20001220703</ele>
        <time>2015-09-09T12:44:18Z</time>
      </trkpt>
      <trkpt lat="43.42572" lon="6.05226">
        <ele>272.20001220703</ele>
        <time>2015-09-09T12:44:20Z</time>
      </trkpt>
      <trkpt lat="43.42576" lon="6.05228">
        <ele>272</ele>
        <time>2015-09-09T12:44:22Z</time>
      </trkpt>
      <trkpt lat="43.4258" lon="6.05231">
        <ele>272.20001220703</ele>
        <time>2015-09-09T12:44:24Z</time>
      </trkpt>
      <trkpt lat="43.42585" lon="6.05233">
        <ele>272.20001220703</ele>
        <time>2015-09-09T12:44:26Z</time>
      </trkpt>
      <trkpt lat="43.42586" lon="6.05235">
        <ele>272</ele>
        <time>2015-09-09T12:44:27Z</time>
      </trkpt>
      <trkpt lat="43.42587" lon="6.05235">
        <ele>272</ele>
        <time>2015-09-09T12:44:28Z</time>
      </trkpt>
      <trkpt lat="43.42589" lon="6.05236">
        <ele>272</ele>
        <time>2015-09-09T12:44:30Z</time>
      </trkpt>
      <trkpt lat="43.42592" lon="6.05239">
        <ele>272</ele>
        <time>2015-09-09T12:44:32Z</time>
      </trkpt>
      <trkpt lat="43.42595" lon="6.05242">
        <ele>272.20001220703</ele>
        <time>2015-09-09T12:44:34Z</time>
      </trkpt>
      <trkpt lat="43.42601" lon="6.05247">
        <ele>272.20001220703</ele>
        <time>2015-09-09T12:44:38Z</time>
      </trkpt>
      <trkpt lat="43.42602" lon="6.05248">
        <ele>272.20001220703</ele>
        <time>2015-09-09T12:44:39Z</time>
      </trkpt>
      <trkpt lat="43.42604" lon="6.05249">
        <ele>272.20001220703</ele>
        <time>2015-09-09T12:44:40Z</time>
      </trkpt>
      <trkpt lat="43.42607" lon="6.05252">
        <ele>272.20001220703</ele>
        <time>2015-09-09T12:44:42Z</time>
      </trkpt>
      <trkpt lat="43.42612" lon="6.05256">
        <ele>273.20001220703</ele>
        <time>2015-09-09T12:44:44Z</time>
      </trkpt>
      <trkpt lat="43.42614" lon="6.05258">
        <ele>273.39999389648</ele>
        <time>2015-09-09T12:44:45Z</time>
      </trkpt>
      <trkpt lat="43.42616" lon="6.0526">
        <ele>273.39999389648</ele>
        <time>2015-09-09T12:44:46Z</time>
      </trkpt>
      <trkpt lat="43.42619" lon="6.05262">
        <ele>273.39999389648</ele>
        <time>2015-09-09T12:44:48Z</time>
      </trkpt>
      <trkpt lat="43.42622" lon="6.05264">
        <ele>273.60000610352</ele>
        <time>2015-09-09T12:44:50Z</time>
      </trkpt>
      <trkpt lat="43.42624" lon="6.05266">
        <ele>273.79998779297</ele>
        <time>2015-09-09T12:44:51Z</time>
      </trkpt>
      <trkpt lat="43.42626" lon="6.05267">
        <ele>274</ele>
        <time>2015-09-09T12:44:52Z</time>
      </trkpt>
      <trkpt lat="43.42628" lon="6.05269">
        <ele>274.20001220703</ele>
        <time>2015-09-09T12:44:54Z</time>
      </trkpt>
      <trkpt lat="43.4263" lon="6.0527">
        <ele>274.39999389648</ele>
        <time>2015-09-09T12:44:56Z</time>
      </trkpt>
      <trkpt lat="43.42631" lon="6.05272">
        <ele>274.39999389648</ele>
        <time>2015-09-09T12:44:57Z</time>
      </trkpt>
      <trkpt lat="43.42631" lon="6.05273">
        <ele>274.39999389648</ele>
        <time>2015-09-09T12:44:58Z</time>
      </trkpt>
      <trkpt lat="43.42632" lon="6.05274">
        <ele>274.39999389648</ele>
        <time>2015-09-09T12:45:00Z</time>
      </trkpt>
      <trkpt lat="43.42634" lon="6.05277">
        <ele>274.39999389648</ele>
        <time>2015-09-09T12:45:04Z</time>
      </trkpt>
      <trkpt lat="43.42637" lon="6.0528">
        <ele>274.60000610352</ele>
        <time>2015-09-09T12:45:08Z</time>
      </trkpt>
      <trkpt lat="43.42639" lon="6.05282">
        <ele>274.79998779297</ele>
        <time>2015-09-09T12:45:10Z</time>
      </trkpt>
      <trkpt lat="43.42642" lon="6.05285">
        <ele>275</ele>
        <time>2015-09-09T12:45:12Z</time>
      </trkpt>
      <trkpt lat="43.42646" lon="6.05288">
        <ele>275.20001220703</ele>
        <time>2015-09-09T12:45:14Z</time>
      </trkpt>
      <trkpt lat="43.42649" lon="6.05292">
        <ele>275.39999389648</ele>
        <time>2015-09-09T12:45:16Z</time>
      </trkpt>
      <trkpt lat="43.4265" lon="6.05297">
        <ele>275.39999389648</ele>
        <time>2015-09-09T12:45:18Z</time>
      </trkpt>
      <trkpt lat="43.42658" lon="6.0531">
        <ele>276.60000610352</ele>
        <time>2015-09-09T12:45:24Z</time>
      </trkpt>
      <trkpt lat="43.42659" lon="6.05313">
        <ele>276.79998779297</ele>
        <time>2015-09-09T12:45:25Z</time>
      </trkpt>
      <trkpt lat="43.4266" lon="6.05315">
        <ele>276.79998779297</ele>
        <time>2015-09-09T12:45:26Z</time>
      </trkpt>
      <trkpt lat="43.42663" lon="6.0532">
        <ele>276.60000610352</ele>
        <time>2015-09-09T12:45:28Z</time>
      </trkpt>
      <trkpt lat="43.42666" lon="6.05323">
        <ele>276.60000610352</ele>
        <time>2015-09-09T12:45:30Z</time>
      </trkpt>
      <trkpt lat="43.42669" lon="6.05328">
        <ele>277</ele>
        <time>2015-09-09T12:45:32Z</time>
      </trkpt>
      <trkpt lat="43.42671" lon="6.0533">
        <ele>277.39999389648</ele>
        <time>2015-09-09T12:45:33Z</time>
      </trkpt>
      <trkpt lat="43.42672" lon="6.05331">
        <ele>278.20001220703</ele>
        <time>2015-09-09T12:45:34Z</time>
      </trkpt>
      <trkpt lat="43.42674" lon="6.05333">
        <ele>278.79998779297</ele>
        <time>2015-09-09T12:45:36Z</time>
      </trkpt>
      <trkpt lat="43.42675" lon="6.05333">
        <ele>278.60000610352</ele>
        <time>2015-09-09T12:45:38Z</time>
      </trkpt>
      <trkpt lat="43.42675" lon="6.05334">
        <ele>278.60000610352</ele>
        <time>2015-09-09T12:45:40Z</time>
      </trkpt>
      <trkpt lat="43.42676" lon="6.05335">
        <ele>278.60000610352</ele>
        <time>2015-09-09T12:45:42Z</time>
      </trkpt>
      <trkpt lat="43.42677" lon="6.05335">
        <ele>278.60000610352</ele>
        <time>2015-09-09T12:45:44Z</time>
      </trkpt>
      <trkpt lat="43.42677" lon="6.05335">
        <ele>279</ele>
        <time>2015-09-09T12:45:48Z</time>
      </trkpt>
      <trkpt lat="43.42678" lon="6.05335">
        <ele>279</ele>
        <time>2015-09-09T12:45:50Z</time>
      </trkpt>
      <trkpt lat="43.42678" lon="6.05335">
        <ele>279</ele>
        <time>2015-09-09T12:45:56Z</time>
      </trkpt>
      <trkpt lat="43.42678" lon="6.05335">
        <ele>278.39999389648</ele>
        <time>2015-09-09T12:46:02Z</time>
      </trkpt>
      <trkpt lat="43.42678" lon="6.05335">
        <ele>278.60000610352</ele>
        <time>2015-09-09T12:46:04Z</time>
      </trkpt>
      <trkpt lat="43.42677" lon="6.05335">
        <ele>278.39999389648</ele>
        <time>2015-09-09T12:46:08Z</time>
      </trkpt>
      <trkpt lat="43.42677" lon="6.05335">
        <ele>278.20001220703</ele>
        <time>2015-09-09T12:46:12Z</time>
      </trkpt>
      <trkpt lat="43.42677" lon="6.05335">
        <ele>278.60000610352</ele>
        <time>2015-09-09T12:46:14Z</time>
      </trkpt>
      <trkpt lat="43.42677" lon="6.05335">
        <ele>278.60000610352</ele>
        <time>2015-09-09T12:46:24Z</time>
      </trkpt>
      <trkpt lat="43.42677" lon="6.05335">
        <ele>278.79998779297</ele>
        <time>2015-09-09T12:46:28Z</time>
      </trkpt>
      <trkpt lat="43.42678" lon="6.05336">
        <ele>278.79998779297</ele>
        <time>2015-09-09T12:46:30Z</time>
      </trkpt>
      <trkpt lat="43.42679" lon="6.05339">
        <ele>278.79998779297</ele>
        <time>2015-09-09T12:46:32Z</time>
      </trkpt>
      <trkpt lat="43.42681" lon="6.05341">
        <ele>279</ele>
        <time>2015-09-09T12:46:34Z</time>
      </trkpt>
      <trkpt lat="43.42684" lon="6.05342">
        <ele>279.39999389648</ele>
        <time>2015-09-09T12:46:36Z</time>
      </trkpt>
      <trkpt lat="43.42688" lon="6.05342">
        <ele>279.60000610352</ele>
        <time>2015-09-09T12:46:38Z</time>
      </trkpt>
      <trkpt lat="43.42696" lon="6.05343">
        <ele>279.79998779297</ele>
        <time>2015-09-09T12:46:42Z</time>
      </trkpt>
      <trkpt lat="43.427" lon="6.05343">
        <ele>279.79998779297</ele>
        <time>2015-09-09T12:46:44Z</time>
      </trkpt>
      <trkpt lat="43.42704" lon="6.05342">
        <ele>280.20001220703</ele>
        <time>2015-09-09T12:46:46Z</time>
      </trkpt>
      <trkpt lat="43.42708" lon="6.05342">
        <ele>280.39999389648</ele>
        <time>2015-09-09T12:46:48Z</time>
      </trkpt>
      <trkpt lat="43.4271" lon="6.05343">
        <ele>280.39999389648</ele>
        <time>2015-09-09T12:46:49Z</time>
      </trkpt>
      <trkpt lat="43.42712" lon="6.05343">
        <ele>280.39999389648</ele>
        <time>2015-09-09T12:46:50Z</time>
      </trkpt>
      <trkpt lat="43.42714" lon="6.05344">
        <ele>280.60000610352</ele>
        <time>2015-09-09T12:46:52Z</time>
      </trkpt>
      <trkpt lat="43.42714" lon="6.05344">
        <ele>281.20001220703</ele>
        <time>2015-09-09T12:46:54Z</time>
      </trkpt>
      <trkpt lat="43.42715" lon="6.05345">
        <ele>281.20001220703</ele>
        <time>2015-09-09T12:46:55Z</time>
      </trkpt>
      <trkpt lat="43.42715" lon="6.05345">
        <ele>281</ele>
        <time>2015-09-09T12:46:56Z</time>
      </trkpt>
      <trkpt lat="43.42715" lon="6.05345">
        <ele>281</ele>
        <time>2015-09-09T12:46:58Z</time>
      </trkpt>
      <trkpt lat="43.42715" lon="6.05345">
        <ele>281</ele>
        <time>2015-09-09T12:47:00Z</time>
      </trkpt>
      <trkpt lat="43.42716" lon="6.05345">
        <ele>281.20001220703</ele>
        <time>2015-09-09T12:47:02Z</time>
      </trkpt>
      <trkpt lat="43.42717" lon="6.05347">
        <ele>281.20001220703</ele>
        <time>2015-09-09T12:47:04Z</time>
      </trkpt>
      <trkpt lat="43.42717" lon="6.05347">
        <ele>281.20001220703</ele>
        <time>2015-09-09T12:47:06Z</time>
      </trkpt>
      <trkpt lat="43.42717" lon="6.05347">
        <ele>281.39999389648</ele>
        <time>2015-09-09T12:47:08Z</time>
      </trkpt>
      <trkpt lat="43.42719" lon="6.05351">
        <ele>281.60000610352</ele>
        <time>2015-09-09T12:47:10Z</time>
      </trkpt>
      <trkpt lat="43.42719" lon="6.05353">
        <ele>281.60000610352</ele>
        <time>2015-09-09T12:47:11Z</time>
      </trkpt>
      <trkpt lat="43.42719" lon="6.05355">
        <ele>281.60000610352</ele>
        <time>2015-09-09T12:47:12Z</time>
      </trkpt>
      <trkpt lat="43.42718" lon="6.05361">
        <ele>281.79998779297</ele>
        <time>2015-09-09T12:47:14Z</time>
      </trkpt>
      <trkpt lat="43.42716" lon="6.05371">
        <ele>282.20001220703</ele>
        <time>2015-09-09T12:47:18Z</time>
      </trkpt>
      <trkpt lat="43.42716" lon="6.05376">
        <ele>282.60000610352</ele>
        <time>2015-09-09T12:47:20Z</time>
      </trkpt>
      <trkpt lat="43.42715" lon="6.05381">
        <ele>283.20001220703</ele>
        <time>2015-09-09T12:47:22Z</time>
      </trkpt>
      <trkpt lat="43.42715" lon="6.05383">
        <ele>283.39999389648</ele>
        <time>2015-09-09T12:47:23Z</time>
      </trkpt>
      <trkpt lat="43.42715" lon="6.05386">
        <ele>283.20001220703</ele>
        <time>2015-09-09T12:47:24Z</time>
      </trkpt>
      <trkpt lat="43.42717" lon="6.0539">
        <ele>283.20001220703</ele>
        <time>2015-09-09T12:47:26Z</time>
      </trkpt>
      <trkpt lat="43.42719" lon="6.05398">
        <ele>283.60000610352</ele>
        <time>2015-09-09T12:47:29Z</time>
      </trkpt>
      <trkpt lat="43.42719" lon="6.054">
        <ele>283.79998779297</ele>
        <time>2015-09-09T12:47:30Z</time>
      </trkpt>
      <trkpt lat="43.4272" lon="6.05404">
        <ele>284.39999389648</ele>
        <time>2015-09-09T12:47:32Z</time>
      </trkpt>
      <trkpt lat="43.42722" lon="6.05408">
        <ele>284.39999389648</ele>
        <time>2015-09-09T12:47:34Z</time>
      </trkpt>
      <trkpt lat="43.42722" lon="6.05409">
        <ele>284.20001220703</ele>
        <time>2015-09-09T12:47:35Z</time>
      </trkpt>
      <trkpt lat="43.42722" lon="6.05411">
        <ele>284.79998779297</ele>
        <time>2015-09-09T12:47:36Z</time>
      </trkpt>
      <trkpt lat="43.42722" lon="6.05411">
        <ele>285.20001220703</ele>
        <time>2015-09-09T12:47:38Z</time>
      </trkpt>
      <trkpt lat="43.42723" lon="6.05411">
        <ele>285.39999389648</ele>
        <time>2015-09-09T12:47:40Z</time>
      </trkpt>
      <trkpt lat="43.42723" lon="6.05413">
        <ele>285.60000610352</ele>
        <time>2015-09-09T12:47:42Z</time>
      </trkpt>
      <trkpt lat="43.42725" lon="6.05417">
        <ele>285.60000610352</ele>
        <time>2015-09-09T12:47:44Z</time>
      </trkpt>
      <trkpt lat="43.42725" lon="6.05422">
        <ele>285.60000610352</ele>
        <time>2015-09-09T12:47:46Z</time>
      </trkpt>
      <trkpt lat="43.42727" lon="6.05426">
        <ele>285.60000610352</ele>
        <time>2015-09-09T12:47:48Z</time>
      </trkpt>
      <trkpt lat="43.42728" lon="6.0543">
        <ele>286.20001220703</ele>
        <time>2015-09-09T12:47:50Z</time>
      </trkpt>
      <trkpt lat="43.42729" lon="6.0544">
        <ele>286.39999389648</ele>
        <time>2015-09-09T12:47:54Z</time>
      </trkpt>
      <trkpt lat="43.42729" lon="6.05446">
        <ele>286.79998779297</ele>
        <time>2015-09-09T12:47:56Z</time>
      </trkpt>
      <trkpt lat="43.4273" lon="6.05451">
        <ele>287.20001220703</ele>
        <time>2015-09-09T12:47:58Z</time>
      </trkpt>
      <trkpt lat="43.42729" lon="6.05456">
        <ele>287.39999389648</ele>
        <time>2015-09-09T12:48:00Z</time>
      </trkpt>
      <trkpt lat="43.42724" lon="6.05464">
        <ele>287.79998779297</ele>
        <time>2015-09-09T12:48:04Z</time>
      </trkpt>
      <trkpt lat="43.42723" lon="6.05468">
        <ele>288.20001220703</ele>
        <time>2015-09-09T12:48:06Z</time>
      </trkpt>
      <trkpt lat="43.42722" lon="6.05471">
        <ele>288.39999389648</ele>
        <time>2015-09-09T12:48:07Z</time>
      </trkpt>
      <trkpt lat="43.42722" lon="6.05474">
        <ele>288.60000610352</ele>
        <time>2015-09-09T12:48:08Z</time>
      </trkpt>
      <trkpt lat="43.42722" lon="6.05479">
        <ele>288.60000610352</ele>
        <time>2015-09-09T12:48:10Z</time>
      </trkpt>
      <trkpt lat="43.42723" lon="6.05485">
        <ele>288.79998779297</ele>
        <time>2015-09-09T12:48:12Z</time>
      </trkpt>
      <trkpt lat="43.42724" lon="6.05494">
        <ele>289</ele>
        <time>2015-09-09T12:48:16Z</time>
      </trkpt>
      <trkpt lat="43.42725" lon="6.05499">
        <ele>289.20001220703</ele>
        <time>2015-09-09T12:48:18Z</time>
      </trkpt>
      <trkpt lat="43.42725" lon="6.05504">
        <ele>289.60000610352</ele>
        <time>2015-09-09T12:48:20Z</time>
      </trkpt>
      <trkpt lat="43.42727" lon="6.05514">
        <ele>290.39999389648</ele>
        <time>2015-09-09T12:48:24Z</time>
      </trkpt>
      <trkpt lat="43.42727" lon="6.05519">
        <ele>290.39999389648</ele>
        <time>2015-09-09T12:48:26Z</time>
      </trkpt>
      <trkpt lat="43.42728" lon="6.05524">
        <ele>290.79998779297</ele>
        <time>2015-09-09T12:48:28Z</time>
      </trkpt>
      <trkpt lat="43.42727" lon="6.05529">
        <ele>291.20001220703</ele>
        <time>2015-09-09T12:48:30Z</time>
      </trkpt>
      <trkpt lat="43.42728" lon="6.05534">
        <ele>291.60000610352</ele>
        <time>2015-09-09T12:48:32Z</time>
      </trkpt>
      <trkpt lat="43.42728" lon="6.05536">
        <ele>291.60000610352</ele>
        <time>2015-09-09T12:48:33Z</time>
      </trkpt>
      <trkpt lat="43.42731" lon="6.05546">
        <ele>292.39999389648</ele>
        <time>2015-09-09T12:48:38Z</time>
      </trkpt>
      <trkpt lat="43.42732" lon="6.05548">
        <ele>292.60000610352</ele>
        <time>2015-09-09T12:48:39Z</time>
      </trkpt>
      <trkpt lat="43.42733" lon="6.05551">
        <ele>292.60000610352</ele>
        <time>2015-09-09T12:48:41Z</time>
      </trkpt>
      <trkpt lat="43.42733" lon="6.05553">
        <ele>292.60000610352</ele>
        <time>2015-09-09T12:48:42Z</time>
      </trkpt>
      <trkpt lat="43.42735" lon="6.05557">
        <ele>292.60000610352</ele>
        <time>2015-09-09T12:48:44Z</time>
      </trkpt>
      <trkpt lat="43.42735" lon="6.05564">
        <ele>293.60000610352</ele>
        <time>2015-09-09T12:48:48Z</time>
      </trkpt>
      <trkpt lat="43.42736" lon="6.05565">
        <ele>293.39999389648</ele>
        <time>2015-09-09T12:48:49Z</time>
      </trkpt>
      <trkpt lat="43.42737" lon="6.0557">
        <ele>294</ele>
        <time>2015-09-09T12:48:52Z</time>
      </trkpt>
      <trkpt lat="43.42741" lon="6.05575">
        <ele>294</ele>
        <time>2015-09-09T12:48:56Z</time>
      </trkpt>
      <trkpt lat="43.42748" lon="6.05582">
        <ele>295.20001220703</ele>
        <time>2015-09-09T12:49:02Z</time>
      </trkpt>
      <trkpt lat="43.4275" lon="6.05585">
        <ele>295.20001220703</ele>
        <time>2015-09-09T12:49:04Z</time>
      </trkpt>
      <trkpt lat="43.42752" lon="6.05592">
        <ele>295.79998779297</ele>
        <time>2015-09-09T12:49:08Z</time>
      </trkpt>
      <trkpt lat="43.42753" lon="6.05595">
        <ele>296.39999389648</ele>
        <time>2015-09-09T12:49:10Z</time>
      </trkpt>
      <trkpt lat="43.42753" lon="6.05599">
        <ele>296.60000610352</ele>
        <time>2015-09-09T12:49:12Z</time>
      </trkpt>
      <trkpt lat="43.42754" lon="6.05599">
        <ele>296.60000610352</ele>
        <time>2015-09-09T12:49:14Z</time>
      </trkpt>
      <trkpt lat="43.42754" lon="6.05599">
        <ele>296.79998779297</ele>
        <time>2015-09-09T12:49:18Z</time>
      </trkpt>
      <trkpt lat="43.42754" lon="6.05599">
        <ele>296.60000610352</ele>
        <time>2015-09-09T12:49:20Z</time>
      </trkpt>
      <trkpt lat="43.42754" lon="6.056">
        <ele>296.60000610352</ele>
        <time>2015-09-09T12:49:22Z</time>
      </trkpt>
      <trkpt lat="43.42754" lon="6.056">
        <ele>296.79998779297</ele>
        <time>2015-09-09T12:49:24Z</time>
      </trkpt>
      <trkpt lat="43.42754" lon="6.05601">
        <ele>296.79998779297</ele>
        <time>2015-09-09T12:49:25Z</time>
      </trkpt>
      <trkpt lat="43.42754" lon="6.05601">
        <ele>296.79998779297</ele>
        <time>2015-09-09T12:49:26Z</time>
      </trkpt>
      <trkpt lat="43.42754" lon="6.05601">
        <ele>296.79998779297</ele>
        <time>2015-09-09T12:49:28Z</time>
      </trkpt>
      <trkpt lat="43.42753" lon="6.05606">
        <ele>296.79998779297</ele>
        <time>2015-09-09T12:49:31Z</time>
      </trkpt>
      <trkpt lat="43.42752" lon="6.05608">
        <ele>296.79998779297</ele>
        <time>2015-09-09T12:49:32Z</time>
      </trkpt>
      <trkpt lat="43.42753" lon="6.05609">
        <ele>297.39999389648</ele>
        <time>2015-09-09T12:49:33Z</time>
      </trkpt>
      <trkpt lat="43.42754" lon="6.05611">
        <ele>297.60000610352</ele>
        <time>2015-09-09T12:49:34Z</time>
      </trkpt>
      <trkpt lat="43.42752" lon="6.05613">
        <ele>298.20001220703</ele>
        <time>2015-09-09T12:49:36Z</time>
      </trkpt>
      <trkpt lat="43.42751" lon="6.05618">
        <ele>298.20001220703</ele>
        <time>2015-09-09T12:49:38Z</time>
      </trkpt>
      <trkpt lat="43.42751" lon="6.0562">
        <ele>298.39999389648</ele>
        <time>2015-09-09T12:49:40Z</time>
      </trkpt>
      <trkpt lat="43.42749" lon="6.05623">
        <ele>298.60000610352</ele>
        <time>2015-09-09T12:49:42Z</time>
      </trkpt>
      <trkpt lat="43.42747" lon="6.05627">
        <ele>299</ele>
        <time>2015-09-09T12:49:44Z</time>
      </trkpt>
      <trkpt lat="43.42746" lon="6.05631">
        <ele>299.39999389648</ele>
        <time>2015-09-09T12:49:46Z</time>
      </trkpt>
      <trkpt lat="43.42743" lon="6.05638">
        <ele>299.39999389648</ele>
        <time>2015-09-09T12:49:50Z</time>
      </trkpt>
      <trkpt lat="43.42737" lon="6.05641">
        <ele>299.79998779297</ele>
        <time>2015-09-09T12:49:54Z</time>
      </trkpt>
      <trkpt lat="43.42733" lon="6.05646">
        <ele>300</ele>
        <time>2015-09-09T12:49:57Z</time>
      </trkpt>
      <trkpt lat="43.42732" lon="6.05647">
        <ele>300</ele>
        <time>2015-09-09T12:49:58Z</time>
      </trkpt>
      <trkpt lat="43.4273" lon="6.0565">
        <ele>300.39999389648</ele>
        <time>2015-09-09T12:50:00Z</time>
      </trkpt>
      <trkpt lat="43.42728" lon="6.05652">
        <ele>300.79998779297</ele>
        <time>2015-09-09T12:50:02Z</time>
      </trkpt>
      <trkpt lat="43.42727" lon="6.05655">
        <ele>301</ele>
        <time>2015-09-09T12:50:04Z</time>
      </trkpt>
      <trkpt lat="43.42726" lon="6.0566">
        <ele>300.79998779297</ele>
        <time>2015-09-09T12:50:06Z</time>
      </trkpt>
      <trkpt lat="43.42726" lon="6.05662">
        <ele>301</ele>
        <time>2015-09-09T12:50:07Z</time>
      </trkpt>
      <trkpt lat="43.42725" lon="6.05666">
        <ele>301.39999389648</ele>
        <time>2015-09-09T12:50:09Z</time>
      </trkpt>
      <trkpt lat="43.42724" lon="6.05666">
        <ele>301.60000610352</ele>
        <time>2015-09-09T12:50:10Z</time>
      </trkpt>
      <trkpt lat="43.42722" lon="6.0567">
        <ele>301.79998779297</ele>
        <time>2015-09-09T12:50:12Z</time>
      </trkpt>
      <trkpt lat="43.4272" lon="6.05673">
        <ele>302.20001220703</ele>
        <time>2015-09-09T12:50:14Z</time>
      </trkpt>
      <trkpt lat="43.42718" lon="6.05676">
        <ele>302.39999389648</ele>
        <time>2015-09-09T12:50:16Z</time>
      </trkpt>
      <trkpt lat="43.42715" lon="6.05677">
        <ele>303</ele>
        <time>2015-09-09T12:50:18Z</time>
      </trkpt>
      <trkpt lat="43.42712" lon="6.05679">
        <ele>303.20001220703</ele>
        <time>2015-09-09T12:50:20Z</time>
      </trkpt>
      <trkpt lat="43.4271" lon="6.05681">
        <ele>303.20001220703</ele>
        <time>2015-09-09T12:50:22Z</time>
      </trkpt>
      <trkpt lat="43.42709" lon="6.05684">
        <ele>303.39999389648</ele>
        <time>2015-09-09T12:50:24Z</time>
      </trkpt>
      <trkpt lat="43.42707" lon="6.05691">
        <ele>304.20001220703</ele>
        <time>2015-09-09T12:50:28Z</time>
      </trkpt>
      <trkpt lat="43.42707" lon="6.05693">
        <ele>304.39999389648</ele>
        <time>2015-09-09T12:50:29Z</time>
      </trkpt>
      <trkpt lat="43.42706" lon="6.05695">
        <ele>304.39999389648</ele>
        <time>2015-09-09T12:50:30Z</time>
      </trkpt>
      <trkpt lat="43.42704" lon="6.05699">
        <ele>304.60000610352</ele>
        <time>2015-09-09T12:50:32Z</time>
      </trkpt>
      <trkpt lat="43.42704" lon="6.05702">
        <ele>305.39999389648</ele>
        <time>2015-09-09T12:50:34Z</time>
      </trkpt>
      <trkpt lat="43.42702" lon="6.05707">
        <ele>306</ele>
        <time>2015-09-09T12:50:38Z</time>
      </trkpt>
      <trkpt lat="43.42702" lon="6.05707">
        <ele>306.20001220703</ele>
        <time>2015-09-09T12:50:40Z</time>
      </trkpt>
      <trkpt lat="43.42702" lon="6.05709">
        <ele>306.39999389648</ele>
        <time>2015-09-09T12:50:42Z</time>
      </trkpt>
      <trkpt lat="43.42701" lon="6.05712">
        <ele>306.39999389648</ele>
        <time>2015-09-09T12:50:44Z</time>
      </trkpt>
      <trkpt lat="43.42701" lon="6.05715">
        <ele>306.39999389648</ele>
        <time>2015-09-09T12:50:45Z</time>
      </trkpt>
      <trkpt lat="43.42701" lon="6.05718">
        <ele>306.60000610352</ele>
        <time>2015-09-09T12:50:46Z</time>
      </trkpt>
      <trkpt lat="43.427" lon="6.05721">
        <ele>307</ele>
        <time>2015-09-09T12:50:48Z</time>
      </trkpt>
      <trkpt lat="43.42699" lon="6.05722">
        <ele>307.20001220703</ele>
        <time>2015-09-09T12:50:49Z</time>
      </trkpt>
      <trkpt lat="43.42698" lon="6.05724">
        <ele>307.20001220703</ele>
        <time>2015-09-09T12:50:50Z</time>
      </trkpt>
      <trkpt lat="43.42697" lon="6.05727">
        <ele>307.20001220703</ele>
        <time>2015-09-09T12:50:52Z</time>
      </trkpt>
      <trkpt lat="43.42696" lon="6.05731">
        <ele>307.60000610352</ele>
        <time>2015-09-09T12:50:54Z</time>
      </trkpt>
      <trkpt lat="43.42698" lon="6.05735">
        <ele>308</ele>
        <time>2015-09-09T12:50:56Z</time>
      </trkpt>
      <trkpt lat="43.42699" lon="6.05737">
        <ele>308.39999389648</ele>
        <time>2015-09-09T12:50:58Z</time>
      </trkpt>
      <trkpt lat="43.42701" lon="6.05738">
        <ele>308.60000610352</ele>
        <time>2015-09-09T12:51:00Z</time>
      </trkpt>
      <trkpt lat="43.42704" lon="6.05738">
        <ele>308.79998779297</ele>
        <time>2015-09-09T12:51:02Z</time>
      </trkpt>
      <trkpt lat="43.42711" lon="6.05738">
        <ele>309</ele>
        <time>2015-09-09T12:51:06Z</time>
      </trkpt>
      <trkpt lat="43.42714" lon="6.05739">
        <ele>308.79998779297</ele>
        <time>2015-09-09T12:51:08Z</time>
      </trkpt>
      <trkpt lat="43.42717" lon="6.05739">
        <ele>308.79998779297</ele>
        <time>2015-09-09T12:51:10Z</time>
      </trkpt>
      <trkpt lat="43.42721" lon="6.0574">
        <ele>309</ele>
        <time>2015-09-09T12:51:12Z</time>
      </trkpt>
      <trkpt lat="43.42724" lon="6.0574">
        <ele>309.20001220703</ele>
        <time>2015-09-09T12:51:14Z</time>
      </trkpt>
      <trkpt lat="43.42728" lon="6.05741">
        <ele>309.20001220703</ele>
        <time>2015-09-09T12:51:16Z</time>
      </trkpt>
      <trkpt lat="43.4273" lon="6.05741">
        <ele>309.20001220703</ele>
        <time>2015-09-09T12:51:18Z</time>
      </trkpt>
      <trkpt lat="43.42736" lon="6.05742">
        <ele>310</ele>
        <time>2015-09-09T12:51:22Z</time>
      </trkpt>
      <trkpt lat="43.42739" lon="6.05742">
        <ele>309.79998779297</ele>
        <time>2015-09-09T12:51:24Z</time>
      </trkpt>
      <trkpt lat="43.42743" lon="6.05742">
        <ele>309.60000610352</ele>
        <time>2015-09-09T12:51:26Z</time>
      </trkpt>
      <trkpt lat="43.42746" lon="6.05743">
        <ele>310</ele>
        <time>2015-09-09T12:51:28Z</time>
      </trkpt>
      <trkpt lat="43.42748" lon="6.05744">
        <ele>310</ele>
        <time>2015-09-09T12:51:30Z</time>
      </trkpt>
      <trkpt lat="43.4275" lon="6.05742">
        <ele>310</ele>
        <time>2015-09-09T12:51:32Z</time>
      </trkpt>
      <trkpt lat="43.42753" lon="6.05739">
        <ele>310.20001220703</ele>
        <time>2015-09-09T12:51:34Z</time>
      </trkpt>
      <trkpt lat="43.42757" lon="6.05736">
        <ele>310.20001220703</ele>
        <time>2015-09-09T12:51:36Z</time>
      </trkpt>
      <trkpt lat="43.4276" lon="6.05733">
        <ele>310.20001220703</ele>
        <time>2015-09-09T12:51:38Z</time>
      </trkpt>
      <trkpt lat="43.42765" lon="6.05731">
        <ele>310.20001220703</ele>
        <time>2015-09-09T12:51:40Z</time>
      </trkpt>
      <trkpt lat="43.42767" lon="6.05731">
        <ele>310.20001220703</ele>
        <time>2015-09-09T12:51:41Z</time>
      </trkpt>
      <trkpt lat="43.42769" lon="6.05731">
        <ele>310</ele>
        <time>2015-09-09T12:51:42Z</time>
      </trkpt>
      <trkpt lat="43.42774" lon="6.05732">
        <ele>310.20001220703</ele>
        <time>2015-09-09T12:51:44Z</time>
      </trkpt>
      <trkpt lat="43.42777" lon="6.05734">
        <ele>310.60000610352</ele>
        <time>2015-09-09T12:51:46Z</time>
      </trkpt>
      <trkpt lat="43.4278" lon="6.05736">
        <ele>310.60000610352</ele>
        <time>2015-09-09T12:51:48Z</time>
      </trkpt>
      <trkpt lat="43.42783" lon="6.05737">
        <ele>310.60000610352</ele>
        <time>2015-09-09T12:51:50Z</time>
      </trkpt>
      <trkpt lat="43.42785" lon="6.05738">
        <ele>311</ele>
        <time>2015-09-09T12:51:51Z</time>
      </trkpt>
      <trkpt lat="43.42786" lon="6.05737">
        <ele>311.20001220703</ele>
        <time>2015-09-09T12:51:52Z</time>
      </trkpt>
      <trkpt lat="43.42788" lon="6.05739">
        <ele>311.20001220703</ele>
        <time>2015-09-09T12:51:53Z</time>
      </trkpt>
      <trkpt lat="43.42788" lon="6.05741">
        <ele>311.20001220703</ele>
        <time>2015-09-09T12:51:54Z</time>
      </trkpt>
      <trkpt lat="43.42791" lon="6.05742">
        <ele>311.79998779297</ele>
        <time>2015-09-09T12:51:56Z</time>
      </trkpt>
      <trkpt lat="43.42793" lon="6.05743">
        <ele>311.79998779297</ele>
        <time>2015-09-09T12:51:58Z</time>
      </trkpt>
      <trkpt lat="43.42795" lon="6.05743">
        <ele>311.79998779297</ele>
        <time>2015-09-09T12:51:59Z</time>
      </trkpt>
      <trkpt lat="43.42796" lon="6.05743">
        <ele>311.79998779297</ele>
        <time>2015-09-09T12:52:00Z</time>
      </trkpt>
      <trkpt lat="43.42801" lon="6.05742">
        <ele>311.79998779297</ele>
        <time>2015-09-09T12:52:02Z</time>
      </trkpt>
      <trkpt lat="43.42804" lon="6.0574">
        <ele>311.60000610352</ele>
        <time>2015-09-09T12:52:04Z</time>
      </trkpt>
      <trkpt lat="43.4281" lon="6.05736">
        <ele>311.79998779297</ele>
        <time>2015-09-09T12:52:06Z</time>
      </trkpt>
      <trkpt lat="43.42812" lon="6.05736">
        <ele>311.60000610352</ele>
        <time>2015-09-09T12:52:07Z</time>
      </trkpt>
      <trkpt lat="43.42815" lon="6.05737">
        <ele>311.39999389648</ele>
        <time>2015-09-09T12:52:08Z</time>
      </trkpt>
      <trkpt lat="43.42817" lon="6.05737">
        <ele>311.39999389648</ele>
        <time>2015-09-09T12:52:09Z</time>
      </trkpt>
      <trkpt lat="43.42818" lon="6.05735">
        <ele>311.60000610352</ele>
        <time>2015-09-09T12:52:10Z</time>
      </trkpt>
      <trkpt lat="43.42822" lon="6.05734">
        <ele>311.60000610352</ele>
        <time>2015-09-09T12:52:12Z</time>
      </trkpt>
      <trkpt lat="43.42826" lon="6.05732">
        <ele>311.60000610352</ele>
        <time>2015-09-09T12:52:14Z</time>
      </trkpt>
      <trkpt lat="43.42828" lon="6.05731">
        <ele>311.60000610352</ele>
        <time>2015-09-09T12:52:16Z</time>
      </trkpt>
      <trkpt lat="43.42828" lon="6.05731">
        <ele>311.60000610352</ele>
        <time>2015-09-09T12:52:18Z</time>
      </trkpt>
      <trkpt lat="43.42828" lon="6.05731">
        <ele>311.60000610352</ele>
        <time>2015-09-09T12:52:20Z</time>
      </trkpt>
      <trkpt lat="43.42828" lon="6.05731">
        <ele>311.60000610352</ele>
        <time>2015-09-09T12:52:22Z</time>
      </trkpt>
      <trkpt lat="43.42828" lon="6.05731">
        <ele>311.39999389648</ele>
        <time>2015-09-09T12:52:24Z</time>
      </trkpt>
      <trkpt lat="43.42828" lon="6.05731">
        <ele>311.60000610352</ele>
        <time>2015-09-09T12:52:26Z</time>
      </trkpt>
      <trkpt lat="43.42828" lon="6.05731">
        <ele>311.60000610352</ele>
        <time>2015-09-09T12:52:38Z</time>
      </trkpt>
      <trkpt lat="43.42828" lon="6.05731">
        <ele>311.39999389648</ele>
        <time>2015-09-09T12:52:44Z</time>
      </trkpt>
      <trkpt lat="43.42828" lon="6.0573">
        <ele>311.39999389648</ele>
        <time>2015-09-09T12:53:02Z</time>
      </trkpt>
      <trkpt lat="43.42828" lon="6.0573">
        <ele>311.39999389648</ele>
        <time>2015-09-09T12:53:04Z</time>
      </trkpt>
      <trkpt lat="43.42828" lon="6.0573">
        <ele>311.60000610352</ele>
        <time>2015-09-09T12:53:06Z</time>
      </trkpt>
      <trkpt lat="43.42828" lon="6.05731">
        <ele>311.39999389648</ele>
        <time>2015-09-09T12:53:08Z</time>
      </trkpt>
      <trkpt lat="43.42829" lon="6.05731">
        <ele>311.60000610352</ele>
        <time>2015-09-09T12:53:10Z</time>
      </trkpt>
      <trkpt lat="43.42829" lon="6.05731">
        <ele>311.60000610352</ele>
        <time>2015-09-09T12:53:12Z</time>
      </trkpt>
      <trkpt lat="43.42829" lon="6.05731">
        <ele>311.60000610352</ele>
        <time>2015-09-09T12:53:16Z</time>
      </trkpt>
      <trkpt lat="43.42829" lon="6.05731">
        <ele>311.60000610352</ele>
        <time>2015-09-09T12:53:18Z</time>
      </trkpt>
      <trkpt lat="43.42829" lon="6.05731">
        <ele>311.79998779297</ele>
        <time>2015-09-09T12:53:22Z</time>
      </trkpt>
      <trkpt lat="43.42829" lon="6.0573">
        <ele>312</ele>
        <time>2015-09-09T12:53:28Z</time>
      </trkpt>
      <trkpt lat="43.42829" lon="6.0573">
        <ele>311.60000610352</ele>
        <time>2015-09-09T12:53:38Z</time>
      </trkpt>
      <trkpt lat="43.42829" lon="6.0573">
        <ele>311.60000610352</ele>
        <time>2015-09-09T12:53:42Z</time>
      </trkpt>
      <trkpt lat="43.42829" lon="6.0573">
        <ele>311.60000610352</ele>
        <time>2015-09-09T12:53:46Z</time>
      </trkpt>
      <trkpt lat="43.42828" lon="6.0573">
        <ele>311.60000610352</ele>
        <time>2015-09-09T12:53:48Z</time>
      </trkpt>
      <trkpt lat="43.42829" lon="6.0573">
        <ele>311.79998779297</ele>
        <time>2015-09-09T12:53:54Z</time>
      </trkpt>
      <trkpt lat="43.42828" lon="6.0573">
        <ele>311.79998779297</ele>
        <time>2015-09-09T12:53:58Z</time>
      </trkpt>
      <trkpt lat="43.42829" lon="6.0573">
        <ele>311.79998779297</ele>
        <time>2015-09-09T12:54:06Z</time>
      </trkpt>
      <trkpt lat="43.42829" lon="6.0573">
        <ele>312</ele>
        <time>2015-09-09T12:54:08Z</time>
      </trkpt>
      <trkpt lat="43.42829" lon="6.0573">
        <ele>311.79998779297</ele>
        <time>2015-09-09T12:54:12Z</time>
      </trkpt>
      <trkpt lat="43.42829" lon="6.0573">
        <ele>311.79998779297</ele>
        <time>2015-09-09T12:54:14Z</time>
      </trkpt>
      <trkpt lat="43.42829" lon="6.0573">
        <ele>312</ele>
        <time>2015-09-09T12:54:16Z</time>
      </trkpt>
      <trkpt lat="43.42829" lon="6.0573">
        <ele>311.79998779297</ele>
        <time>2015-09-09T12:54:18Z</time>
      </trkpt>
      <trkpt lat="43.42831" lon="6.05728">
        <ele>312</ele>
        <time>2015-09-09T12:54:20Z</time>
      </trkpt>
      <trkpt lat="43.42833" lon="6.05725">
        <ele>312.20001220703</ele>
        <time>2015-09-09T12:54:22Z</time>
      </trkpt>
      <trkpt lat="43.42834" lon="6.05722">
        <ele>312.20001220703</ele>
        <time>2015-09-09T12:54:23Z</time>
      </trkpt>
      <trkpt lat="43.42835" lon="6.05719">
        <ele>312.39999389648</ele>
        <time>2015-09-09T12:54:24Z</time>
      </trkpt>
      <trkpt lat="43.42837" lon="6.05716">
        <ele>312.39999389648</ele>
        <time>2015-09-09T12:54:25Z</time>
      </trkpt>
      <trkpt lat="43.42838" lon="6.05712">
        <ele>312.60000610352</ele>
        <time>2015-09-09T12:54:26Z</time>
      </trkpt>
      <trkpt lat="43.42838" lon="6.05704">
        <ele>312.79998779297</ele>
        <time>2015-09-09T12:54:28Z</time>
      </trkpt>
      <trkpt lat="43.4284" lon="6.05696">
        <ele>313</ele>
        <time>2015-09-09T12:54:30Z</time>
      </trkpt>
      <trkpt lat="43.42842" lon="6.0569">
        <ele>312.60000610352</ele>
        <time>2015-09-09T12:54:32Z</time>
      </trkpt>
      <trkpt lat="43.42842" lon="6.05683">
        <ele>312.39999389648</ele>
        <time>2015-09-09T12:54:34Z</time>
      </trkpt>
      <trkpt lat="43.42844" lon="6.05676">
        <ele>312.60000610352</ele>
        <time>2015-09-09T12:54:36Z</time>
      </trkpt>
      <trkpt lat="43.42845" lon="6.05666">
        <ele>312.39999389648</ele>
        <time>2015-09-09T12:54:38Z</time>
      </trkpt>
      <trkpt lat="43.42846" lon="6.05656">
        <ele>312.39999389648</ele>
        <time>2015-09-09T12:54:40Z</time>
      </trkpt>
      <trkpt lat="43.42847" lon="6.05646">
        <ele>312.39999389648</ele>
        <time>2015-09-09T12:54:42Z</time>
      </trkpt>
      <trkpt lat="43.42848" lon="6.0564">
        <ele>312</ele>
        <time>2015-09-09T12:54:43Z</time>
      </trkpt>
      <trkpt lat="43.42849" lon="6.05634">
        <ele>311.60000610352</ele>
        <time>2015-09-09T12:54:44Z</time>
      </trkpt>
      <trkpt lat="43.4285" lon="6.05622">
        <ele>311.39999389648</ele>
        <time>2015-09-09T12:54:46Z</time>
      </trkpt>
      <trkpt lat="43.42851" lon="6.05611">
        <ele>311.79998779297</ele>
        <time>2015-09-09T12:54:48Z</time>
      </trkpt>
      <trkpt lat="43.42852" lon="6.056">
        <ele>311.79998779297</ele>
        <time>2015-09-09T12:54:50Z</time>
      </trkpt>
      <trkpt lat="43.42853" lon="6.05594">
        <ele>311.79998779297</ele>
        <time>2015-09-09T12:54:51Z</time>
      </trkpt>
      <trkpt lat="43.42853" lon="6.05589">
        <ele>312</ele>
        <time>2015-09-09T12:54:52Z</time>
      </trkpt>
      <trkpt lat="43.42855" lon="6.05576">
        <ele>311</ele>
        <time>2015-09-09T12:54:54Z</time>
      </trkpt>
      <trkpt lat="43.42857" lon="6.05563">
        <ele>310.79998779297</ele>
        <time>2015-09-09T12:54:56Z</time>
      </trkpt>
      <trkpt lat="43.42858" lon="6.05552">
        <ele>310.79998779297</ele>
        <time>2015-09-09T12:54:58Z</time>
      </trkpt>
      <trkpt lat="43.4286" lon="6.05548">
        <ele>310.79998779297</ele>
        <time>2015-09-09T12:54:59Z</time>
      </trkpt>
      <trkpt lat="43.42862" lon="6.05545">
        <ele>311</ele>
        <time>2015-09-09T12:55:00Z</time>
      </trkpt>
      <trkpt lat="43.42864" lon="6.05543">
        <ele>310.79998779297</ele>
        <time>2015-09-09T12:55:02Z</time>
      </trkpt>
      <trkpt lat="43.42864" lon="6.05543">
        <ele>311.20001220703</ele>
        <time>2015-09-09T12:55:04Z</time>
      </trkpt>
      <trkpt lat="43.42864" lon="6.05543">
        <ele>311</ele>
        <time>2015-09-09T12:55:06Z</time>
      </trkpt>
      <trkpt lat="43.42864" lon="6.05542">
        <ele>311</ele>
        <time>2015-09-09T12:55:07Z</time>
      </trkpt>
      <trkpt lat="43.42863" lon="6.05543">
        <ele>311</ele>
        <time>2015-09-09T12:55:08Z</time>
      </trkpt>
      <trkpt lat="43.42864" lon="6.05543">
        <ele>311</ele>
        <time>2015-09-09T12:55:10Z</time>
      </trkpt>
      <trkpt lat="43.42864" lon="6.05543">
        <ele>311</ele>
        <time>2015-09-09T12:55:12Z</time>
      </trkpt>
      <trkpt lat="43.42864" lon="6.05543">
        <ele>310.79998779297</ele>
        <time>2015-09-09T12:55:14Z</time>
      </trkpt>
      <trkpt lat="43.42867" lon="6.05543">
        <ele>310.79998779297</ele>
        <time>2015-09-09T12:55:16Z</time>
      </trkpt>
      <trkpt lat="43.42872" lon="6.05545">
        <ele>310.79998779297</ele>
        <time>2015-09-09T12:55:18Z</time>
      </trkpt>
      <trkpt lat="43.42879" lon="6.05549">
        <ele>310.39999389648</ele>
        <time>2015-09-09T12:55:20Z</time>
      </trkpt>
      <trkpt lat="43.42887" lon="6.05554">
        <ele>310.20001220703</ele>
        <time>2015-09-09T12:55:22Z</time>
      </trkpt>
      <trkpt lat="43.42896" lon="6.05557">
        <ele>309.79998779297</ele>
        <time>2015-09-09T12:55:24Z</time>
      </trkpt>
      <trkpt lat="43.42905" lon="6.05556">
        <ele>309.79998779297</ele>
        <time>2015-09-09T12:55:26Z</time>
      </trkpt>
      <trkpt lat="43.42914" lon="6.05549">
        <ele>309.20001220703</ele>
        <time>2015-09-09T12:55:28Z</time>
      </trkpt>
      <trkpt lat="43.42924" lon="6.05544">
        <ele>308.79998779297</ele>
        <time>2015-09-09T12:55:30Z</time>
      </trkpt>
      <trkpt lat="43.42928" lon="6.05539">
        <ele>308.39999389648</ele>
        <time>2015-09-09T12:55:31Z</time>
      </trkpt>
      <trkpt lat="43.42931" lon="6.05535">
        <ele>308.20001220703</ele>
        <time>2015-09-09T12:55:32Z</time>
      </trkpt>
      <trkpt lat="43.42939" lon="6.05531">
        <ele>309</ele>
        <time>2015-09-09T12:55:34Z</time>
      </trkpt>
      <trkpt lat="43.42942" lon="6.0553">
        <ele>308.79998779297</ele>
        <time>2015-09-09T12:55:35Z</time>
      </trkpt>
      <trkpt lat="43.42946" lon="6.05528">
        <ele>308</ele>
        <time>2015-09-09T12:55:36Z</time>
      </trkpt>
      <trkpt lat="43.42952" lon="6.05525">
        <ele>308.39999389648</ele>
        <time>2015-09-09T12:55:38Z</time>
      </trkpt>
      <trkpt lat="43.42957" lon="6.05522">
        <ele>308.60000610352</ele>
        <time>2015-09-09T12:55:40Z</time>
      </trkpt>
      <trkpt lat="43.42962" lon="6.05521">
        <ele>309.79998779297</ele>
        <time>2015-09-09T12:55:42Z</time>
      </trkpt>
      <trkpt lat="43.42966" lon="6.05519">
        <ele>311</ele>
        <time>2015-09-09T12:55:44Z</time>
      </trkpt>
      <trkpt lat="43.42968" lon="6.05517">
        <ele>311</ele>
        <time>2015-09-09T12:55:45Z</time>
      </trkpt>
      <trkpt lat="43.4297" lon="6.05516">
        <ele>311.39999389648</ele>
        <time>2015-09-09T12:55:46Z</time>
      </trkpt>
      <trkpt lat="43.42977" lon="6.05512">
        <ele>312.39999389648</ele>
        <time>2015-09-09T12:55:49Z</time>
      </trkpt>
      <trkpt lat="43.42979" lon="6.05511">
        <ele>312.79998779297</ele>
        <time>2015-09-09T12:55:50Z</time>
      </trkpt>
      <trkpt lat="43.42982" lon="6.05508">
        <ele>313.39999389648</ele>
        <time>2015-09-09T12:55:52Z</time>
      </trkpt>
      <trkpt lat="43.42987" lon="6.05506">
        <ele>313.39999389648</ele>
        <time>2015-09-09T12:55:54Z</time>
      </trkpt>
      <trkpt lat="43.4299" lon="6.05505">
        <ele>314.20001220703</ele>
        <time>2015-09-09T12:55:56Z</time>
      </trkpt>
      <trkpt lat="43.42991" lon="6.05505">
        <ele>315</ele>
        <time>2015-09-09T12:55:58Z</time>
      </trkpt>
      <trkpt lat="43.42993" lon="6.05505">
        <ele>315.20001220703</ele>
        <time>2015-09-09T12:56:00Z</time>
      </trkpt>
      <trkpt lat="43.42996" lon="6.05505">
        <ele>315.60000610352</ele>
        <time>2015-09-09T12:56:02Z</time>
      </trkpt>
      <trkpt lat="43.43" lon="6.05506">
        <ele>316</ele>
        <time>2015-09-09T12:56:04Z</time>
      </trkpt>
      <trkpt lat="43.43002" lon="6.05506">
        <ele>316.60000610352</ele>
        <time>2015-09-09T12:56:06Z</time>
      </trkpt>
      <trkpt lat="43.43003" lon="6.05506">
        <ele>316.39999389648</ele>
        <time>2015-09-09T12:56:08Z</time>
      </trkpt>
      <trkpt lat="43.43007" lon="6.05509">
        <ele>316</ele>
        <time>2015-09-09T12:56:10Z</time>
      </trkpt>
      <trkpt lat="43.4301" lon="6.05514">
        <ele>316.39999389648</ele>
        <time>2015-09-09T12:56:12Z</time>
      </trkpt>
      <trkpt lat="43.43011" lon="6.05521">
        <ele>316.39999389648</ele>
        <time>2015-09-09T12:56:14Z</time>
      </trkpt>
      <trkpt lat="43.43013" lon="6.05529">
        <ele>315.39999389648</ele>
        <time>2015-09-09T12:56:16Z</time>
      </trkpt>
      <trkpt lat="43.43014" lon="6.0554">
        <ele>315.39999389648</ele>
        <time>2015-09-09T12:56:18Z</time>
      </trkpt>
      <trkpt lat="43.43016" lon="6.05547">
        <ele>314.60000610352</ele>
        <time>2015-09-09T12:56:20Z</time>
      </trkpt>
      <trkpt lat="43.43017" lon="6.05552">
        <ele>314.39999389648</ele>
        <time>2015-09-09T12:56:21Z</time>
      </trkpt>
      <trkpt lat="43.43017" lon="6.05555">
        <ele>314.39999389648</ele>
        <time>2015-09-09T12:56:22Z</time>
      </trkpt>
      <trkpt lat="43.43018" lon="6.0557">
        <ele>314</ele>
        <time>2015-09-09T12:56:26Z</time>
      </trkpt>
      <trkpt lat="43.43019" lon="6.05575">
        <ele>313.79998779297</ele>
        <time>2015-09-09T12:56:28Z</time>
      </trkpt>
      <trkpt lat="43.43023" lon="6.05581">
        <ele>313.39999389648</ele>
        <time>2015-09-09T12:56:30Z</time>
      </trkpt>
      <trkpt lat="43.43024" lon="6.05586">
        <ele>313.39999389648</ele>
        <time>2015-09-09T12:56:32Z</time>
      </trkpt>
      <trkpt lat="43.43027" lon="6.05593">
        <ele>313.20001220703</ele>
        <time>2015-09-09T12:56:34Z</time>
      </trkpt>
      <trkpt lat="43.43027" lon="6.056">
        <ele>312.79998779297</ele>
        <time>2015-09-09T12:56:36Z</time>
      </trkpt>
      <trkpt lat="43.43027" lon="6.05608">
        <ele>312.39999389648</ele>
        <time>2015-09-09T12:56:38Z</time>
      </trkpt>
      <trkpt lat="43.43026" lon="6.05618">
        <ele>312</ele>
        <time>2015-09-09T12:56:40Z</time>
      </trkpt>
      <trkpt lat="43.43025" lon="6.05624">
        <ele>311.20001220703</ele>
        <time>2015-09-09T12:56:42Z</time>
      </trkpt>
      <trkpt lat="43.43025" lon="6.05632">
        <ele>311</ele>
        <time>2015-09-09T12:56:44Z</time>
      </trkpt>
      <trkpt lat="43.43024" lon="6.05641">
        <ele>310.20001220703</ele>
        <time>2015-09-09T12:56:46Z</time>
      </trkpt>
      <trkpt lat="43.43023" lon="6.05646">
        <ele>309.79998779297</ele>
        <time>2015-09-09T12:56:47Z</time>
      </trkpt>
      <trkpt lat="43.43023" lon="6.05651">
        <ele>309.39999389648</ele>
        <time>2015-09-09T12:56:48Z</time>
      </trkpt>
      <trkpt lat="43.43023" lon="6.05661">
        <ele>309.79998779297</ele>
        <time>2015-09-09T12:56:50Z</time>
      </trkpt>
      <trkpt lat="43.43023" lon="6.05671">
        <ele>309.60000610352</ele>
        <time>2015-09-09T12:56:52Z</time>
      </trkpt>
      <trkpt lat="43.43023" lon="6.05674">
        <ele>309</ele>
        <time>2015-09-09T12:56:53Z</time>
      </trkpt>
      <trkpt lat="43.43024" lon="6.05677">
        <ele>309</ele>
        <time>2015-09-09T12:56:54Z</time>
      </trkpt>
      <trkpt lat="43.43024" lon="6.05687">
        <ele>309.20001220703</ele>
        <time>2015-09-09T12:56:56Z</time>
      </trkpt>
      <trkpt lat="43.43024" lon="6.05693">
        <ele>308.60000610352</ele>
        <time>2015-09-09T12:56:57Z</time>
      </trkpt>
      <trkpt lat="43.43024" lon="6.05696">
        <ele>307.60000610352</ele>
        <time>2015-09-09T12:56:58Z</time>
      </trkpt>
      <trkpt lat="43.43021" lon="6.05702">
        <ele>307.20001220703</ele>
        <time>2015-09-09T12:57:00Z</time>
      </trkpt>
      <trkpt lat="43.43019" lon="6.05705">
        <ele>307.39999389648</ele>
        <time>2015-09-09T12:57:01Z</time>
      </trkpt>
      <trkpt lat="43.43019" lon="6.05709">
        <ele>307.20001220703</ele>
        <time>2015-09-09T12:57:02Z</time>
      </trkpt>
      <trkpt lat="43.43018" lon="6.05718">
        <ele>307</ele>
        <time>2015-09-09T12:57:04Z</time>
      </trkpt>
      <trkpt lat="43.43017" lon="6.05723">
        <ele>306.60000610352</ele>
        <time>2015-09-09T12:57:05Z</time>
      </trkpt>
      <trkpt lat="43.43017" lon="6.05726">
        <ele>306.39999389648</ele>
        <time>2015-09-09T12:57:06Z</time>
      </trkpt>
      <trkpt lat="43.43015" lon="6.05733">
        <ele>306</ele>
        <time>2015-09-09T12:57:08Z</time>
      </trkpt>
      <trkpt lat="43.43014" lon="6.05736">
        <ele>305.39999389648</ele>
        <time>2015-09-09T12:57:09Z</time>
      </trkpt>
      <trkpt lat="43.43011" lon="6.05738">
        <ele>305</ele>
        <time>2015-09-09T12:57:10Z</time>
      </trkpt>
      <trkpt lat="43.43008" lon="6.05743">
        <ele>304.60000610352</ele>
        <time>2015-09-09T12:57:12Z</time>
      </trkpt>
      <trkpt lat="43.43005" lon="6.0575">
        <ele>304.60000610352</ele>
        <time>2015-09-09T12:57:14Z</time>
      </trkpt>
      <trkpt lat="43.43003" lon="6.05759">
        <ele>304.79998779297</ele>
        <time>2015-09-09T12:57:16Z</time>
      </trkpt>
      <trkpt lat="43.43004" lon="6.05769">
        <ele>304.60000610352</ele>
        <time>2015-09-09T12:57:18Z</time>
      </trkpt>
      <trkpt lat="43.43002" lon="6.05776">
        <ele>304.60000610352</ele>
        <time>2015-09-09T12:57:20Z</time>
      </trkpt>
      <trkpt lat="43.43001" lon="6.05782">
        <ele>304.60000610352</ele>
        <time>2015-09-09T12:57:22Z</time>
      </trkpt>
      <trkpt lat="43.43" lon="6.05787">
        <ele>304.20001220703</ele>
        <time>2015-09-09T12:57:23Z</time>
      </trkpt>
      <trkpt lat="43.43001" lon="6.0579">
        <ele>303.79998779297</ele>
        <time>2015-09-09T12:57:24Z</time>
      </trkpt>
      <trkpt lat="43.43001" lon="6.05794">
        <ele>303</ele>
        <time>2015-09-09T12:57:25Z</time>
      </trkpt>
      <trkpt lat="43.43002" lon="6.05798">
        <ele>302.79998779297</ele>
        <time>2015-09-09T12:57:26Z</time>
      </trkpt>
      <trkpt lat="43.43003" lon="6.05805">
        <ele>302</ele>
        <time>2015-09-09T12:57:28Z</time>
      </trkpt>
      <trkpt lat="43.43002" lon="6.05822">
        <ele>300.79998779297</ele>
        <time>2015-09-09T12:57:32Z</time>
      </trkpt>
      <trkpt lat="43.43002" lon="6.05828">
        <ele>300.20001220703</ele>
        <time>2015-09-09T12:57:33Z</time>
      </trkpt>
      <trkpt lat="43.43002" lon="6.05835">
        <ele>299.60000610352</ele>
        <time>2015-09-09T12:57:34Z</time>
      </trkpt>
      <trkpt lat="43.43002" lon="6.05841">
        <ele>298.79998779297</ele>
        <time>2015-09-09T12:57:35Z</time>
      </trkpt>
      <trkpt lat="43.43002" lon="6.05845">
        <ele>298</ele>
        <time>2015-09-09T12:57:36Z</time>
      </trkpt>
      <trkpt lat="43.43003" lon="6.05849">
        <ele>297.20001220703</ele>
        <time>2015-09-09T12:57:37Z</time>
      </trkpt>
      <trkpt lat="43.43003" lon="6.05852">
        <ele>296.79998779297</ele>
        <time>2015-09-09T12:57:38Z</time>
      </trkpt>
      <trkpt lat="43.43005" lon="6.05855">
        <ele>296.60000610352</ele>
        <time>2015-09-09T12:57:39Z</time>
      </trkpt>
      <trkpt lat="43.43008" lon="6.05856">
        <ele>296.20001220703</ele>
        <time>2015-09-09T12:57:40Z</time>
      </trkpt>
      <trkpt lat="43.43013" lon="6.0586">
        <ele>295.20001220703</ele>
        <time>2015-09-09T12:57:42Z</time>
      </trkpt>
      <trkpt lat="43.43017" lon="6.05861">
        <ele>293.60000610352</ele>
        <time>2015-09-09T12:57:43Z</time>
      </trkpt>
      <trkpt lat="43.43021" lon="6.05862">
        <ele>292.20001220703</ele>
        <time>2015-09-09T12:57:44Z</time>
      </trkpt>
      <trkpt lat="43.43024" lon="6.05863">
        <ele>291.39999389648</ele>
        <time>2015-09-09T12:57:45Z</time>
      </trkpt>
      <trkpt lat="43.43027" lon="6.05863">
        <ele>290.60000610352</ele>
        <time>2015-09-09T12:57:46Z</time>
      </trkpt>
      <trkpt lat="43.43033" lon="6.05861">
        <ele>290</ele>
        <time>2015-09-09T12:57:48Z</time>
      </trkpt>
      <trkpt lat="43.43036" lon="6.0586">
        <ele>289.39999389648</ele>
        <time>2015-09-09T12:57:49Z</time>
      </trkpt>
      <trkpt lat="43.43039" lon="6.05859">
        <ele>288.60000610352</ele>
        <time>2015-09-09T12:57:50Z</time>
      </trkpt>
      <trkpt lat="43.43042" lon="6.05858">
        <ele>288.20001220703</ele>
        <time>2015-09-09T12:57:52Z</time>
      </trkpt>
      <trkpt lat="43.43048" lon="6.05856">
        <ele>287.20001220703</ele>
        <time>2015-09-09T12:57:54Z</time>
      </trkpt>
      <trkpt lat="43.43051" lon="6.05855">
        <ele>286.79998779297</ele>
        <time>2015-09-09T12:57:55Z</time>
      </trkpt>
      <trkpt lat="43.43054" lon="6.05854">
        <ele>286</ele>
        <time>2015-09-09T12:57:56Z</time>
      </trkpt>
      <trkpt lat="43.4306" lon="6.05852">
        <ele>284.20001220703</ele>
        <time>2015-09-09T12:57:58Z</time>
      </trkpt>
      <trkpt lat="43.43071" lon="6.05852">
        <ele>282</ele>
        <time>2015-09-09T12:58:02Z</time>
      </trkpt>
      <trkpt lat="43.43081" lon="6.05849">
        <ele>280.39999389648</ele>
        <time>2015-09-09T12:58:06Z</time>
      </trkpt>
      <trkpt lat="43.43086" lon="6.05847">
        <ele>279.20001220703</ele>
        <time>2015-09-09T12:58:08Z</time>
      </trkpt>
      <trkpt lat="43.4309" lon="6.05845">
        <ele>279</ele>
        <time>2015-09-09T12:58:10Z</time>
      </trkpt>
      <trkpt lat="43.43092" lon="6.05845">
        <ele>278.79998779297</ele>
        <time>2015-09-09T12:58:11Z</time>
      </trkpt>
      <trkpt lat="43.43093" lon="6.05844">
        <ele>278.79998779297</ele>
        <time>2015-09-09T12:58:12Z</time>
      </trkpt>
      <trkpt lat="43.43097" lon="6.05845">
        <ele>277.39999389648</ele>
        <time>2015-09-09T12:58:14Z</time>
      </trkpt>
      <trkpt lat="43.43101" lon="6.05843">
        <ele>276.60000610352</ele>
        <time>2015-09-09T12:58:16Z</time>
      </trkpt>
      <trkpt lat="43.43103" lon="6.05843">
        <ele>276.39999389648</ele>
        <time>2015-09-09T12:58:17Z</time>
      </trkpt>
      <trkpt lat="43.43106" lon="6.05843">
        <ele>276</ele>
        <time>2015-09-09T12:58:18Z</time>
      </trkpt>
      <trkpt lat="43.4311" lon="6.05844">
        <ele>275</ele>
        <time>2015-09-09T12:58:19Z</time>
      </trkpt>
      <trkpt lat="43.43112" lon="6.05845">
        <ele>274.20001220703</ele>
        <time>2015-09-09T12:58:20Z</time>
      </trkpt>
      <trkpt lat="43.43115" lon="6.05845">
        <ele>273.39999389648</ele>
        <time>2015-09-09T12:58:21Z</time>
      </trkpt>
      <trkpt lat="43.43118" lon="6.05844">
        <ele>272.79998779297</ele>
        <time>2015-09-09T12:58:22Z</time>
      </trkpt>
      <trkpt lat="43.43122" lon="6.05845">
        <ele>272</ele>
        <time>2015-09-09T12:58:24Z</time>
      </trkpt>
      <trkpt lat="43.43127" lon="6.05844">
        <ele>271.79998779297</ele>
        <time>2015-09-09T12:58:26Z</time>
      </trkpt>
      <trkpt lat="43.43132" lon="6.05843">
        <ele>270.20001220703</ele>
        <time>2015-09-09T12:58:28Z</time>
      </trkpt>
      <trkpt lat="43.43139" lon="6.05843">
        <ele>269.60000610352</ele>
        <time>2015-09-09T12:58:30Z</time>
      </trkpt>
      <trkpt lat="43.43143" lon="6.05842">
        <ele>269.20001220703</ele>
        <time>2015-09-09T12:58:32Z</time>
      </trkpt>
      <trkpt lat="43.43146" lon="6.05841">
        <ele>268.60000610352</ele>
        <time>2015-09-09T12:58:33Z</time>
      </trkpt>
      <trkpt lat="43.43149" lon="6.05839">
        <ele>268.39999389648</ele>
        <time>2015-09-09T12:58:34Z</time>
      </trkpt>
      <trkpt lat="43.43151" lon="6.05838">
        <ele>268</ele>
        <time>2015-09-09T12:58:35Z</time>
      </trkpt>
      <trkpt lat="43.43154" lon="6.05837">
        <ele>267.60000610352</ele>
        <time>2015-09-09T12:58:36Z</time>
      </trkpt>
      <trkpt lat="43.43159" lon="6.05835">
        <ele>266.60000610352</ele>
        <time>2015-09-09T12:58:38Z</time>
      </trkpt>
      <trkpt lat="43.43163" lon="6.05835">
        <ele>266</ele>
        <time>2015-09-09T12:58:40Z</time>
      </trkpt>
      <trkpt lat="43.43169" lon="6.05833">
        <ele>265.60000610352</ele>
        <time>2015-09-09T12:58:42Z</time>
      </trkpt>
      <trkpt lat="43.43174" lon="6.05831">
        <ele>265</ele>
        <time>2015-09-09T12:58:43Z</time>
      </trkpt>
      <trkpt lat="43.43177" lon="6.05829">
        <ele>263.79998779297</ele>
        <time>2015-09-09T12:58:44Z</time>
      </trkpt>
      <trkpt lat="43.43182" lon="6.0582">
        <ele>263</ele>
        <time>2015-09-09T12:58:46Z</time>
      </trkpt>
      <trkpt lat="43.43183" lon="6.05815">
        <ele>262.79998779297</ele>
        <time>2015-09-09T12:58:47Z</time>
      </trkpt>
      <trkpt lat="43.43182" lon="6.05816">
        <ele>262.79998779297</ele>
        <time>2015-09-09T12:58:48Z</time>
      </trkpt>
      <trkpt lat="43.43182" lon="6.05816">
        <ele>262.79998779297</ele>
        <time>2015-09-09T12:58:49Z</time>
      </trkpt>
      <trkpt lat="43.43182" lon="6.05816">
        <ele>262.79998779297</ele>
        <time>2015-09-09T12:58:50Z</time>
      </trkpt>
      <trkpt lat="43.43182" lon="6.05816">
        <ele>263</ele>
        <time>2015-09-09T12:58:52Z</time>
      </trkpt>
      <trkpt lat="43.43182" lon="6.05816">
        <ele>263</ele>
        <time>2015-09-09T12:58:54Z</time>
      </trkpt>
      <trkpt lat="43.43182" lon="6.05816">
        <ele>263</ele>
        <time>2015-09-09T12:59:00Z</time>
      </trkpt>
      <trkpt lat="43.43182" lon="6.05816">
        <ele>263</ele>
        <time>2015-09-09T12:59:04Z</time>
      </trkpt>
      <trkpt lat="43.43182" lon="6.05816">
        <ele>263</ele>
        <time>2015-09-09T12:59:08Z</time>
      </trkpt>
      <trkpt lat="43.43183" lon="6.05816">
        <ele>263</ele>
        <time>2015-09-09T12:59:10Z</time>
      </trkpt>
      <trkpt lat="43.43183" lon="6.05816">
        <ele>263</ele>
        <time>2015-09-09T12:59:12Z</time>
      </trkpt>
      <trkpt lat="43.43182" lon="6.05816">
        <ele>263</ele>
        <time>2015-09-09T12:59:14Z</time>
      </trkpt>
      <trkpt lat="43.43182" lon="6.05816">
        <ele>263</ele>
        <time>2015-09-09T12:59:16Z</time>
      </trkpt>
      <trkpt lat="43.43183" lon="6.05816">
        <ele>262.79998779297</ele>
        <time>2015-09-09T12:59:18Z</time>
      </trkpt>
      <trkpt lat="43.43183" lon="6.05816">
        <ele>263</ele>
        <time>2015-09-09T12:59:20Z</time>
      </trkpt>
      <trkpt lat="43.43182" lon="6.05816">
        <ele>263</ele>
        <time>2015-09-09T12:59:22Z</time>
      </trkpt>
      <trkpt lat="43.43182" lon="6.05816">
        <ele>263</ele>
        <time>2015-09-09T12:59:26Z</time>
      </trkpt>
      <trkpt lat="43.43182" lon="6.05816">
        <ele>263</ele>
        <time>2015-09-09T12:59:34Z</time>
      </trkpt>
      <trkpt lat="43.43182" lon="6.05816">
        <ele>263.20001220703</ele>
        <time>2015-09-09T13:00:32Z</time>
      </trkpt>
      <trkpt lat="43.43182" lon="6.05816">
        <ele>263</ele>
        <time>2015-09-09T13:00:46Z</time>
      </trkpt>
      <trkpt lat="43.43182" lon="6.05816">
        <ele>263.20001220703</ele>
        <time>2015-09-09T13:00:56Z</time>
      </trkpt>
      <trkpt lat="43.43183" lon="6.05816">
        <ele>263.39999389648</ele>
        <time>2015-09-09T13:00:58Z</time>
      </trkpt>
      <trkpt lat="43.43186" lon="6.0581">
        <ele>263.39999389648</ele>
        <time>2015-09-09T13:01:00Z</time>
      </trkpt>
      <trkpt lat="43.4319" lon="6.05803">
        <ele>263.20001220703</ele>
        <time>2015-09-09T13:01:02Z</time>
      </trkpt>
      <trkpt lat="43.43192" lon="6.05799">
        <ele>263.20001220703</ele>
        <time>2015-09-09T13:01:03Z</time>
      </trkpt>
      <trkpt lat="43.43194" lon="6.05796">
        <ele>263.20001220703</ele>
        <time>2015-09-09T13:01:04Z</time>
      </trkpt>
      <trkpt lat="43.43199" lon="6.05788">
        <ele>262.79998779297</ele>
        <time>2015-09-09T13:01:06Z</time>
      </trkpt>
      <trkpt lat="43.43205" lon="6.05779">
        <ele>262</ele>
        <time>2015-09-09T13:01:08Z</time>
      </trkpt>
      <trkpt lat="43.43211" lon="6.05769">
        <ele>261</ele>
        <time>2015-09-09T13:01:10Z</time>
      </trkpt>
      <trkpt lat="43.43214" lon="6.05751">
        <ele>261.39999389648</ele>
        <time>2015-09-09T13:01:13Z</time>
      </trkpt>
      <trkpt lat="43.43214" lon="6.05732">
        <ele>262</ele>
        <time>2015-09-09T13:01:16Z</time>
      </trkpt>
      <trkpt lat="43.43217" lon="6.05718">
        <ele>261.60000610352</ele>
        <time>2015-09-09T13:01:18Z</time>
      </trkpt>
      <trkpt lat="43.43218" lon="6.0571">
        <ele>261.39999389648</ele>
        <time>2015-09-09T13:01:19Z</time>
      </trkpt>
      <trkpt lat="43.43219" lon="6.05701">
        <ele>261.20001220703</ele>
        <time>2015-09-09T13:01:20Z</time>
      </trkpt>
      <trkpt lat="43.43221" lon="6.05687">
        <ele>261.20001220703</ele>
        <time>2015-09-09T13:01:22Z</time>
      </trkpt>
      <trkpt lat="43.43222" lon="6.05678">
        <ele>261.39999389648</ele>
        <time>2015-09-09T13:01:23Z</time>
      </trkpt>
      <trkpt lat="43.43222" lon="6.0567">
        <ele>261.20001220703</ele>
        <time>2015-09-09T13:01:24Z</time>
      </trkpt>
      <trkpt lat="43.43224" lon="6.05652">
        <ele>261.20001220703</ele>
        <time>2015-09-09T13:01:26Z</time>
      </trkpt>
      <trkpt lat="43.43228" lon="6.05616">
        <ele>260.79998779297</ele>
        <time>2015-09-09T13:01:30Z</time>
      </trkpt>
      <trkpt lat="43.4323" lon="6.05595">
        <ele>260.79998779297</ele>
        <time>2015-09-09T13:01:32Z</time>
      </trkpt>
      <trkpt lat="43.43232" lon="6.05577">
        <ele>260.60000610352</ele>
        <time>2015-09-09T13:01:34Z</time>
      </trkpt>
      <trkpt lat="43.43236" lon="6.05559">
        <ele>260.60000610352</ele>
        <time>2015-09-09T13:01:36Z</time>
      </trkpt>
      <trkpt lat="43.43239" lon="6.05551">
        <ele>260.20001220703</ele>
        <time>2015-09-09T13:01:37Z</time>
      </trkpt>
      <trkpt lat="43.43241" lon="6.05542">
        <ele>260.20001220703</ele>
        <time>2015-09-09T13:01:38Z</time>
      </trkpt>
      <trkpt lat="43.43245" lon="6.05525">
        <ele>259.60000610352</ele>
        <time>2015-09-09T13:01:40Z</time>
      </trkpt>
      <trkpt lat="43.43248" lon="6.05515">
        <ele>258.39999389648</ele>
        <time>2015-09-09T13:01:41Z</time>
      </trkpt>
      <trkpt lat="43.43251" lon="6.05506">
        <ele>257.60000610352</ele>
        <time>2015-09-09T13:01:42Z</time>
      </trkpt>
      <trkpt lat="43.43257" lon="6.05486">
        <ele>259</ele>
        <time>2015-09-09T13:01:44Z</time>
      </trkpt>
      <trkpt lat="43.43264" lon="6.05467">
        <ele>257.39999389648</ele>
        <time>2015-09-09T13:01:46Z</time>
      </trkpt>
      <trkpt lat="43.43268" lon="6.05457">
        <ele>256.79998779297</ele>
        <time>2015-09-09T13:01:47Z</time>
      </trkpt>
      <trkpt lat="43.43275" lon="6.05437">
        <ele>254.39999389648</ele>
        <time>2015-09-09T13:01:49Z</time>
      </trkpt>
      <trkpt lat="43.43279" lon="6.05428">
        <ele>254.19999694824</ele>
        <time>2015-09-09T13:01:50Z</time>
      </trkpt>
      <trkpt lat="43.43285" lon="6.05411">
        <ele>254.39999389648</ele>
        <time>2015-09-09T13:01:52Z</time>
      </trkpt>
      <trkpt lat="43.43292" lon="6.05396">
        <ele>254.60000610352</ele>
        <time>2015-09-09T13:01:54Z</time>
      </trkpt>
      <trkpt lat="43.43304" lon="6.05372">
        <ele>254.19999694824</ele>
        <time>2015-09-09T13:01:58Z</time>
      </trkpt>
      <trkpt lat="43.43309" lon="6.05362">
        <ele>254.80000305176</ele>
        <time>2015-09-09T13:02:00Z</time>
      </trkpt>
      <trkpt lat="43.43315" lon="6.05352">
        <ele>254.80000305176</ele>
        <time>2015-09-09T13:02:02Z</time>
      </trkpt>
      <trkpt lat="43.43318" lon="6.05347">
        <ele>255</ele>
        <time>2015-09-09T13:02:03Z</time>
      </trkpt>
      <trkpt lat="43.43321" lon="6.05342">
        <ele>255.19999694824</ele>
        <time>2015-09-09T13:02:04Z</time>
      </trkpt>
      <trkpt lat="43.43324" lon="6.05335">
        <ele>254.80000305176</ele>
        <time>2015-09-09T13:02:05Z</time>
      </trkpt>
      <trkpt lat="43.43326" lon="6.05329">
        <ele>254.60000610352</ele>
        <time>2015-09-09T13:02:06Z</time>
      </trkpt>
      <trkpt lat="43.43331" lon="6.05314">
        <ele>254.19999694824</ele>
        <time>2015-09-09T13:02:08Z</time>
      </trkpt>
      <trkpt lat="43.43334" lon="6.05307">
        <ele>254</ele>
        <time>2015-09-09T13:02:09Z</time>
      </trkpt>
      <trkpt lat="43.43336" lon="6.053">
        <ele>254</ele>
        <time>2015-09-09T13:02:10Z</time>
      </trkpt>
      <trkpt lat="43.43346" lon="6.05277">
        <ele>254</ele>
        <time>2015-09-09T13:02:13Z</time>
      </trkpt>
      <trkpt lat="43.43349" lon="6.05269">
        <ele>254</ele>
        <time>2015-09-09T13:02:14Z</time>
      </trkpt>
      <trkpt lat="43.43356" lon="6.05254">
        <ele>253.60000610352</ele>
        <time>2015-09-09T13:02:16Z</time>
      </trkpt>
      <trkpt lat="43.43361" lon="6.05238">
        <ele>254</ele>
        <time>2015-09-09T13:02:18Z</time>
      </trkpt>
      <trkpt lat="43.43367" lon="6.05223">
        <ele>254</ele>
        <time>2015-09-09T13:02:20Z</time>
      </trkpt>
      <trkpt lat="43.43372" lon="6.0521">
        <ele>254.19999694824</ele>
        <time>2015-09-09T13:02:22Z</time>
      </trkpt>
      <trkpt lat="43.43376" lon="6.05197">
        <ele>254.19999694824</ele>
        <time>2015-09-09T13:02:24Z</time>
      </trkpt>
      <trkpt lat="43.43387" lon="6.05165">
        <ele>255</ele>
        <time>2015-09-09T13:02:30Z</time>
      </trkpt>
      <trkpt lat="43.43389" lon="6.05156">
        <ele>255.19999694824</ele>
        <time>2015-09-09T13:02:32Z</time>
      </trkpt>
      <trkpt lat="43.43394" lon="6.05139">
        <ele>256.60000610352</ele>
        <time>2015-09-09T13:02:36Z</time>
      </trkpt>
      <trkpt lat="43.43396" lon="6.05131">
        <ele>256.79998779297</ele>
        <time>2015-09-09T13:02:38Z</time>
      </trkpt>
      <trkpt lat="43.43398" lon="6.05125">
        <ele>256.79998779297</ele>
        <time>2015-09-09T13:02:40Z</time>
      </trkpt>
      <trkpt lat="43.43398" lon="6.05119">
        <ele>257</ele>
        <time>2015-09-09T13:02:42Z</time>
      </trkpt>
      <trkpt lat="43.43399" lon="6.05113">
        <ele>256.79998779297</ele>
        <time>2015-09-09T13:02:44Z</time>
      </trkpt>
      <trkpt lat="43.43401" lon="6.05107">
        <ele>256.79998779297</ele>
        <time>2015-09-09T13:02:46Z</time>
      </trkpt>
      <trkpt lat="43.43402" lon="6.05104">
        <ele>256.79998779297</ele>
        <time>2015-09-09T13:02:47Z</time>
      </trkpt>
      <trkpt lat="43.43402" lon="6.05101">
        <ele>257</ele>
        <time>2015-09-09T13:02:48Z</time>
      </trkpt>
      <trkpt lat="43.43404" lon="6.05097">
        <ele>256.79998779297</ele>
        <time>2015-09-09T13:02:50Z</time>
      </trkpt>
      <trkpt lat="43.43404" lon="6.05096">
        <ele>256.79998779297</ele>
        <time>2015-09-09T13:02:51Z</time>
      </trkpt>
      <trkpt lat="43.43404" lon="6.05097">
        <ele>256.60000610352</ele>
        <time>2015-09-09T13:02:52Z</time>
      </trkpt>
      <trkpt lat="43.43403" lon="6.05096">
        <ele>256.60000610352</ele>
        <time>2015-09-09T13:02:54Z</time>
      </trkpt>
      <trkpt lat="43.43403" lon="6.05096">
        <ele>256.79998779297</ele>
        <time>2015-09-09T13:02:56Z</time>
      </trkpt>
      <trkpt lat="43.43404" lon="6.05096">
        <ele>256.60000610352</ele>
        <time>2015-09-09T13:03:00Z</time>
      </trkpt>
      <trkpt lat="43.43404" lon="6.05096">
        <ele>256.60000610352</ele>
        <time>2015-09-09T13:03:06Z</time>
      </trkpt>
      <trkpt lat="43.43404" lon="6.05096">
        <ele>256.79998779297</ele>
        <time>2015-09-09T13:03:22Z</time>
      </trkpt>
      <trkpt lat="43.43404" lon="6.05096">
        <ele>256.79998779297</ele>
        <time>2015-09-09T13:03:24Z</time>
      </trkpt>
      <trkpt lat="43.43404" lon="6.05096">
        <ele>256.60000610352</ele>
        <time>2015-09-09T13:03:26Z</time>
      </trkpt>
      <trkpt lat="43.43404" lon="6.05096">
        <ele>256.79998779297</ele>
        <time>2015-09-09T13:03:28Z</time>
      </trkpt>
      <trkpt lat="43.43404" lon="6.05096">
        <ele>256.60000610352</ele>
        <time>2015-09-09T13:03:34Z</time>
      </trkpt>
      <trkpt lat="43.43404" lon="6.05096">
        <ele>256.60000610352</ele>
        <time>2015-09-09T13:03:52Z</time>
      </trkpt>
      <trkpt lat="43.43404" lon="6.05096">
        <ele>256.60000610352</ele>
        <time>2015-09-09T13:03:58Z</time>
      </trkpt>
      <trkpt lat="43.43404" lon="6.05094">
        <ele>256.60000610352</ele>
        <time>2015-09-09T13:04:00Z</time>
      </trkpt>
      <trkpt lat="43.43405" lon="6.05091">
        <ele>257</ele>
        <time>2015-09-09T13:04:02Z</time>
      </trkpt>
      <trkpt lat="43.43407" lon="6.05084">
        <ele>257</ele>
        <time>2015-09-09T13:04:04Z</time>
      </trkpt>
      <trkpt lat="43.43409" lon="6.05074">
        <ele>256</ele>
        <time>2015-09-09T13:04:06Z</time>
      </trkpt>
      <trkpt lat="43.43413" lon="6.05061">
        <ele>256</ele>
        <time>2015-09-09T13:04:08Z</time>
      </trkpt>
      <trkpt lat="43.43414" lon="6.05053">
        <ele>256</ele>
        <time>2015-09-09T13:04:09Z</time>
      </trkpt>
      <trkpt lat="43.43415" lon="6.05047">
        <ele>255.80000305176</ele>
        <time>2015-09-09T13:04:10Z</time>
      </trkpt>
      <trkpt lat="43.43416" lon="6.05038">
        <ele>255.60000610352</ele>
        <time>2015-09-09T13:04:11Z</time>
      </trkpt>
      <trkpt lat="43.43417" lon="6.05031">
        <ele>255.60000610352</ele>
        <time>2015-09-09T13:04:12Z</time>
      </trkpt>
      <trkpt lat="43.4342" lon="6.05014">
        <ele>255</ele>
        <time>2015-09-09T13:04:14Z</time>
      </trkpt>
      <trkpt lat="43.43423" lon="6.04998">
        <ele>253.80000305176</ele>
        <time>2015-09-09T13:04:16Z</time>
      </trkpt>
      <trkpt lat="43.43427" lon="6.04982">
        <ele>253.60000610352</ele>
        <time>2015-09-09T13:04:18Z</time>
      </trkpt>
      <trkpt lat="43.43429" lon="6.04964">
        <ele>253.39999389648</ele>
        <time>2015-09-09T13:04:20Z</time>
      </trkpt>
      <trkpt lat="43.4343" lon="6.04948">
        <ele>252.80000305176</ele>
        <time>2015-09-09T13:04:22Z</time>
      </trkpt>
      <trkpt lat="43.4343" lon="6.04939">
        <ele>252.80000305176</ele>
        <time>2015-09-09T13:04:23Z</time>
      </trkpt>
      <trkpt lat="43.43433" lon="6.04915">
        <ele>253.60000610352</ele>
        <time>2015-09-09T13:04:26Z</time>
      </trkpt>
      <trkpt lat="43.43433" lon="6.04898">
        <ele>253.60000610352</ele>
        <time>2015-09-09T13:04:28Z</time>
      </trkpt>
      <trkpt lat="43.43435" lon="6.04882">
        <ele>252.80000305176</ele>
        <time>2015-09-09T13:04:30Z</time>
      </trkpt>
      <trkpt lat="43.43435" lon="6.04867">
        <ele>253.60000610352</ele>
        <time>2015-09-09T13:04:32Z</time>
      </trkpt>
      <trkpt lat="43.43436" lon="6.04859">
        <ele>253.80000305176</ele>
        <time>2015-09-09T13:04:33Z</time>
      </trkpt>
      <trkpt lat="43.43436" lon="6.04852">
        <ele>254</ele>
        <time>2015-09-09T13:04:34Z</time>
      </trkpt>
      <trkpt lat="43.43435" lon="6.04828">
        <ele>254</ele>
        <time>2015-09-09T13:04:37Z</time>
      </trkpt>
      <trkpt lat="43.43436" lon="6.04821">
        <ele>254</ele>
        <time>2015-09-09T13:04:38Z</time>
      </trkpt>
      <trkpt lat="43.43436" lon="6.04808">
        <ele>254.19999694824</ele>
        <time>2015-09-09T13:04:40Z</time>
      </trkpt>
      <trkpt lat="43.43438" lon="6.04794">
        <ele>254.39999389648</ele>
        <time>2015-09-09T13:04:42Z</time>
      </trkpt>
      <trkpt lat="43.43439" lon="6.0478">
        <ele>255</ele>
        <time>2015-09-09T13:04:44Z</time>
      </trkpt>
      <trkpt lat="43.43441" lon="6.04774">
        <ele>255</ele>
        <time>2015-09-09T13:04:45Z</time>
      </trkpt>
      <trkpt lat="43.43441" lon="6.04769">
        <ele>255.19999694824</ele>
        <time>2015-09-09T13:04:46Z</time>
      </trkpt>
      <trkpt lat="43.43443" lon="6.04757">
        <ele>255.60000610352</ele>
        <time>2015-09-09T13:04:48Z</time>
      </trkpt>
      <trkpt lat="43.43443" lon="6.04746">
        <ele>255.60000610352</ele>
        <time>2015-09-09T13:04:50Z</time>
      </trkpt>
      <trkpt lat="43.43443" lon="6.04734">
        <ele>255.60000610352</ele>
        <time>2015-09-09T13:04:52Z</time>
      </trkpt>
      <trkpt lat="43.43444" lon="6.04711">
        <ele>255.60000610352</ele>
        <time>2015-09-09T13:04:56Z</time>
      </trkpt>
      <trkpt lat="43.43446" lon="6.047">
        <ele>255.39999389648</ele>
        <time>2015-09-09T13:04:58Z</time>
      </trkpt>
      <trkpt lat="43.43447" lon="6.04689">
        <ele>255</ele>
        <time>2015-09-09T13:05:00Z</time>
      </trkpt>
      <trkpt lat="43.43451" lon="6.04678">
        <ele>255.60000610352</ele>
        <time>2015-09-09T13:05:02Z</time>
      </trkpt>
      <trkpt lat="43.43454" lon="6.04668">
        <ele>255.80000305176</ele>
        <time>2015-09-09T13:05:04Z</time>
      </trkpt>
      <trkpt lat="43.43456" lon="6.04657">
        <ele>255.80000305176</ele>
        <time>2015-09-09T13:05:06Z</time>
      </trkpt>
      <trkpt lat="43.43458" lon="6.04646">
        <ele>256</ele>
        <time>2015-09-09T13:05:08Z</time>
      </trkpt>
      <trkpt lat="43.4346" lon="6.04635">
        <ele>256.39999389648</ele>
        <time>2015-09-09T13:05:10Z</time>
      </trkpt>
      <trkpt lat="43.43462" lon="6.04623">
        <ele>256.79998779297</ele>
        <time>2015-09-09T13:05:12Z</time>
      </trkpt>
      <trkpt lat="43.43463" lon="6.0461">
        <ele>257.39999389648</ele>
        <time>2015-09-09T13:05:14Z</time>
      </trkpt>
      <trkpt lat="43.43464" lon="6.04599">
        <ele>257.39999389648</ele>
        <time>2015-09-09T13:05:16Z</time>
      </trkpt>
      <trkpt lat="43.43467" lon="6.04587">
        <ele>257</ele>
        <time>2015-09-09T13:05:18Z</time>
      </trkpt>
      <trkpt lat="43.43468" lon="6.04581">
        <ele>257.39999389648</ele>
        <time>2015-09-09T13:05:19Z</time>
      </trkpt>
      <trkpt lat="43.43468" lon="6.04575">
        <ele>257.60000610352</ele>
        <time>2015-09-09T13:05:20Z</time>
      </trkpt>
      <trkpt lat="43.43472" lon="6.04563">
        <ele>257.60000610352</ele>
        <time>2015-09-09T13:05:22Z</time>
      </trkpt>
      <trkpt lat="43.43476" lon="6.04552">
        <ele>257.39999389648</ele>
        <time>2015-09-09T13:05:24Z</time>
      </trkpt>
      <trkpt lat="43.43481" lon="6.04541">
        <ele>257.39999389648</ele>
        <time>2015-09-09T13:05:26Z</time>
      </trkpt>
      <trkpt lat="43.43485" lon="6.04529">
        <ele>257.79998779297</ele>
        <time>2015-09-09T13:05:28Z</time>
      </trkpt>
      <trkpt lat="43.43487" lon="6.04523">
        <ele>257.79998779297</ele>
        <time>2015-09-09T13:05:29Z</time>
      </trkpt>
      <trkpt lat="43.43489" lon="6.04517">
        <ele>257.60000610352</ele>
        <time>2015-09-09T13:05:30Z</time>
      </trkpt>
      <trkpt lat="43.43491" lon="6.04488">
        <ele>257.39999389648</ele>
        <time>2015-09-09T13:05:34Z</time>
      </trkpt>
      <trkpt lat="43.43491" lon="6.04474">
        <ele>257.60000610352</ele>
        <time>2015-09-09T13:05:36Z</time>
      </trkpt>
      <trkpt lat="43.4349" lon="6.0446">
        <ele>257.39999389648</ele>
        <time>2015-09-09T13:05:38Z</time>
      </trkpt>
      <trkpt lat="43.43491" lon="6.04454">
        <ele>257.20001220703</ele>
        <time>2015-09-09T13:05:39Z</time>
      </trkpt>
      <trkpt lat="43.43491" lon="6.04449">
        <ele>257.20001220703</ele>
        <time>2015-09-09T13:05:40Z</time>
      </trkpt>
      <trkpt lat="43.43491" lon="6.04442">
        <ele>257.39999389648</ele>
        <time>2015-09-09T13:05:41Z</time>
      </trkpt>
      <trkpt lat="43.4349" lon="6.04437">
        <ele>257.39999389648</ele>
        <time>2015-09-09T13:05:42Z</time>
      </trkpt>
      <trkpt lat="43.43488" lon="6.04425">
        <ele>257.60000610352</ele>
        <time>2015-09-09T13:05:44Z</time>
      </trkpt>
      <trkpt lat="43.43488" lon="6.04413">
        <ele>257.60000610352</ele>
        <time>2015-09-09T13:05:46Z</time>
      </trkpt>
      <trkpt lat="43.43487" lon="6.04402">
        <ele>257.60000610352</ele>
        <time>2015-09-09T13:05:48Z</time>
      </trkpt>
      <trkpt lat="43.43487" lon="6.04391">
        <ele>258.39999389648</ele>
        <time>2015-09-09T13:05:50Z</time>
      </trkpt>
      <trkpt lat="43.43488" lon="6.0438">
        <ele>258.39999389648</ele>
        <time>2015-09-09T13:05:52Z</time>
      </trkpt>
      <trkpt lat="43.43489" lon="6.0437">
        <ele>258.39999389648</ele>
        <time>2015-09-09T13:05:54Z</time>
      </trkpt>
      <trkpt lat="43.4349" lon="6.04359">
        <ele>258.20001220703</ele>
        <time>2015-09-09T13:05:56Z</time>
      </trkpt>
      <trkpt lat="43.43491" lon="6.04349">
        <ele>257.60000610352</ele>
        <time>2015-09-09T13:05:58Z</time>
      </trkpt>
      <trkpt lat="43.43493" lon="6.04323">
        <ele>258.20001220703</ele>
        <time>2015-09-09T13:06:02Z</time>
      </trkpt>
      <trkpt lat="43.43494" lon="6.0431">
        <ele>258</ele>
        <time>2015-09-09T13:06:04Z</time>
      </trkpt>
      <trkpt lat="43.43496" lon="6.04296">
        <ele>257.39999389648</ele>
        <time>2015-09-09T13:06:06Z</time>
      </trkpt>
      <trkpt lat="43.43499" lon="6.04282">
        <ele>257.20001220703</ele>
        <time>2015-09-09T13:06:08Z</time>
      </trkpt>
      <trkpt lat="43.43506" lon="6.04264">
        <ele>257</ele>
        <time>2015-09-09T13:06:11Z</time>
      </trkpt>
      <trkpt lat="43.43509" lon="6.04258">
        <ele>257</ele>
        <time>2015-09-09T13:06:12Z</time>
      </trkpt>
      <trkpt lat="43.43517" lon="6.04248">
        <ele>256.79998779297</ele>
        <time>2015-09-09T13:06:14Z</time>
      </trkpt>
      <trkpt lat="43.43526" lon="6.04242">
        <ele>256.20001220703</ele>
        <time>2015-09-09T13:06:16Z</time>
      </trkpt>
      <trkpt lat="43.43534" lon="6.04231">
        <ele>256.79998779297</ele>
        <time>2015-09-09T13:06:18Z</time>
      </trkpt>
      <trkpt lat="43.4354" lon="6.0422">
        <ele>256.60000610352</ele>
        <time>2015-09-09T13:06:20Z</time>
      </trkpt>
      <trkpt lat="43.43544" lon="6.04208">
        <ele>256.60000610352</ele>
        <time>2015-09-09T13:06:22Z</time>
      </trkpt>
      <trkpt lat="43.43544" lon="6.04196">
        <ele>256.79998779297</ele>
        <time>2015-09-09T13:06:24Z</time>
      </trkpt>
      <trkpt lat="43.43541" lon="6.04184">
        <ele>258</ele>
        <time>2015-09-09T13:06:26Z</time>
      </trkpt>
      <trkpt lat="43.4354" lon="6.04179">
        <ele>258</ele>
        <time>2015-09-09T13:06:27Z</time>
      </trkpt>
      <trkpt lat="43.43538" lon="6.04176">
        <ele>257.60000610352</ele>
        <time>2015-09-09T13:06:28Z</time>
      </trkpt>
      <trkpt lat="43.43539" lon="6.04167">
        <ele>258.60000610352</ele>
        <time>2015-09-09T13:06:30Z</time>
      </trkpt>
      <trkpt lat="43.43539" lon="6.04158">
        <ele>258.79998779297</ele>
        <time>2015-09-09T13:06:32Z</time>
      </trkpt>
      <trkpt lat="43.43541" lon="6.04153">
        <ele>259.20001220703</ele>
        <time>2015-09-09T13:06:33Z</time>
      </trkpt>
      <trkpt lat="43.43542" lon="6.0415">
        <ele>259</ele>
        <time>2015-09-09T13:06:34Z</time>
      </trkpt>
      <trkpt lat="43.43546" lon="6.04142">
        <ele>258.79998779297</ele>
        <time>2015-09-09T13:06:36Z</time>
      </trkpt>
      <trkpt lat="43.43548" lon="6.04138">
        <ele>259</ele>
        <time>2015-09-09T13:06:37Z</time>
      </trkpt>
      <trkpt lat="43.4355" lon="6.04134">
        <ele>259.20001220703</ele>
        <time>2015-09-09T13:06:38Z</time>
      </trkpt>
      <trkpt lat="43.43555" lon="6.04124">
        <ele>259.20001220703</ele>
        <time>2015-09-09T13:06:40Z</time>
      </trkpt>
      <trkpt lat="43.43556" lon="6.04118">
        <ele>259</ele>
        <time>2015-09-09T13:06:41Z</time>
      </trkpt>
      <trkpt lat="43.43557" lon="6.04112">
        <ele>258.79998779297</ele>
        <time>2015-09-09T13:06:42Z</time>
      </trkpt>
      <trkpt lat="43.43561" lon="6.04099">
        <ele>259.20001220703</ele>
        <time>2015-09-09T13:06:44Z</time>
      </trkpt>
      <trkpt lat="43.43565" lon="6.04089">
        <ele>259</ele>
        <time>2015-09-09T13:06:46Z</time>
      </trkpt>
      <trkpt lat="43.43568" lon="6.04079">
        <ele>259.20001220703</ele>
        <time>2015-09-09T13:06:48Z</time>
      </trkpt>
      <trkpt lat="43.4357" lon="6.04074">
        <ele>259.60000610352</ele>
        <time>2015-09-09T13:06:49Z</time>
      </trkpt>
      <trkpt lat="43.43576" lon="6.04064">
        <ele>259.60000610352</ele>
        <time>2015-09-09T13:06:52Z</time>
      </trkpt>
      <trkpt lat="43.4358" lon="6.04057">
        <ele>260.20001220703</ele>
        <time>2015-09-09T13:06:54Z</time>
      </trkpt>
      <trkpt lat="43.43583" lon="6.04054">
        <ele>260.60000610352</ele>
        <time>2015-09-09T13:06:55Z</time>
      </trkpt>
      <trkpt lat="43.43584" lon="6.04051">
        <ele>260.79998779297</ele>
        <time>2015-09-09T13:06:56Z</time>
      </trkpt>
      <trkpt lat="43.43587" lon="6.04044">
        <ele>261.20001220703</ele>
        <time>2015-09-09T13:06:58Z</time>
      </trkpt>
      <trkpt lat="43.43593" lon="6.04036">
        <ele>261.79998779297</ele>
        <time>2015-09-09T13:07:01Z</time>
      </trkpt>
      <trkpt lat="43.43595" lon="6.04033">
        <ele>261.60000610352</ele>
        <time>2015-09-09T13:07:02Z</time>
      </trkpt>
      <trkpt lat="43.43598" lon="6.04027">
        <ele>262</ele>
        <time>2015-09-09T13:07:04Z</time>
      </trkpt>
      <trkpt lat="43.43601" lon="6.04017">
        <ele>262.39999389648</ele>
        <time>2015-09-09T13:07:07Z</time>
      </trkpt>
      <trkpt lat="43.43602" lon="6.04013">
        <ele>262.60000610352</ele>
        <time>2015-09-09T13:07:08Z</time>
      </trkpt>
      <trkpt lat="43.43604" lon="6.04006">
        <ele>262.79998779297</ele>
        <time>2015-09-09T13:07:10Z</time>
      </trkpt>
      <trkpt lat="43.43607" lon="6.03999">
        <ele>263</ele>
        <time>2015-09-09T13:07:12Z</time>
      </trkpt>
      <trkpt lat="43.43609" lon="6.03991">
        <ele>263.20001220703</ele>
        <time>2015-09-09T13:07:14Z</time>
      </trkpt>
      <trkpt lat="43.4361" lon="6.03982">
        <ele>262</ele>
        <time>2015-09-09T13:07:16Z</time>
      </trkpt>
      <trkpt lat="43.4361" lon="6.03977">
        <ele>261.60000610352</ele>
        <time>2015-09-09T13:07:17Z</time>
      </trkpt>
      <trkpt lat="43.4361" lon="6.03971">
        <ele>261.39999389648</ele>
        <time>2015-09-09T13:07:18Z</time>
      </trkpt>
      <trkpt lat="43.4361" lon="6.03963">
        <ele>261</ele>
        <time>2015-09-09T13:07:19Z</time>
      </trkpt>
      <trkpt lat="43.43608" lon="6.03955">
        <ele>260.79998779297</ele>
        <time>2015-09-09T13:07:20Z</time>
      </trkpt>
      <trkpt lat="43.43603" lon="6.03939">
        <ele>260.60000610352</ele>
        <time>2015-09-09T13:07:22Z</time>
      </trkpt>
      <trkpt lat="43.43601" lon="6.03932">
        <ele>260.60000610352</ele>
        <time>2015-09-09T13:07:23Z</time>
      </trkpt>
      <trkpt lat="43.43597" lon="6.03921">
        <ele>260.79998779297</ele>
        <time>2015-09-09T13:07:25Z</time>
      </trkpt>
      <trkpt lat="43.43596" lon="6.03916">
        <ele>260.60000610352</ele>
        <time>2015-09-09T13:07:26Z</time>
      </trkpt>
      <trkpt lat="43.43594" lon="6.03906">
        <ele>260.39999389648</ele>
        <time>2015-09-09T13:07:28Z</time>
      </trkpt>
      <trkpt lat="43.43593" lon="6.03899">
        <ele>260.60000610352</ele>
        <time>2015-09-09T13:07:29Z</time>
      </trkpt>
      <trkpt lat="43.43594" lon="6.03895">
        <ele>261</ele>
        <time>2015-09-09T13:07:30Z</time>
      </trkpt>
      <trkpt lat="43.43594" lon="6.03886">
        <ele>261.60000610352</ele>
        <time>2015-09-09T13:07:32Z</time>
      </trkpt>
      <trkpt lat="43.43593" lon="6.03881">
        <ele>262</ele>
        <time>2015-09-09T13:07:33Z</time>
      </trkpt>
      <trkpt lat="43.43592" lon="6.03877">
        <ele>262</ele>
        <time>2015-09-09T13:07:34Z</time>
      </trkpt>
      <trkpt lat="43.43591" lon="6.0387">
        <ele>262</ele>
        <time>2015-09-09T13:07:36Z</time>
      </trkpt>
      <trkpt lat="43.43591" lon="6.03863">
        <ele>262.60000610352</ele>
        <time>2015-09-09T13:07:38Z</time>
      </trkpt>
      <trkpt lat="43.43591" lon="6.03855">
        <ele>262.79998779297</ele>
        <time>2015-09-09T13:07:40Z</time>
      </trkpt>
      <trkpt lat="43.43591" lon="6.03847">
        <ele>263</ele>
        <time>2015-09-09T13:07:42Z</time>
      </trkpt>
      <trkpt lat="43.43589" lon="6.03839">
        <ele>263.60000610352</ele>
        <time>2015-09-09T13:07:44Z</time>
      </trkpt>
      <trkpt lat="43.43588" lon="6.03834">
        <ele>263.79998779297</ele>
        <time>2015-09-09T13:07:45Z</time>
      </trkpt>
      <trkpt lat="43.43588" lon="6.03831">
        <ele>264</ele>
        <time>2015-09-09T13:07:46Z</time>
      </trkpt>
      <trkpt lat="43.43585" lon="6.03824">
        <ele>264.20001220703</ele>
        <time>2015-09-09T13:07:48Z</time>
      </trkpt>
      <trkpt lat="43.43583" lon="6.0382">
        <ele>264.20001220703</ele>
        <time>2015-09-09T13:07:49Z</time>
      </trkpt>
      <trkpt lat="43.43581" lon="6.03816">
        <ele>264.20001220703</ele>
        <time>2015-09-09T13:07:50Z</time>
      </trkpt>
      <trkpt lat="43.43579" lon="6.03813">
        <ele>264.20001220703</ele>
        <time>2015-09-09T13:07:51Z</time>
      </trkpt>
      <trkpt lat="43.43579" lon="6.03811">
        <ele>264.39999389648</ele>
        <time>2015-09-09T13:07:52Z</time>
      </trkpt>
      <trkpt lat="43.43576" lon="6.03804">
        <ele>264.39999389648</ele>
        <time>2015-09-09T13:07:54Z</time>
      </trkpt>
      <trkpt lat="43.43575" lon="6.03797">
        <ele>265</ele>
        <time>2015-09-09T13:07:56Z</time>
      </trkpt>
      <trkpt lat="43.43573" lon="6.03792">
        <ele>264.79998779297</ele>
        <time>2015-09-09T13:07:58Z</time>
      </trkpt>
      <trkpt lat="43.43573" lon="6.03788">
        <ele>264.60000610352</ele>
        <time>2015-09-09T13:08:00Z</time>
      </trkpt>
      <trkpt lat="43.43573" lon="6.03786">
        <ele>264.79998779297</ele>
        <time>2015-09-09T13:08:02Z</time>
      </trkpt>
      <trkpt lat="43.43573" lon="6.03783">
        <ele>264.79998779297</ele>
        <time>2015-09-09T13:08:04Z</time>
      </trkpt>
      <trkpt lat="43.43574" lon="6.03781">
        <ele>264.60000610352</ele>
        <time>2015-09-09T13:08:06Z</time>
      </trkpt>
      <trkpt lat="43.43575" lon="6.03777">
        <ele>264.60000610352</ele>
        <time>2015-09-09T13:08:10Z</time>
      </trkpt>
      <trkpt lat="43.43574" lon="6.03775">
        <ele>264.60000610352</ele>
        <time>2015-09-09T13:08:12Z</time>
      </trkpt>
      <trkpt lat="43.43574" lon="6.03773">
        <ele>264.60000610352</ele>
        <time>2015-09-09T13:08:13Z</time>
      </trkpt>
      <trkpt lat="43.43573" lon="6.03772">
        <ele>264.60000610352</ele>
        <time>2015-09-09T13:08:14Z</time>
      </trkpt>
      <trkpt lat="43.43573" lon="6.03772">
        <ele>264.60000610352</ele>
        <time>2015-09-09T13:08:16Z</time>
      </trkpt>
      <trkpt lat="43.43573" lon="6.03772">
        <ele>264.39999389648</ele>
        <time>2015-09-09T13:08:18Z</time>
      </trkpt>
      <trkpt lat="43.43572" lon="6.03771">
        <ele>264.39999389648</ele>
        <time>2015-09-09T13:08:20Z</time>
      </trkpt>
      <trkpt lat="43.43572" lon="6.03771">
        <ele>264.39999389648</ele>
        <time>2015-09-09T13:08:22Z</time>
      </trkpt>
      <trkpt lat="43.43572" lon="6.03771">
        <ele>264.20001220703</ele>
        <time>2015-09-09T13:08:24Z</time>
      </trkpt>
      <trkpt lat="43.43572" lon="6.03769">
        <ele>264.39999389648</ele>
        <time>2015-09-09T13:08:26Z</time>
      </trkpt>
      <trkpt lat="43.43572" lon="6.03764">
        <ele>264.20001220703</ele>
        <time>2015-09-09T13:08:28Z</time>
      </trkpt>
      <trkpt lat="43.43572" lon="6.03758">
        <ele>263.79998779297</ele>
        <time>2015-09-09T13:08:30Z</time>
      </trkpt>
      <trkpt lat="43.43573" lon="6.0375">
        <ele>263.79998779297</ele>
        <time>2015-09-09T13:08:32Z</time>
      </trkpt>
      <trkpt lat="43.43573" lon="6.03742">
        <ele>263.60000610352</ele>
        <time>2015-09-09T13:08:34Z</time>
      </trkpt>
      <trkpt lat="43.43573" lon="6.03733">
        <ele>263.60000610352</ele>
        <time>2015-09-09T13:08:36Z</time>
      </trkpt>
      <trkpt lat="43.43573" lon="6.03723">
        <ele>263.60000610352</ele>
        <time>2015-09-09T13:08:38Z</time>
      </trkpt>
      <trkpt lat="43.43575" lon="6.03715">
        <ele>263.39999389648</ele>
        <time>2015-09-09T13:08:40Z</time>
      </trkpt>
      <trkpt lat="43.43576" lon="6.0371">
        <ele>263.20001220703</ele>
        <time>2015-09-09T13:08:41Z</time>
      </trkpt>
      <trkpt lat="43.43576" lon="6.03705">
        <ele>263.20001220703</ele>
        <time>2015-09-09T13:08:42Z</time>
      </trkpt>
      <trkpt lat="43.43579" lon="6.03695">
        <ele>263.20001220703</ele>
        <time>2015-09-09T13:08:44Z</time>
      </trkpt>
      <trkpt lat="43.43581" lon="6.03684">
        <ele>263.39999389648</ele>
        <time>2015-09-09T13:08:46Z</time>
      </trkpt>
      <trkpt lat="43.43583" lon="6.03671">
        <ele>263.39999389648</ele>
        <time>2015-09-09T13:08:48Z</time>
      </trkpt>
      <trkpt lat="43.43585" lon="6.03659">
        <ele>263.39999389648</ele>
        <time>2015-09-09T13:08:50Z</time>
      </trkpt>
      <trkpt lat="43.43587" lon="6.03647">
        <ele>263.20001220703</ele>
        <time>2015-09-09T13:08:52Z</time>
      </trkpt>
      <trkpt lat="43.43587" lon="6.03633">
        <ele>262.79998779297</ele>
        <time>2015-09-09T13:08:54Z</time>
      </trkpt>
      <trkpt lat="43.43587" lon="6.0362">
        <ele>263</ele>
        <time>2015-09-09T13:08:56Z</time>
      </trkpt>
      <trkpt lat="43.43586" lon="6.03614">
        <ele>262.39999389648</ele>
        <time>2015-09-09T13:08:57Z</time>
      </trkpt>
      <trkpt lat="43.43586" lon="6.03607">
        <ele>262.39999389648</ele>
        <time>2015-09-09T13:08:58Z</time>
      </trkpt>
      <trkpt lat="43.43588" lon="6.03594">
        <ele>262</ele>
        <time>2015-09-09T13:09:00Z</time>
      </trkpt>
      <trkpt lat="43.43592" lon="6.03582">
        <ele>262.60000610352</ele>
        <time>2015-09-09T13:09:02Z</time>
      </trkpt>
      <trkpt lat="43.43595" lon="6.03577">
        <ele>262.79998779297</ele>
        <time>2015-09-09T13:09:03Z</time>
      </trkpt>
      <trkpt lat="43.43598" lon="6.03573">
        <ele>262.60000610352</ele>
        <time>2015-09-09T13:09:04Z</time>
      </trkpt>
      <trkpt lat="43.43603" lon="6.03564">
        <ele>262.79998779297</ele>
        <time>2015-09-09T13:09:06Z</time>
      </trkpt>
      <trkpt lat="43.43608" lon="6.03553">
        <ele>262.60000610352</ele>
        <time>2015-09-09T13:09:08Z</time>
      </trkpt>
      <trkpt lat="43.4361" lon="6.03547">
        <ele>262.60000610352</ele>
        <time>2015-09-09T13:09:09Z</time>
      </trkpt>
      <trkpt lat="43.43612" lon="6.03542">
        <ele>262.60000610352</ele>
        <time>2015-09-09T13:09:10Z</time>
      </trkpt>
      <trkpt lat="43.43615" lon="6.03532">
        <ele>262.60000610352</ele>
        <time>2015-09-09T13:09:12Z</time>
      </trkpt>
      <trkpt lat="43.43618" lon="6.03523">
        <ele>263.39999389648</ele>
        <time>2015-09-09T13:09:14Z</time>
      </trkpt>
      <trkpt lat="43.4362" lon="6.03513">
        <ele>263.60000610352</ele>
        <time>2015-09-09T13:09:16Z</time>
      </trkpt>
      <trkpt lat="43.43621" lon="6.03503">
        <ele>263.20001220703</ele>
        <time>2015-09-09T13:09:18Z</time>
      </trkpt>
      <trkpt lat="43.43624" lon="6.03494">
        <ele>263.60000610352</ele>
        <time>2015-09-09T13:09:20Z</time>
      </trkpt>
      <trkpt lat="43.43627" lon="6.03486">
        <ele>264</ele>
        <time>2015-09-09T13:09:22Z</time>
      </trkpt>
      <trkpt lat="43.43629" lon="6.03477">
        <ele>264.39999389648</ele>
        <time>2015-09-09T13:09:24Z</time>
      </trkpt>
      <trkpt lat="43.43631" lon="6.03467">
        <ele>265</ele>
        <time>2015-09-09T13:09:26Z</time>
      </trkpt>
      <trkpt lat="43.43632" lon="6.03456">
        <ele>266</ele>
        <time>2015-09-09T13:09:28Z</time>
      </trkpt>
      <trkpt lat="43.43633" lon="6.03447">
        <ele>266.39999389648</ele>
        <time>2015-09-09T13:09:30Z</time>
      </trkpt>
      <trkpt lat="43.43633" lon="6.03438">
        <ele>266.20001220703</ele>
        <time>2015-09-09T13:09:32Z</time>
      </trkpt>
      <trkpt lat="43.43631" lon="6.0343">
        <ele>266.20001220703</ele>
        <time>2015-09-09T13:09:34Z</time>
      </trkpt>
      <trkpt lat="43.43631" lon="6.03419">
        <ele>266.20001220703</ele>
        <time>2015-09-09T13:09:36Z</time>
      </trkpt>
      <trkpt lat="43.43633" lon="6.03408">
        <ele>265.60000610352</ele>
        <time>2015-09-09T13:09:38Z</time>
      </trkpt>
      <trkpt lat="43.43637" lon="6.03403">
        <ele>265.39999389648</ele>
        <time>2015-09-09T13:09:39Z</time>
      </trkpt>
      <trkpt lat="43.43639" lon="6.03398">
        <ele>265.39999389648</ele>
        <time>2015-09-09T13:09:40Z</time>
      </trkpt>
      <trkpt lat="43.43645" lon="6.03389">
        <ele>265.79998779297</ele>
        <time>2015-09-09T13:09:42Z</time>
      </trkpt>
      <trkpt lat="43.43649" lon="6.03381">
        <ele>266.20001220703</ele>
        <time>2015-09-09T13:09:44Z</time>
      </trkpt>
      <trkpt lat="43.43652" lon="6.03371">
        <ele>265.79998779297</ele>
        <time>2015-09-09T13:09:46Z</time>
      </trkpt>
      <trkpt lat="43.43657" lon="6.03362">
        <ele>265.60000610352</ele>
        <time>2015-09-09T13:09:48Z</time>
      </trkpt>
      <trkpt lat="43.43666" lon="6.03345">
        <ele>264.79998779297</ele>
        <time>2015-09-09T13:09:52Z</time>
      </trkpt>
      <trkpt lat="43.4367" lon="6.0334">
        <ele>264.79998779297</ele>
        <time>2015-09-09T13:09:53Z</time>
      </trkpt>
      <trkpt lat="43.43671" lon="6.03334">
        <ele>264.79998779297</ele>
        <time>2015-09-09T13:09:54Z</time>
      </trkpt>
      <trkpt lat="43.43671" lon="6.03323">
        <ele>265</ele>
        <time>2015-09-09T13:09:56Z</time>
      </trkpt>
      <trkpt lat="43.43675" lon="6.03317">
        <ele>264.79998779297</ele>
        <time>2015-09-09T13:09:58Z</time>
      </trkpt>
      <trkpt lat="43.43678" lon="6.0331">
        <ele>264.79998779297</ele>
        <time>2015-09-09T13:10:00Z</time>
      </trkpt>
      <trkpt lat="43.43681" lon="6.03304">
        <ele>265</ele>
        <time>2015-09-09T13:10:02Z</time>
      </trkpt>
      <trkpt lat="43.43685" lon="6.03298">
        <ele>265.20001220703</ele>
        <time>2015-09-09T13:10:04Z</time>
      </trkpt>
      <trkpt lat="43.43688" lon="6.03291">
        <ele>265.20001220703</ele>
        <time>2015-09-09T13:10:06Z</time>
      </trkpt>
      <trkpt lat="43.43692" lon="6.03283">
        <ele>265.60000610352</ele>
        <time>2015-09-09T13:10:08Z</time>
      </trkpt>
      <trkpt lat="43.43694" lon="6.03275">
        <ele>265.39999389648</ele>
        <time>2015-09-09T13:10:10Z</time>
      </trkpt>
      <trkpt lat="43.43695" lon="6.03266">
        <ele>265.60000610352</ele>
        <time>2015-09-09T13:10:12Z</time>
      </trkpt>
      <trkpt lat="43.43693" lon="6.03258">
        <ele>265.79998779297</ele>
        <time>2015-09-09T13:10:14Z</time>
      </trkpt>
      <trkpt lat="43.43691" lon="6.03247">
        <ele>265.79998779297</ele>
        <time>2015-09-09T13:10:16Z</time>
      </trkpt>
      <trkpt lat="43.43689" lon="6.03238">
        <ele>266</ele>
        <time>2015-09-09T13:10:18Z</time>
      </trkpt>
      <trkpt lat="43.43692" lon="6.03224">
        <ele>266</ele>
        <time>2015-09-09T13:10:21Z</time>
      </trkpt>
      <trkpt lat="43.43696" lon="6.03213">
        <ele>266</ele>
        <time>2015-09-09T13:10:24Z</time>
      </trkpt>
      <trkpt lat="43.43698" lon="6.03206">
        <ele>266.60000610352</ele>
        <time>2015-09-09T13:10:26Z</time>
      </trkpt>
      <trkpt lat="43.43698" lon="6.03201">
        <ele>267</ele>
        <time>2015-09-09T13:10:27Z</time>
      </trkpt>
      <trkpt lat="43.43698" lon="6.03197">
        <ele>267</ele>
        <time>2015-09-09T13:10:28Z</time>
      </trkpt>
      <trkpt lat="43.43696" lon="6.03188">
        <ele>266.79998779297</ele>
        <time>2015-09-09T13:10:30Z</time>
      </trkpt>
      <trkpt lat="43.43697" lon="6.03179">
        <ele>266.79998779297</ele>
        <time>2015-09-09T13:10:32Z</time>
      </trkpt>
      <trkpt lat="43.43698" lon="6.03175">
        <ele>267</ele>
        <time>2015-09-09T13:10:33Z</time>
      </trkpt>
      <trkpt lat="43.43697" lon="6.03159">
        <ele>266.79998779297</ele>
        <time>2015-09-09T13:10:36Z</time>
      </trkpt>
      <trkpt lat="43.43696" lon="6.03149">
        <ele>266.60000610352</ele>
        <time>2015-09-09T13:10:38Z</time>
      </trkpt>
      <trkpt lat="43.43694" lon="6.03139">
        <ele>266.60000610352</ele>
        <time>2015-09-09T13:10:40Z</time>
      </trkpt>
      <trkpt lat="43.43694" lon="6.03129">
        <ele>266.60000610352</ele>
        <time>2015-09-09T13:10:42Z</time>
      </trkpt>
      <trkpt lat="43.43698" lon="6.03107">
        <ele>266.79998779297</ele>
        <time>2015-09-09T13:10:46Z</time>
      </trkpt>
      <trkpt lat="43.437" lon="6.03097">
        <ele>266.60000610352</ele>
        <time>2015-09-09T13:10:48Z</time>
      </trkpt>
      <trkpt lat="43.43705" lon="6.03083">
        <ele>266.20001220703</ele>
        <time>2015-09-09T13:10:51Z</time>
      </trkpt>
      <trkpt lat="43.43708" lon="6.03081">
        <ele>266.39999389648</ele>
        <time>2015-09-09T13:10:52Z</time>
      </trkpt>
      <trkpt lat="43.43713" lon="6.03073">
        <ele>266.39999389648</ele>
        <time>2015-09-09T13:10:54Z</time>
      </trkpt>
      <trkpt lat="43.43718" lon="6.03068">
        <ele>266.20001220703</ele>
        <time>2015-09-09T13:10:56Z</time>
      </trkpt>
      <trkpt lat="43.43731" lon="6.03058">
        <ele>266</ele>
        <time>2015-09-09T13:11:00Z</time>
      </trkpt>
      <trkpt lat="43.43735" lon="6.03055">
        <ele>265.79998779297</ele>
        <time>2015-09-09T13:11:01Z</time>
      </trkpt>
      <trkpt lat="43.43739" lon="6.03053">
        <ele>265.39999389648</ele>
        <time>2015-09-09T13:11:02Z</time>
      </trkpt>
      <trkpt lat="43.43746" lon="6.03048">
        <ele>265.39999389648</ele>
        <time>2015-09-09T13:11:04Z</time>
      </trkpt>
      <trkpt lat="43.43751" lon="6.03046">
        <ele>264.60000610352</ele>
        <time>2015-09-09T13:11:05Z</time>
      </trkpt>
      <trkpt lat="43.43756" lon="6.03045">
        <ele>264</ele>
        <time>2015-09-09T13:11:06Z</time>
      </trkpt>
      <trkpt lat="43.43761" lon="6.03042">
        <ele>264</ele>
        <time>2015-09-09T13:11:07Z</time>
      </trkpt>
      <trkpt lat="43.43763" lon="6.03039">
        <ele>263.79998779297</ele>
        <time>2015-09-09T13:11:08Z</time>
      </trkpt>
      <trkpt lat="43.43767" lon="6.0303">
        <ele>263.39999389648</ele>
        <time>2015-09-09T13:11:10Z</time>
      </trkpt>
      <trkpt lat="43.43769" lon="6.03025">
        <ele>263.39999389648</ele>
        <time>2015-09-09T13:11:11Z</time>
      </trkpt>
      <trkpt lat="43.43771" lon="6.03021">
        <ele>263.39999389648</ele>
        <time>2015-09-09T13:11:12Z</time>
      </trkpt>
      <trkpt lat="43.43776" lon="6.03014">
        <ele>263.39999389648</ele>
        <time>2015-09-09T13:11:14Z</time>
      </trkpt>
      <trkpt lat="43.43778" lon="6.03011">
        <ele>263.20001220703</ele>
        <time>2015-09-09T13:11:15Z</time>
      </trkpt>
      <trkpt lat="43.4378" lon="6.03007">
        <ele>263.39999389648</ele>
        <time>2015-09-09T13:11:16Z</time>
      </trkpt>
      <trkpt lat="43.43785" lon="6.02999">
        <ele>263.60000610352</ele>
        <time>2015-09-09T13:11:18Z</time>
      </trkpt>
      <trkpt lat="43.43789" lon="6.0299">
        <ele>263.39999389648</ele>
        <time>2015-09-09T13:11:20Z</time>
      </trkpt>
      <trkpt lat="43.43788" lon="6.02981">
        <ele>263.39999389648</ele>
        <time>2015-09-09T13:11:22Z</time>
      </trkpt>
      <trkpt lat="43.43788" lon="6.02973">
        <ele>263.39999389648</ele>
        <time>2015-09-09T13:11:24Z</time>
      </trkpt>
      <trkpt lat="43.43788" lon="6.02969">
        <ele>263.39999389648</ele>
        <time>2015-09-09T13:11:25Z</time>
      </trkpt>
      <trkpt lat="43.43789" lon="6.02965">
        <ele>263.60000610352</ele>
        <time>2015-09-09T13:11:26Z</time>
      </trkpt>
      <trkpt lat="43.43792" lon="6.02958">
        <ele>263.79998779297</ele>
        <time>2015-09-09T13:11:28Z</time>
      </trkpt>
      <trkpt lat="43.43795" lon="6.02951">
        <ele>264</ele>
        <time>2015-09-09T13:11:30Z</time>
      </trkpt>
      <trkpt lat="43.43798" lon="6.02944">
        <ele>264.20001220703</ele>
        <time>2015-09-09T13:11:32Z</time>
      </trkpt>
      <trkpt lat="43.43799" lon="6.02936">
        <ele>264.20001220703</ele>
        <time>2015-09-09T13:11:34Z</time>
      </trkpt>
      <trkpt lat="43.43799" lon="6.02932">
        <ele>264</ele>
        <time>2015-09-09T13:11:35Z</time>
      </trkpt>
      <trkpt lat="43.43798" lon="6.0292">
        <ele>264.79998779297</ele>
        <time>2015-09-09T13:11:38Z</time>
      </trkpt>
      <trkpt lat="43.43796" lon="6.02911">
        <ele>264.79998779297</ele>
        <time>2015-09-09T13:11:40Z</time>
      </trkpt>
      <trkpt lat="43.43798" lon="6.02902">
        <ele>265.20001220703</ele>
        <time>2015-09-09T13:11:42Z</time>
      </trkpt>
      <trkpt lat="43.43798" lon="6.02893">
        <ele>265.20001220703</ele>
        <time>2015-09-09T13:11:44Z</time>
      </trkpt>
      <trkpt lat="43.43798" lon="6.0289">
        <ele>265.60000610352</ele>
        <time>2015-09-09T13:11:45Z</time>
      </trkpt>
      <trkpt lat="43.438" lon="6.02886">
        <ele>265.79998779297</ele>
        <time>2015-09-09T13:11:46Z</time>
      </trkpt>
      <trkpt lat="43.43801" lon="6.02881">
        <ele>265.79998779297</ele>
        <time>2015-09-09T13:11:47Z</time>
      </trkpt>
      <trkpt lat="43.43803" lon="6.02877">
        <ele>265.79998779297</ele>
        <time>2015-09-09T13:11:48Z</time>
      </trkpt>
      <trkpt lat="43.43806" lon="6.02867">
        <ele>265.39999389648</ele>
        <time>2015-09-09T13:11:50Z</time>
      </trkpt>
      <trkpt lat="43.4381" lon="6.02858">
        <ele>265.20001220703</ele>
        <time>2015-09-09T13:11:52Z</time>
      </trkpt>
      <trkpt lat="43.43813" lon="6.02849">
        <ele>265.39999389648</ele>
        <time>2015-09-09T13:11:54Z</time>
      </trkpt>
      <trkpt lat="43.43814" lon="6.0284">
        <ele>265.39999389648</ele>
        <time>2015-09-09T13:11:56Z</time>
      </trkpt>
      <trkpt lat="43.43813" lon="6.02832">
        <ele>266</ele>
        <time>2015-09-09T13:11:58Z</time>
      </trkpt>
      <trkpt lat="43.43811" lon="6.02825">
        <ele>266.60000610352</ele>
        <time>2015-09-09T13:12:00Z</time>
      </trkpt>
      <trkpt lat="43.4381" lon="6.02822">
        <ele>267</ele>
        <time>2015-09-09T13:12:01Z</time>
      </trkpt>
      <trkpt lat="43.43808" lon="6.02819">
        <ele>267.20001220703</ele>
        <time>2015-09-09T13:12:02Z</time>
      </trkpt>
      <trkpt lat="43.43806" lon="6.02816">
        <ele>267.20001220703</ele>
        <time>2015-09-09T13:12:03Z</time>
      </trkpt>
      <trkpt lat="43.43804" lon="6.02814">
        <ele>267.39999389648</ele>
        <time>2015-09-09T13:12:04Z</time>
      </trkpt>
      <trkpt lat="43.438" lon="6.0281">
        <ele>267.79998779297</ele>
        <time>2015-09-09T13:12:06Z</time>
      </trkpt>
      <trkpt lat="43.43799" lon="6.02807">
        <ele>268</ele>
        <time>2015-09-09T13:12:08Z</time>
      </trkpt>
      <trkpt lat="43.43797" lon="6.02802">
        <ele>267.79998779297</ele>
        <time>2015-09-09T13:12:10Z</time>
      </trkpt>
      <trkpt lat="43.43794" lon="6.02798">
        <ele>267.79998779297</ele>
        <time>2015-09-09T13:12:12Z</time>
      </trkpt>
      <trkpt lat="43.43792" lon="6.02792">
        <ele>268</ele>
        <time>2015-09-09T13:12:14Z</time>
      </trkpt>
      <trkpt lat="43.43788" lon="6.02786">
        <ele>268.20001220703</ele>
        <time>2015-09-09T13:12:16Z</time>
      </trkpt>
      <trkpt lat="43.43788" lon="6.0278">
        <ele>268.20001220703</ele>
        <time>2015-09-09T13:12:18Z</time>
      </trkpt>
      <trkpt lat="43.43789" lon="6.02776">
        <ele>268.20001220703</ele>
        <time>2015-09-09T13:12:19Z</time>
      </trkpt>
      <trkpt lat="43.4379" lon="6.02773">
        <ele>268.39999389648</ele>
        <time>2015-09-09T13:12:20Z</time>
      </trkpt>
      <trkpt lat="43.43791" lon="6.02765">
        <ele>268.20001220703</ele>
        <time>2015-09-09T13:12:22Z</time>
      </trkpt>
      <trkpt lat="43.43792" lon="6.02762">
        <ele>268</ele>
        <time>2015-09-09T13:12:23Z</time>
      </trkpt>
      <trkpt lat="43.43792" lon="6.02757">
        <ele>267.79998779297</ele>
        <time>2015-09-09T13:12:24Z</time>
      </trkpt>
      <trkpt lat="43.4379" lon="6.0275">
        <ele>268.20001220703</ele>
        <time>2015-09-09T13:12:26Z</time>
      </trkpt>
      <trkpt lat="43.43789" lon="6.02743">
        <ele>268.20001220703</ele>
        <time>2015-09-09T13:12:28Z</time>
      </trkpt>
      <trkpt lat="43.43787" lon="6.02735">
        <ele>268.20001220703</ele>
        <time>2015-09-09T13:12:30Z</time>
      </trkpt>
      <trkpt lat="43.43777" lon="6.0273">
        <ele>268.60000610352</ele>
        <time>2015-09-09T13:12:34Z</time>
      </trkpt>
      <trkpt lat="43.43773" lon="6.02727">
        <ele>269</ele>
        <time>2015-09-09T13:12:36Z</time>
      </trkpt>
      <trkpt lat="43.43771" lon="6.02724">
        <ele>269.39999389648</ele>
        <time>2015-09-09T13:12:37Z</time>
      </trkpt>
      <trkpt lat="43.4377" lon="6.02721">
        <ele>269.79998779297</ele>
        <time>2015-09-09T13:12:38Z</time>
      </trkpt>
      <trkpt lat="43.43767" lon="6.02717">
        <ele>269.79998779297</ele>
        <time>2015-09-09T13:12:40Z</time>
      </trkpt>
      <trkpt lat="43.43766" lon="6.02713">
        <ele>269.79998779297</ele>
        <time>2015-09-09T13:12:41Z</time>
      </trkpt>
      <trkpt lat="43.43773" lon="6.02709">
        <ele>270.20001220703</ele>
        <time>2015-09-09T13:12:44Z</time>
      </trkpt>
      <trkpt lat="43.43776" lon="6.02708">
        <ele>270</ele>
        <time>2015-09-09T13:12:46Z</time>
      </trkpt>
      <trkpt lat="43.43779" lon="6.02705">
        <ele>270</ele>
        <time>2015-09-09T13:12:47Z</time>
      </trkpt>
      <trkpt lat="43.43781" lon="6.02703">
        <ele>270.20001220703</ele>
        <time>2015-09-09T13:12:48Z</time>
      </trkpt>
      <trkpt lat="43.43783" lon="6.02698">
        <ele>270.20001220703</ele>
        <time>2015-09-09T13:12:50Z</time>
      </trkpt>
      <trkpt lat="43.43787" lon="6.02694">
        <ele>269.79998779297</ele>
        <time>2015-09-09T13:12:52Z</time>
      </trkpt>
      <trkpt lat="43.43789" lon="6.0269">
        <ele>269.20001220703</ele>
        <time>2015-09-09T13:12:54Z</time>
      </trkpt>
      <trkpt lat="43.43789" lon="6.02687">
        <ele>269.39999389648</ele>
        <time>2015-09-09T13:12:55Z</time>
      </trkpt>
      <trkpt lat="43.43789" lon="6.02686">
        <ele>269.60000610352</ele>
        <time>2015-09-09T13:12:56Z</time>
      </trkpt>
      <trkpt lat="43.43787" lon="6.02683">
        <ele>270</ele>
        <time>2015-09-09T13:12:58Z</time>
      </trkpt>
      <trkpt lat="43.43787" lon="6.02679">
        <ele>270</ele>
        <time>2015-09-09T13:12:59Z</time>
      </trkpt>
      <trkpt lat="43.43789" lon="6.02674">
        <ele>269.79998779297</ele>
        <time>2015-09-09T13:13:01Z</time>
      </trkpt>
      <trkpt lat="43.43789" lon="6.02665">
        <ele>270.20001220703</ele>
        <time>2015-09-09T13:13:04Z</time>
      </trkpt>
      <trkpt lat="43.43787" lon="6.02659">
        <ele>270.39999389648</ele>
        <time>2015-09-09T13:13:06Z</time>
      </trkpt>
      <trkpt lat="43.43787" lon="6.02656">
        <ele>270.60000610352</ele>
        <time>2015-09-09T13:13:07Z</time>
      </trkpt>
      <trkpt lat="43.43787" lon="6.02652">
        <ele>270.79998779297</ele>
        <time>2015-09-09T13:13:08Z</time>
      </trkpt>
      <trkpt lat="43.43788" lon="6.02645">
        <ele>271</ele>
        <time>2015-09-09T13:13:10Z</time>
      </trkpt>
      <trkpt lat="43.43793" lon="6.02629">
        <ele>271.20001220703</ele>
        <time>2015-09-09T13:13:14Z</time>
      </trkpt>
      <trkpt lat="43.43795" lon="6.02621">
        <ele>271.39999389648</ele>
        <time>2015-09-09T13:13:16Z</time>
      </trkpt>
      <trkpt lat="43.43797" lon="6.02612">
        <ele>271.20001220703</ele>
        <time>2015-09-09T13:13:18Z</time>
      </trkpt>
      <trkpt lat="43.43797" lon="6.02603">
        <ele>271.79998779297</ele>
        <time>2015-09-09T13:13:20Z</time>
      </trkpt>
      <trkpt lat="43.43797" lon="6.0259">
        <ele>271</ele>
        <time>2015-09-09T13:13:23Z</time>
      </trkpt>
      <trkpt lat="43.43797" lon="6.02586">
        <ele>270.60000610352</ele>
        <time>2015-09-09T13:13:24Z</time>
      </trkpt>
      <trkpt lat="43.43795" lon="6.02578">
        <ele>270.60000610352</ele>
        <time>2015-09-09T13:13:26Z</time>
      </trkpt>
      <trkpt lat="43.43794" lon="6.02569">
        <ele>271</ele>
        <time>2015-09-09T13:13:28Z</time>
      </trkpt>
      <trkpt lat="43.43794" lon="6.02561">
        <ele>270.79998779297</ele>
        <time>2015-09-09T13:13:30Z</time>
      </trkpt>
      <trkpt lat="43.43793" lon="6.02553">
        <ele>270.79998779297</ele>
        <time>2015-09-09T13:13:32Z</time>
      </trkpt>
      <trkpt lat="43.43795" lon="6.02547">
        <ele>271.39999389648</ele>
        <time>2015-09-09T13:13:34Z</time>
      </trkpt>
      <trkpt lat="43.438" lon="6.02537">
        <ele>271</ele>
        <time>2015-09-09T13:13:37Z</time>
      </trkpt>
      <trkpt lat="43.438" lon="6.02533">
        <ele>270.60000610352</ele>
        <time>2015-09-09T13:13:38Z</time>
      </trkpt>
      <trkpt lat="43.43802" lon="6.02526">
        <ele>270.20001220703</ele>
        <time>2015-09-09T13:13:40Z</time>
      </trkpt>
      <trkpt lat="43.43801" lon="6.0252">
        <ele>270</ele>
        <time>2015-09-09T13:13:42Z</time>
      </trkpt>
      <trkpt lat="43.43801" lon="6.02515">
        <ele>270</ele>
        <time>2015-09-09T13:13:44Z</time>
      </trkpt>
      <trkpt lat="43.43801" lon="6.02511">
        <ele>270</ele>
        <time>2015-09-09T13:13:46Z</time>
      </trkpt>
      <trkpt lat="43.43801" lon="6.02505">
        <ele>269.60000610352</ele>
        <time>2015-09-09T13:13:48Z</time>
      </trkpt>
      <trkpt lat="43.43801" lon="6.025">
        <ele>269</ele>
        <time>2015-09-09T13:13:50Z</time>
      </trkpt>
      <trkpt lat="43.43801" lon="6.02496">
        <ele>269.60000610352</ele>
        <time>2015-09-09T13:13:52Z</time>
      </trkpt>
      <trkpt lat="43.438" lon="6.02494">
        <ele>269.79998779297</ele>
        <time>2015-09-09T13:13:53Z</time>
      </trkpt>
      <trkpt lat="43.438" lon="6.02493">
        <ele>270.20001220703</ele>
        <time>2015-09-09T13:13:54Z</time>
      </trkpt>
      <trkpt lat="43.43799" lon="6.02491">
        <ele>270.39999389648</ele>
        <time>2015-09-09T13:13:55Z</time>
      </trkpt>
      <trkpt lat="43.43798" lon="6.02491">
        <ele>270.60000610352</ele>
        <time>2015-09-09T13:13:56Z</time>
      </trkpt>
      <trkpt lat="43.43798" lon="6.0249">
        <ele>270.79998779297</ele>
        <time>2015-09-09T13:13:57Z</time>
      </trkpt>
      <trkpt lat="43.43797" lon="6.02487">
        <ele>271.20001220703</ele>
        <time>2015-09-09T13:14:00Z</time>
      </trkpt>
      <trkpt lat="43.43798" lon="6.02487">
        <ele>271</ele>
        <time>2015-09-09T13:14:02Z</time>
      </trkpt>
      <trkpt lat="43.43798" lon="6.02487">
        <ele>271</ele>
        <time>2015-09-09T13:14:04Z</time>
      </trkpt>
      <trkpt lat="43.43797" lon="6.02488">
        <ele>271.20001220703</ele>
        <time>2015-09-09T13:14:06Z</time>
      </trkpt>
      <trkpt lat="43.43796" lon="6.02488">
        <ele>271.39999389648</ele>
        <time>2015-09-09T13:14:10Z</time>
      </trkpt>
      <trkpt lat="43.43795" lon="6.02488">
        <ele>271.79998779297</ele>
        <time>2015-09-09T13:14:12Z</time>
      </trkpt>
      <trkpt lat="43.43794" lon="6.02487">
        <ele>272.20001220703</ele>
        <time>2015-09-09T13:14:14Z</time>
      </trkpt>
      <trkpt lat="43.43793" lon="6.02487">
        <ele>272.20001220703</ele>
        <time>2015-09-09T13:14:16Z</time>
      </trkpt>
      <trkpt lat="43.43793" lon="6.02486">
        <ele>272.20001220703</ele>
        <time>2015-09-09T13:14:17Z</time>
      </trkpt>
      <trkpt lat="43.43793" lon="6.02486">
        <ele>272.20001220703</ele>
        <time>2015-09-09T13:14:18Z</time>
      </trkpt>
      <trkpt lat="43.43793" lon="6.02486">
        <ele>272.39999389648</ele>
        <time>2015-09-09T13:14:22Z</time>
      </trkpt>
      <trkpt lat="43.43793" lon="6.02486">
        <ele>272.39999389648</ele>
        <time>2015-09-09T13:14:24Z</time>
      </trkpt>
      <trkpt lat="43.43793" lon="6.02487">
        <ele>272.39999389648</ele>
        <time>2015-09-09T13:14:26Z</time>
      </trkpt>
      <trkpt lat="43.43792" lon="6.02487">
        <ele>272.20001220703</ele>
        <time>2015-09-09T13:14:28Z</time>
      </trkpt>
      <trkpt lat="43.43792" lon="6.02486">
        <ele>272.60000610352</ele>
        <time>2015-09-09T13:14:30Z</time>
      </trkpt>
      <trkpt lat="43.43789" lon="6.02485">
        <ele>272.39999389648</ele>
        <time>2015-09-09T13:14:33Z</time>
      </trkpt>
      <trkpt lat="43.43788" lon="6.02484">
        <ele>272.39999389648</ele>
        <time>2015-09-09T13:14:34Z</time>
      </trkpt>
      <trkpt lat="43.43785" lon="6.02481">
        <ele>272.39999389648</ele>
        <time>2015-09-09T13:14:36Z</time>
      </trkpt>
      <trkpt lat="43.43782" lon="6.02478">
        <ele>272</ele>
        <time>2015-09-09T13:14:38Z</time>
      </trkpt>
      <trkpt lat="43.43783" lon="6.02475">
        <ele>271.79998779297</ele>
        <time>2015-09-09T13:14:40Z</time>
      </trkpt>
      <trkpt lat="43.43783" lon="6.02472">
        <ele>272.20001220703</ele>
        <time>2015-09-09T13:14:42Z</time>
      </trkpt>
      <trkpt lat="43.43779" lon="6.0247">
        <ele>272.60000610352</ele>
        <time>2015-09-09T13:14:44Z</time>
      </trkpt>
      <trkpt lat="43.4378" lon="6.02467">
        <ele>273</ele>
        <time>2015-09-09T13:14:46Z</time>
      </trkpt>
      <trkpt lat="43.4378" lon="6.02464">
        <ele>274</ele>
        <time>2015-09-09T13:14:48Z</time>
      </trkpt>
      <trkpt lat="43.43781" lon="6.02461">
        <ele>274.20001220703</ele>
        <time>2015-09-09T13:14:50Z</time>
      </trkpt>
      <trkpt lat="43.43782" lon="6.02458">
        <ele>274.20001220703</ele>
        <time>2015-09-09T13:14:51Z</time>
      </trkpt>
      <trkpt lat="43.43782" lon="6.02456">
        <ele>274.20001220703</ele>
        <time>2015-09-09T13:14:52Z</time>
      </trkpt>
      <trkpt lat="43.43781" lon="6.02452">
        <ele>274.39999389648</ele>
        <time>2015-09-09T13:14:54Z</time>
      </trkpt>
      <trkpt lat="43.43779" lon="6.02448">
        <ele>274.60000610352</ele>
        <time>2015-09-09T13:14:56Z</time>
      </trkpt>
      <trkpt lat="43.43777" lon="6.02444">
        <ele>274.60000610352</ele>
        <time>2015-09-09T13:14:58Z</time>
      </trkpt>
      <trkpt lat="43.43774" lon="6.0244">
        <ele>275</ele>
        <time>2015-09-09T13:15:00Z</time>
      </trkpt>
      <trkpt lat="43.43772" lon="6.02439">
        <ele>274.60000610352</ele>
        <time>2015-09-09T13:15:02Z</time>
      </trkpt>
      <trkpt lat="43.43769" lon="6.02436">
        <ele>274.60000610352</ele>
        <time>2015-09-09T13:15:04Z</time>
      </trkpt>
      <trkpt lat="43.43768" lon="6.02431">
        <ele>274.79998779297</ele>
        <time>2015-09-09T13:15:06Z</time>
      </trkpt>
      <trkpt lat="43.43768" lon="6.02426">
        <ele>274.79998779297</ele>
        <time>2015-09-09T13:15:08Z</time>
      </trkpt>
      <trkpt lat="43.43765" lon="6.02424">
        <ele>274.79998779297</ele>
        <time>2015-09-09T13:15:10Z</time>
      </trkpt>
      <trkpt lat="43.43761" lon="6.02422">
        <ele>275.79998779297</ele>
        <time>2015-09-09T13:15:12Z</time>
      </trkpt>
      <trkpt lat="43.43759" lon="6.02419">
        <ele>276.39999389648</ele>
        <time>2015-09-09T13:15:14Z</time>
      </trkpt>
      <trkpt lat="43.43758" lon="6.02418">
        <ele>276.39999389648</ele>
        <time>2015-09-09T13:15:15Z</time>
      </trkpt>
      <trkpt lat="43.43757" lon="6.02417">
        <ele>276.79998779297</ele>
        <time>2015-09-09T13:15:16Z</time>
      </trkpt>
      <trkpt lat="43.43756" lon="6.02415">
        <ele>277.20001220703</ele>
        <time>2015-09-09T13:15:17Z</time>
      </trkpt>
      <trkpt lat="43.43755" lon="6.02413">
        <ele>277.20001220703</ele>
        <time>2015-09-09T13:15:18Z</time>
      </trkpt>
      <trkpt lat="43.43754" lon="6.02411">
        <ele>277.39999389648</ele>
        <time>2015-09-09T13:15:19Z</time>
      </trkpt>
      <trkpt lat="43.43753" lon="6.02409">
        <ele>277.60000610352</ele>
        <time>2015-09-09T13:15:20Z</time>
      </trkpt>
      <trkpt lat="43.43752" lon="6.02407">
        <ele>277.79998779297</ele>
        <time>2015-09-09T13:15:21Z</time>
      </trkpt>
      <trkpt lat="43.43752" lon="6.02405">
        <ele>277.79998779297</ele>
        <time>2015-09-09T13:15:22Z</time>
      </trkpt>
      <trkpt lat="43.43751" lon="6.02402">
        <ele>278</ele>
        <time>2015-09-09T13:15:23Z</time>
      </trkpt>
      <trkpt lat="43.43751" lon="6.02399">
        <ele>278</ele>
        <time>2015-09-09T13:15:24Z</time>
      </trkpt>
      <trkpt lat="43.43748" lon="6.02394">
        <ele>278</ele>
        <time>2015-09-09T13:15:26Z</time>
      </trkpt>
      <trkpt lat="43.43746" lon="6.02384">
        <ele>278.60000610352</ele>
        <time>2015-09-09T13:15:30Z</time>
      </trkpt>
      <trkpt lat="43.43743" lon="6.0238">
        <ele>278.79998779297</ele>
        <time>2015-09-09T13:15:32Z</time>
      </trkpt>
      <trkpt lat="43.4374" lon="6.02379">
        <ele>279</ele>
        <time>2015-09-09T13:15:33Z</time>
      </trkpt>
      <trkpt lat="43.43735" lon="6.02378">
        <ele>279.20001220703</ele>
        <time>2015-09-09T13:15:36Z</time>
      </trkpt>
      <trkpt lat="43.43732" lon="6.02377">
        <ele>279.39999389648</ele>
        <time>2015-09-09T13:15:38Z</time>
      </trkpt>
      <trkpt lat="43.43727" lon="6.02374">
        <ele>279.39999389648</ele>
        <time>2015-09-09T13:15:40Z</time>
      </trkpt>
      <trkpt lat="43.43726" lon="6.02373">
        <ele>279.60000610352</ele>
        <time>2015-09-09T13:15:41Z</time>
      </trkpt>
      <trkpt lat="43.43724" lon="6.02371">
        <ele>279.60000610352</ele>
        <time>2015-09-09T13:15:42Z</time>
      </trkpt>
      <trkpt lat="43.43722" lon="6.02366">
        <ele>279.79998779297</ele>
        <time>2015-09-09T13:15:44Z</time>
      </trkpt>
      <trkpt lat="43.43721" lon="6.02363">
        <ele>280</ele>
        <time>2015-09-09T13:15:45Z</time>
      </trkpt>
      <trkpt lat="43.43721" lon="6.02362">
        <ele>280</ele>
        <time>2015-09-09T13:15:46Z</time>
      </trkpt>
      <trkpt lat="43.4372" lon="6.02359">
        <ele>279.79998779297</ele>
        <time>2015-09-09T13:15:47Z</time>
      </trkpt>
      <trkpt lat="43.43721" lon="6.02357">
        <ele>279.60000610352</ele>
        <time>2015-09-09T13:15:48Z</time>
      </trkpt>
      <trkpt lat="43.43723" lon="6.02351">
        <ele>278.60000610352</ele>
        <time>2015-09-09T13:15:50Z</time>
      </trkpt>
      <trkpt lat="43.43725" lon="6.02349">
        <ele>278.20001220703</ele>
        <time>2015-09-09T13:15:51Z</time>
      </trkpt>
      <trkpt lat="43.43728" lon="6.02347">
        <ele>278.39999389648</ele>
        <time>2015-09-09T13:15:52Z</time>
      </trkpt>
      <trkpt lat="43.43733" lon="6.02341">
        <ele>277</ele>
        <time>2015-09-09T13:15:54Z</time>
      </trkpt>
      <trkpt lat="43.43735" lon="6.02337">
        <ele>276.39999389648</ele>
        <time>2015-09-09T13:15:55Z</time>
      </trkpt>
      <trkpt lat="43.43736" lon="6.02331">
        <ele>276</ele>
        <time>2015-09-09T13:15:56Z</time>
      </trkpt>
      <trkpt lat="43.43743" lon="6.0232">
        <ele>275.60000610352</ele>
        <time>2015-09-09T13:15:58Z</time>
      </trkpt>
      <trkpt lat="43.43746" lon="6.02314">
        <ele>274.79998779297</ele>
        <time>2015-09-09T13:15:59Z</time>
      </trkpt>
      <trkpt lat="43.43748" lon="6.0231">
        <ele>274</ele>
        <time>2015-09-09T13:16:00Z</time>
      </trkpt>
      <trkpt lat="43.43755" lon="6.02301">
        <ele>274</ele>
        <time>2015-09-09T13:16:02Z</time>
      </trkpt>
      <trkpt lat="43.43759" lon="6.0229">
        <ele>273</ele>
        <time>2015-09-09T13:16:04Z</time>
      </trkpt>
      <trkpt lat="43.43766" lon="6.0228">
        <ele>272.79998779297</ele>
        <time>2015-09-09T13:16:06Z</time>
      </trkpt>
      <trkpt lat="43.43772" lon="6.02269">
        <ele>271.20001220703</ele>
        <time>2015-09-09T13:16:08Z</time>
      </trkpt>
      <trkpt lat="43.43773" lon="6.02262">
        <ele>270.79998779297</ele>
        <time>2015-09-09T13:16:09Z</time>
      </trkpt>
      <trkpt lat="43.43773" lon="6.02256">
        <ele>270.39999389648</ele>
        <time>2015-09-09T13:16:10Z</time>
      </trkpt>
      <trkpt lat="43.43776" lon="6.02244">
        <ele>270.60000610352</ele>
        <time>2015-09-09T13:16:12Z</time>
      </trkpt>
      <trkpt lat="43.43776" lon="6.02239">
        <ele>271.20001220703</ele>
        <time>2015-09-09T13:16:13Z</time>
      </trkpt>
      <trkpt lat="43.43776" lon="6.02233">
        <ele>271.20001220703</ele>
        <time>2015-09-09T13:16:14Z</time>
      </trkpt>
      <trkpt lat="43.43775" lon="6.02222">
        <ele>271.20001220703</ele>
        <time>2015-09-09T13:16:16Z</time>
      </trkpt>
      <trkpt lat="43.43776" lon="6.02211">
        <ele>271.60000610352</ele>
        <time>2015-09-09T13:16:18Z</time>
      </trkpt>
      <trkpt lat="43.4378" lon="6.02207">
        <ele>271.79998779297</ele>
        <time>2015-09-09T13:16:19Z</time>
      </trkpt>
      <trkpt lat="43.43782" lon="6.02203">
        <ele>271.79998779297</ele>
        <time>2015-09-09T13:16:20Z</time>
      </trkpt>
      <trkpt lat="43.43784" lon="6.02198">
        <ele>271.60000610352</ele>
        <time>2015-09-09T13:16:21Z</time>
      </trkpt>
      <trkpt lat="43.43791" lon="6.02182">
        <ele>271.60000610352</ele>
        <time>2015-09-09T13:16:24Z</time>
      </trkpt>
      <trkpt lat="43.43795" lon="6.02177">
        <ele>271.60000610352</ele>
        <time>2015-09-09T13:16:25Z</time>
      </trkpt>
      <trkpt lat="43.43798" lon="6.02172">
        <ele>271.39999389648</ele>
        <time>2015-09-09T13:16:26Z</time>
      </trkpt>
      <trkpt lat="43.43802" lon="6.02168">
        <ele>271.39999389648</ele>
        <time>2015-09-09T13:16:27Z</time>
      </trkpt>
      <trkpt lat="43.43805" lon="6.02164">
        <ele>271.39999389648</ele>
        <time>2015-09-09T13:16:28Z</time>
      </trkpt>
      <trkpt lat="43.43818" lon="6.02147">
        <ele>272</ele>
        <time>2015-09-09T13:16:32Z</time>
      </trkpt>
      <trkpt lat="43.43822" lon="6.02138">
        <ele>272.39999389648</ele>
        <time>2015-09-09T13:16:34Z</time>
      </trkpt>
      <trkpt lat="43.43823" lon="6.02129">
        <ele>273.20001220703</ele>
        <time>2015-09-09T13:16:36Z</time>
      </trkpt>
      <trkpt lat="43.43825" lon="6.02121">
        <ele>273.20001220703</ele>
        <time>2015-09-09T13:16:38Z</time>
      </trkpt>
      <trkpt lat="43.43828" lon="6.02112">
        <ele>273</ele>
        <time>2015-09-09T13:16:40Z</time>
      </trkpt>
      <trkpt lat="43.43832" lon="6.02102">
        <ele>273</ele>
        <time>2015-09-09T13:16:42Z</time>
      </trkpt>
      <trkpt lat="43.4384" lon="6.0209">
        <ele>272.79998779297</ele>
        <time>2015-09-09T13:16:44Z</time>
      </trkpt>
      <trkpt lat="43.43846" lon="6.02079">
        <ele>272.60000610352</ele>
        <time>2015-09-09T13:16:46Z</time>
      </trkpt>
      <trkpt lat="43.43847" lon="6.02066">
        <ele>272.60000610352</ele>
        <time>2015-09-09T13:16:48Z</time>
      </trkpt>
      <trkpt lat="43.4385" lon="6.02042">
        <ele>273.20001220703</ele>
        <time>2015-09-09T13:16:52Z</time>
      </trkpt>
      <trkpt lat="43.43851" lon="6.0203">
        <ele>273.39999389648</ele>
        <time>2015-09-09T13:16:54Z</time>
      </trkpt>
      <trkpt lat="43.43851" lon="6.02018">
        <ele>273.60000610352</ele>
        <time>2015-09-09T13:16:56Z</time>
      </trkpt>
      <trkpt lat="43.43851" lon="6.02007">
        <ele>274</ele>
        <time>2015-09-09T13:16:58Z</time>
      </trkpt>
      <trkpt lat="43.43854" lon="6.01997">
        <ele>273.79998779297</ele>
        <time>2015-09-09T13:17:00Z</time>
      </trkpt>
      <trkpt lat="43.43858" lon="6.01987">
        <ele>273.39999389648</ele>
        <time>2015-09-09T13:17:02Z</time>
      </trkpt>
      <trkpt lat="43.4386" lon="6.01977">
        <ele>273.60000610352</ele>
        <time>2015-09-09T13:17:04Z</time>
      </trkpt>
      <trkpt lat="43.43862" lon="6.01972">
        <ele>273.20001220703</ele>
        <time>2015-09-09T13:17:06Z</time>
      </trkpt>
      <trkpt lat="43.43861" lon="6.01971">
        <ele>273.39999389648</ele>
        <time>2015-09-09T13:17:07Z</time>
      </trkpt>
      <trkpt lat="43.43861" lon="6.0197">
        <ele>273.39999389648</ele>
        <time>2015-09-09T13:17:08Z</time>
      </trkpt>
      <trkpt lat="43.43861" lon="6.01967">
        <ele>273.39999389648</ele>
        <time>2015-09-09T13:17:10Z</time>
      </trkpt>
      <trkpt lat="43.43861" lon="6.01967">
        <ele>273.20001220703</ele>
        <time>2015-09-09T13:17:12Z</time>
      </trkpt>
      <trkpt lat="43.43861" lon="6.01967">
        <ele>273.39999389648</ele>
        <time>2015-09-09T13:17:14Z</time>
      </trkpt>
      <trkpt lat="43.43861" lon="6.01967">
        <ele>273.60000610352</ele>
        <time>2015-09-09T13:17:16Z</time>
      </trkpt>
      <trkpt lat="43.43861" lon="6.01966">
        <ele>273.60000610352</ele>
        <time>2015-09-09T13:17:26Z</time>
      </trkpt>
      <trkpt lat="43.4386" lon="6.01966">
        <ele>273.60000610352</ele>
        <time>2015-09-09T13:17:27Z</time>
      </trkpt>
      <trkpt lat="43.4386" lon="6.01966">
        <ele>273.39999389648</ele>
        <time>2015-09-09T13:17:28Z</time>
      </trkpt>
      <trkpt lat="43.43861" lon="6.01966">
        <ele>273.60000610352</ele>
        <time>2015-09-09T13:17:30Z</time>
      </trkpt>
      <trkpt lat="43.43861" lon="6.01966">
        <ele>273.39999389648</ele>
        <time>2015-09-09T13:17:34Z</time>
      </trkpt>
      <trkpt lat="43.4386" lon="6.01966">
        <ele>273.39999389648</ele>
        <time>2015-09-09T13:17:36Z</time>
      </trkpt>
      <trkpt lat="43.4386" lon="6.01966">
        <ele>273.39999389648</ele>
        <time>2015-09-09T13:17:38Z</time>
      </trkpt>
      <trkpt lat="43.4386" lon="6.01966">
        <ele>273.79998779297</ele>
        <time>2015-09-09T13:17:43Z</time>
      </trkpt>
      <trkpt lat="43.4386" lon="6.01966">
        <ele>273.60000610352</ele>
        <time>2015-09-09T13:17:49Z</time>
      </trkpt>
      <trkpt lat="43.4386" lon="6.01966">
        <ele>273.79998779297</ele>
        <time>2015-09-09T13:17:52Z</time>
      </trkpt>
      <trkpt lat="43.4386" lon="6.01966">
        <ele>273.60000610352</ele>
        <time>2015-09-09T13:17:58Z</time>
      </trkpt>
      <trkpt lat="43.4386" lon="6.01966">
        <ele>273.79998779297</ele>
        <time>2015-09-09T13:18:24Z</time>
      </trkpt>
      <trkpt lat="43.4386" lon="6.01965">
        <ele>273.79998779297</ele>
        <time>2015-09-09T13:18:30Z</time>
      </trkpt>
      <trkpt lat="43.4386" lon="6.01965">
        <ele>273.60000610352</ele>
        <time>2015-09-09T13:18:40Z</time>
      </trkpt>
      <trkpt lat="43.4386" lon="6.01965">
        <ele>273.39999389648</ele>
        <time>2015-09-09T13:18:54Z</time>
      </trkpt>
      <trkpt lat="43.4386" lon="6.01965">
        <ele>273.60000610352</ele>
        <time>2015-09-09T13:18:58Z</time>
      </trkpt>
      <trkpt lat="43.4386" lon="6.01965">
        <ele>273.60000610352</ele>
        <time>2015-09-09T13:19:02Z</time>
      </trkpt>
      <trkpt lat="43.43861" lon="6.01965">
        <ele>273.60000610352</ele>
        <time>2015-09-09T13:19:04Z</time>
      </trkpt>
      <trkpt lat="43.43861" lon="6.01965">
        <ele>273.79998779297</ele>
        <time>2015-09-09T13:19:10Z</time>
      </trkpt>
      <trkpt lat="43.43861" lon="6.01965">
        <ele>273.79998779297</ele>
        <time>2015-09-09T13:19:14Z</time>
      </trkpt>
      <trkpt lat="43.43861" lon="6.01965">
        <ele>273.60000610352</ele>
        <time>2015-09-09T13:19:18Z</time>
      </trkpt>
      <trkpt lat="43.4386" lon="6.01965">
        <ele>273.60000610352</ele>
        <time>2015-09-09T13:19:22Z</time>
      </trkpt>
      <trkpt lat="43.43861" lon="6.01965">
        <ele>273.39999389648</ele>
        <time>2015-09-09T13:19:26Z</time>
      </trkpt>
      <trkpt lat="43.4386" lon="6.01965">
        <ele>273.60000610352</ele>
        <time>2015-09-09T13:19:28Z</time>
      </trkpt>
      <trkpt lat="43.4386" lon="6.01965">
        <ele>273.60000610352</ele>
        <time>2015-09-09T13:19:30Z</time>
      </trkpt>
      <trkpt lat="43.4386" lon="6.01965">
        <ele>273.60000610352</ele>
        <time>2015-09-09T13:19:32Z</time>
      </trkpt>
      <trkpt lat="43.4386" lon="6.01965">
        <ele>273.39999389648</ele>
        <time>2015-09-09T13:19:34Z</time>
      </trkpt>
      <trkpt lat="43.4386" lon="6.01965">
        <ele>273.39999389648</ele>
        <time>2015-09-09T13:19:38Z</time>
      </trkpt>
      <trkpt lat="43.43861" lon="6.01965">
        <ele>273.39999389648</ele>
        <time>2015-09-09T13:19:40Z</time>
      </trkpt>
      <trkpt lat="43.43861" lon="6.01965">
        <ele>273.20001220703</ele>
        <time>2015-09-09T13:19:46Z</time>
      </trkpt>
      <trkpt lat="43.4386" lon="6.01965">
        <ele>273.20001220703</ele>
        <time>2015-09-09T13:19:48Z</time>
      </trkpt>
      <trkpt lat="43.4386" lon="6.01965">
        <ele>273.39999389648</ele>
        <time>2015-09-09T13:19:52Z</time>
      </trkpt>
      <trkpt lat="43.4386" lon="6.01965">
        <ele>273.39999389648</ele>
        <time>2015-09-09T13:19:54Z</time>
      </trkpt>
      <trkpt lat="43.4386" lon="6.01965">
        <ele>273.39999389648</ele>
        <time>2015-09-09T13:19:56Z</time>
      </trkpt>
      <trkpt lat="43.4386" lon="6.01965">
        <ele>273.60000610352</ele>
        <time>2015-09-09T13:19:58Z</time>
      </trkpt>
      <trkpt lat="43.4386" lon="6.01965">
        <ele>273.60000610352</ele>
        <time>2015-09-09T13:20:01Z</time>
      </trkpt>
      <trkpt lat="43.4386" lon="6.01965">
        <ele>273.39999389648</ele>
        <time>2015-09-09T13:20:04Z</time>
      </trkpt>
      <trkpt lat="43.4386" lon="6.01965">
        <ele>273.39999389648</ele>
        <time>2015-09-09T13:20:08Z</time>
      </trkpt>
      <trkpt lat="43.43859" lon="6.01965">
        <ele>273.60000610352</ele>
        <time>2015-09-09T13:20:10Z</time>
      </trkpt>
      <trkpt lat="43.43859" lon="6.01965">
        <ele>273.39999389648</ele>
        <time>2015-09-09T13:20:14Z</time>
      </trkpt>
      <trkpt lat="43.43859" lon="6.01965">
        <ele>273.60000610352</ele>
        <time>2015-09-09T13:20:30Z</time>
      </trkpt>
      <trkpt lat="43.43859" lon="6.01965">
        <ele>273.39999389648</ele>
        <time>2015-09-09T13:20:32Z</time>
      </trkpt>
      <trkpt lat="43.43859" lon="6.01965">
        <ele>273.39999389648</ele>
        <time>2015-09-09T13:20:36Z</time>
      </trkpt>
      <trkpt lat="43.43859" lon="6.01965">
        <ele>273.39999389648</ele>
        <time>2015-09-09T13:20:50Z</time>
      </trkpt>
      <trkpt lat="43.43859" lon="6.01964">
        <ele>273.60000610352</ele>
        <time>2015-09-09T13:20:56Z</time>
      </trkpt>
      <trkpt lat="43.4386" lon="6.01964">
        <ele>273.60000610352</ele>
        <time>2015-09-09T13:20:58Z</time>
      </trkpt>
      <trkpt lat="43.4386" lon="6.01963">
        <ele>273.39999389648</ele>
        <time>2015-09-09T13:21:00Z</time>
      </trkpt>
      <trkpt lat="43.4386" lon="6.01962">
        <ele>273.60000610352</ele>
        <time>2015-09-09T13:21:02Z</time>
      </trkpt>
      <trkpt lat="43.43863" lon="6.01962">
        <ele>273.39999389648</ele>
        <time>2015-09-09T13:21:04Z</time>
      </trkpt>
      <trkpt lat="43.43863" lon="6.01961">
        <ele>273.39999389648</ele>
        <time>2015-09-09T13:21:05Z</time>
      </trkpt>
      <trkpt lat="43.43864" lon="6.01959">
        <ele>273.39999389648</ele>
        <time>2015-09-09T13:21:06Z</time>
      </trkpt>
      <trkpt lat="43.43867" lon="6.01955">
        <ele>273.20001220703</ele>
        <time>2015-09-09T13:21:08Z</time>
      </trkpt>
      <trkpt lat="43.4387" lon="6.0195">
        <ele>273.39999389648</ele>
        <time>2015-09-09T13:21:10Z</time>
      </trkpt>
      <trkpt lat="43.43871" lon="6.01947">
        <ele>273.20001220703</ele>
        <time>2015-09-09T13:21:11Z</time>
      </trkpt>
      <trkpt lat="43.43875" lon="6.01936">
        <ele>273.60000610352</ele>
        <time>2015-09-09T13:21:14Z</time>
      </trkpt>
      <trkpt lat="43.43877" lon="6.01929">
        <ele>273.79998779297</ele>
        <time>2015-09-09T13:21:16Z</time>
      </trkpt>
      <trkpt lat="43.4388" lon="6.0192">
        <ele>274</ele>
        <time>2015-09-09T13:21:18Z</time>
      </trkpt>
      <trkpt lat="43.43884" lon="6.01911">
        <ele>274</ele>
        <time>2015-09-09T13:21:20Z</time>
      </trkpt>
      <trkpt lat="43.43886" lon="6.01902">
        <ele>274.20001220703</ele>
        <time>2015-09-09T13:21:22Z</time>
      </trkpt>
      <trkpt lat="43.43888" lon="6.01893">
        <ele>274.39999389648</ele>
        <time>2015-09-09T13:21:24Z</time>
      </trkpt>
      <trkpt lat="43.4389" lon="6.01881">
        <ele>274.20001220703</ele>
        <time>2015-09-09T13:21:26Z</time>
      </trkpt>
      <trkpt lat="43.43891" lon="6.01871">
        <ele>274.20001220703</ele>
        <time>2015-09-09T13:21:28Z</time>
      </trkpt>
      <trkpt lat="43.43892" lon="6.01866">
        <ele>274.39999389648</ele>
        <time>2015-09-09T13:21:29Z</time>
      </trkpt>
      <trkpt lat="43.43893" lon="6.01862">
        <ele>274.39999389648</ele>
        <time>2015-09-09T13:21:30Z</time>
      </trkpt>
      <trkpt lat="43.43893" lon="6.01852">
        <ele>274.60000610352</ele>
        <time>2015-09-09T13:21:32Z</time>
      </trkpt>
      <trkpt lat="43.43892" lon="6.01842">
        <ele>275</ele>
        <time>2015-09-09T13:21:34Z</time>
      </trkpt>
      <trkpt lat="43.43893" lon="6.01833">
        <ele>275.79998779297</ele>
        <time>2015-09-09T13:21:36Z</time>
      </trkpt>
      <trkpt lat="43.43895" lon="6.01825">
        <ele>276.60000610352</ele>
        <time>2015-09-09T13:21:38Z</time>
      </trkpt>
      <trkpt lat="43.43895" lon="6.01821">
        <ele>276.79998779297</ele>
        <time>2015-09-09T13:21:39Z</time>
      </trkpt>
      <trkpt lat="43.43897" lon="6.01814">
        <ele>277.39999389648</ele>
        <time>2015-09-09T13:21:41Z</time>
      </trkpt>
      <trkpt lat="43.43898" lon="6.0181">
        <ele>277.60000610352</ele>
        <time>2015-09-09T13:21:42Z</time>
      </trkpt>
      <trkpt lat="43.43901" lon="6.01796">
        <ele>278.39999389648</ele>
        <time>2015-09-09T13:21:46Z</time>
      </trkpt>
      <trkpt lat="43.43901" lon="6.01792">
        <ele>278.39999389648</ele>
        <time>2015-09-09T13:21:47Z</time>
      </trkpt>
      <trkpt lat="43.43901" lon="6.01789">
        <ele>278.60000610352</ele>
        <time>2015-09-09T13:21:48Z</time>
      </trkpt>
      <trkpt lat="43.439" lon="6.01781">
        <ele>279.20001220703</ele>
        <time>2015-09-09T13:21:50Z</time>
      </trkpt>
      <trkpt lat="43.43898" lon="6.01773">
        <ele>279.60000610352</ele>
        <time>2015-09-09T13:21:52Z</time>
      </trkpt>
      <trkpt lat="43.43897" lon="6.01769">
        <ele>279.60000610352</ele>
        <time>2015-09-09T13:21:53Z</time>
      </trkpt>
      <trkpt lat="43.43896" lon="6.01764">
        <ele>279.79998779297</ele>
        <time>2015-09-09T13:21:54Z</time>
      </trkpt>
      <trkpt lat="43.43893" lon="6.01757">
        <ele>280</ele>
        <time>2015-09-09T13:21:56Z</time>
      </trkpt>
      <trkpt lat="43.4389" lon="6.01749">
        <ele>280</ele>
        <time>2015-09-09T13:21:58Z</time>
      </trkpt>
      <trkpt lat="43.43886" lon="6.01743">
        <ele>280.39999389648</ele>
        <time>2015-09-09T13:22:00Z</time>
      </trkpt>
      <trkpt lat="43.43884" lon="6.01735">
        <ele>280.20001220703</ele>
        <time>2015-09-09T13:22:02Z</time>
      </trkpt>
      <trkpt lat="43.43882" lon="6.01729">
        <ele>280.60000610352</ele>
        <time>2015-09-09T13:22:04Z</time>
      </trkpt>
      <trkpt lat="43.4388" lon="6.01722">
        <ele>281</ele>
        <time>2015-09-09T13:22:06Z</time>
      </trkpt>
      <trkpt lat="43.43879" lon="6.01715">
        <ele>281.20001220703</ele>
        <time>2015-09-09T13:22:08Z</time>
      </trkpt>
      <trkpt lat="43.43879" lon="6.01708">
        <ele>281.20001220703</ele>
        <time>2015-09-09T13:22:10Z</time>
      </trkpt>
      <trkpt lat="43.43879" lon="6.01701">
        <ele>281.39999389648</ele>
        <time>2015-09-09T13:22:12Z</time>
      </trkpt>
      <trkpt lat="43.43879" lon="6.01693">
        <ele>281.79998779297</ele>
        <time>2015-09-09T13:22:14Z</time>
      </trkpt>
      <trkpt lat="43.43878" lon="6.01685">
        <ele>282.20001220703</ele>
        <time>2015-09-09T13:22:16Z</time>
      </trkpt>
      <trkpt lat="43.43874" lon="6.0168">
        <ele>282.39999389648</ele>
        <time>2015-09-09T13:22:18Z</time>
      </trkpt>
      <trkpt lat="43.43871" lon="6.01678">
        <ele>282.20001220703</ele>
        <time>2015-09-09T13:22:19Z</time>
      </trkpt>
      <trkpt lat="43.43864" lon="6.01681">
        <ele>282.60000610352</ele>
        <time>2015-09-09T13:22:22Z</time>
      </trkpt>
      <trkpt lat="43.4386" lon="6.01682">
        <ele>282.79998779297</ele>
        <time>2015-09-09T13:22:24Z</time>
      </trkpt>
      <trkpt lat="43.43857" lon="6.01682">
        <ele>282.79998779297</ele>
        <time>2015-09-09T13:22:25Z</time>
      </trkpt>
      <trkpt lat="43.43848" lon="6.01687">
        <ele>282.79998779297</ele>
        <time>2015-09-09T13:22:29Z</time>
      </trkpt>
      <trkpt lat="43.43845" lon="6.01687">
        <ele>282.79998779297</ele>
        <time>2015-09-09T13:22:30Z</time>
      </trkpt>
      <trkpt lat="43.4384" lon="6.01689">
        <ele>283</ele>
        <time>2015-09-09T13:22:32Z</time>
      </trkpt>
      <trkpt lat="43.43835" lon="6.01691">
        <ele>283</ele>
        <time>2015-09-09T13:22:34Z</time>
      </trkpt>
      <trkpt lat="43.43832" lon="6.01692">
        <ele>282.79998779297</ele>
        <time>2015-09-09T13:22:35Z</time>
      </trkpt>
      <trkpt lat="43.4383" lon="6.01692">
        <ele>283</ele>
        <time>2015-09-09T13:22:36Z</time>
      </trkpt>
      <trkpt lat="43.43818" lon="6.01694">
        <ele>283.39999389648</ele>
        <time>2015-09-09T13:22:40Z</time>
      </trkpt>
      <trkpt lat="43.43812" lon="6.01698">
        <ele>283.39999389648</ele>
        <time>2015-09-09T13:22:42Z</time>
      </trkpt>
      <trkpt lat="43.43805" lon="6.01699">
        <ele>283.60000610352</ele>
        <time>2015-09-09T13:22:44Z</time>
      </trkpt>
      <trkpt lat="43.43798" lon="6.01701">
        <ele>283.79998779297</ele>
        <time>2015-09-09T13:22:46Z</time>
      </trkpt>
      <trkpt lat="43.43792" lon="6.01702">
        <ele>283.79998779297</ele>
        <time>2015-09-09T13:22:48Z</time>
      </trkpt>
      <trkpt lat="43.43781" lon="6.01701">
        <ele>284.20001220703</ele>
        <time>2015-09-09T13:22:52Z</time>
      </trkpt>
      <trkpt lat="43.43776" lon="6.01699">
        <ele>284.39999389648</ele>
        <time>2015-09-09T13:22:54Z</time>
      </trkpt>
      <trkpt lat="43.43772" lon="6.01697">
        <ele>284.79998779297</ele>
        <time>2015-09-09T13:22:56Z</time>
      </trkpt>
      <trkpt lat="43.43768" lon="6.01695">
        <ele>285.20001220703</ele>
        <time>2015-09-09T13:22:58Z</time>
      </trkpt>
      <trkpt lat="43.43762" lon="6.01692">
        <ele>285.60000610352</ele>
        <time>2015-09-09T13:23:00Z</time>
      </trkpt>
      <trkpt lat="43.4376" lon="6.01691">
        <ele>285.60000610352</ele>
        <time>2015-09-09T13:23:01Z</time>
      </trkpt>
      <trkpt lat="43.43757" lon="6.01689">
        <ele>285.79998779297</ele>
        <time>2015-09-09T13:23:02Z</time>
      </trkpt>
      <trkpt lat="43.43752" lon="6.01687">
        <ele>286</ele>
        <time>2015-09-09T13:23:04Z</time>
      </trkpt>
      <trkpt lat="43.43748" lon="6.01685">
        <ele>286.20001220703</ele>
        <time>2015-09-09T13:23:06Z</time>
      </trkpt>
      <trkpt lat="43.43745" lon="6.01683">
        <ele>286.39999389648</ele>
        <time>2015-09-09T13:23:08Z</time>
      </trkpt>
      <trkpt lat="43.43744" lon="6.01683">
        <ele>286.60000610352</ele>
        <time>2015-09-09T13:23:10Z</time>
      </trkpt>
      <trkpt lat="43.43743" lon="6.01683">
        <ele>286.39999389648</ele>
        <time>2015-09-09T13:23:12Z</time>
      </trkpt>
      <trkpt lat="43.43743" lon="6.01683">
        <ele>286.60000610352</ele>
        <time>2015-09-09T13:23:16Z</time>
      </trkpt>
      <trkpt lat="43.43743" lon="6.01683">
        <ele>286.60000610352</ele>
        <time>2015-09-09T13:23:18Z</time>
      </trkpt>
      <trkpt lat="43.43743" lon="6.01683">
        <ele>286.79998779297</ele>
        <time>2015-09-09T13:23:20Z</time>
      </trkpt>
      <trkpt lat="43.43743" lon="6.01683">
        <ele>287</ele>
        <time>2015-09-09T13:23:36Z</time>
      </trkpt>
      <trkpt lat="43.43743" lon="6.01684">
        <ele>287</ele>
        <time>2015-09-09T13:23:42Z</time>
      </trkpt>
      <trkpt lat="43.43743" lon="6.01684">
        <ele>287</ele>
        <time>2015-09-09T13:23:48Z</time>
      </trkpt>
      <trkpt lat="43.43743" lon="6.01684">
        <ele>287.39999389648</ele>
        <time>2015-09-09T13:23:58Z</time>
      </trkpt>
      <trkpt lat="43.43743" lon="6.01684">
        <ele>287.39999389648</ele>
        <time>2015-09-09T13:24:10Z</time>
      </trkpt>
      <trkpt lat="43.43743" lon="6.01683">
        <ele>287.39999389648</ele>
        <time>2015-09-09T13:24:18Z</time>
      </trkpt>
      <trkpt lat="43.43743" lon="6.01683">
        <ele>287.39999389648</ele>
        <time>2015-09-09T13:24:20Z</time>
      </trkpt>
      <trkpt lat="43.43743" lon="6.01682">
        <ele>287.60000610352</ele>
        <time>2015-09-09T13:24:22Z</time>
      </trkpt>
      <trkpt lat="43.43744" lon="6.01682">
        <ele>287.60000610352</ele>
        <time>2015-09-09T13:24:26Z</time>
      </trkpt>
      <trkpt lat="43.43744" lon="6.01682">
        <ele>287.60000610352</ele>
        <time>2015-09-09T13:24:28Z</time>
      </trkpt>
      <trkpt lat="43.43744" lon="6.01682">
        <ele>287.20001220703</ele>
        <time>2015-09-09T13:24:30Z</time>
      </trkpt>
      <trkpt lat="43.43744" lon="6.01682">
        <ele>287.20001220703</ele>
        <time>2015-09-09T13:24:33Z</time>
      </trkpt>
      <trkpt lat="43.43744" lon="6.01682">
        <ele>287.20001220703</ele>
        <time>2015-09-09T13:24:36Z</time>
      </trkpt>
      <trkpt lat="43.43744" lon="6.01682">
        <ele>287.39999389648</ele>
        <time>2015-09-09T13:24:38Z</time>
      </trkpt>
      <trkpt lat="43.43744" lon="6.01682">
        <ele>287.60000610352</ele>
        <time>2015-09-09T13:24:40Z</time>
      </trkpt>
      <trkpt lat="43.43744" lon="6.01682">
        <ele>287.60000610352</ele>
        <time>2015-09-09T13:24:42Z</time>
      </trkpt>
      <trkpt lat="43.43744" lon="6.01679">
        <ele>287.39999389648</ele>
        <time>2015-09-09T13:24:44Z</time>
      </trkpt>
      <trkpt lat="43.43744" lon="6.01673">
        <ele>287.20001220703</ele>
        <time>2015-09-09T13:24:46Z</time>
      </trkpt>
      <trkpt lat="43.43746" lon="6.01666">
        <ele>287.39999389648</ele>
        <time>2015-09-09T13:24:48Z</time>
      </trkpt>
      <trkpt lat="43.43748" lon="6.01657">
        <ele>287</ele>
        <time>2015-09-09T13:24:50Z</time>
      </trkpt>
      <trkpt lat="43.43751" lon="6.01646">
        <ele>287</ele>
        <time>2015-09-09T13:24:52Z</time>
      </trkpt>
      <trkpt lat="43.43755" lon="6.01634">
        <ele>287</ele>
        <time>2015-09-09T13:24:54Z</time>
      </trkpt>
      <trkpt lat="43.43758" lon="6.01621">
        <ele>287.20001220703</ele>
        <time>2015-09-09T13:24:56Z</time>
      </trkpt>
      <trkpt lat="43.43762" lon="6.01608">
        <ele>286.79998779297</ele>
        <time>2015-09-09T13:24:58Z</time>
      </trkpt>
      <trkpt lat="43.43766" lon="6.01594">
        <ele>286.79998779297</ele>
        <time>2015-09-09T13:25:00Z</time>
      </trkpt>
      <trkpt lat="43.4377" lon="6.0158">
        <ele>287</ele>
        <time>2015-09-09T13:25:02Z</time>
      </trkpt>
      <trkpt lat="43.43774" lon="6.01565">
        <ele>286.79998779297</ele>
        <time>2015-09-09T13:25:04Z</time>
      </trkpt>
      <trkpt lat="43.43777" lon="6.01549">
        <ele>287</ele>
        <time>2015-09-09T13:25:06Z</time>
      </trkpt>
      <trkpt lat="43.43781" lon="6.01532">
        <ele>286.60000610352</ele>
        <time>2015-09-09T13:25:08Z</time>
      </trkpt>
      <trkpt lat="43.43784" lon="6.01514">
        <ele>286</ele>
        <time>2015-09-09T13:25:10Z</time>
      </trkpt>
      <trkpt lat="43.43787" lon="6.01497">
        <ele>286</ele>
        <time>2015-09-09T13:25:12Z</time>
      </trkpt>
      <trkpt lat="43.43788" lon="6.01481">
        <ele>286.39999389648</ele>
        <time>2015-09-09T13:25:14Z</time>
      </trkpt>
      <trkpt lat="43.43788" lon="6.01474">
        <ele>287.39999389648</ele>
        <time>2015-09-09T13:25:15Z</time>
      </trkpt>
      <trkpt lat="43.43788" lon="6.01468">
        <ele>287.60000610352</ele>
        <time>2015-09-09T13:25:16Z</time>
      </trkpt>
      <trkpt lat="43.43788" lon="6.01462">
        <ele>287.60000610352</ele>
        <time>2015-09-09T13:25:17Z</time>
      </trkpt>
      <trkpt lat="43.43787" lon="6.01456">
        <ele>287.79998779297</ele>
        <time>2015-09-09T13:25:18Z</time>
      </trkpt>
      <trkpt lat="43.43787" lon="6.01443">
        <ele>288</ele>
        <time>2015-09-09T13:25:20Z</time>
      </trkpt>
      <trkpt lat="43.43787" lon="6.01436">
        <ele>287.79998779297</ele>
        <time>2015-09-09T13:25:21Z</time>
      </trkpt>
      <trkpt lat="43.43786" lon="6.01428">
        <ele>287.60000610352</ele>
        <time>2015-09-09T13:25:22Z</time>
      </trkpt>
      <trkpt lat="43.43785" lon="6.01413">
        <ele>287.20001220703</ele>
        <time>2015-09-09T13:25:24Z</time>
      </trkpt>
      <trkpt lat="43.43784" lon="6.01397">
        <ele>286.60000610352</ele>
        <time>2015-09-09T13:25:26Z</time>
      </trkpt>
      <trkpt lat="43.43784" lon="6.01382">
        <ele>287.20001220703</ele>
        <time>2015-09-09T13:25:28Z</time>
      </trkpt>
      <trkpt lat="43.43784" lon="6.01369">
        <ele>287.60000610352</ele>
        <time>2015-09-09T13:25:30Z</time>
      </trkpt>
      <trkpt lat="43.43783" lon="6.01359">
        <ele>288.39999389648</ele>
        <time>2015-09-09T13:25:32Z</time>
      </trkpt>
      <trkpt lat="43.43783" lon="6.01354">
        <ele>288.79998779297</ele>
        <time>2015-09-09T13:25:33Z</time>
      </trkpt>
      <trkpt lat="43.43783" lon="6.01349">
        <ele>288.79998779297</ele>
        <time>2015-09-09T13:25:34Z</time>
      </trkpt>
      <trkpt lat="43.43782" lon="6.01338">
        <ele>288.60000610352</ele>
        <time>2015-09-09T13:25:36Z</time>
      </trkpt>
      <trkpt lat="43.4378" lon="6.01326">
        <ele>288.60000610352</ele>
        <time>2015-09-09T13:25:38Z</time>
      </trkpt>
      <trkpt lat="43.43778" lon="6.01313">
        <ele>287.79998779297</ele>
        <time>2015-09-09T13:25:40Z</time>
      </trkpt>
      <trkpt lat="43.43777" lon="6.01301">
        <ele>287.60000610352</ele>
        <time>2015-09-09T13:25:42Z</time>
      </trkpt>
      <trkpt lat="43.43776" lon="6.01291">
        <ele>287.79998779297</ele>
        <time>2015-09-09T13:25:44Z</time>
      </trkpt>
      <trkpt lat="43.43774" lon="6.01282">
        <ele>288.60000610352</ele>
        <time>2015-09-09T13:25:46Z</time>
      </trkpt>
      <trkpt lat="43.43773" lon="6.01278">
        <ele>289</ele>
        <time>2015-09-09T13:25:47Z</time>
      </trkpt>
      <trkpt lat="43.43773" lon="6.01274">
        <ele>289.39999389648</ele>
        <time>2015-09-09T13:25:48Z</time>
      </trkpt>
      <trkpt lat="43.43771" lon="6.01266">
        <ele>290.20001220703</ele>
        <time>2015-09-09T13:25:50Z</time>
      </trkpt>
      <trkpt lat="43.43768" lon="6.01259">
        <ele>290.20001220703</ele>
        <time>2015-09-09T13:25:52Z</time>
      </trkpt>
      <trkpt lat="43.43767" lon="6.01252">
        <ele>290.39999389648</ele>
        <time>2015-09-09T13:25:54Z</time>
      </trkpt>
      <trkpt lat="43.43767" lon="6.01248">
        <ele>290.60000610352</ele>
        <time>2015-09-09T13:25:55Z</time>
      </trkpt>
      <trkpt lat="43.43766" lon="6.01237">
        <ele>291.39999389648</ele>
        <time>2015-09-09T13:25:58Z</time>
      </trkpt>
      <trkpt lat="43.43765" lon="6.0123">
        <ele>291.60000610352</ele>
        <time>2015-09-09T13:26:00Z</time>
      </trkpt>
      <trkpt lat="43.43765" lon="6.01223">
        <ele>292.20001220703</ele>
        <time>2015-09-09T13:26:02Z</time>
      </trkpt>
      <trkpt lat="43.43765" lon="6.01218">
        <ele>292</ele>
        <time>2015-09-09T13:26:04Z</time>
      </trkpt>
      <trkpt lat="43.43764" lon="6.01207">
        <ele>293.20001220703</ele>
        <time>2015-09-09T13:26:08Z</time>
      </trkpt>
      <trkpt lat="43.43764" lon="6.01195">
        <ele>294.39999389648</ele>
        <time>2015-09-09T13:26:13Z</time>
      </trkpt>
      <trkpt lat="43.43765" lon="6.01189">
        <ele>295</ele>
        <time>2015-09-09T13:26:16Z</time>
      </trkpt>
      <trkpt lat="43.43766" lon="6.01185">
        <ele>295</ele>
        <time>2015-09-09T13:26:18Z</time>
      </trkpt>
      <trkpt lat="43.43768" lon="6.01174">
        <ele>295</ele>
        <time>2015-09-09T13:26:22Z</time>
      </trkpt>
      <trkpt lat="43.4377" lon="6.01167">
        <ele>295.20001220703</ele>
        <time>2015-09-09T13:26:24Z</time>
      </trkpt>
      <trkpt lat="43.43774" lon="6.01155">
        <ele>295.39999389648</ele>
        <time>2015-09-09T13:26:28Z</time>
      </trkpt>
      <trkpt lat="43.43779" lon="6.01142">
        <ele>295.39999389648</ele>
        <time>2015-09-09T13:26:32Z</time>
      </trkpt>
      <trkpt lat="43.43781" lon="6.01136">
        <ele>295.39999389648</ele>
        <time>2015-09-09T13:26:34Z</time>
      </trkpt>
      <trkpt lat="43.43784" lon="6.0113">
        <ele>295.79998779297</ele>
        <time>2015-09-09T13:26:36Z</time>
      </trkpt>
      <trkpt lat="43.43789" lon="6.01117">
        <ele>295.60000610352</ele>
        <time>2015-09-09T13:26:40Z</time>
      </trkpt>
      <trkpt lat="43.43794" lon="6.01103">
        <ele>295.60000610352</ele>
        <time>2015-09-09T13:26:44Z</time>
      </trkpt>
      <trkpt lat="43.43797" lon="6.01096">
        <ele>295.20001220703</ele>
        <time>2015-09-09T13:26:46Z</time>
      </trkpt>
      <trkpt lat="43.43799" lon="6.01088">
        <ele>295.20001220703</ele>
        <time>2015-09-09T13:26:48Z</time>
      </trkpt>
      <trkpt lat="43.43804" lon="6.01073">
        <ele>295.39999389648</ele>
        <time>2015-09-09T13:26:52Z</time>
      </trkpt>
      <trkpt lat="43.43806" lon="6.01066">
        <ele>295.39999389648</ele>
        <time>2015-09-09T13:26:54Z</time>
      </trkpt>
      <trkpt lat="43.43812" lon="6.0105">
        <ele>295.39999389648</ele>
        <time>2015-09-09T13:26:58Z</time>
      </trkpt>
      <trkpt lat="43.43815" lon="6.01041">
        <ele>295.20001220703</ele>
        <time>2015-09-09T13:27:00Z</time>
      </trkpt>
      <trkpt lat="43.43818" lon="6.01033">
        <ele>295.39999389648</ele>
        <time>2015-09-09T13:27:02Z</time>
      </trkpt>
      <trkpt lat="43.43821" lon="6.01024">
        <ele>295.20001220703</ele>
        <time>2015-09-09T13:27:04Z</time>
      </trkpt>
      <trkpt lat="43.43824" lon="6.01014">
        <ele>294.60000610352</ele>
        <time>2015-09-09T13:27:06Z</time>
      </trkpt>
      <trkpt lat="43.43825" lon="6.01009">
        <ele>294.39999389648</ele>
        <time>2015-09-09T13:27:07Z</time>
      </trkpt>
      <trkpt lat="43.43826" lon="6.01005">
        <ele>294.60000610352</ele>
        <time>2015-09-09T13:27:08Z</time>
      </trkpt>
      <trkpt lat="43.43827" lon="6.00996">
        <ele>294.79998779297</ele>
        <time>2015-09-09T13:27:10Z</time>
      </trkpt>
      <trkpt lat="43.43829" lon="6.00988">
        <ele>294.79998779297</ele>
        <time>2015-09-09T13:27:12Z</time>
      </trkpt>
      <trkpt lat="43.43828" lon="6.0098">
        <ele>295.20001220703</ele>
        <time>2015-09-09T13:27:14Z</time>
      </trkpt>
      <trkpt lat="43.43828" lon="6.00968">
        <ele>295.39999389648</ele>
        <time>2015-09-09T13:27:17Z</time>
      </trkpt>
      <trkpt lat="43.43826" lon="6.00958">
        <ele>295.79998779297</ele>
        <time>2015-09-09T13:27:20Z</time>
      </trkpt>
      <trkpt lat="43.43823" lon="6.00945">
        <ele>297.20001220703</ele>
        <time>2015-09-09T13:27:24Z</time>
      </trkpt>
      <trkpt lat="43.43821" lon="6.00939">
        <ele>297.79998779297</ele>
        <time>2015-09-09T13:27:26Z</time>
      </trkpt>
      <trkpt lat="43.43818" lon="6.00927">
        <ele>298.79998779297</ele>
        <time>2015-09-09T13:27:30Z</time>
      </trkpt>
      <trkpt lat="43.43816" lon="6.00921">
        <ele>298.79998779297</ele>
        <time>2015-09-09T13:27:32Z</time>
      </trkpt>
      <trkpt lat="43.43815" lon="6.00918">
        <ele>299.20001220703</ele>
        <time>2015-09-09T13:27:33Z</time>
      </trkpt>
      <trkpt lat="43.43815" lon="6.00915">
        <ele>299.60000610352</ele>
        <time>2015-09-09T13:27:34Z</time>
      </trkpt>
      <trkpt lat="43.43814" lon="6.00909">
        <ele>300</ele>
        <time>2015-09-09T13:27:36Z</time>
      </trkpt>
      <trkpt lat="43.43813" lon="6.00902">
        <ele>300.20001220703</ele>
        <time>2015-09-09T13:27:38Z</time>
      </trkpt>
      <trkpt lat="43.43812" lon="6.00896">
        <ele>300.60000610352</ele>
        <time>2015-09-09T13:27:40Z</time>
      </trkpt>
      <trkpt lat="43.43811" lon="6.00894">
        <ele>300.79998779297</ele>
        <time>2015-09-09T13:27:41Z</time>
      </trkpt>
      <trkpt lat="43.43811" lon="6.00886">
        <ele>301.60000610352</ele>
        <time>2015-09-09T13:27:44Z</time>
      </trkpt>
      <trkpt lat="43.43811" lon="6.00881">
        <ele>301.79998779297</ele>
        <time>2015-09-09T13:27:46Z</time>
      </trkpt>
      <trkpt lat="43.43811" lon="6.00874">
        <ele>302.20001220703</ele>
        <time>2015-09-09T13:27:49Z</time>
      </trkpt>
      <trkpt lat="43.43812" lon="6.0086">
        <ele>302.39999389648</ele>
        <time>2015-09-09T13:27:54Z</time>
      </trkpt>
      <trkpt lat="43.43814" lon="6.00849">
        <ele>302.39999389648</ele>
        <time>2015-09-09T13:27:58Z</time>
      </trkpt>
      <trkpt lat="43.43815" lon="6.00846">
        <ele>302.39999389648</ele>
        <time>2015-09-09T13:27:59Z</time>
      </trkpt>
      <trkpt lat="43.43815" lon="6.00843">
        <ele>302.39999389648</ele>
        <time>2015-09-09T13:28:00Z</time>
      </trkpt>
      <trkpt lat="43.43817" lon="6.00837">
        <ele>302</ele>
        <time>2015-09-09T13:28:02Z</time>
      </trkpt>
      <trkpt lat="43.43819" lon="6.0083">
        <ele>301.60000610352</ele>
        <time>2015-09-09T13:28:04Z</time>
      </trkpt>
      <trkpt lat="43.43822" lon="6.00822">
        <ele>301.79998779297</ele>
        <time>2015-09-09T13:28:06Z</time>
      </trkpt>
      <trkpt lat="43.43824" lon="6.00819">
        <ele>302</ele>
        <time>2015-09-09T13:28:07Z</time>
      </trkpt>
      <trkpt lat="43.43825" lon="6.00815">
        <ele>302</ele>
        <time>2015-09-09T13:28:08Z</time>
      </trkpt>
      <trkpt lat="43.43827" lon="6.00807">
        <ele>302</ele>
        <time>2015-09-09T13:28:10Z</time>
      </trkpt>
      <trkpt lat="43.4383" lon="6.008">
        <ele>301.79998779297</ele>
        <time>2015-09-09T13:28:12Z</time>
      </trkpt>
      <trkpt lat="43.4383" lon="6.00792">
        <ele>301.60000610352</ele>
        <time>2015-09-09T13:28:14Z</time>
      </trkpt>
      <trkpt lat="43.4383" lon="6.00784">
        <ele>301.60000610352</ele>
        <time>2015-09-09T13:28:16Z</time>
      </trkpt>
      <trkpt lat="43.43831" lon="6.00777">
        <ele>302.20001220703</ele>
        <time>2015-09-09T13:28:18Z</time>
      </trkpt>
      <trkpt lat="43.43831" lon="6.00769">
        <ele>302.39999389648</ele>
        <time>2015-09-09T13:28:20Z</time>
      </trkpt>
      <trkpt lat="43.43831" lon="6.00762">
        <ele>302.60000610352</ele>
        <time>2015-09-09T13:28:22Z</time>
      </trkpt>
      <trkpt lat="43.43831" lon="6.00755">
        <ele>303.39999389648</ele>
        <time>2015-09-09T13:28:24Z</time>
      </trkpt>
      <trkpt lat="43.43831" lon="6.00752">
        <ele>303.39999389648</ele>
        <time>2015-09-09T13:28:25Z</time>
      </trkpt>
      <trkpt lat="43.43831" lon="6.00749">
        <ele>303.79998779297</ele>
        <time>2015-09-09T13:28:26Z</time>
      </trkpt>
      <trkpt lat="43.43831" lon="6.00742">
        <ele>304</ele>
        <time>2015-09-09T13:28:28Z</time>
      </trkpt>
      <trkpt lat="43.43831" lon="6.00735">
        <ele>304.39999389648</ele>
        <time>2015-09-09T13:28:30Z</time>
      </trkpt>
      <trkpt lat="43.43831" lon="6.00731">
        <ele>304.60000610352</ele>
        <time>2015-09-09T13:28:31Z</time>
      </trkpt>
      <trkpt lat="43.4383" lon="6.00728">
        <ele>304.60000610352</ele>
        <time>2015-09-09T13:28:32Z</time>
      </trkpt>
      <trkpt lat="43.43831" lon="6.00721">
        <ele>304.79998779297</ele>
        <time>2015-09-09T13:28:34Z</time>
      </trkpt>
      <trkpt lat="43.43831" lon="6.00715">
        <ele>305.20001220703</ele>
        <time>2015-09-09T13:28:36Z</time>
      </trkpt>
      <trkpt lat="43.43831" lon="6.00708">
        <ele>305.39999389648</ele>
        <time>2015-09-09T13:28:38Z</time>
      </trkpt>
      <trkpt lat="43.43831" lon="6.00696">
        <ele>305.79998779297</ele>
        <time>2015-09-09T13:28:42Z</time>
      </trkpt>
      <trkpt lat="43.43832" lon="6.00693">
        <ele>306</ele>
        <time>2015-09-09T13:28:43Z</time>
      </trkpt>
      <trkpt lat="43.43832" lon="6.0069">
        <ele>306.39999389648</ele>
        <time>2015-09-09T13:28:44Z</time>
      </trkpt>
      <trkpt lat="43.43834" lon="6.00674">
        <ele>307.39999389648</ele>
        <time>2015-09-09T13:28:50Z</time>
      </trkpt>
      <trkpt lat="43.43835" lon="6.0067">
        <ele>307.60000610352</ele>
        <time>2015-09-09T13:28:52Z</time>
      </trkpt>
      <trkpt lat="43.43835" lon="6.00668">
        <ele>307.60000610352</ele>
        <time>2015-09-09T13:28:53Z</time>
      </trkpt>
      <trkpt lat="43.43836" lon="6.00666">
        <ele>307.79998779297</ele>
        <time>2015-09-09T13:28:54Z</time>
      </trkpt>
      <trkpt lat="43.43837" lon="6.00661">
        <ele>307.79998779297</ele>
        <time>2015-09-09T13:28:56Z</time>
      </trkpt>
      <trkpt lat="43.43839" lon="6.00656">
        <ele>307.39999389648</ele>
        <time>2015-09-09T13:28:58Z</time>
      </trkpt>
      <trkpt lat="43.43841" lon="6.0065">
        <ele>307.39999389648</ele>
        <time>2015-09-09T13:29:00Z</time>
      </trkpt>
      <trkpt lat="43.43843" lon="6.00644">
        <ele>307</ele>
        <time>2015-09-09T13:29:02Z</time>
      </trkpt>
      <trkpt lat="43.43845" lon="6.0064">
        <ele>306.20001220703</ele>
        <time>2015-09-09T13:29:03Z</time>
      </trkpt>
      <trkpt lat="43.43845" lon="6.00635">
        <ele>305.79998779297</ele>
        <time>2015-09-09T13:29:04Z</time>
      </trkpt>
      <trkpt lat="43.43845" lon="6.0063">
        <ele>305.20001220703</ele>
        <time>2015-09-09T13:29:05Z</time>
      </trkpt>
      <trkpt lat="43.43843" lon="6.00624">
        <ele>304.60000610352</ele>
        <time>2015-09-09T13:29:06Z</time>
      </trkpt>
      <trkpt lat="43.43839" lon="6.00615">
        <ele>304.39999389648</ele>
        <time>2015-09-09T13:29:08Z</time>
      </trkpt>
      <trkpt lat="43.43835" lon="6.0061">
        <ele>304.20001220703</ele>
        <time>2015-09-09T13:29:10Z</time>
      </trkpt>
      <trkpt lat="43.43834" lon="6.00609">
        <ele>304.39999389648</ele>
        <time>2015-09-09T13:29:12Z</time>
      </trkpt>
      <trkpt lat="43.43834" lon="6.00609">
        <ele>304.39999389648</ele>
        <time>2015-09-09T13:29:14Z</time>
      </trkpt>
      <trkpt lat="43.43834" lon="6.00609">
        <ele>304.39999389648</ele>
        <time>2015-09-09T13:29:15Z</time>
      </trkpt>
      <trkpt lat="43.43834" lon="6.00609">
        <ele>304.39999389648</ele>
        <time>2015-09-09T13:29:16Z</time>
      </trkpt>
      <trkpt lat="43.43834" lon="6.00609">
        <ele>304.39999389648</ele>
        <time>2015-09-09T13:29:20Z</time>
      </trkpt>
      <trkpt lat="43.43834" lon="6.00609">
        <ele>304.60000610352</ele>
        <time>2015-09-09T13:29:22Z</time>
      </trkpt>
      <trkpt lat="43.43834" lon="6.00608">
        <ele>304.60000610352</ele>
        <time>2015-09-09T13:29:24Z</time>
      </trkpt>
      <trkpt lat="43.43833" lon="6.00608">
        <ele>304.79998779297</ele>
        <time>2015-09-09T13:29:26Z</time>
      </trkpt>
      <trkpt lat="43.43833" lon="6.00607">
        <ele>304.79998779297</ele>
        <time>2015-09-09T13:29:28Z</time>
      </trkpt>
      <trkpt lat="43.43833" lon="6.00607">
        <ele>304.79998779297</ele>
        <time>2015-09-09T13:29:29Z</time>
      </trkpt>
      <trkpt lat="43.43833" lon="6.00608">
        <ele>304.79998779297</ele>
        <time>2015-09-09T13:29:30Z</time>
      </trkpt>
      <trkpt lat="43.43833" lon="6.00608">
        <ele>304.60000610352</ele>
        <time>2015-09-09T13:29:34Z</time>
      </trkpt>
      <trkpt lat="43.43833" lon="6.00608">
        <ele>304.60000610352</ele>
        <time>2015-09-09T13:29:38Z</time>
      </trkpt>
      <trkpt lat="43.43832" lon="6.00608">
        <ele>304.60000610352</ele>
        <time>2015-09-09T13:29:40Z</time>
      </trkpt>
      <trkpt lat="43.43833" lon="6.00607">
        <ele>304.60000610352</ele>
        <time>2015-09-09T13:29:42Z</time>
      </trkpt>
      <trkpt lat="43.43832" lon="6.00607">
        <ele>304.39999389648</ele>
        <time>2015-09-09T13:29:46Z</time>
      </trkpt>
      <trkpt lat="43.43832" lon="6.00607">
        <ele>304.60000610352</ele>
        <time>2015-09-09T13:29:50Z</time>
      </trkpt>
      <trkpt lat="43.43832" lon="6.00607">
        <ele>304.79998779297</ele>
        <time>2015-09-09T13:29:52Z</time>
      </trkpt>
      <trkpt lat="43.43833" lon="6.00607">
        <ele>304.79998779297</ele>
        <time>2015-09-09T13:29:54Z</time>
      </trkpt>
      <trkpt lat="43.43833" lon="6.00607">
        <ele>304.79998779297</ele>
        <time>2015-09-09T13:30:00Z</time>
      </trkpt>
      <trkpt lat="43.43832" lon="6.00607">
        <ele>304.79998779297</ele>
        <time>2015-09-09T13:30:02Z</time>
      </trkpt>
      <trkpt lat="43.43832" lon="6.00607">
        <ele>305</ele>
        <time>2015-09-09T13:30:08Z</time>
      </trkpt>
      <trkpt lat="43.43832" lon="6.00607">
        <ele>305</ele>
        <time>2015-09-09T13:30:10Z</time>
      </trkpt>
      <trkpt lat="43.43833" lon="6.00607">
        <ele>305</ele>
        <time>2015-09-09T13:30:12Z</time>
      </trkpt>
      <trkpt lat="43.43833" lon="6.00607">
        <ele>304.79998779297</ele>
        <time>2015-09-09T13:30:16Z</time>
      </trkpt>
      <trkpt lat="43.43833" lon="6.00607">
        <ele>304.79998779297</ele>
        <time>2015-09-09T13:30:18Z</time>
      </trkpt>
      <trkpt lat="43.43832" lon="6.00607">
        <ele>304.79998779297</ele>
        <time>2015-09-09T13:30:20Z</time>
      </trkpt>
      <trkpt lat="43.43832" lon="6.00607">
        <ele>304.79998779297</ele>
        <time>2015-09-09T13:30:22Z</time>
      </trkpt>
      <trkpt lat="43.43833" lon="6.00607">
        <ele>304.79998779297</ele>
        <time>2015-09-09T13:30:24Z</time>
      </trkpt>
      <trkpt lat="43.43832" lon="6.00607">
        <ele>304.60000610352</ele>
        <time>2015-09-09T13:30:26Z</time>
      </trkpt>
      <trkpt lat="43.43833" lon="6.00607">
        <ele>304.79998779297</ele>
        <time>2015-09-09T13:30:28Z</time>
      </trkpt>
      <trkpt lat="43.43833" lon="6.00607">
        <ele>304.79998779297</ele>
        <time>2015-09-09T13:30:32Z</time>
      </trkpt>
      <trkpt lat="43.43833" lon="6.00607">
        <ele>304.60000610352</ele>
        <time>2015-09-09T13:31:06Z</time>
      </trkpt>
      <trkpt lat="43.43833" lon="6.00607">
        <ele>304.60000610352</ele>
        <time>2015-09-09T13:31:08Z</time>
      </trkpt>
      <trkpt lat="43.43833" lon="6.00607">
        <ele>304.60000610352</ele>
        <time>2015-09-09T13:31:14Z</time>
      </trkpt>
      <trkpt lat="43.43833" lon="6.00607">
        <ele>304.60000610352</ele>
        <time>2015-09-09T13:31:17Z</time>
      </trkpt>
      <trkpt lat="43.43833" lon="6.00607">
        <ele>304.60000610352</ele>
        <time>2015-09-09T13:31:20Z</time>
      </trkpt>
      <trkpt lat="43.43833" lon="6.00607">
        <ele>304.60000610352</ele>
        <time>2015-09-09T13:31:26Z</time>
      </trkpt>
      <trkpt lat="43.43833" lon="6.00607">
        <ele>304.60000610352</ele>
        <time>2015-09-09T13:31:38Z</time>
      </trkpt>
      <trkpt lat="43.43833" lon="6.00607">
        <ele>304.60000610352</ele>
        <time>2015-09-09T13:31:58Z</time>
      </trkpt>
      <trkpt lat="43.43832" lon="6.00607">
        <ele>304.39999389648</ele>
        <time>2015-09-09T13:32:00Z</time>
      </trkpt>
      <trkpt lat="43.43832" lon="6.00606">
        <ele>304.39999389648</ele>
        <time>2015-09-09T13:32:05Z</time>
      </trkpt>
      <trkpt lat="43.43832" lon="6.00606">
        <ele>304.39999389648</ele>
        <time>2015-09-09T13:32:08Z</time>
      </trkpt>
      <trkpt lat="43.43832" lon="6.00606">
        <ele>304.39999389648</ele>
        <time>2015-09-09T13:32:10Z</time>
      </trkpt>
      <trkpt lat="43.43832" lon="6.00605">
        <ele>304.60000610352</ele>
        <time>2015-09-09T13:32:12Z</time>
      </trkpt>
      <trkpt lat="43.4383" lon="6.00602">
        <ele>304.60000610352</ele>
        <time>2015-09-09T13:32:14Z</time>
      </trkpt>
      <trkpt lat="43.43829" lon="6.00598">
        <ele>304.79998779297</ele>
        <time>2015-09-09T13:32:16Z</time>
      </trkpt>
      <trkpt lat="43.43826" lon="6.00593">
        <ele>304.60000610352</ele>
        <time>2015-09-09T13:32:18Z</time>
      </trkpt>
      <trkpt lat="43.43824" lon="6.00587">
        <ele>304.20001220703</ele>
        <time>2015-09-09T13:32:20Z</time>
      </trkpt>
      <trkpt lat="43.43821" lon="6.00581">
        <ele>304.79998779297</ele>
        <time>2015-09-09T13:32:22Z</time>
      </trkpt>
      <trkpt lat="43.43819" lon="6.00574">
        <ele>304.79998779297</ele>
        <time>2015-09-09T13:32:24Z</time>
      </trkpt>
      <trkpt lat="43.43818" lon="6.00568">
        <ele>305</ele>
        <time>2015-09-09T13:32:26Z</time>
      </trkpt>
      <trkpt lat="43.43817" lon="6.00554">
        <ele>305.39999389648</ele>
        <time>2015-09-09T13:32:30Z</time>
      </trkpt>
      <trkpt lat="43.43816" lon="6.00547">
        <ele>305.39999389648</ele>
        <time>2015-09-09T13:32:32Z</time>
      </trkpt>
      <trkpt lat="43.43814" lon="6.0054">
        <ele>305.39999389648</ele>
        <time>2015-09-09T13:32:34Z</time>
      </trkpt>
      <trkpt lat="43.43813" lon="6.00537">
        <ele>305.20001220703</ele>
        <time>2015-09-09T13:32:35Z</time>
      </trkpt>
      <trkpt lat="43.43811" lon="6.00534">
        <ele>305.20001220703</ele>
        <time>2015-09-09T13:32:36Z</time>
      </trkpt>
      <trkpt lat="43.43808" lon="6.0053">
        <ele>305.60000610352</ele>
        <time>2015-09-09T13:32:38Z</time>
      </trkpt>
      <trkpt lat="43.43805" lon="6.00527">
        <ele>306.60000610352</ele>
        <time>2015-09-09T13:32:40Z</time>
      </trkpt>
      <trkpt lat="43.43803" lon="6.00525">
        <ele>306.60000610352</ele>
        <time>2015-09-09T13:32:41Z</time>
      </trkpt>
      <trkpt lat="43.438" lon="6.00523">
        <ele>306.79998779297</ele>
        <time>2015-09-09T13:32:42Z</time>
      </trkpt>
      <trkpt lat="43.43795" lon="6.0052">
        <ele>306.79998779297</ele>
        <time>2015-09-09T13:32:44Z</time>
      </trkpt>
      <trkpt lat="43.4379" lon="6.00517">
        <ele>306.79998779297</ele>
        <time>2015-09-09T13:32:46Z</time>
      </trkpt>
      <trkpt lat="43.43786" lon="6.00514">
        <ele>307.20001220703</ele>
        <time>2015-09-09T13:32:48Z</time>
      </trkpt>
      <trkpt lat="43.43783" lon="6.0051">
        <ele>307.20001220703</ele>
        <time>2015-09-09T13:32:50Z</time>
      </trkpt>
      <trkpt lat="43.43781" lon="6.00504">
        <ele>307.39999389648</ele>
        <time>2015-09-09T13:32:52Z</time>
      </trkpt>
      <trkpt lat="43.4378" lon="6.00497">
        <ele>307.39999389648</ele>
        <time>2015-09-09T13:32:54Z</time>
      </trkpt>
      <trkpt lat="43.43779" lon="6.00491">
        <ele>307.79998779297</ele>
        <time>2015-09-09T13:32:56Z</time>
      </trkpt>
      <trkpt lat="43.43775" lon="6.0048">
        <ele>308.20001220703</ele>
        <time>2015-09-09T13:33:00Z</time>
      </trkpt>
      <trkpt lat="43.43774" lon="6.00475">
        <ele>308.20001220703</ele>
        <time>2015-09-09T13:33:02Z</time>
      </trkpt>
      <trkpt lat="43.4377" lon="6.00462">
        <ele>309</ele>
        <time>2015-09-09T13:33:06Z</time>
      </trkpt>
      <trkpt lat="43.43768" lon="6.00455">
        <ele>309.20001220703</ele>
        <time>2015-09-09T13:33:08Z</time>
      </trkpt>
      <trkpt lat="43.43764" lon="6.00442">
        <ele>309</ele>
        <time>2015-09-09T13:33:12Z</time>
      </trkpt>
      <trkpt lat="43.43763" lon="6.00434">
        <ele>309.20001220703</ele>
        <time>2015-09-09T13:33:14Z</time>
      </trkpt>
      <trkpt lat="43.43762" lon="6.00427">
        <ele>308.79998779297</ele>
        <time>2015-09-09T13:33:16Z</time>
      </trkpt>
      <trkpt lat="43.43763" lon="6.00412">
        <ele>309.20001220703</ele>
        <time>2015-09-09T13:33:20Z</time>
      </trkpt>
      <trkpt lat="43.43761" lon="6.00404">
        <ele>309.79998779297</ele>
        <time>2015-09-09T13:33:22Z</time>
      </trkpt>
      <trkpt lat="43.43756" lon="6.00392">
        <ele>310.20001220703</ele>
        <time>2015-09-09T13:33:26Z</time>
      </trkpt>
      <trkpt lat="43.43755" lon="6.00385">
        <ele>310.39999389648</ele>
        <time>2015-09-09T13:33:28Z</time>
      </trkpt>
      <trkpt lat="43.43755" lon="6.00382">
        <ele>310.60000610352</ele>
        <time>2015-09-09T13:33:29Z</time>
      </trkpt>
      <trkpt lat="43.43754" lon="6.00378">
        <ele>310.60000610352</ele>
        <time>2015-09-09T13:33:30Z</time>
      </trkpt>
      <trkpt lat="43.43753" lon="6.0037">
        <ele>310.60000610352</ele>
        <time>2015-09-09T13:33:32Z</time>
      </trkpt>
      <trkpt lat="43.43754" lon="6.00363">
        <ele>310.60000610352</ele>
        <time>2015-09-09T13:33:34Z</time>
      </trkpt>
      <trkpt lat="43.43755" lon="6.00355">
        <ele>310.60000610352</ele>
        <time>2015-09-09T13:33:36Z</time>
      </trkpt>
      <trkpt lat="43.43756" lon="6.00352">
        <ele>310.79998779297</ele>
        <time>2015-09-09T13:33:37Z</time>
      </trkpt>
      <trkpt lat="43.43756" lon="6.00349">
        <ele>311</ele>
        <time>2015-09-09T13:33:38Z</time>
      </trkpt>
      <trkpt lat="43.43758" lon="6.00342">
        <ele>311.39999389648</ele>
        <time>2015-09-09T13:33:40Z</time>
      </trkpt>
      <trkpt lat="43.43757" lon="6.00337">
        <ele>311.60000610352</ele>
        <time>2015-09-09T13:33:42Z</time>
      </trkpt>
      <trkpt lat="43.43757" lon="6.00334">
        <ele>311.79998779297</ele>
        <time>2015-09-09T13:33:43Z</time>
      </trkpt>
      <trkpt lat="43.43757" lon="6.00329">
        <ele>312</ele>
        <time>2015-09-09T13:33:45Z</time>
      </trkpt>
      <trkpt lat="43.43756" lon="6.00319">
        <ele>312.39999389648</ele>
        <time>2015-09-09T13:33:48Z</time>
      </trkpt>
      <trkpt lat="43.43755" lon="6.00313">
        <ele>312.39999389648</ele>
        <time>2015-09-09T13:33:50Z</time>
      </trkpt>
      <trkpt lat="43.43754" lon="6.003">
        <ele>313</ele>
        <time>2015-09-09T13:33:54Z</time>
      </trkpt>
      <trkpt lat="43.43753" lon="6.00293">
        <ele>313</ele>
        <time>2015-09-09T13:33:56Z</time>
      </trkpt>
      <trkpt lat="43.43753" lon="6.00285">
        <ele>312.79998779297</ele>
        <time>2015-09-09T13:33:58Z</time>
      </trkpt>
      <trkpt lat="43.43752" lon="6.00278">
        <ele>313</ele>
        <time>2015-09-09T13:34:00Z</time>
      </trkpt>
      <trkpt lat="43.4375" lon="6.00275">
        <ele>312.79998779297</ele>
        <time>2015-09-09T13:34:01Z</time>
      </trkpt>
      <trkpt lat="43.43749" lon="6.00272">
        <ele>313</ele>
        <time>2015-09-09T13:34:02Z</time>
      </trkpt>
      <trkpt lat="43.43746" lon="6.00267">
        <ele>313</ele>
        <time>2015-09-09T13:34:04Z</time>
      </trkpt>
      <trkpt lat="43.43744" lon="6.00264">
        <ele>313.60000610352</ele>
        <time>2015-09-09T13:34:06Z</time>
      </trkpt>
      <trkpt lat="43.43743" lon="6.00263">
        <ele>313.79998779297</ele>
        <time>2015-09-09T13:34:07Z</time>
      </trkpt>
      <trkpt lat="43.43742" lon="6.00262">
        <ele>313.60000610352</ele>
        <time>2015-09-09T13:34:08Z</time>
      </trkpt>
      <trkpt lat="43.43742" lon="6.00262">
        <ele>313.60000610352</ele>
        <time>2015-09-09T13:34:10Z</time>
      </trkpt>
      <trkpt lat="43.43742" lon="6.00262">
        <ele>313.79998779297</ele>
        <time>2015-09-09T13:34:12Z</time>
      </trkpt>
      <trkpt lat="43.43742" lon="6.00262">
        <ele>313.60000610352</ele>
        <time>2015-09-09T13:34:16Z</time>
      </trkpt>
      <trkpt lat="43.43742" lon="6.00262">
        <ele>313.60000610352</ele>
        <time>2015-09-09T13:34:24Z</time>
      </trkpt>
      <trkpt lat="43.43742" lon="6.00262">
        <ele>314</ele>
        <time>2015-09-09T13:34:28Z</time>
      </trkpt>
      <trkpt lat="43.43742" lon="6.00262">
        <ele>314.20001220703</ele>
        <time>2015-09-09T13:34:30Z</time>
      </trkpt>
      <trkpt lat="43.43742" lon="6.00262">
        <ele>314.20001220703</ele>
        <time>2015-09-09T13:34:34Z</time>
      </trkpt>
      <trkpt lat="43.43741" lon="6.00262">
        <ele>314.20001220703</ele>
        <time>2015-09-09T13:34:36Z</time>
      </trkpt>
      <trkpt lat="43.43741" lon="6.00262">
        <ele>314.20001220703</ele>
        <time>2015-09-09T13:34:44Z</time>
      </trkpt>
      <trkpt lat="43.43741" lon="6.00261">
        <ele>314.20001220703</ele>
        <time>2015-09-09T13:34:52Z</time>
      </trkpt>
      <trkpt lat="43.43741" lon="6.00262">
        <ele>314</ele>
        <time>2015-09-09T13:35:04Z</time>
      </trkpt>
      <trkpt lat="43.43741" lon="6.00262">
        <ele>314</ele>
        <time>2015-09-09T13:35:06Z</time>
      </trkpt>
      <trkpt lat="43.43741" lon="6.00262">
        <ele>314</ele>
        <time>2015-09-09T13:35:10Z</time>
      </trkpt>
      <trkpt lat="43.43739" lon="6.00263">
        <ele>314</ele>
        <time>2015-09-09T13:35:13Z</time>
      </trkpt>
      <trkpt lat="43.43737" lon="6.00263">
        <ele>314</ele>
        <time>2015-09-09T13:35:14Z</time>
      </trkpt>
      <trkpt lat="43.43734" lon="6.00265">
        <ele>314</ele>
        <time>2015-09-09T13:35:16Z</time>
      </trkpt>
      <trkpt lat="43.43731" lon="6.00265">
        <ele>314.20001220703</ele>
        <time>2015-09-09T13:35:18Z</time>
      </trkpt>
      <trkpt lat="43.43726" lon="6.00267">
        <ele>314.39999389648</ele>
        <time>2015-09-09T13:35:20Z</time>
      </trkpt>
      <trkpt lat="43.43721" lon="6.00267">
        <ele>314.20001220703</ele>
        <time>2015-09-09T13:35:22Z</time>
      </trkpt>
      <trkpt lat="43.43711" lon="6.00267">
        <ele>314.60000610352</ele>
        <time>2015-09-09T13:35:26Z</time>
      </trkpt>
      <trkpt lat="43.43706" lon="6.00266">
        <ele>314.79998779297</ele>
        <time>2015-09-09T13:35:28Z</time>
      </trkpt>
      <trkpt lat="43.43701" lon="6.00265">
        <ele>315</ele>
        <time>2015-09-09T13:35:30Z</time>
      </trkpt>
      <trkpt lat="43.43695" lon="6.00264">
        <ele>314.79998779297</ele>
        <time>2015-09-09T13:35:32Z</time>
      </trkpt>
      <trkpt lat="43.4369" lon="6.00261">
        <ele>314.60000610352</ele>
        <time>2015-09-09T13:35:34Z</time>
      </trkpt>
      <trkpt lat="43.43686" lon="6.00259">
        <ele>314.79998779297</ele>
        <time>2015-09-09T13:35:36Z</time>
      </trkpt>
      <trkpt lat="43.43681" lon="6.00258">
        <ele>314.60000610352</ele>
        <time>2015-09-09T13:35:38Z</time>
      </trkpt>
      <trkpt lat="43.43678" lon="6.00259">
        <ele>314.60000610352</ele>
        <time>2015-09-09T13:35:40Z</time>
      </trkpt>
      <trkpt lat="43.43674" lon="6.0026">
        <ele>314.79998779297</ele>
        <time>2015-09-09T13:35:42Z</time>
      </trkpt>
      <trkpt lat="43.43671" lon="6.00264">
        <ele>315.39999389648</ele>
        <time>2015-09-09T13:35:44Z</time>
      </trkpt>
      <trkpt lat="43.43664" lon="6.00273">
        <ele>315.60000610352</ele>
        <time>2015-09-09T13:35:48Z</time>
      </trkpt>
      <trkpt lat="43.4366" lon="6.00277">
        <ele>315.79998779297</ele>
        <time>2015-09-09T13:35:50Z</time>
      </trkpt>
      <trkpt lat="43.43658" lon="6.00283">
        <ele>316.20001220703</ele>
        <time>2015-09-09T13:35:52Z</time>
      </trkpt>
      <trkpt lat="43.43655" lon="6.00288">
        <ele>316.20001220703</ele>
        <time>2015-09-09T13:35:54Z</time>
      </trkpt>
      <trkpt lat="43.43654" lon="6.00291">
        <ele>316.39999389648</ele>
        <time>2015-09-09T13:35:55Z</time>
      </trkpt>
      <trkpt lat="43.43652" lon="6.00293">
        <ele>316.39999389648</ele>
        <time>2015-09-09T13:35:56Z</time>
      </trkpt>
      <trkpt lat="43.43648" lon="6.00298">
        <ele>316.79998779297</ele>
        <time>2015-09-09T13:35:58Z</time>
      </trkpt>
      <trkpt lat="43.43644" lon="6.00302">
        <ele>317</ele>
        <time>2015-09-09T13:36:00Z</time>
      </trkpt>
      <trkpt lat="43.43642" lon="6.00304">
        <ele>317</ele>
        <time>2015-09-09T13:36:01Z</time>
      </trkpt>
      <trkpt lat="43.43639" lon="6.00308">
        <ele>317.20001220703</ele>
        <time>2015-09-09T13:36:03Z</time>
      </trkpt>
      <trkpt lat="43.43637" lon="6.0031">
        <ele>317.39999389648</ele>
        <time>2015-09-09T13:36:04Z</time>
      </trkpt>
      <trkpt lat="43.43633" lon="6.00314">
        <ele>317.60000610352</ele>
        <time>2015-09-09T13:36:06Z</time>
      </trkpt>
      <trkpt lat="43.4363" lon="6.00319">
        <ele>318.20001220703</ele>
        <time>2015-09-09T13:36:08Z</time>
      </trkpt>
      <trkpt lat="43.43627" lon="6.00324">
        <ele>318.20001220703</ele>
        <time>2015-09-09T13:36:10Z</time>
      </trkpt>
      <trkpt lat="43.43623" lon="6.00329">
        <ele>318.20001220703</ele>
        <time>2015-09-09T13:36:12Z</time>
      </trkpt>
      <trkpt lat="43.43618" lon="6.0034">
        <ele>318.39999389648</ele>
        <time>2015-09-09T13:36:16Z</time>
      </trkpt>
      <trkpt lat="43.4361" lon="6.00357">
        <ele>319</ele>
        <time>2015-09-09T13:36:22Z</time>
      </trkpt>
      <trkpt lat="43.43609" lon="6.00359">
        <ele>319.20001220703</ele>
        <time>2015-09-09T13:36:23Z</time>
      </trkpt>
      <trkpt lat="43.43608" lon="6.00366">
        <ele>319.39999389648</ele>
        <time>2015-09-09T13:36:25Z</time>
      </trkpt>
      <trkpt lat="43.43607" lon="6.00378">
        <ele>320.39999389648</ele>
        <time>2015-09-09T13:36:29Z</time>
      </trkpt>
      <trkpt lat="43.43607" lon="6.00387">
        <ele>320.60000610352</ele>
        <time>2015-09-09T13:36:32Z</time>
      </trkpt>
      <trkpt lat="43.43608" lon="6.00392">
        <ele>321</ele>
        <time>2015-09-09T13:36:34Z</time>
      </trkpt>
      <trkpt lat="43.43609" lon="6.00397">
        <ele>321.20001220703</ele>
        <time>2015-09-09T13:36:36Z</time>
      </trkpt>
      <trkpt lat="43.43611" lon="6.00401">
        <ele>321.20001220703</ele>
        <time>2015-09-09T13:36:38Z</time>
      </trkpt>
      <trkpt lat="43.43613" lon="6.00406">
        <ele>321.39999389648</ele>
        <time>2015-09-09T13:36:40Z</time>
      </trkpt>
      <trkpt lat="43.43615" lon="6.00411">
        <ele>321.60000610352</ele>
        <time>2015-09-09T13:36:42Z</time>
      </trkpt>
      <trkpt lat="43.43618" lon="6.00421">
        <ele>322.39999389648</ele>
        <time>2015-09-09T13:36:46Z</time>
      </trkpt>
      <trkpt lat="43.43618" lon="6.00427">
        <ele>322.60000610352</ele>
        <time>2015-09-09T13:36:48Z</time>
      </trkpt>
      <trkpt lat="43.43618" lon="6.00433">
        <ele>322.60000610352</ele>
        <time>2015-09-09T13:36:50Z</time>
      </trkpt>
      <trkpt lat="43.43618" lon="6.00439">
        <ele>323</ele>
        <time>2015-09-09T13:36:52Z</time>
      </trkpt>
      <trkpt lat="43.43618" lon="6.00442">
        <ele>323.60000610352</ele>
        <time>2015-09-09T13:36:53Z</time>
      </trkpt>
      <trkpt lat="43.43618" lon="6.00445">
        <ele>323.79998779297</ele>
        <time>2015-09-09T13:36:54Z</time>
      </trkpt>
      <trkpt lat="43.43618" lon="6.0045">
        <ele>323.60000610352</ele>
        <time>2015-09-09T13:36:56Z</time>
      </trkpt>
      <trkpt lat="43.43618" lon="6.00455">
        <ele>324.39999389648</ele>
        <time>2015-09-09T13:36:58Z</time>
      </trkpt>
      <trkpt lat="43.43618" lon="6.0046">
        <ele>324.79998779297</ele>
        <time>2015-09-09T13:37:00Z</time>
      </trkpt>
      <trkpt lat="43.43617" lon="6.00466">
        <ele>325</ele>
        <time>2015-09-09T13:37:02Z</time>
      </trkpt>
      <trkpt lat="43.43616" lon="6.00471">
        <ele>325.39999389648</ele>
        <time>2015-09-09T13:37:04Z</time>
      </trkpt>
      <trkpt lat="43.43616" lon="6.00477">
        <ele>325.39999389648</ele>
        <time>2015-09-09T13:37:06Z</time>
      </trkpt>
      <trkpt lat="43.43616" lon="6.00482">
        <ele>325.60000610352</ele>
        <time>2015-09-09T13:37:08Z</time>
      </trkpt>
      <trkpt lat="43.43615" lon="6.00486">
        <ele>325.60000610352</ele>
        <time>2015-09-09T13:37:10Z</time>
      </trkpt>
      <trkpt lat="43.43613" lon="6.0049">
        <ele>325.79998779297</ele>
        <time>2015-09-09T13:37:12Z</time>
      </trkpt>
      <trkpt lat="43.43611" lon="6.00504">
        <ele>326.60000610352</ele>
        <time>2015-09-09T13:37:18Z</time>
      </trkpt>
      <trkpt lat="43.43605" lon="6.00518">
        <ele>326.79998779297</ele>
        <time>2015-09-09T13:37:24Z</time>
      </trkpt>
      <trkpt lat="43.43598" lon="6.0053">
        <ele>327.39999389648</ele>
        <time>2015-09-09T13:37:30Z</time>
      </trkpt>
      <trkpt lat="43.43591" lon="6.00541">
        <ele>328.20001220703</ele>
        <time>2015-09-09T13:37:36Z</time>
      </trkpt>
      <trkpt lat="43.43589" lon="6.00542">
        <ele>328.39999389648</ele>
        <time>2015-09-09T13:37:37Z</time>
      </trkpt>
      <trkpt lat="43.43586" lon="6.00548">
        <ele>328.20001220703</ele>
        <time>2015-09-09T13:37:40Z</time>
      </trkpt>
      <trkpt lat="43.43583" lon="6.00552">
        <ele>328.60000610352</ele>
        <time>2015-09-09T13:37:42Z</time>
      </trkpt>
      <trkpt lat="43.43581" lon="6.00556">
        <ele>329</ele>
        <time>2015-09-09T13:37:44Z</time>
      </trkpt>
      <trkpt lat="43.43579" lon="6.0056">
        <ele>329.20001220703</ele>
        <time>2015-09-09T13:37:46Z</time>
      </trkpt>
      <trkpt lat="43.43577" lon="6.00565">
        <ele>329.79998779297</ele>
        <time>2015-09-09T13:37:48Z</time>
      </trkpt>
      <trkpt lat="43.43575" lon="6.0057">
        <ele>330</ele>
        <time>2015-09-09T13:37:50Z</time>
      </trkpt>
      <trkpt lat="43.43573" lon="6.00574">
        <ele>330</ele>
        <time>2015-09-09T13:37:52Z</time>
      </trkpt>
      <trkpt lat="43.43571" lon="6.00578">
        <ele>330.60000610352</ele>
        <time>2015-09-09T13:37:54Z</time>
      </trkpt>
      <trkpt lat="43.43567" lon="6.00585">
        <ele>331.39999389648</ele>
        <time>2015-09-09T13:37:58Z</time>
      </trkpt>
      <trkpt lat="43.43565" lon="6.00588">
        <ele>331.60000610352</ele>
        <time>2015-09-09T13:38:00Z</time>
      </trkpt>
      <trkpt lat="43.43563" lon="6.0059">
        <ele>332</ele>
        <time>2015-09-09T13:38:02Z</time>
      </trkpt>
      <trkpt lat="43.43562" lon="6.00593">
        <ele>332.39999389648</ele>
        <time>2015-09-09T13:38:04Z</time>
      </trkpt>
      <trkpt lat="43.4356" lon="6.00596">
        <ele>332.60000610352</ele>
        <time>2015-09-09T13:38:06Z</time>
      </trkpt>
      <trkpt lat="43.43557" lon="6.00603">
        <ele>333</ele>
        <time>2015-09-09T13:38:10Z</time>
      </trkpt>
      <trkpt lat="43.43557" lon="6.00608">
        <ele>333.20001220703</ele>
        <time>2015-09-09T13:38:12Z</time>
      </trkpt>
      <trkpt lat="43.43556" lon="6.00617">
        <ele>333.79998779297</ele>
        <time>2015-09-09T13:38:16Z</time>
      </trkpt>
      <trkpt lat="43.43555" lon="6.00626">
        <ele>334.20001220703</ele>
        <time>2015-09-09T13:38:20Z</time>
      </trkpt>
      <trkpt lat="43.43555" lon="6.0063">
        <ele>334.60000610352</ele>
        <time>2015-09-09T13:38:22Z</time>
      </trkpt>
      <trkpt lat="43.43557" lon="6.00634">
        <ele>334.60000610352</ele>
        <time>2015-09-09T13:38:24Z</time>
      </trkpt>
      <trkpt lat="43.43559" lon="6.00636">
        <ele>334.60000610352</ele>
        <time>2015-09-09T13:38:26Z</time>
      </trkpt>
      <trkpt lat="43.43562" lon="6.00639">
        <ele>334.79998779297</ele>
        <time>2015-09-09T13:38:28Z</time>
      </trkpt>
      <trkpt lat="43.43563" lon="6.0064">
        <ele>335</ele>
        <time>2015-09-09T13:38:29Z</time>
      </trkpt>
      <trkpt lat="43.43563" lon="6.00642">
        <ele>335.20001220703</ele>
        <time>2015-09-09T13:38:30Z</time>
      </trkpt>
      <trkpt lat="43.43565" lon="6.00645">
        <ele>335.39999389648</ele>
        <time>2015-09-09T13:38:32Z</time>
      </trkpt>
      <trkpt lat="43.43565" lon="6.00646">
        <ele>336</ele>
        <time>2015-09-09T13:38:34Z</time>
      </trkpt>
      <trkpt lat="43.43565" lon="6.00646">
        <ele>336</ele>
        <time>2015-09-09T13:38:35Z</time>
      </trkpt>
      <trkpt lat="43.43566" lon="6.00646">
        <ele>336.20001220703</ele>
        <time>2015-09-09T13:38:36Z</time>
      </trkpt>
      <trkpt lat="43.43567" lon="6.00648">
        <ele>336.60000610352</ele>
        <time>2015-09-09T13:38:40Z</time>
      </trkpt>
      <trkpt lat="43.43568" lon="6.00649">
        <ele>336.79998779297</ele>
        <time>2015-09-09T13:38:42Z</time>
      </trkpt>
      <trkpt lat="43.43569" lon="6.0065">
        <ele>336.79998779297</ele>
        <time>2015-09-09T13:38:44Z</time>
      </trkpt>
      <trkpt lat="43.43569" lon="6.00651">
        <ele>336.79998779297</ele>
        <time>2015-09-09T13:38:46Z</time>
      </trkpt>
      <trkpt lat="43.4357" lon="6.00651">
        <ele>336.79998779297</ele>
        <time>2015-09-09T13:38:48Z</time>
      </trkpt>
      <trkpt lat="43.4357" lon="6.00651">
        <ele>336.79998779297</ele>
        <time>2015-09-09T13:38:50Z</time>
      </trkpt>
      <trkpt lat="43.43569" lon="6.00651">
        <ele>337</ele>
        <time>2015-09-09T13:38:52Z</time>
      </trkpt>
      <trkpt lat="43.4357" lon="6.00652">
        <ele>337</ele>
        <time>2015-09-09T13:38:54Z</time>
      </trkpt>
      <trkpt lat="43.43572" lon="6.00655">
        <ele>337.20001220703</ele>
        <time>2015-09-09T13:38:57Z</time>
      </trkpt>
      <trkpt lat="43.43573" lon="6.00656">
        <ele>337.39999389648</ele>
        <time>2015-09-09T13:38:58Z</time>
      </trkpt>
      <trkpt lat="43.43575" lon="6.00659">
        <ele>337.79998779297</ele>
        <time>2015-09-09T13:39:00Z</time>
      </trkpt>
      <trkpt lat="43.43576" lon="6.00664">
        <ele>338</ele>
        <time>2015-09-09T13:39:02Z</time>
      </trkpt>
      <trkpt lat="43.43576" lon="6.00666">
        <ele>338.20001220703</ele>
        <time>2015-09-09T13:39:03Z</time>
      </trkpt>
      <trkpt lat="43.43577" lon="6.00668">
        <ele>338.20001220703</ele>
        <time>2015-09-09T13:39:04Z</time>
      </trkpt>
      <trkpt lat="43.43578" lon="6.00671">
        <ele>338.20001220703</ele>
        <time>2015-09-09T13:39:06Z</time>
      </trkpt>
      <trkpt lat="43.43578" lon="6.00675">
        <ele>338.79998779297</ele>
        <time>2015-09-09T13:39:08Z</time>
      </trkpt>
      <trkpt lat="43.43578" lon="6.00677">
        <ele>338.79998779297</ele>
        <time>2015-09-09T13:39:09Z</time>
      </trkpt>
      <trkpt lat="43.43575" lon="6.00687">
        <ele>339.20001220703</ele>
        <time>2015-09-09T13:39:14Z</time>
      </trkpt>
      <trkpt lat="43.43573" lon="6.0069">
        <ele>339.39999389648</ele>
        <time>2015-09-09T13:39:16Z</time>
      </trkpt>
      <trkpt lat="43.4357" lon="6.00696">
        <ele>340.60000610352</ele>
        <time>2015-09-09T13:39:20Z</time>
      </trkpt>
      <trkpt lat="43.43569" lon="6.007">
        <ele>340.79998779297</ele>
        <time>2015-09-09T13:39:22Z</time>
      </trkpt>
      <trkpt lat="43.43568" lon="6.00703">
        <ele>341</ele>
        <time>2015-09-09T13:39:24Z</time>
      </trkpt>
      <trkpt lat="43.43565" lon="6.00709">
        <ele>341.60000610352</ele>
        <time>2015-09-09T13:39:28Z</time>
      </trkpt>
      <trkpt lat="43.43564" lon="6.00713">
        <ele>341.79998779297</ele>
        <time>2015-09-09T13:39:30Z</time>
      </trkpt>
      <trkpt lat="43.43561" lon="6.00719">
        <ele>342.60000610352</ele>
        <time>2015-09-09T13:39:34Z</time>
      </trkpt>
      <trkpt lat="43.4356" lon="6.00722">
        <ele>343</ele>
        <time>2015-09-09T13:39:36Z</time>
      </trkpt>
      <trkpt lat="43.43556" lon="6.00731">
        <ele>343.79998779297</ele>
        <time>2015-09-09T13:39:42Z</time>
      </trkpt>
      <trkpt lat="43.43555" lon="6.00734">
        <ele>344.20001220703</ele>
        <time>2015-09-09T13:39:44Z</time>
      </trkpt>
      <trkpt lat="43.43552" lon="6.00744">
        <ele>345.20001220703</ele>
        <time>2015-09-09T13:39:50Z</time>
      </trkpt>
      <trkpt lat="43.43549" lon="6.00751">
        <ele>345.60000610352</ele>
        <time>2015-09-09T13:39:54Z</time>
      </trkpt>
      <trkpt lat="43.43548" lon="6.00754">
        <ele>345.79998779297</ele>
        <time>2015-09-09T13:39:56Z</time>
      </trkpt>
      <trkpt lat="43.43547" lon="6.00757">
        <ele>345.60000610352</ele>
        <time>2015-09-09T13:39:58Z</time>
      </trkpt>
      <trkpt lat="43.43546" lon="6.00761">
        <ele>346</ele>
        <time>2015-09-09T13:40:00Z</time>
      </trkpt>
      <trkpt lat="43.43545" lon="6.00765">
        <ele>346</ele>
        <time>2015-09-09T13:40:02Z</time>
      </trkpt>
      <trkpt lat="43.43544" lon="6.0077">
        <ele>346</ele>
        <time>2015-09-09T13:40:04Z</time>
      </trkpt>
      <trkpt lat="43.43541" lon="6.00778">
        <ele>346.60000610352</ele>
        <time>2015-09-09T13:40:08Z</time>
      </trkpt>
      <trkpt lat="43.43539" lon="6.00787">
        <ele>346.60000610352</ele>
        <time>2015-09-09T13:40:12Z</time>
      </trkpt>
      <trkpt lat="43.43538" lon="6.00791">
        <ele>346.60000610352</ele>
        <time>2015-09-09T13:40:14Z</time>
      </trkpt>
      <trkpt lat="43.43537" lon="6.00795">
        <ele>346.39999389648</ele>
        <time>2015-09-09T13:40:16Z</time>
      </trkpt>
      <trkpt lat="43.43536" lon="6.00799">
        <ele>346.39999389648</ele>
        <time>2015-09-09T13:40:18Z</time>
      </trkpt>
      <trkpt lat="43.43535" lon="6.00803">
        <ele>346.39999389648</ele>
        <time>2015-09-09T13:40:20Z</time>
      </trkpt>
      <trkpt lat="43.43534" lon="6.00806">
        <ele>346.79998779297</ele>
        <time>2015-09-09T13:40:22Z</time>
      </trkpt>
      <trkpt lat="43.43533" lon="6.00809">
        <ele>346.79998779297</ele>
        <time>2015-09-09T13:40:24Z</time>
      </trkpt>
      <trkpt lat="43.43531" lon="6.00811">
        <ele>346.79998779297</ele>
        <time>2015-09-09T13:40:26Z</time>
      </trkpt>
      <trkpt lat="43.43531" lon="6.00812">
        <ele>346.79998779297</ele>
        <time>2015-09-09T13:40:27Z</time>
      </trkpt>
      <trkpt lat="43.43531" lon="6.00812">
        <ele>347</ele>
        <time>2015-09-09T13:40:28Z</time>
      </trkpt>
      <trkpt lat="43.43532" lon="6.00812">
        <ele>346.79998779297</ele>
        <time>2015-09-09T13:40:30Z</time>
      </trkpt>
      <trkpt lat="43.43531" lon="6.00812">
        <ele>346.79998779297</ele>
        <time>2015-09-09T13:40:32Z</time>
      </trkpt>
      <trkpt lat="43.43531" lon="6.00812">
        <ele>346.79998779297</ele>
        <time>2015-09-09T13:40:33Z</time>
      </trkpt>
      <trkpt lat="43.43532" lon="6.00812">
        <ele>346.60000610352</ele>
        <time>2015-09-09T13:40:34Z</time>
      </trkpt>
      <trkpt lat="43.43532" lon="6.00812">
        <ele>346.60000610352</ele>
        <time>2015-09-09T13:40:37Z</time>
      </trkpt>
      <trkpt lat="43.43532" lon="6.00812">
        <ele>346.79998779297</ele>
        <time>2015-09-09T13:40:38Z</time>
      </trkpt>
      <trkpt lat="43.43532" lon="6.00812">
        <ele>347.20001220703</ele>
        <time>2015-09-09T13:40:42Z</time>
      </trkpt>
      <trkpt lat="43.43532" lon="6.00812">
        <ele>347</ele>
        <time>2015-09-09T13:41:03Z</time>
      </trkpt>
      <trkpt lat="43.43532" lon="6.00812">
        <ele>346.60000610352</ele>
        <time>2015-09-09T13:41:28Z</time>
      </trkpt>
      <trkpt lat="43.43532" lon="6.00813">
        <ele>346.39999389648</ele>
        <time>2015-09-09T13:41:32Z</time>
      </trkpt>
      <trkpt lat="43.43532" lon="6.00813">
        <ele>346.60000610352</ele>
        <time>2015-09-09T13:41:34Z</time>
      </trkpt>
      <trkpt lat="43.43531" lon="6.00813">
        <ele>346.79998779297</ele>
        <time>2015-09-09T13:41:36Z</time>
      </trkpt>
      <trkpt lat="43.43531" lon="6.00814">
        <ele>346.79998779297</ele>
        <time>2015-09-09T13:41:37Z</time>
      </trkpt>
      <trkpt lat="43.43531" lon="6.00814">
        <ele>346.60000610352</ele>
        <time>2015-09-09T13:41:38Z</time>
      </trkpt>
      <trkpt lat="43.4353" lon="6.00818">
        <ele>346.79998779297</ele>
        <time>2015-09-09T13:41:42Z</time>
      </trkpt>
      <trkpt lat="43.43529" lon="6.00823">
        <ele>346.79998779297</ele>
        <time>2015-09-09T13:41:44Z</time>
      </trkpt>
      <trkpt lat="43.43527" lon="6.00829">
        <ele>346.60000610352</ele>
        <time>2015-09-09T13:41:46Z</time>
      </trkpt>
      <trkpt lat="43.43526" lon="6.00837">
        <ele>346.39999389648</ele>
        <time>2015-09-09T13:41:48Z</time>
      </trkpt>
      <trkpt lat="43.43523" lon="6.00847">
        <ele>345.60000610352</ele>
        <time>2015-09-09T13:41:50Z</time>
      </trkpt>
      <trkpt lat="43.43522" lon="6.00853">
        <ele>345</ele>
        <time>2015-09-09T13:41:51Z</time>
      </trkpt>
      <trkpt lat="43.4352" lon="6.0086">
        <ele>344.20001220703</ele>
        <time>2015-09-09T13:41:52Z</time>
      </trkpt>
      <trkpt lat="43.43518" lon="6.00866">
        <ele>343.79998779297</ele>
        <time>2015-09-09T13:41:53Z</time>
      </trkpt>
      <trkpt lat="43.43517" lon="6.00872">
        <ele>344</ele>
        <time>2015-09-09T13:41:54Z</time>
      </trkpt>
      <trkpt lat="43.43514" lon="6.00883">
        <ele>343.79998779297</ele>
        <time>2015-09-09T13:41:56Z</time>
      </trkpt>
      <trkpt lat="43.43511" lon="6.00895">
        <ele>343</ele>
        <time>2015-09-09T13:41:58Z</time>
      </trkpt>
      <trkpt lat="43.43509" lon="6.00902">
        <ele>342.60000610352</ele>
        <time>2015-09-09T13:41:59Z</time>
      </trkpt>
      <trkpt lat="43.43508" lon="6.00911">
        <ele>341.79998779297</ele>
        <time>2015-09-09T13:42:00Z</time>
      </trkpt>
      <trkpt lat="43.43507" lon="6.00919">
        <ele>341.20001220703</ele>
        <time>2015-09-09T13:42:01Z</time>
      </trkpt>
      <trkpt lat="43.43505" lon="6.00927">
        <ele>340.79998779297</ele>
        <time>2015-09-09T13:42:02Z</time>
      </trkpt>
      <trkpt lat="43.43504" lon="6.00935">
        <ele>340.20001220703</ele>
        <time>2015-09-09T13:42:03Z</time>
      </trkpt>
      <trkpt lat="43.43501" lon="6.00953">
        <ele>338</ele>
        <time>2015-09-09T13:42:06Z</time>
      </trkpt>
      <trkpt lat="43.43499" lon="6.00964">
        <ele>337.39999389648</ele>
        <time>2015-09-09T13:42:08Z</time>
      </trkpt>
      <trkpt lat="43.43499" lon="6.00975">
        <ele>337.20001220703</ele>
        <time>2015-09-09T13:42:10Z</time>
      </trkpt>
      <trkpt lat="43.43497" lon="6.00985">
        <ele>335.20001220703</ele>
        <time>2015-09-09T13:42:12Z</time>
      </trkpt>
      <trkpt lat="43.43494" lon="6.00996">
        <ele>334.60000610352</ele>
        <time>2015-09-09T13:42:14Z</time>
      </trkpt>
      <trkpt lat="43.43492" lon="6.01008">
        <ele>334.20001220703</ele>
        <time>2015-09-09T13:42:16Z</time>
      </trkpt>
      <trkpt lat="43.43493" lon="6.01035">
        <ele>331.60000610352</ele>
        <time>2015-09-09T13:42:20Z</time>
      </trkpt>
      <trkpt lat="43.43496" lon="6.0105">
        <ele>330.60000610352</ele>
        <time>2015-09-09T13:42:22Z</time>
      </trkpt>
      <trkpt lat="43.43499" lon="6.01064">
        <ele>329.60000610352</ele>
        <time>2015-09-09T13:42:24Z</time>
      </trkpt>
      <trkpt lat="43.435" lon="6.01079">
        <ele>328.79998779297</ele>
        <time>2015-09-09T13:42:26Z</time>
      </trkpt>
      <trkpt lat="43.43499" lon="6.01092">
        <ele>328.79998779297</ele>
        <time>2015-09-09T13:42:28Z</time>
      </trkpt>
      <trkpt lat="43.43497" lon="6.01099">
        <ele>328.60000610352</ele>
        <time>2015-09-09T13:42:29Z</time>
      </trkpt>
      <trkpt lat="43.43495" lon="6.01104">
        <ele>328.60000610352</ele>
        <time>2015-09-09T13:42:30Z</time>
      </trkpt>
      <trkpt lat="43.4349" lon="6.01116">
        <ele>328.39999389648</ele>
        <time>2015-09-09T13:42:32Z</time>
      </trkpt>
      <trkpt lat="43.43482" lon="6.01133">
        <ele>327.20001220703</ele>
        <time>2015-09-09T13:42:35Z</time>
      </trkpt>
      <trkpt lat="43.4348" lon="6.01138">
        <ele>327</ele>
        <time>2015-09-09T13:42:36Z</time>
      </trkpt>
      <trkpt lat="43.43475" lon="6.0115">
        <ele>326.39999389648</ele>
        <time>2015-09-09T13:42:38Z</time>
      </trkpt>
      <trkpt lat="43.43473" lon="6.01156">
        <ele>325.79998779297</ele>
        <time>2015-09-09T13:42:39Z</time>
      </trkpt>
      <trkpt lat="43.43474" lon="6.01161">
        <ele>325.79998779297</ele>
        <time>2015-09-09T13:42:40Z</time>
      </trkpt>
      <trkpt lat="43.43475" lon="6.01174">
        <ele>325.39999389648</ele>
        <time>2015-09-09T13:42:42Z</time>
      </trkpt>
      <trkpt lat="43.43475" lon="6.0118">
        <ele>325</ele>
        <time>2015-09-09T13:42:43Z</time>
      </trkpt>
      <trkpt lat="43.43475" lon="6.01187">
        <ele>325</ele>
        <time>2015-09-09T13:42:44Z</time>
      </trkpt>
      <trkpt lat="43.43475" lon="6.01203">
        <ele>324</ele>
        <time>2015-09-09T13:42:46Z</time>
      </trkpt>
      <trkpt lat="43.43475" lon="6.01211">
        <ele>323.20001220703</ele>
        <time>2015-09-09T13:42:47Z</time>
      </trkpt>
      <trkpt lat="43.43474" lon="6.0122">
        <ele>322.60000610352</ele>
        <time>2015-09-09T13:42:48Z</time>
      </trkpt>
      <trkpt lat="43.43472" lon="6.01229">
        <ele>322</ele>
        <time>2015-09-09T13:42:49Z</time>
      </trkpt>
      <trkpt lat="43.43469" lon="6.01238">
        <ele>321.60000610352</ele>
        <time>2015-09-09T13:42:50Z</time>
      </trkpt>
      <trkpt lat="43.4346" lon="6.01251">
        <ele>322.39999389648</ele>
        <time>2015-09-09T13:42:52Z</time>
      </trkpt>
      <trkpt lat="43.43455" lon="6.01264">
        <ele>321.20001220703</ele>
        <time>2015-09-09T13:42:54Z</time>
      </trkpt>
      <trkpt lat="43.43452" lon="6.01276">
        <ele>319.79998779297</ele>
        <time>2015-09-09T13:42:56Z</time>
      </trkpt>
      <trkpt lat="43.4345" lon="6.01291">
        <ele>318.79998779297</ele>
        <time>2015-09-09T13:42:59Z</time>
      </trkpt>
      <trkpt lat="43.43446" lon="6.01299">
        <ele>317.60000610352</ele>
        <time>2015-09-09T13:43:01Z</time>
      </trkpt>
      <trkpt lat="43.43444" lon="6.01301">
        <ele>317.39999389648</ele>
        <time>2015-09-09T13:43:02Z</time>
      </trkpt>
      <trkpt lat="43.43442" lon="6.01306">
        <ele>317.20001220703</ele>
        <time>2015-09-09T13:43:04Z</time>
      </trkpt>
      <trkpt lat="43.43442" lon="6.0131">
        <ele>317</ele>
        <time>2015-09-09T13:43:06Z</time>
      </trkpt>
      <trkpt lat="43.43441" lon="6.01314">
        <ele>316.60000610352</ele>
        <time>2015-09-09T13:43:08Z</time>
      </trkpt>
      <trkpt lat="43.43439" lon="6.0132">
        <ele>316.79998779297</ele>
        <time>2015-09-09T13:43:10Z</time>
      </trkpt>
      <trkpt lat="43.43433" lon="6.01326">
        <ele>315.39999389648</ele>
        <time>2015-09-09T13:43:12Z</time>
      </trkpt>
      <trkpt lat="43.4343" lon="6.01328">
        <ele>314</ele>
        <time>2015-09-09T13:43:13Z</time>
      </trkpt>
      <trkpt lat="43.43427" lon="6.01332">
        <ele>313.39999389648</ele>
        <time>2015-09-09T13:43:14Z</time>
      </trkpt>
      <trkpt lat="43.43424" lon="6.01336">
        <ele>313</ele>
        <time>2015-09-09T13:43:15Z</time>
      </trkpt>
      <trkpt lat="43.43423" lon="6.01342">
        <ele>312.20001220703</ele>
        <time>2015-09-09T13:43:16Z</time>
      </trkpt>
      <trkpt lat="43.43422" lon="6.01347">
        <ele>312</ele>
        <time>2015-09-09T13:43:17Z</time>
      </trkpt>
      <trkpt lat="43.43423" lon="6.01352">
        <ele>312.20001220703</ele>
        <time>2015-09-09T13:43:18Z</time>
      </trkpt>
      <trkpt lat="43.43425" lon="6.01364">
        <ele>311.39999389648</ele>
        <time>2015-09-09T13:43:20Z</time>
      </trkpt>
      <trkpt lat="43.43427" lon="6.01378">
        <ele>311.60000610352</ele>
        <time>2015-09-09T13:43:22Z</time>
      </trkpt>
      <trkpt lat="43.43428" lon="6.01393">
        <ele>310.20001220703</ele>
        <time>2015-09-09T13:43:24Z</time>
      </trkpt>
      <trkpt lat="43.43429" lon="6.01402">
        <ele>309.60000610352</ele>
        <time>2015-09-09T13:43:25Z</time>
      </trkpt>
      <trkpt lat="43.4343" lon="6.01411">
        <ele>309.39999389648</ele>
        <time>2015-09-09T13:43:26Z</time>
      </trkpt>
      <trkpt lat="43.4343" lon="6.01428">
        <ele>309.79998779297</ele>
        <time>2015-09-09T13:43:28Z</time>
      </trkpt>
      <trkpt lat="43.4343" lon="6.01436">
        <ele>309.20001220703</ele>
        <time>2015-09-09T13:43:29Z</time>
      </trkpt>
      <trkpt lat="43.43431" lon="6.01451">
        <ele>306.60000610352</ele>
        <time>2015-09-09T13:43:31Z</time>
      </trkpt>
      <trkpt lat="43.43431" lon="6.01459">
        <ele>306.20001220703</ele>
        <time>2015-09-09T13:43:32Z</time>
      </trkpt>
      <trkpt lat="43.43435" lon="6.01472">
        <ele>306.20001220703</ele>
        <time>2015-09-09T13:43:34Z</time>
      </trkpt>
      <trkpt lat="43.43437" lon="6.01486">
        <ele>306.39999389648</ele>
        <time>2015-09-09T13:43:36Z</time>
      </trkpt>
      <trkpt lat="43.4344" lon="6.015">
        <ele>306.60000610352</ele>
        <time>2015-09-09T13:43:38Z</time>
      </trkpt>
      <trkpt lat="43.43444" lon="6.01513">
        <ele>305.79998779297</ele>
        <time>2015-09-09T13:43:40Z</time>
      </trkpt>
      <trkpt lat="43.4345" lon="6.01523">
        <ele>305.60000610352</ele>
        <time>2015-09-09T13:43:42Z</time>
      </trkpt>
      <trkpt lat="43.43459" lon="6.01529">
        <ele>305.60000610352</ele>
        <time>2015-09-09T13:43:44Z</time>
      </trkpt>
      <trkpt lat="43.43468" lon="6.01532">
        <ele>305.20001220703</ele>
        <time>2015-09-09T13:43:46Z</time>
      </trkpt>
      <trkpt lat="43.43477" lon="6.01534">
        <ele>303.60000610352</ele>
        <time>2015-09-09T13:43:48Z</time>
      </trkpt>
      <trkpt lat="43.43486" lon="6.01537">
        <ele>303.60000610352</ele>
        <time>2015-09-09T13:43:50Z</time>
      </trkpt>
      <trkpt lat="43.43491" lon="6.01537">
        <ele>303.39999389648</ele>
        <time>2015-09-09T13:43:51Z</time>
      </trkpt>
      <trkpt lat="43.43496" lon="6.01535">
        <ele>302.60000610352</ele>
        <time>2015-09-09T13:43:52Z</time>
      </trkpt>
      <trkpt lat="43.43505" lon="6.01532">
        <ele>302.79998779297</ele>
        <time>2015-09-09T13:43:54Z</time>
      </trkpt>
      <trkpt lat="43.43509" lon="6.01533">
        <ele>301.79998779297</ele>
        <time>2015-09-09T13:43:55Z</time>
      </trkpt>
      <trkpt lat="43.43514" lon="6.01535">
        <ele>300.39999389648</ele>
        <time>2015-09-09T13:43:56Z</time>
      </trkpt>
      <trkpt lat="43.43523" lon="6.01541">
        <ele>299.79998779297</ele>
        <time>2015-09-09T13:43:58Z</time>
      </trkpt>
      <trkpt lat="43.43534" lon="6.01545">
        <ele>299.20001220703</ele>
        <time>2015-09-09T13:44:00Z</time>
      </trkpt>
      <trkpt lat="43.43545" lon="6.01547">
        <ele>299.60000610352</ele>
        <time>2015-09-09T13:44:02Z</time>
      </trkpt>
      <trkpt lat="43.43556" lon="6.01548">
        <ele>297.79998779297</ele>
        <time>2015-09-09T13:44:04Z</time>
      </trkpt>
      <trkpt lat="43.43567" lon="6.01549">
        <ele>298.20001220703</ele>
        <time>2015-09-09T13:44:06Z</time>
      </trkpt>
      <trkpt lat="43.43579" lon="6.01553">
        <ele>298</ele>
        <time>2015-09-09T13:44:08Z</time>
      </trkpt>
      <trkpt lat="43.43591" lon="6.01557">
        <ele>296.39999389648</ele>
        <time>2015-09-09T13:44:10Z</time>
      </trkpt>
      <trkpt lat="43.43603" lon="6.01565">
        <ele>296.39999389648</ele>
        <time>2015-09-09T13:44:12Z</time>
      </trkpt>
      <trkpt lat="43.43614" lon="6.01576">
        <ele>295.60000610352</ele>
        <time>2015-09-09T13:44:14Z</time>
      </trkpt>
      <trkpt lat="43.43619" lon="6.01581">
        <ele>295</ele>
        <time>2015-09-09T13:44:15Z</time>
      </trkpt>
      <trkpt lat="43.43624" lon="6.01587">
        <ele>294.39999389648</ele>
        <time>2015-09-09T13:44:16Z</time>
      </trkpt>
      <trkpt lat="43.43631" lon="6.016">
        <ele>294.39999389648</ele>
        <time>2015-09-09T13:44:18Z</time>
      </trkpt>
      <trkpt lat="43.43634" lon="6.01607">
        <ele>294</ele>
        <time>2015-09-09T13:44:19Z</time>
      </trkpt>
      <trkpt lat="43.43638" lon="6.01615">
        <ele>294</ele>
        <time>2015-09-09T13:44:20Z</time>
      </trkpt>
      <trkpt lat="43.43646" lon="6.0163">
        <ele>292.79998779297</ele>
        <time>2015-09-09T13:44:22Z</time>
      </trkpt>
      <trkpt lat="43.43657" lon="6.01641">
        <ele>293.60000610352</ele>
        <time>2015-09-09T13:44:24Z</time>
      </trkpt>
      <trkpt lat="43.43662" lon="6.01643">
        <ele>294.20001220703</ele>
        <time>2015-09-09T13:44:25Z</time>
      </trkpt>
      <trkpt lat="43.43667" lon="6.01644">
        <ele>294.20001220703</ele>
        <time>2015-09-09T13:44:26Z</time>
      </trkpt>
      <trkpt lat="43.43678" lon="6.01647">
        <ele>292.39999389648</ele>
        <time>2015-09-09T13:44:28Z</time>
      </trkpt>
      <trkpt lat="43.4369" lon="6.01649">
        <ele>291.79998779297</ele>
        <time>2015-09-09T13:44:30Z</time>
      </trkpt>
      <trkpt lat="43.43695" lon="6.01652">
        <ele>290.79998779297</ele>
        <time>2015-09-09T13:44:31Z</time>
      </trkpt>
      <trkpt lat="43.43699" lon="6.01656">
        <ele>290</ele>
        <time>2015-09-09T13:44:32Z</time>
      </trkpt>
      <trkpt lat="43.43711" lon="6.0167">
        <ele>290</ele>
        <time>2015-09-09T13:44:35Z</time>
      </trkpt>
      <trkpt lat="43.43716" lon="6.01674">
        <ele>290</ele>
        <time>2015-09-09T13:44:36Z</time>
      </trkpt>
      <trkpt lat="43.43726" lon="6.01681">
        <ele>289.79998779297</ele>
        <time>2015-09-09T13:44:38Z</time>
      </trkpt>
      <trkpt lat="43.43731" lon="6.01683">
        <ele>289.79998779297</ele>
        <time>2015-09-09T13:44:39Z</time>
      </trkpt>
      <trkpt lat="43.43735" lon="6.01686">
        <ele>289.39999389648</ele>
        <time>2015-09-09T13:44:40Z</time>
      </trkpt>
      <trkpt lat="43.4374" lon="6.01688">
        <ele>288.60000610352</ele>
        <time>2015-09-09T13:44:42Z</time>
      </trkpt>
      <trkpt lat="43.4374" lon="6.01687">
        <ele>288.39999389648</ele>
        <time>2015-09-09T13:44:43Z</time>
      </trkpt>
      <trkpt lat="43.4374" lon="6.01687">
        <ele>288.60000610352</ele>
        <time>2015-09-09T13:44:44Z</time>
      </trkpt>
      <trkpt lat="43.4374" lon="6.01687">
        <ele>288.39999389648</ele>
        <time>2015-09-09T13:44:47Z</time>
      </trkpt>
      <trkpt lat="43.43741" lon="6.01687">
        <ele>288.39999389648</ele>
        <time>2015-09-09T13:44:48Z</time>
      </trkpt>
      <trkpt lat="43.4374" lon="6.01687">
        <ele>288.39999389648</ele>
        <time>2015-09-09T13:44:50Z</time>
      </trkpt>
      <trkpt lat="43.43741" lon="6.01687">
        <ele>288.60000610352</ele>
        <time>2015-09-09T13:44:52Z</time>
      </trkpt>
      <trkpt lat="43.43741" lon="6.01687">
        <ele>288.39999389648</ele>
        <time>2015-09-09T13:44:57Z</time>
      </trkpt>
      <trkpt lat="43.43741" lon="6.01687">
        <ele>288.39999389648</ele>
        <time>2015-09-09T13:45:02Z</time>
      </trkpt>
      <trkpt lat="43.43741" lon="6.01687">
        <ele>288.39999389648</ele>
        <time>2015-09-09T13:45:06Z</time>
      </trkpt>
      <trkpt lat="43.4374" lon="6.01687">
        <ele>288.39999389648</ele>
        <time>2015-09-09T13:45:08Z</time>
      </trkpt>
      <trkpt lat="43.4374" lon="6.01687">
        <ele>288.60000610352</ele>
        <time>2015-09-09T13:45:12Z</time>
      </trkpt>
      <trkpt lat="43.4374" lon="6.01687">
        <ele>288.60000610352</ele>
        <time>2015-09-09T13:45:16Z</time>
      </trkpt>
      <trkpt lat="43.4374" lon="6.01687">
        <ele>288.39999389648</ele>
        <time>2015-09-09T13:45:22Z</time>
      </trkpt>
      <trkpt lat="43.4374" lon="6.01687">
        <ele>288.20001220703</ele>
        <time>2015-09-09T13:45:28Z</time>
      </trkpt>
      <trkpt lat="43.4374" lon="6.01687">
        <ele>288.20001220703</ele>
        <time>2015-09-09T13:45:32Z</time>
      </trkpt>
      <trkpt lat="43.43741" lon="6.01687">
        <ele>288.20001220703</ele>
        <time>2015-09-09T13:45:34Z</time>
      </trkpt>
      <trkpt lat="43.4374" lon="6.01687">
        <ele>288.20001220703</ele>
        <time>2015-09-09T13:45:38Z</time>
      </trkpt>
      <trkpt lat="43.4374" lon="6.01686">
        <ele>288.20001220703</ele>
        <time>2015-09-09T13:45:42Z</time>
      </trkpt>
      <trkpt lat="43.4374" lon="6.01686">
        <ele>288.60000610352</ele>
        <time>2015-09-09T13:45:44Z</time>
      </trkpt>
      <trkpt lat="43.43741" lon="6.01686">
        <ele>288.60000610352</ele>
        <time>2015-09-09T13:45:46Z</time>
      </trkpt>
      <trkpt lat="43.43741" lon="6.01686">
        <ele>288.60000610352</ele>
        <time>2015-09-09T13:45:52Z</time>
      </trkpt>
      <trkpt lat="43.43741" lon="6.01686">
        <ele>289</ele>
        <time>2015-09-09T13:46:04Z</time>
      </trkpt>
      <trkpt lat="43.43741" lon="6.01686">
        <ele>288.79998779297</ele>
        <time>2015-09-09T13:46:06Z</time>
      </trkpt>
      <trkpt lat="43.43741" lon="6.01686">
        <ele>288.39999389648</ele>
        <time>2015-09-09T13:46:12Z</time>
      </trkpt>
      <trkpt lat="43.43741" lon="6.01686">
        <ele>288.79998779297</ele>
        <time>2015-09-09T13:46:20Z</time>
      </trkpt>
      <trkpt lat="43.43741" lon="6.01686">
        <ele>289</ele>
        <time>2015-09-09T13:46:26Z</time>
      </trkpt>
      <trkpt lat="43.43741" lon="6.01686">
        <ele>289</ele>
        <time>2015-09-09T13:46:28Z</time>
      </trkpt>
      <trkpt lat="43.43741" lon="6.01686">
        <ele>288.60000610352</ele>
        <time>2015-09-09T13:46:38Z</time>
      </trkpt>
      <trkpt lat="43.43741" lon="6.01686">
        <ele>288.79998779297</ele>
        <time>2015-09-09T13:46:58Z</time>
      </trkpt>
      <trkpt lat="43.43741" lon="6.01686">
        <ele>288.60000610352</ele>
        <time>2015-09-09T13:47:04Z</time>
      </trkpt>
      <trkpt lat="43.43742" lon="6.01686">
        <ele>288.60000610352</ele>
        <time>2015-09-09T13:47:06Z</time>
      </trkpt>
      <trkpt lat="43.43742" lon="6.01686">
        <ele>288.79998779297</ele>
        <time>2015-09-09T13:47:08Z</time>
      </trkpt>
      <trkpt lat="43.43742" lon="6.01686">
        <ele>288.60000610352</ele>
        <time>2015-09-09T13:47:10Z</time>
      </trkpt>
      <trkpt lat="43.43742" lon="6.01686">
        <ele>288.60000610352</ele>
        <time>2015-09-09T13:47:11Z</time>
      </trkpt>
      <trkpt lat="43.43742" lon="6.01686">
        <ele>288.60000610352</ele>
        <time>2015-09-09T13:47:20Z</time>
      </trkpt>
      <trkpt lat="43.43742" lon="6.01686">
        <ele>288.39999389648</ele>
        <time>2015-09-09T13:47:38Z</time>
      </trkpt>
      <trkpt lat="43.43742" lon="6.01686">
        <ele>288.39999389648</ele>
        <time>2015-09-09T13:47:40Z</time>
      </trkpt>
      <trkpt lat="43.43742" lon="6.01686">
        <ele>288.60000610352</ele>
        <time>2015-09-09T13:47:42Z</time>
      </trkpt>
      <trkpt lat="43.43742" lon="6.01686">
        <ele>288.60000610352</ele>
        <time>2015-09-09T13:47:54Z</time>
      </trkpt>
      <trkpt lat="43.43742" lon="6.01686">
        <ele>288.39999389648</ele>
        <time>2015-09-09T13:48:04Z</time>
      </trkpt>
      <trkpt lat="43.43742" lon="6.01686">
        <ele>288.39999389648</ele>
        <time>2015-09-09T13:48:18Z</time>
      </trkpt>
      <trkpt lat="43.43742" lon="6.01686">
        <ele>288.20001220703</ele>
        <time>2015-09-09T13:48:22Z</time>
      </trkpt>
      <trkpt lat="43.43744" lon="6.01687">
        <ele>288.20001220703</ele>
        <time>2015-09-09T13:48:24Z</time>
      </trkpt>
      <trkpt lat="43.43745" lon="6.01688">
        <ele>288.20001220703</ele>
        <time>2015-09-09T13:48:25Z</time>
      </trkpt>
      <trkpt lat="43.43747" lon="6.01689">
        <ele>288.20001220703</ele>
        <time>2015-09-09T13:48:26Z</time>
      </trkpt>
      <trkpt lat="43.43753" lon="6.01691">
        <ele>288</ele>
        <time>2015-09-09T13:48:28Z</time>
      </trkpt>
      <trkpt lat="43.43757" lon="6.01693">
        <ele>288.20001220703</ele>
        <time>2015-09-09T13:48:29Z</time>
      </trkpt>
      <trkpt lat="43.43761" lon="6.01695">
        <ele>288</ele>
        <time>2015-09-09T13:48:30Z</time>
      </trkpt>
      <trkpt lat="43.4377" lon="6.01699">
        <ele>286.60000610352</ele>
        <time>2015-09-09T13:48:32Z</time>
      </trkpt>
      <trkpt lat="43.4378" lon="6.01702">
        <ele>285.79998779297</ele>
        <time>2015-09-09T13:48:34Z</time>
      </trkpt>
      <trkpt lat="43.43793" lon="6.01702">
        <ele>285.60000610352</ele>
        <time>2015-09-09T13:48:36Z</time>
      </trkpt>
      <trkpt lat="43.43805" lon="6.01699">
        <ele>285.39999389648</ele>
        <time>2015-09-09T13:48:38Z</time>
      </trkpt>
      <trkpt lat="43.43817" lon="6.01694">
        <ele>285.20001220703</ele>
        <time>2015-09-09T13:48:40Z</time>
      </trkpt>
      <trkpt lat="43.43829" lon="6.01688">
        <ele>285</ele>
        <time>2015-09-09T13:48:42Z</time>
      </trkpt>
      <trkpt lat="43.43841" lon="6.01681">
        <ele>285</ele>
        <time>2015-09-09T13:48:44Z</time>
      </trkpt>
      <trkpt lat="43.43847" lon="6.01677">
        <ele>284.79998779297</ele>
        <time>2015-09-09T13:48:45Z</time>
      </trkpt>
      <trkpt lat="43.43851" lon="6.01672">
        <ele>284.60000610352</ele>
        <time>2015-09-09T13:48:46Z</time>
      </trkpt>
      <trkpt lat="43.43856" lon="6.01666">
        <ele>284.39999389648</ele>
        <time>2015-09-09T13:48:47Z</time>
      </trkpt>
      <trkpt lat="43.4386" lon="6.01663">
        <ele>283.39999389648</ele>
        <time>2015-09-09T13:48:48Z</time>
      </trkpt>
      <trkpt lat="43.43864" lon="6.01662">
        <ele>283.20001220703</ele>
        <time>2015-09-09T13:48:49Z</time>
      </trkpt>
      <trkpt lat="43.43867" lon="6.01663">
        <ele>283.20001220703</ele>
        <time>2015-09-09T13:48:50Z</time>
      </trkpt>
      <trkpt lat="43.43869" lon="6.01672">
        <ele>283.60000610352</ele>
        <time>2015-09-09T13:48:52Z</time>
      </trkpt>
      <trkpt lat="43.43868" lon="6.01685">
        <ele>283</ele>
        <time>2015-09-09T13:48:54Z</time>
      </trkpt>
      <trkpt lat="43.4387" lon="6.017">
        <ele>282.39999389648</ele>
        <time>2015-09-09T13:48:56Z</time>
      </trkpt>
      <trkpt lat="43.43871" lon="6.01707">
        <ele>282.39999389648</ele>
        <time>2015-09-09T13:48:57Z</time>
      </trkpt>
      <trkpt lat="43.43874" lon="6.01716">
        <ele>282.60000610352</ele>
        <time>2015-09-09T13:48:58Z</time>
      </trkpt>
      <trkpt lat="43.43876" lon="6.01724">
        <ele>282</ele>
        <time>2015-09-09T13:48:59Z</time>
      </trkpt>
      <trkpt lat="43.4388" lon="6.01733">
        <ele>281.39999389648</ele>
        <time>2015-09-09T13:49:00Z</time>
      </trkpt>
      <trkpt lat="43.43882" lon="6.01741">
        <ele>280.79998779297</ele>
        <time>2015-09-09T13:49:01Z</time>
      </trkpt>
      <trkpt lat="43.43883" lon="6.01751">
        <ele>280.20001220703</ele>
        <time>2015-09-09T13:49:02Z</time>
      </trkpt>
      <trkpt lat="43.43884" lon="6.01769">
        <ele>280.39999389648</ele>
        <time>2015-09-09T13:49:04Z</time>
      </trkpt>
      <trkpt lat="43.43884" lon="6.01778">
        <ele>279.79998779297</ele>
        <time>2015-09-09T13:49:05Z</time>
      </trkpt>
      <trkpt lat="43.43881" lon="6.01788">
        <ele>279.39999389648</ele>
        <time>2015-09-09T13:49:06Z</time>
      </trkpt>
      <trkpt lat="43.43877" lon="6.01808">
        <ele>278.79998779297</ele>
        <time>2015-09-09T13:49:08Z</time>
      </trkpt>
      <trkpt lat="43.43876" lon="6.01818">
        <ele>278.39999389648</ele>
        <time>2015-09-09T13:49:09Z</time>
      </trkpt>
      <trkpt lat="43.43876" lon="6.0183">
        <ele>277.79998779297</ele>
        <time>2015-09-09T13:49:10Z</time>
      </trkpt>
      <trkpt lat="43.43875" lon="6.01841">
        <ele>277</ele>
        <time>2015-09-09T13:49:11Z</time>
      </trkpt>
      <trkpt lat="43.43874" lon="6.01852">
        <ele>276.20001220703</ele>
        <time>2015-09-09T13:49:12Z</time>
      </trkpt>
      <trkpt lat="43.43871" lon="6.01873">
        <ele>276.20001220703</ele>
        <time>2015-09-09T13:49:14Z</time>
      </trkpt>
      <trkpt lat="43.43867" lon="6.01893">
        <ele>276.20001220703</ele>
        <time>2015-09-09T13:49:16Z</time>
      </trkpt>
      <trkpt lat="43.43863" lon="6.01913">
        <ele>276</ele>
        <time>2015-09-09T13:49:18Z</time>
      </trkpt>
      <trkpt lat="43.43857" lon="6.01932">
        <ele>275.79998779297</ele>
        <time>2015-09-09T13:49:20Z</time>
      </trkpt>
      <trkpt lat="43.43848" lon="6.01948">
        <ele>275.79998779297</ele>
        <time>2015-09-09T13:49:22Z</time>
      </trkpt>
      <trkpt lat="43.43842" lon="6.01963">
        <ele>276.20001220703</ele>
        <time>2015-09-09T13:49:24Z</time>
      </trkpt>
      <trkpt lat="43.43839" lon="6.0197">
        <ele>276.39999389648</ele>
        <time>2015-09-09T13:49:25Z</time>
      </trkpt>
      <trkpt lat="43.43837" lon="6.01978">
        <ele>276.20001220703</ele>
        <time>2015-09-09T13:49:26Z</time>
      </trkpt>
      <trkpt lat="43.43835" lon="6.01995">
        <ele>275.79998779297</ele>
        <time>2015-09-09T13:49:28Z</time>
      </trkpt>
      <trkpt lat="43.43834" lon="6.02004">
        <ele>275.60000610352</ele>
        <time>2015-09-09T13:49:29Z</time>
      </trkpt>
      <trkpt lat="43.43833" lon="6.02014">
        <ele>275.60000610352</ele>
        <time>2015-09-09T13:49:30Z</time>
      </trkpt>
      <trkpt lat="43.43832" lon="6.02033">
        <ele>275.20001220703</ele>
        <time>2015-09-09T13:49:32Z</time>
      </trkpt>
      <trkpt lat="43.43831" lon="6.02042">
        <ele>274.79998779297</ele>
        <time>2015-09-09T13:49:33Z</time>
      </trkpt>
      <trkpt lat="43.43829" lon="6.02051">
        <ele>274.39999389648</ele>
        <time>2015-09-09T13:49:34Z</time>
      </trkpt>
      <trkpt lat="43.43822" lon="6.02063">
        <ele>274.39999389648</ele>
        <time>2015-09-09T13:49:36Z</time>
      </trkpt>
      <trkpt lat="43.4382" lon="6.0207">
        <ele>274.60000610352</ele>
        <time>2015-09-09T13:49:37Z</time>
      </trkpt>
      <trkpt lat="43.43818" lon="6.02076">
        <ele>274.79998779297</ele>
        <time>2015-09-09T13:49:38Z</time>
      </trkpt>
      <trkpt lat="43.43814" lon="6.02089">
        <ele>275.20001220703</ele>
        <time>2015-09-09T13:49:40Z</time>
      </trkpt>
      <trkpt lat="43.43812" lon="6.02104">
        <ele>275.20001220703</ele>
        <time>2015-09-09T13:49:42Z</time>
      </trkpt>
      <trkpt lat="43.43811" lon="6.02111">
        <ele>274.79998779297</ele>
        <time>2015-09-09T13:49:43Z</time>
      </trkpt>
      <trkpt lat="43.43807" lon="6.02117">
        <ele>274</ele>
        <time>2015-09-09T13:49:44Z</time>
      </trkpt>
      <trkpt lat="43.43804" lon="6.02123">
        <ele>273.79998779297</ele>
        <time>2015-09-09T13:49:45Z</time>
      </trkpt>
      <trkpt lat="43.43799" lon="6.02127">
        <ele>273.60000610352</ele>
        <time>2015-09-09T13:49:46Z</time>
      </trkpt>
      <trkpt lat="43.43789" lon="6.02137">
        <ele>273.60000610352</ele>
        <time>2015-09-09T13:49:48Z</time>
      </trkpt>
      <trkpt lat="43.43785" lon="6.02141">
        <ele>273.60000610352</ele>
        <time>2015-09-09T13:49:49Z</time>
      </trkpt>
      <trkpt lat="43.43781" lon="6.02148">
        <ele>273.79998779297</ele>
        <time>2015-09-09T13:49:50Z</time>
      </trkpt>
      <trkpt lat="43.43776" lon="6.02162">
        <ele>273.60000610352</ele>
        <time>2015-09-09T13:49:52Z</time>
      </trkpt>
      <trkpt lat="43.4377" lon="6.02173">
        <ele>273.79998779297</ele>
        <time>2015-09-09T13:49:54Z</time>
      </trkpt>
      <trkpt lat="43.43767" lon="6.02186">
        <ele>273.60000610352</ele>
        <time>2015-09-09T13:49:56Z</time>
      </trkpt>
      <trkpt lat="43.43766" lon="6.022">
        <ele>273.20001220703</ele>
        <time>2015-09-09T13:49:58Z</time>
      </trkpt>
      <trkpt lat="43.43765" lon="6.02216">
        <ele>272.79998779297</ele>
        <time>2015-09-09T13:50:00Z</time>
      </trkpt>
      <trkpt lat="43.43764" lon="6.02223">
        <ele>272.79998779297</ele>
        <time>2015-09-09T13:50:01Z</time>
      </trkpt>
      <trkpt lat="43.43763" lon="6.0223">
        <ele>272.39999389648</ele>
        <time>2015-09-09T13:50:02Z</time>
      </trkpt>
      <trkpt lat="43.43759" lon="6.02242">
        <ele>272.20001220703</ele>
        <time>2015-09-09T13:50:04Z</time>
      </trkpt>
      <trkpt lat="43.4375" lon="6.02257">
        <ele>272.79998779297</ele>
        <time>2015-09-09T13:50:08Z</time>
      </trkpt>
      <trkpt lat="43.43747" lon="6.02263">
        <ele>273.60000610352</ele>
        <time>2015-09-09T13:50:10Z</time>
      </trkpt>
      <trkpt lat="43.43745" lon="6.0227">
        <ele>274.39999389648</ele>
        <time>2015-09-09T13:50:12Z</time>
      </trkpt>
      <trkpt lat="43.43742" lon="6.02276">
        <ele>274.79998779297</ele>
        <time>2015-09-09T13:50:14Z</time>
      </trkpt>
      <trkpt lat="43.43737" lon="6.02284">
        <ele>275.39999389648</ele>
        <time>2015-09-09T13:50:17Z</time>
      </trkpt>
      <trkpt lat="43.43736" lon="6.02286">
        <ele>275.60000610352</ele>
        <time>2015-09-09T13:50:18Z</time>
      </trkpt>
      <trkpt lat="43.43733" lon="6.02291">
        <ele>275.79998779297</ele>
        <time>2015-09-09T13:50:20Z</time>
      </trkpt>
      <trkpt lat="43.4373" lon="6.02296">
        <ele>276.39999389648</ele>
        <time>2015-09-09T13:50:22Z</time>
      </trkpt>
      <trkpt lat="43.43727" lon="6.02301">
        <ele>277</ele>
        <time>2015-09-09T13:50:24Z</time>
      </trkpt>
      <trkpt lat="43.43724" lon="6.02314">
        <ele>277.60000610352</ele>
        <time>2015-09-09T13:50:29Z</time>
      </trkpt>
      <trkpt lat="43.43723" lon="6.02317">
        <ele>277.79998779297</ele>
        <time>2015-09-09T13:50:30Z</time>
      </trkpt>
      <trkpt lat="43.43723" lon="6.02319">
        <ele>278.20001220703</ele>
        <time>2015-09-09T13:50:31Z</time>
      </trkpt>
      <trkpt lat="43.43721" lon="6.02321">
        <ele>278.39999389648</ele>
        <time>2015-09-09T13:50:32Z</time>
      </trkpt>
      <trkpt lat="43.43718" lon="6.02324">
        <ele>279.20001220703</ele>
        <time>2015-09-09T13:50:34Z</time>
      </trkpt>
      <trkpt lat="43.43717" lon="6.02324">
        <ele>279.60000610352</ele>
        <time>2015-09-09T13:50:35Z</time>
      </trkpt>
      <trkpt lat="43.43716" lon="6.02326">
        <ele>279.60000610352</ele>
        <time>2015-09-09T13:50:36Z</time>
      </trkpt>
      <trkpt lat="43.43714" lon="6.02328">
        <ele>280.20001220703</ele>
        <time>2015-09-09T13:50:38Z</time>
      </trkpt>
      <trkpt lat="43.43713" lon="6.02332">
        <ele>280.39999389648</ele>
        <time>2015-09-09T13:50:40Z</time>
      </trkpt>
      <trkpt lat="43.43712" lon="6.02334">
        <ele>280.39999389648</ele>
        <time>2015-09-09T13:50:41Z</time>
      </trkpt>
      <trkpt lat="43.43713" lon="6.02342">
        <ele>281</ele>
        <time>2015-09-09T13:50:44Z</time>
      </trkpt>
      <trkpt lat="43.43714" lon="6.02347">
        <ele>281.39999389648</ele>
        <time>2015-09-09T13:50:46Z</time>
      </trkpt>
      <trkpt lat="43.43715" lon="6.02349">
        <ele>281.20001220703</ele>
        <time>2015-09-09T13:50:47Z</time>
      </trkpt>
      <trkpt lat="43.43717" lon="6.02355">
        <ele>281.39999389648</ele>
        <time>2015-09-09T13:50:50Z</time>
      </trkpt>
      <trkpt lat="43.4372" lon="6.02359">
        <ele>281.39999389648</ele>
        <time>2015-09-09T13:50:52Z</time>
      </trkpt>
      <trkpt lat="43.43724" lon="6.02358">
        <ele>281.39999389648</ele>
        <time>2015-09-09T13:50:54Z</time>
      </trkpt>
      <trkpt lat="43.43729" lon="6.0236">
        <ele>280.39999389648</ele>
        <time>2015-09-09T13:50:56Z</time>
      </trkpt>
      <trkpt lat="43.43732" lon="6.02368">
        <ele>280.39999389648</ele>
        <time>2015-09-09T13:50:58Z</time>
      </trkpt>
      <trkpt lat="43.43734" lon="6.02377">
        <ele>280</ele>
        <time>2015-09-09T13:51:00Z</time>
      </trkpt>
      <trkpt lat="43.43736" lon="6.02385">
        <ele>279.60000610352</ele>
        <time>2015-09-09T13:51:02Z</time>
      </trkpt>
      <trkpt lat="43.4374" lon="6.02393">
        <ele>279.79998779297</ele>
        <time>2015-09-09T13:51:04Z</time>
      </trkpt>
      <trkpt lat="43.43748" lon="6.02401">
        <ele>278.20001220703</ele>
        <time>2015-09-09T13:51:07Z</time>
      </trkpt>
      <trkpt lat="43.4375" lon="6.02405">
        <ele>277</ele>
        <time>2015-09-09T13:51:08Z</time>
      </trkpt>
      <trkpt lat="43.43754" lon="6.02414">
        <ele>276.20001220703</ele>
        <time>2015-09-09T13:51:10Z</time>
      </trkpt>
      <trkpt lat="43.43758" lon="6.02419">
        <ele>276.79998779297</ele>
        <time>2015-09-09T13:51:12Z</time>
      </trkpt>
      <trkpt lat="43.43761" lon="6.02424">
        <ele>276.60000610352</ele>
        <time>2015-09-09T13:51:14Z</time>
      </trkpt>
      <trkpt lat="43.43764" lon="6.02429">
        <ele>276.60000610352</ele>
        <time>2015-09-09T13:51:16Z</time>
      </trkpt>
      <trkpt lat="43.43766" lon="6.02436">
        <ele>276.39999389648</ele>
        <time>2015-09-09T13:51:18Z</time>
      </trkpt>
      <trkpt lat="43.43765" lon="6.02439">
        <ele>276.60000610352</ele>
        <time>2015-09-09T13:51:19Z</time>
      </trkpt>
      <trkpt lat="43.43765" lon="6.02441">
        <ele>276.79998779297</ele>
        <time>2015-09-09T13:51:20Z</time>
      </trkpt>
      <trkpt lat="43.43765" lon="6.02446">
        <ele>276</ele>
        <time>2015-09-09T13:51:22Z</time>
      </trkpt>
      <trkpt lat="43.43769" lon="6.0246">
        <ele>274</ele>
        <time>2015-09-09T13:51:28Z</time>
      </trkpt>
      <trkpt lat="43.43772" lon="6.02464">
        <ele>274.39999389648</ele>
        <time>2015-09-09T13:51:30Z</time>
      </trkpt>
      <trkpt lat="43.43775" lon="6.02468">
        <ele>274.20001220703</ele>
        <time>2015-09-09T13:51:32Z</time>
      </trkpt>
      <trkpt lat="43.43777" lon="6.02469">
        <ele>274.39999389648</ele>
        <time>2015-09-09T13:51:33Z</time>
      </trkpt>
      <trkpt lat="43.43778" lon="6.02471">
        <ele>274.39999389648</ele>
        <time>2015-09-09T13:51:34Z</time>
      </trkpt>
      <trkpt lat="43.43782" lon="6.02474">
        <ele>273.60000610352</ele>
        <time>2015-09-09T13:51:36Z</time>
      </trkpt>
      <trkpt lat="43.43787" lon="6.02481">
        <ele>272</ele>
        <time>2015-09-09T13:51:38Z</time>
      </trkpt>
      <trkpt lat="43.43787" lon="6.02489">
        <ele>271.79998779297</ele>
        <time>2015-09-09T13:51:40Z</time>
      </trkpt>
      <trkpt lat="43.43788" lon="6.02496">
        <ele>271.39999389648</ele>
        <time>2015-09-09T13:51:42Z</time>
      </trkpt>
      <trkpt lat="43.43789" lon="6.02506">
        <ele>272</ele>
        <time>2015-09-09T13:51:45Z</time>
      </trkpt>
      <trkpt lat="43.43789" lon="6.0251">
        <ele>272.20001220703</ele>
        <time>2015-09-09T13:51:46Z</time>
      </trkpt>
      <trkpt lat="43.43789" lon="6.02514">
        <ele>272.39999389648</ele>
        <time>2015-09-09T13:51:47Z</time>
      </trkpt>
      <trkpt lat="43.43788" lon="6.02517">
        <ele>272.20001220703</ele>
        <time>2015-09-09T13:51:48Z</time>
      </trkpt>
      <trkpt lat="43.43785" lon="6.02527">
        <ele>273.20001220703</ele>
        <time>2015-09-09T13:51:52Z</time>
      </trkpt>
      <trkpt lat="43.43785" lon="6.02532">
        <ele>273.20001220703</ele>
        <time>2015-09-09T13:51:54Z</time>
      </trkpt>
      <trkpt lat="43.43785" lon="6.02539">
        <ele>273.60000610352</ele>
        <time>2015-09-09T13:51:56Z</time>
      </trkpt>
      <trkpt lat="43.43786" lon="6.02543">
        <ele>273.20001220703</ele>
        <time>2015-09-09T13:51:57Z</time>
      </trkpt>
      <trkpt lat="43.43786" lon="6.02548">
        <ele>273</ele>
        <time>2015-09-09T13:51:58Z</time>
      </trkpt>
      <trkpt lat="43.43786" lon="6.02556">
        <ele>273</ele>
        <time>2015-09-09T13:52:00Z</time>
      </trkpt>
      <trkpt lat="43.43787" lon="6.02563">
        <ele>272.79998779297</ele>
        <time>2015-09-09T13:52:02Z</time>
      </trkpt>
      <trkpt lat="43.43788" lon="6.02571">
        <ele>272.79998779297</ele>
        <time>2015-09-09T13:52:04Z</time>
      </trkpt>
      <trkpt lat="43.43788" lon="6.0258">
        <ele>272.79998779297</ele>
        <time>2015-09-09T13:52:06Z</time>
      </trkpt>
      <trkpt lat="43.43789" lon="6.02585">
        <ele>272.79998779297</ele>
        <time>2015-09-09T13:52:07Z</time>
      </trkpt>
      <trkpt lat="43.43789" lon="6.0259">
        <ele>272.60000610352</ele>
        <time>2015-09-09T13:52:08Z</time>
      </trkpt>
      <trkpt lat="43.43788" lon="6.026">
        <ele>272.39999389648</ele>
        <time>2015-09-09T13:52:10Z</time>
      </trkpt>
      <trkpt lat="43.43787" lon="6.0261">
        <ele>272.79998779297</ele>
        <time>2015-09-09T13:52:12Z</time>
      </trkpt>
      <trkpt lat="43.43785" lon="6.02619">
        <ele>273</ele>
        <time>2015-09-09T13:52:14Z</time>
      </trkpt>
      <trkpt lat="43.43781" lon="6.02638">
        <ele>273</ele>
        <time>2015-09-09T13:52:18Z</time>
      </trkpt>
      <trkpt lat="43.43783" lon="6.02658">
        <ele>272.39999389648</ele>
        <time>2015-09-09T13:52:22Z</time>
      </trkpt>
      <trkpt lat="43.43782" lon="6.02664">
        <ele>272.20001220703</ele>
        <time>2015-09-09T13:52:23Z</time>
      </trkpt>
      <trkpt lat="43.43782" lon="6.02669">
        <ele>272</ele>
        <time>2015-09-09T13:52:24Z</time>
      </trkpt>
      <trkpt lat="43.43783" lon="6.02676">
        <ele>271.60000610352</ele>
        <time>2015-09-09T13:52:26Z</time>
      </trkpt>
      <trkpt lat="43.43782" lon="6.02683">
        <ele>271.20001220703</ele>
        <time>2015-09-09T13:52:28Z</time>
      </trkpt>
      <trkpt lat="43.43779" lon="6.02688">
        <ele>271.20001220703</ele>
        <time>2015-09-09T13:52:30Z</time>
      </trkpt>
      <trkpt lat="43.43774" lon="6.02695">
        <ele>271.39999389648</ele>
        <time>2015-09-09T13:52:32Z</time>
      </trkpt>
      <trkpt lat="43.43773" lon="6.02696">
        <ele>271.39999389648</ele>
        <time>2015-09-09T13:52:33Z</time>
      </trkpt>
      <trkpt lat="43.4377" lon="6.02697">
        <ele>271.79998779297</ele>
        <time>2015-09-09T13:52:34Z</time>
      </trkpt>
      <trkpt lat="43.43766" lon="6.02698">
        <ele>272</ele>
        <time>2015-09-09T13:52:36Z</time>
      </trkpt>
      <trkpt lat="43.43765" lon="6.027">
        <ele>272</ele>
        <time>2015-09-09T13:52:37Z</time>
      </trkpt>
      <trkpt lat="43.43764" lon="6.02703">
        <ele>272</ele>
        <time>2015-09-09T13:52:38Z</time>
      </trkpt>
      <trkpt lat="43.43764" lon="6.02705">
        <ele>272</ele>
        <time>2015-09-09T13:52:39Z</time>
      </trkpt>
      <trkpt lat="43.43766" lon="6.02707">
        <ele>272</ele>
        <time>2015-09-09T13:52:40Z</time>
      </trkpt>
      <trkpt lat="43.4377" lon="6.02713">
        <ele>271.60000610352</ele>
        <time>2015-09-09T13:52:42Z</time>
      </trkpt>
      <trkpt lat="43.43773" lon="6.02715">
        <ele>271.39999389648</ele>
        <time>2015-09-09T13:52:43Z</time>
      </trkpt>
      <trkpt lat="43.43782" lon="6.0272">
        <ele>270.79998779297</ele>
        <time>2015-09-09T13:52:46Z</time>
      </trkpt>
      <trkpt lat="43.43783" lon="6.02724">
        <ele>270.60000610352</ele>
        <time>2015-09-09T13:52:47Z</time>
      </trkpt>
      <trkpt lat="43.43784" lon="6.02729">
        <ele>270.39999389648</ele>
        <time>2015-09-09T13:52:48Z</time>
      </trkpt>
      <trkpt lat="43.43785" lon="6.02738">
        <ele>270.20001220703</ele>
        <time>2015-09-09T13:52:50Z</time>
      </trkpt>
      <trkpt lat="43.43785" lon="6.02747">
        <ele>270.20001220703</ele>
        <time>2015-09-09T13:52:52Z</time>
      </trkpt>
      <trkpt lat="43.43784" lon="6.02754">
        <ele>269.79998779297</ele>
        <time>2015-09-09T13:52:54Z</time>
      </trkpt>
      <trkpt lat="43.43783" lon="6.02758">
        <ele>270</ele>
        <time>2015-09-09T13:52:55Z</time>
      </trkpt>
      <trkpt lat="43.43783" lon="6.02763">
        <ele>270.39999389648</ele>
        <time>2015-09-09T13:52:56Z</time>
      </trkpt>
      <trkpt lat="43.43784" lon="6.02772">
        <ele>269.60000610352</ele>
        <time>2015-09-09T13:52:58Z</time>
      </trkpt>
      <trkpt lat="43.43787" lon="6.02781">
        <ele>269.20001220703</ele>
        <time>2015-09-09T13:53:00Z</time>
      </trkpt>
      <trkpt lat="43.43793" lon="6.02796">
        <ele>268.79998779297</ele>
        <time>2015-09-09T13:53:04Z</time>
      </trkpt>
      <trkpt lat="43.43798" lon="6.02802">
        <ele>268.79998779297</ele>
        <time>2015-09-09T13:53:06Z</time>
      </trkpt>
      <trkpt lat="43.43802" lon="6.0281">
        <ele>268.39999389648</ele>
        <time>2015-09-09T13:53:08Z</time>
      </trkpt>
      <trkpt lat="43.43805" lon="6.02821">
        <ele>267.39999389648</ele>
        <time>2015-09-09T13:53:10Z</time>
      </trkpt>
      <trkpt lat="43.43803" lon="6.02833">
        <ele>266.79998779297</ele>
        <time>2015-09-09T13:53:12Z</time>
      </trkpt>
      <trkpt lat="43.43801" lon="6.02843">
        <ele>266.79998779297</ele>
        <time>2015-09-09T13:53:14Z</time>
      </trkpt>
      <trkpt lat="43.43798" lon="6.02852">
        <ele>266.79998779297</ele>
        <time>2015-09-09T13:53:16Z</time>
      </trkpt>
      <trkpt lat="43.43795" lon="6.02862">
        <ele>266.79998779297</ele>
        <time>2015-09-09T13:53:18Z</time>
      </trkpt>
      <trkpt lat="43.43792" lon="6.02872">
        <ele>267.20001220703</ele>
        <time>2015-09-09T13:53:20Z</time>
      </trkpt>
      <trkpt lat="43.4379" lon="6.02882">
        <ele>267</ele>
        <time>2015-09-09T13:53:22Z</time>
      </trkpt>
      <trkpt lat="43.4379" lon="6.02893">
        <ele>266.60000610352</ele>
        <time>2015-09-09T13:53:24Z</time>
      </trkpt>
      <trkpt lat="43.43789" lon="6.02903">
        <ele>266.20001220703</ele>
        <time>2015-09-09T13:53:26Z</time>
      </trkpt>
      <trkpt lat="43.43791" lon="6.02913">
        <ele>266.20001220703</ele>
        <time>2015-09-09T13:53:28Z</time>
      </trkpt>
      <trkpt lat="43.43791" lon="6.02924">
        <ele>265.60000610352</ele>
        <time>2015-09-09T13:53:30Z</time>
      </trkpt>
      <trkpt lat="43.43789" lon="6.02936">
        <ele>265.60000610352</ele>
        <time>2015-09-09T13:53:32Z</time>
      </trkpt>
      <trkpt lat="43.43785" lon="6.02947">
        <ele>265.39999389648</ele>
        <time>2015-09-09T13:53:34Z</time>
      </trkpt>
      <trkpt lat="43.43783" lon="6.02958">
        <ele>265.39999389648</ele>
        <time>2015-09-09T13:53:36Z</time>
      </trkpt>
      <trkpt lat="43.43783" lon="6.02964">
        <ele>265.39999389648</ele>
        <time>2015-09-09T13:53:37Z</time>
      </trkpt>
      <trkpt lat="43.43783" lon="6.0297">
        <ele>265</ele>
        <time>2015-09-09T13:53:38Z</time>
      </trkpt>
      <trkpt lat="43.43782" lon="6.02981">
        <ele>264.20001220703</ele>
        <time>2015-09-09T13:53:40Z</time>
      </trkpt>
      <trkpt lat="43.43781" lon="6.02987">
        <ele>264.60000610352</ele>
        <time>2015-09-09T13:53:41Z</time>
      </trkpt>
      <trkpt lat="43.43778" lon="6.02992">
        <ele>264.79998779297</ele>
        <time>2015-09-09T13:53:42Z</time>
      </trkpt>
      <trkpt lat="43.43773" lon="6.03002">
        <ele>264.60000610352</ele>
        <time>2015-09-09T13:53:44Z</time>
      </trkpt>
      <trkpt lat="43.43771" lon="6.03007">
        <ele>264.39999389648</ele>
        <time>2015-09-09T13:53:45Z</time>
      </trkpt>
      <trkpt lat="43.43765" lon="6.03017">
        <ele>264.60000610352</ele>
        <time>2015-09-09T13:53:47Z</time>
      </trkpt>
      <trkpt lat="43.43763" lon="6.03023">
        <ele>264.60000610352</ele>
        <time>2015-09-09T13:53:48Z</time>
      </trkpt>
      <trkpt lat="43.43761" lon="6.03028">
        <ele>264.60000610352</ele>
        <time>2015-09-09T13:53:49Z</time>
      </trkpt>
      <trkpt lat="43.43758" lon="6.03032">
        <ele>264.39999389648</ele>
        <time>2015-09-09T13:53:50Z</time>
      </trkpt>
      <trkpt lat="43.43751" lon="6.03037">
        <ele>265.20001220703</ele>
        <time>2015-09-09T13:53:52Z</time>
      </trkpt>
      <trkpt lat="43.43744" lon="6.0304">
        <ele>265</ele>
        <time>2015-09-09T13:53:54Z</time>
      </trkpt>
      <trkpt lat="43.43741" lon="6.03042">
        <ele>265.20001220703</ele>
        <time>2015-09-09T13:53:55Z</time>
      </trkpt>
      <trkpt lat="43.43738" lon="6.03044">
        <ele>265.39999389648</ele>
        <time>2015-09-09T13:53:56Z</time>
      </trkpt>
      <trkpt lat="43.43732" lon="6.03048">
        <ele>265.79998779297</ele>
        <time>2015-09-09T13:53:58Z</time>
      </trkpt>
      <trkpt lat="43.43725" lon="6.03053">
        <ele>266.20001220703</ele>
        <time>2015-09-09T13:54:00Z</time>
      </trkpt>
      <trkpt lat="43.43722" lon="6.03055">
        <ele>266.39999389648</ele>
        <time>2015-09-09T13:54:01Z</time>
      </trkpt>
      <trkpt lat="43.43719" lon="6.03058">
        <ele>266.60000610352</ele>
        <time>2015-09-09T13:54:02Z</time>
      </trkpt>
      <trkpt lat="43.43713" lon="6.03061">
        <ele>267</ele>
        <time>2015-09-09T13:54:04Z</time>
      </trkpt>
      <trkpt lat="43.4371" lon="6.03063">
        <ele>267.20001220703</ele>
        <time>2015-09-09T13:54:05Z</time>
      </trkpt>
      <trkpt lat="43.43707" lon="6.03066">
        <ele>267.39999389648</ele>
        <time>2015-09-09T13:54:06Z</time>
      </trkpt>
      <trkpt lat="43.43702" lon="6.03073">
        <ele>267.39999389648</ele>
        <time>2015-09-09T13:54:08Z</time>
      </trkpt>
      <trkpt lat="43.43698" lon="6.03083">
        <ele>267.79998779297</ele>
        <time>2015-09-09T13:54:10Z</time>
      </trkpt>
      <trkpt lat="43.43696" lon="6.03093">
        <ele>267.79998779297</ele>
        <time>2015-09-09T13:54:12Z</time>
      </trkpt>
      <trkpt lat="43.43694" lon="6.03105">
        <ele>267.79998779297</ele>
        <time>2015-09-09T13:54:14Z</time>
      </trkpt>
      <trkpt lat="43.43692" lon="6.03116">
        <ele>268</ele>
        <time>2015-09-09T13:54:16Z</time>
      </trkpt>
      <trkpt lat="43.43692" lon="6.03128">
        <ele>268</ele>
        <time>2015-09-09T13:54:18Z</time>
      </trkpt>
      <trkpt lat="43.43692" lon="6.03139">
        <ele>268.39999389648</ele>
        <time>2015-09-09T13:54:20Z</time>
      </trkpt>
      <trkpt lat="43.43692" lon="6.0315">
        <ele>267.60000610352</ele>
        <time>2015-09-09T13:54:22Z</time>
      </trkpt>
      <trkpt lat="43.43692" lon="6.03161">
        <ele>268.20001220703</ele>
        <time>2015-09-09T13:54:24Z</time>
      </trkpt>
      <trkpt lat="43.43692" lon="6.03184">
        <ele>268.20001220703</ele>
        <time>2015-09-09T13:54:28Z</time>
      </trkpt>
      <trkpt lat="43.4369" lon="6.03196">
        <ele>268</ele>
        <time>2015-09-09T13:54:30Z</time>
      </trkpt>
      <trkpt lat="43.43687" lon="6.03207">
        <ele>267.60000610352</ele>
        <time>2015-09-09T13:54:32Z</time>
      </trkpt>
      <trkpt lat="43.43686" lon="6.03213">
        <ele>267</ele>
        <time>2015-09-09T13:54:33Z</time>
      </trkpt>
      <trkpt lat="43.43685" lon="6.03219">
        <ele>266.60000610352</ele>
        <time>2015-09-09T13:54:34Z</time>
      </trkpt>
      <trkpt lat="43.43685" lon="6.03231">
        <ele>267</ele>
        <time>2015-09-09T13:54:36Z</time>
      </trkpt>
      <trkpt lat="43.43686" lon="6.03242">
        <ele>267.20001220703</ele>
        <time>2015-09-09T13:54:38Z</time>
      </trkpt>
      <trkpt lat="43.43685" lon="6.03252">
        <ele>266.39999389648</ele>
        <time>2015-09-09T13:54:40Z</time>
      </trkpt>
      <trkpt lat="43.43684" lon="6.03257">
        <ele>266.60000610352</ele>
        <time>2015-09-09T13:54:41Z</time>
      </trkpt>
      <trkpt lat="43.43683" lon="6.03263">
        <ele>267</ele>
        <time>2015-09-09T13:54:42Z</time>
      </trkpt>
      <trkpt lat="43.43679" lon="6.03275">
        <ele>267</ele>
        <time>2015-09-09T13:54:44Z</time>
      </trkpt>
      <trkpt lat="43.43676" lon="6.03286">
        <ele>267.20001220703</ele>
        <time>2015-09-09T13:54:46Z</time>
      </trkpt>
      <trkpt lat="43.43673" lon="6.03291">
        <ele>267.20001220703</ele>
        <time>2015-09-09T13:54:47Z</time>
      </trkpt>
      <trkpt lat="43.43664" lon="6.03303">
        <ele>266.60000610352</ele>
        <time>2015-09-09T13:54:50Z</time>
      </trkpt>
      <trkpt lat="43.43661" lon="6.03313">
        <ele>266.20001220703</ele>
        <time>2015-09-09T13:54:52Z</time>
      </trkpt>
      <trkpt lat="43.43659" lon="6.03321">
        <ele>266</ele>
        <time>2015-09-09T13:54:54Z</time>
      </trkpt>
      <trkpt lat="43.43654" lon="6.03334">
        <ele>266.39999389648</ele>
        <time>2015-09-09T13:54:58Z</time>
      </trkpt>
      <trkpt lat="43.43652" lon="6.03339">
        <ele>266.60000610352</ele>
        <time>2015-09-09T13:55:00Z</time>
      </trkpt>
      <trkpt lat="43.43649" lon="6.03344">
        <ele>267</ele>
        <time>2015-09-09T13:55:02Z</time>
      </trkpt>
      <trkpt lat="43.43645" lon="6.03351">
        <ele>267</ele>
        <time>2015-09-09T13:55:04Z</time>
      </trkpt>
      <trkpt lat="43.4364" lon="6.03364">
        <ele>267</ele>
        <time>2015-09-09T13:55:07Z</time>
      </trkpt>
      <trkpt lat="43.43638" lon="6.03368">
        <ele>267</ele>
        <time>2015-09-09T13:55:08Z</time>
      </trkpt>
      <trkpt lat="43.43636" lon="6.03372">
        <ele>266.79998779297</ele>
        <time>2015-09-09T13:55:09Z</time>
      </trkpt>
      <trkpt lat="43.43633" lon="6.03377">
        <ele>266.60000610352</ele>
        <time>2015-09-09T13:55:10Z</time>
      </trkpt>
      <trkpt lat="43.43628" lon="6.03385">
        <ele>266.39999389648</ele>
        <time>2015-09-09T13:55:12Z</time>
      </trkpt>
      <trkpt lat="43.43626" lon="6.0339">
        <ele>266.60000610352</ele>
        <time>2015-09-09T13:55:13Z</time>
      </trkpt>
      <trkpt lat="43.43625" lon="6.03394">
        <ele>266.60000610352</ele>
        <time>2015-09-09T13:55:14Z</time>
      </trkpt>
      <trkpt lat="43.43625" lon="6.03403">
        <ele>267</ele>
        <time>2015-09-09T13:55:16Z</time>
      </trkpt>
      <trkpt lat="43.43625" lon="6.03407">
        <ele>267</ele>
        <time>2015-09-09T13:55:17Z</time>
      </trkpt>
      <trkpt lat="43.43625" lon="6.03412">
        <ele>267.39999389648</ele>
        <time>2015-09-09T13:55:18Z</time>
      </trkpt>
      <trkpt lat="43.43624" lon="6.03433">
        <ele>267.60000610352</ele>
        <time>2015-09-09T13:55:22Z</time>
      </trkpt>
      <trkpt lat="43.43623" lon="6.03446">
        <ele>267.20001220703</ele>
        <time>2015-09-09T13:55:24Z</time>
      </trkpt>
      <trkpt lat="43.4362" lon="6.03459">
        <ele>266.60000610352</ele>
        <time>2015-09-09T13:55:26Z</time>
      </trkpt>
      <trkpt lat="43.43614" lon="6.03478">
        <ele>265.60000610352</ele>
        <time>2015-09-09T13:55:29Z</time>
      </trkpt>
      <trkpt lat="43.43612" lon="6.03485">
        <ele>265.60000610352</ele>
        <time>2015-09-09T13:55:30Z</time>
      </trkpt>
      <trkpt lat="43.43608" lon="6.03515">
        <ele>265.20001220703</ele>
        <time>2015-09-09T13:55:34Z</time>
      </trkpt>
      <trkpt lat="43.43606" lon="6.03522">
        <ele>264.60000610352</ele>
        <time>2015-09-09T13:55:35Z</time>
      </trkpt>
      <trkpt lat="43.43604" lon="6.0353">
        <ele>264.39999389648</ele>
        <time>2015-09-09T13:55:36Z</time>
      </trkpt>
      <trkpt lat="43.43602" lon="6.03537">
        <ele>264.60000610352</ele>
        <time>2015-09-09T13:55:37Z</time>
      </trkpt>
      <trkpt lat="43.43599" lon="6.03544">
        <ele>264.39999389648</ele>
        <time>2015-09-09T13:55:38Z</time>
      </trkpt>
      <trkpt lat="43.43593" lon="6.03555">
        <ele>264.39999389648</ele>
        <time>2015-09-09T13:55:40Z</time>
      </trkpt>
      <trkpt lat="43.43587" lon="6.03567">
        <ele>264.60000610352</ele>
        <time>2015-09-09T13:55:42Z</time>
      </trkpt>
      <trkpt lat="43.43584" lon="6.0358">
        <ele>264.20001220703</ele>
        <time>2015-09-09T13:55:44Z</time>
      </trkpt>
      <trkpt lat="43.43583" lon="6.03586">
        <ele>264</ele>
        <time>2015-09-09T13:55:45Z</time>
      </trkpt>
      <trkpt lat="43.43583" lon="6.03592">
        <ele>263.79998779297</ele>
        <time>2015-09-09T13:55:46Z</time>
      </trkpt>
      <trkpt lat="43.43583" lon="6.03605">
        <ele>263.79998779297</ele>
        <time>2015-09-09T13:55:48Z</time>
      </trkpt>
      <trkpt lat="43.43583" lon="6.03616">
        <ele>264</ele>
        <time>2015-09-09T13:55:50Z</time>
      </trkpt>
      <trkpt lat="43.43583" lon="6.03628">
        <ele>263.79998779297</ele>
        <time>2015-09-09T13:55:52Z</time>
      </trkpt>
      <trkpt lat="43.4358" lon="6.03646">
        <ele>264.20001220703</ele>
        <time>2015-09-09T13:55:55Z</time>
      </trkpt>
      <trkpt lat="43.43579" lon="6.03652">
        <ele>264.39999389648</ele>
        <time>2015-09-09T13:55:56Z</time>
      </trkpt>
      <trkpt lat="43.43578" lon="6.03664">
        <ele>264.39999389648</ele>
        <time>2015-09-09T13:55:58Z</time>
      </trkpt>
      <trkpt lat="43.43576" lon="6.03676">
        <ele>264.20001220703</ele>
        <time>2015-09-09T13:56:00Z</time>
      </trkpt>
      <trkpt lat="43.43573" lon="6.03688">
        <ele>264.60000610352</ele>
        <time>2015-09-09T13:56:02Z</time>
      </trkpt>
      <trkpt lat="43.43571" lon="6.03699">
        <ele>264</ele>
        <time>2015-09-09T13:56:04Z</time>
      </trkpt>
      <trkpt lat="43.43571" lon="6.0371">
        <ele>264.39999389648</ele>
        <time>2015-09-09T13:56:06Z</time>
      </trkpt>
      <trkpt lat="43.43571" lon="6.0372">
        <ele>264.60000610352</ele>
        <time>2015-09-09T13:56:08Z</time>
      </trkpt>
      <trkpt lat="43.43572" lon="6.03741">
        <ele>265</ele>
        <time>2015-09-09T13:56:12Z</time>
      </trkpt>
      <trkpt lat="43.43572" lon="6.0375">
        <ele>265.39999389648</ele>
        <time>2015-09-09T13:56:14Z</time>
      </trkpt>
      <trkpt lat="43.43571" lon="6.03754">
        <ele>265.60000610352</ele>
        <time>2015-09-09T13:56:15Z</time>
      </trkpt>
      <trkpt lat="43.43571" lon="6.03759">
        <ele>265.60000610352</ele>
        <time>2015-09-09T13:56:16Z</time>
      </trkpt>
      <trkpt lat="43.43573" lon="6.03765">
        <ele>266.20001220703</ele>
        <time>2015-09-09T13:56:18Z</time>
      </trkpt>
      <trkpt lat="43.43571" lon="6.03769">
        <ele>266.39999389648</ele>
        <time>2015-09-09T13:56:20Z</time>
      </trkpt>
      <trkpt lat="43.4357" lon="6.03772">
        <ele>266.20001220703</ele>
        <time>2015-09-09T13:56:22Z</time>
      </trkpt>
      <trkpt lat="43.4357" lon="6.03774">
        <ele>266.20001220703</ele>
        <time>2015-09-09T13:56:24Z</time>
      </trkpt>
      <trkpt lat="43.43571" lon="6.03774">
        <ele>266.20001220703</ele>
        <time>2015-09-09T13:56:26Z</time>
      </trkpt>
      <trkpt lat="43.43571" lon="6.03774">
        <ele>266.39999389648</ele>
        <time>2015-09-09T13:56:30Z</time>
      </trkpt>
      <trkpt lat="43.43571" lon="6.03774">
        <ele>266.60000610352</ele>
        <time>2015-09-09T13:56:32Z</time>
      </trkpt>
      <trkpt lat="43.43571" lon="6.03774">
        <ele>266.60000610352</ele>
        <time>2015-09-09T13:56:44Z</time>
      </trkpt>
      <trkpt lat="43.43571" lon="6.03774">
        <ele>266.60000610352</ele>
        <time>2015-09-09T13:56:48Z</time>
      </trkpt>
      <trkpt lat="43.43571" lon="6.03774">
        <ele>266.39999389648</ele>
        <time>2015-09-09T13:56:52Z</time>
      </trkpt>
      <trkpt lat="43.43571" lon="6.03774">
        <ele>266.20001220703</ele>
        <time>2015-09-09T13:57:02Z</time>
      </trkpt>
      <trkpt lat="43.43571" lon="6.03774">
        <ele>266.39999389648</ele>
        <time>2015-09-09T13:57:06Z</time>
      </trkpt>
      <trkpt lat="43.43571" lon="6.03774">
        <ele>266.39999389648</ele>
        <time>2015-09-09T13:57:08Z</time>
      </trkpt>
      <trkpt lat="43.43571" lon="6.03774">
        <ele>266.39999389648</ele>
        <time>2015-09-09T13:57:10Z</time>
      </trkpt>
      <trkpt lat="43.43571" lon="6.03774">
        <ele>266.39999389648</ele>
        <time>2015-09-09T13:57:12Z</time>
      </trkpt>
      <trkpt lat="43.43571" lon="6.03774">
        <ele>266.39999389648</ele>
        <time>2015-09-09T13:57:16Z</time>
      </trkpt>
      <trkpt lat="43.43571" lon="6.03775">
        <ele>266.39999389648</ele>
        <time>2015-09-09T13:57:52Z</time>
      </trkpt>
      <trkpt lat="43.43571" lon="6.03775">
        <ele>266.39999389648</ele>
        <time>2015-09-09T13:58:10Z</time>
      </trkpt>
      <trkpt lat="43.43571" lon="6.03775">
        <ele>266.20001220703</ele>
        <time>2015-09-09T13:58:18Z</time>
      </trkpt>
      <trkpt lat="43.43571" lon="6.03775">
        <ele>266.20001220703</ele>
        <time>2015-09-09T13:58:20Z</time>
      </trkpt>
      <trkpt lat="43.43571" lon="6.03775">
        <ele>266.39999389648</ele>
        <time>2015-09-09T13:58:24Z</time>
      </trkpt>
      <trkpt lat="43.43571" lon="6.03775">
        <ele>266.20001220703</ele>
        <time>2015-09-09T13:58:36Z</time>
      </trkpt>
      <trkpt lat="43.43571" lon="6.03775">
        <ele>266.39999389648</ele>
        <time>2015-09-09T13:58:42Z</time>
      </trkpt>
      <trkpt lat="43.43571" lon="6.03775">
        <ele>266.20001220703</ele>
        <time>2015-09-09T13:59:12Z</time>
      </trkpt>
      <trkpt lat="43.43571" lon="6.03776">
        <ele>266.39999389648</ele>
        <time>2015-09-09T13:59:26Z</time>
      </trkpt>
      <trkpt lat="43.43571" lon="6.03776">
        <ele>266.39999389648</ele>
        <time>2015-09-09T13:59:29Z</time>
      </trkpt>
      <trkpt lat="43.43571" lon="6.03776">
        <ele>266.39999389648</ele>
        <time>2015-09-09T13:59:30Z</time>
      </trkpt>
      <trkpt lat="43.43571" lon="6.03776">
        <ele>266.39999389648</ele>
        <time>2015-09-09T13:59:36Z</time>
      </trkpt>
      <trkpt lat="43.43571" lon="6.03776">
        <ele>266.20001220703</ele>
        <time>2015-09-09T13:59:38Z</time>
      </trkpt>
      <trkpt lat="43.43571" lon="6.03776">
        <ele>266.20001220703</ele>
        <time>2015-09-09T13:59:40Z</time>
      </trkpt>
      <trkpt lat="43.43571" lon="6.03776">
        <ele>266.39999389648</ele>
        <time>2015-09-09T13:59:46Z</time>
      </trkpt>
      <trkpt lat="43.43571" lon="6.03776">
        <ele>266.20001220703</ele>
        <time>2015-09-09T13:59:54Z</time>
      </trkpt>
      <trkpt lat="43.43571" lon="6.03776">
        <ele>266</ele>
        <time>2015-09-09T13:59:56Z</time>
      </trkpt>
      <trkpt lat="43.43571" lon="6.03776">
        <ele>266</ele>
        <time>2015-09-09T13:59:58Z</time>
      </trkpt>
      <trkpt lat="43.43571" lon="6.03776">
        <ele>266.20001220703</ele>
        <time>2015-09-09T14:00:00Z</time>
      </trkpt>
      <trkpt lat="43.43571" lon="6.03776">
        <ele>266.39999389648</ele>
        <time>2015-09-09T14:00:02Z</time>
      </trkpt>
      <trkpt lat="43.43571" lon="6.03776">
        <ele>266.39999389648</ele>
        <time>2015-09-09T14:00:06Z</time>
      </trkpt>
      <trkpt lat="43.43571" lon="6.03776">
        <ele>266.20001220703</ele>
        <time>2015-09-09T14:00:08Z</time>
      </trkpt>
      <trkpt lat="43.43571" lon="6.03776">
        <ele>266.20001220703</ele>
        <time>2015-09-09T14:00:11Z</time>
      </trkpt>
      <trkpt lat="43.43571" lon="6.03776">
        <ele>266.39999389648</ele>
        <time>2015-09-09T14:00:12Z</time>
      </trkpt>
      <trkpt lat="43.43571" lon="6.03776">
        <ele>266.20001220703</ele>
        <time>2015-09-09T14:00:18Z</time>
      </trkpt>
      <trkpt lat="43.43571" lon="6.03776">
        <ele>266.20001220703</ele>
        <time>2015-09-09T14:00:26Z</time>
      </trkpt>
      <trkpt lat="43.43571" lon="6.03776">
        <ele>266.20001220703</ele>
        <time>2015-09-09T14:00:28Z</time>
      </trkpt>
      <trkpt lat="43.43572" lon="6.03776">
        <ele>266.39999389648</ele>
        <time>2015-09-09T14:00:30Z</time>
      </trkpt>
      <trkpt lat="43.43571" lon="6.03776">
        <ele>266.39999389648</ele>
        <time>2015-09-09T14:00:32Z</time>
      </trkpt>
      <trkpt lat="43.43571" lon="6.03776">
        <ele>266.39999389648</ele>
        <time>2015-09-09T14:00:36Z</time>
      </trkpt>
      <trkpt lat="43.43571" lon="6.03776">
        <ele>266.60000610352</ele>
        <time>2015-09-09T14:00:38Z</time>
      </trkpt>
      <trkpt lat="43.43572" lon="6.03776">
        <ele>266.60000610352</ele>
        <time>2015-09-09T14:00:40Z</time>
      </trkpt>
      <trkpt lat="43.43572" lon="6.03776">
        <ele>266.60000610352</ele>
        <time>2015-09-09T14:00:42Z</time>
      </trkpt>
      <trkpt lat="43.43572" lon="6.03776">
        <ele>266.39999389648</ele>
        <time>2015-09-09T14:00:44Z</time>
      </trkpt>
      <trkpt lat="43.43572" lon="6.03776">
        <ele>266.39999389648</ele>
        <time>2015-09-09T14:00:48Z</time>
      </trkpt>
      <trkpt lat="43.43572" lon="6.03776">
        <ele>266</ele>
        <time>2015-09-09T14:00:56Z</time>
      </trkpt>
      <trkpt lat="43.43572" lon="6.03776">
        <ele>266.20001220703</ele>
        <time>2015-09-09T14:01:12Z</time>
      </trkpt>
      <trkpt lat="43.43572" lon="6.03776">
        <ele>266.20001220703</ele>
        <time>2015-09-09T14:01:16Z</time>
      </trkpt>
      <trkpt lat="43.43572" lon="6.03776">
        <ele>266.20001220703</ele>
        <time>2015-09-09T14:01:17Z</time>
      </trkpt>
      <trkpt lat="43.43572" lon="6.03776">
        <ele>266.39999389648</ele>
        <time>2015-09-09T14:01:18Z</time>
      </trkpt>
      <trkpt lat="43.43572" lon="6.03777">
        <ele>266.39999389648</ele>
        <time>2015-09-09T14:01:20Z</time>
      </trkpt>
      <trkpt lat="43.43572" lon="6.03777">
        <ele>266.39999389648</ele>
        <time>2015-09-09T14:01:22Z</time>
      </trkpt>
      <trkpt lat="43.43572" lon="6.03777">
        <ele>266.39999389648</ele>
        <time>2015-09-09T14:01:24Z</time>
      </trkpt>
      <trkpt lat="43.43572" lon="6.0378">
        <ele>266.60000610352</ele>
        <time>2015-09-09T14:01:26Z</time>
      </trkpt>
      <trkpt lat="43.43572" lon="6.03782">
        <ele>266.60000610352</ele>
        <time>2015-09-09T14:01:27Z</time>
      </trkpt>
      <trkpt lat="43.43572" lon="6.03784">
        <ele>266.79998779297</ele>
        <time>2015-09-09T14:01:28Z</time>
      </trkpt>
      <trkpt lat="43.43573" lon="6.03787">
        <ele>266.79998779297</ele>
        <time>2015-09-09T14:01:29Z</time>
      </trkpt>
      <trkpt lat="43.43573" lon="6.0379">
        <ele>266.79998779297</ele>
        <time>2015-09-09T14:01:30Z</time>
      </trkpt>
      <trkpt lat="43.43573" lon="6.03792">
        <ele>266.79998779297</ele>
        <time>2015-09-09T14:01:31Z</time>
      </trkpt>
      <trkpt lat="43.43578" lon="6.03802">
        <ele>266.39999389648</ele>
        <time>2015-09-09T14:01:34Z</time>
      </trkpt>
      <trkpt lat="43.43581" lon="6.03812">
        <ele>266</ele>
        <time>2015-09-09T14:01:36Z</time>
      </trkpt>
      <trkpt lat="43.43582" lon="6.03817">
        <ele>265.60000610352</ele>
        <time>2015-09-09T14:01:37Z</time>
      </trkpt>
      <trkpt lat="43.43583" lon="6.03823">
        <ele>265.60000610352</ele>
        <time>2015-09-09T14:01:38Z</time>
      </trkpt>
      <trkpt lat="43.43584" lon="6.03834">
        <ele>265</ele>
        <time>2015-09-09T14:01:40Z</time>
      </trkpt>
      <trkpt lat="43.43584" lon="6.03839">
        <ele>264.79998779297</ele>
        <time>2015-09-09T14:01:41Z</time>
      </trkpt>
      <trkpt lat="43.43584" lon="6.03845">
        <ele>264.60000610352</ele>
        <time>2015-09-09T14:01:42Z</time>
      </trkpt>
      <trkpt lat="43.43583" lon="6.03856">
        <ele>264.39999389648</ele>
        <time>2015-09-09T14:01:44Z</time>
      </trkpt>
      <trkpt lat="43.43583" lon="6.03862">
        <ele>264.20001220703</ele>
        <time>2015-09-09T14:01:45Z</time>
      </trkpt>
      <trkpt lat="43.43583" lon="6.03869">
        <ele>264</ele>
        <time>2015-09-09T14:01:46Z</time>
      </trkpt>
      <trkpt lat="43.43583" lon="6.03882">
        <ele>263.39999389648</ele>
        <time>2015-09-09T14:01:48Z</time>
      </trkpt>
      <trkpt lat="43.43584" lon="6.03894">
        <ele>263</ele>
        <time>2015-09-09T14:01:50Z</time>
      </trkpt>
      <trkpt lat="43.43587" lon="6.03906">
        <ele>262.39999389648</ele>
        <time>2015-09-09T14:01:52Z</time>
      </trkpt>
      <trkpt lat="43.43591" lon="6.03918">
        <ele>262.20001220703</ele>
        <time>2015-09-09T14:01:54Z</time>
      </trkpt>
      <trkpt lat="43.43596" lon="6.0393">
        <ele>262.60000610352</ele>
        <time>2015-09-09T14:01:56Z</time>
      </trkpt>
      <trkpt lat="43.436" lon="6.03943">
        <ele>261.79998779297</ele>
        <time>2015-09-09T14:01:58Z</time>
      </trkpt>
      <trkpt lat="43.43602" lon="6.03949">
        <ele>261.79998779297</ele>
        <time>2015-09-09T14:01:59Z</time>
      </trkpt>
      <trkpt lat="43.43603" lon="6.03956">
        <ele>261.60000610352</ele>
        <time>2015-09-09T14:02:00Z</time>
      </trkpt>
      <trkpt lat="43.43604" lon="6.03967">
        <ele>262.39999389648</ele>
        <time>2015-09-09T14:02:02Z</time>
      </trkpt>
      <trkpt lat="43.43603" lon="6.03974">
        <ele>263.39999389648</ele>
        <time>2015-09-09T14:02:04Z</time>
      </trkpt>
      <trkpt lat="43.43602" lon="6.03977">
        <ele>264</ele>
        <time>2015-09-09T14:02:05Z</time>
      </trkpt>
      <trkpt lat="43.43602" lon="6.03982">
        <ele>264</ele>
        <time>2015-09-09T14:02:06Z</time>
      </trkpt>
      <trkpt lat="43.43601" lon="6.03986">
        <ele>264.20001220703</ele>
        <time>2015-09-09T14:02:07Z</time>
      </trkpt>
      <trkpt lat="43.43599" lon="6.03994">
        <ele>264.79998779297</ele>
        <time>2015-09-09T14:02:09Z</time>
      </trkpt>
      <trkpt lat="43.43594" lon="6.0401">
        <ele>264.20001220703</ele>
        <time>2015-09-09T14:02:12Z</time>
      </trkpt>
      <trkpt lat="43.43592" lon="6.04016">
        <ele>264</ele>
        <time>2015-09-09T14:02:13Z</time>
      </trkpt>
      <trkpt lat="43.43583" lon="6.04032">
        <ele>263.39999389648</ele>
        <time>2015-09-09T14:02:16Z</time>
      </trkpt>
      <trkpt lat="43.43576" lon="6.04044">
        <ele>263</ele>
        <time>2015-09-09T14:02:18Z</time>
      </trkpt>
      <trkpt lat="43.4357" lon="6.04056">
        <ele>262.39999389648</ele>
        <time>2015-09-09T14:02:20Z</time>
      </trkpt>
      <trkpt lat="43.43564" lon="6.04068">
        <ele>261.79998779297</ele>
        <time>2015-09-09T14:02:22Z</time>
      </trkpt>
      <trkpt lat="43.4356" lon="6.04082">
        <ele>261.39999389648</ele>
        <time>2015-09-09T14:02:24Z</time>
      </trkpt>
      <trkpt lat="43.43555" lon="6.04096">
        <ele>261.39999389648</ele>
        <time>2015-09-09T14:02:26Z</time>
      </trkpt>
      <trkpt lat="43.43551" lon="6.04109">
        <ele>261.20001220703</ele>
        <time>2015-09-09T14:02:28Z</time>
      </trkpt>
      <trkpt lat="43.43546" lon="6.04122">
        <ele>261.39999389648</ele>
        <time>2015-09-09T14:02:30Z</time>
      </trkpt>
      <trkpt lat="43.43541" lon="6.04134">
        <ele>261.39999389648</ele>
        <time>2015-09-09T14:02:32Z</time>
      </trkpt>
      <trkpt lat="43.43536" lon="6.04146">
        <ele>261.60000610352</ele>
        <time>2015-09-09T14:02:34Z</time>
      </trkpt>
      <trkpt lat="43.43534" lon="6.04153">
        <ele>261.20001220703</ele>
        <time>2015-09-09T14:02:35Z</time>
      </trkpt>
      <trkpt lat="43.43533" lon="6.04161">
        <ele>261</ele>
        <time>2015-09-09T14:02:36Z</time>
      </trkpt>
      <trkpt lat="43.43534" lon="6.04178">
        <ele>260.39999389648</ele>
        <time>2015-09-09T14:02:38Z</time>
      </trkpt>
      <trkpt lat="43.43538" lon="6.04195">
        <ele>259.39999389648</ele>
        <time>2015-09-09T14:02:40Z</time>
      </trkpt>
      <trkpt lat="43.43538" lon="6.04203">
        <ele>258.79998779297</ele>
        <time>2015-09-09T14:02:41Z</time>
      </trkpt>
      <trkpt lat="43.43537" lon="6.04213">
        <ele>258.60000610352</ele>
        <time>2015-09-09T14:02:42Z</time>
      </trkpt>
      <trkpt lat="43.43534" lon="6.0422">
        <ele>258.20001220703</ele>
        <time>2015-09-09T14:02:43Z</time>
      </trkpt>
      <trkpt lat="43.43531" lon="6.04227">
        <ele>258.20001220703</ele>
        <time>2015-09-09T14:02:44Z</time>
      </trkpt>
      <trkpt lat="43.43528" lon="6.04233">
        <ele>258.39999389648</ele>
        <time>2015-09-09T14:02:45Z</time>
      </trkpt>
      <trkpt lat="43.43519" lon="6.04241">
        <ele>258.20001220703</ele>
        <time>2015-09-09T14:02:47Z</time>
      </trkpt>
      <trkpt lat="43.43515" lon="6.04245">
        <ele>258.20001220703</ele>
        <time>2015-09-09T14:02:48Z</time>
      </trkpt>
      <trkpt lat="43.43508" lon="6.04254">
        <ele>258.79998779297</ele>
        <time>2015-09-09T14:02:50Z</time>
      </trkpt>
      <trkpt lat="43.43505" lon="6.04259">
        <ele>259</ele>
        <time>2015-09-09T14:02:51Z</time>
      </trkpt>
      <trkpt lat="43.43502" lon="6.04265">
        <ele>259</ele>
        <time>2015-09-09T14:02:52Z</time>
      </trkpt>
      <trkpt lat="43.43499" lon="6.04278">
        <ele>259</ele>
        <time>2015-09-09T14:02:54Z</time>
      </trkpt>
      <trkpt lat="43.43494" lon="6.04296">
        <ele>259.39999389648</ele>
        <time>2015-09-09T14:02:57Z</time>
      </trkpt>
      <trkpt lat="43.43494" lon="6.04303">
        <ele>259.60000610352</ele>
        <time>2015-09-09T14:02:58Z</time>
      </trkpt>
      <trkpt lat="43.43492" lon="6.04315">
        <ele>259.79998779297</ele>
        <time>2015-09-09T14:03:00Z</time>
      </trkpt>
      <trkpt lat="43.43492" lon="6.04321">
        <ele>259.79998779297</ele>
        <time>2015-09-09T14:03:01Z</time>
      </trkpt>
      <trkpt lat="43.43491" lon="6.04327">
        <ele>259.79998779297</ele>
        <time>2015-09-09T14:03:02Z</time>
      </trkpt>
      <trkpt lat="43.43491" lon="6.04339">
        <ele>260</ele>
        <time>2015-09-09T14:03:04Z</time>
      </trkpt>
      <trkpt lat="43.4349" lon="6.0435">
        <ele>260.60000610352</ele>
        <time>2015-09-09T14:03:06Z</time>
      </trkpt>
      <trkpt lat="43.43489" lon="6.04361">
        <ele>260.60000610352</ele>
        <time>2015-09-09T14:03:08Z</time>
      </trkpt>
      <trkpt lat="43.43487" lon="6.04386">
        <ele>260.60000610352</ele>
        <time>2015-09-09T14:03:12Z</time>
      </trkpt>
      <trkpt lat="43.43487" lon="6.04399">
        <ele>260.39999389648</ele>
        <time>2015-09-09T14:03:14Z</time>
      </trkpt>
      <trkpt lat="43.43487" lon="6.04412">
        <ele>260.20001220703</ele>
        <time>2015-09-09T14:03:16Z</time>
      </trkpt>
      <trkpt lat="43.4349" lon="6.0444">
        <ele>259.79998779297</ele>
        <time>2015-09-09T14:03:20Z</time>
      </trkpt>
      <trkpt lat="43.43489" lon="6.04446">
        <ele>259.79998779297</ele>
        <time>2015-09-09T14:03:21Z</time>
      </trkpt>
      <trkpt lat="43.43488" lon="6.04466">
        <ele>259.39999389648</ele>
        <time>2015-09-09T14:03:24Z</time>
      </trkpt>
      <trkpt lat="43.43488" lon="6.0448">
        <ele>259.20001220703</ele>
        <time>2015-09-09T14:03:26Z</time>
      </trkpt>
      <trkpt lat="43.43488" lon="6.04486">
        <ele>259.20001220703</ele>
        <time>2015-09-09T14:03:27Z</time>
      </trkpt>
      <trkpt lat="43.43488" lon="6.04493">
        <ele>259.20001220703</ele>
        <time>2015-09-09T14:03:28Z</time>
      </trkpt>
      <trkpt lat="43.43486" lon="6.04505">
        <ele>258.60000610352</ele>
        <time>2015-09-09T14:03:30Z</time>
      </trkpt>
      <trkpt lat="43.43482" lon="6.04522">
        <ele>258.60000610352</ele>
        <time>2015-09-09T14:03:33Z</time>
      </trkpt>
      <trkpt lat="43.43475" lon="6.04539">
        <ele>258.39999389648</ele>
        <time>2015-09-09T14:03:36Z</time>
      </trkpt>
      <trkpt lat="43.43468" lon="6.04555">
        <ele>259</ele>
        <time>2015-09-09T14:03:39Z</time>
      </trkpt>
      <trkpt lat="43.43467" lon="6.04561">
        <ele>259</ele>
        <time>2015-09-09T14:03:40Z</time>
      </trkpt>
      <trkpt lat="43.43465" lon="6.04567">
        <ele>258.79998779297</ele>
        <time>2015-09-09T14:03:41Z</time>
      </trkpt>
      <trkpt lat="43.43464" lon="6.04573">
        <ele>258.79998779297</ele>
        <time>2015-09-09T14:03:42Z</time>
      </trkpt>
      <trkpt lat="43.43462" lon="6.04584">
        <ele>259.20001220703</ele>
        <time>2015-09-09T14:03:44Z</time>
      </trkpt>
      <trkpt lat="43.43455" lon="6.04622">
        <ele>259.39999389648</ele>
        <time>2015-09-09T14:03:50Z</time>
      </trkpt>
      <trkpt lat="43.43453" lon="6.04636">
        <ele>259.20001220703</ele>
        <time>2015-09-09T14:03:52Z</time>
      </trkpt>
      <trkpt lat="43.43451" lon="6.04649">
        <ele>259</ele>
        <time>2015-09-09T14:03:54Z</time>
      </trkpt>
      <trkpt lat="43.43448" lon="6.04663">
        <ele>258.79998779297</ele>
        <time>2015-09-09T14:03:56Z</time>
      </trkpt>
      <trkpt lat="43.43444" lon="6.04677">
        <ele>258.39999389648</ele>
        <time>2015-09-09T14:03:58Z</time>
      </trkpt>
      <trkpt lat="43.43443" lon="6.04683">
        <ele>258.20001220703</ele>
        <time>2015-09-09T14:03:59Z</time>
      </trkpt>
      <trkpt lat="43.43441" lon="6.04705">
        <ele>257.39999389648</ele>
        <time>2015-09-09T14:04:02Z</time>
      </trkpt>
      <trkpt lat="43.4344" lon="6.04719">
        <ele>257.20001220703</ele>
        <time>2015-09-09T14:04:04Z</time>
      </trkpt>
      <trkpt lat="43.43439" lon="6.04733">
        <ele>257.39999389648</ele>
        <time>2015-09-09T14:04:06Z</time>
      </trkpt>
      <trkpt lat="43.43438" lon="6.04747">
        <ele>257.39999389648</ele>
        <time>2015-09-09T14:04:08Z</time>
      </trkpt>
      <trkpt lat="43.43436" lon="6.04762">
        <ele>257</ele>
        <time>2015-09-09T14:04:10Z</time>
      </trkpt>
      <trkpt lat="43.43434" lon="6.04778">
        <ele>256.20001220703</ele>
        <time>2015-09-09T14:04:12Z</time>
      </trkpt>
      <trkpt lat="43.43434" lon="6.04786">
        <ele>256</ele>
        <time>2015-09-09T14:04:13Z</time>
      </trkpt>
      <trkpt lat="43.43433" lon="6.04795">
        <ele>255.60000610352</ele>
        <time>2015-09-09T14:04:14Z</time>
      </trkpt>
      <trkpt lat="43.43431" lon="6.04811">
        <ele>256</ele>
        <time>2015-09-09T14:04:16Z</time>
      </trkpt>
      <trkpt lat="43.43431" lon="6.04845">
        <ele>256</ele>
        <time>2015-09-09T14:04:20Z</time>
      </trkpt>
      <trkpt lat="43.4343" lon="6.04878">
        <ele>256.20001220703</ele>
        <time>2015-09-09T14:04:24Z</time>
      </trkpt>
      <trkpt lat="43.43429" lon="6.04911">
        <ele>254.39999389648</ele>
        <time>2015-09-09T14:04:28Z</time>
      </trkpt>
      <trkpt lat="43.43427" lon="6.04928">
        <ele>254.39999389648</ele>
        <time>2015-09-09T14:04:30Z</time>
      </trkpt>
      <trkpt lat="43.43426" lon="6.04945">
        <ele>254</ele>
        <time>2015-09-09T14:04:32Z</time>
      </trkpt>
      <trkpt lat="43.43424" lon="6.04961">
        <ele>254</ele>
        <time>2015-09-09T14:04:34Z</time>
      </trkpt>
      <trkpt lat="43.43422" lon="6.04976">
        <ele>254.39999389648</ele>
        <time>2015-09-09T14:04:36Z</time>
      </trkpt>
      <trkpt lat="43.43418" lon="6.05003">
        <ele>254.60000610352</ele>
        <time>2015-09-09T14:04:40Z</time>
      </trkpt>
      <trkpt lat="43.43414" lon="6.05028">
        <ele>255.19999694824</ele>
        <time>2015-09-09T14:04:44Z</time>
      </trkpt>
      <trkpt lat="43.43412" lon="6.05039">
        <ele>255.80000305176</ele>
        <time>2015-09-09T14:04:46Z</time>
      </trkpt>
      <trkpt lat="43.4341" lon="6.0505">
        <ele>256.60000610352</ele>
        <time>2015-09-09T14:04:48Z</time>
      </trkpt>
      <trkpt lat="43.43408" lon="6.0506">
        <ele>257</ele>
        <time>2015-09-09T14:04:50Z</time>
      </trkpt>
      <trkpt lat="43.43406" lon="6.05068">
        <ele>257.60000610352</ele>
        <time>2015-09-09T14:04:52Z</time>
      </trkpt>
      <trkpt lat="43.43404" lon="6.05076">
        <ele>258.20001220703</ele>
        <time>2015-09-09T14:04:54Z</time>
      </trkpt>
      <trkpt lat="43.43403" lon="6.05083">
        <ele>258.79998779297</ele>
        <time>2015-09-09T14:04:56Z</time>
      </trkpt>
      <trkpt lat="43.43402" lon="6.05091">
        <ele>258.60000610352</ele>
        <time>2015-09-09T14:04:58Z</time>
      </trkpt>
      <trkpt lat="43.434" lon="6.05098">
        <ele>258.39999389648</ele>
        <time>2015-09-09T14:05:00Z</time>
      </trkpt>
      <trkpt lat="43.43394" lon="6.05112">
        <ele>259</ele>
        <time>2015-09-09T14:05:04Z</time>
      </trkpt>
      <trkpt lat="43.43393" lon="6.05119">
        <ele>259.20001220703</ele>
        <time>2015-09-09T14:05:06Z</time>
      </trkpt>
      <trkpt lat="43.4339" lon="6.05127">
        <ele>259</ele>
        <time>2015-09-09T14:05:08Z</time>
      </trkpt>
      <trkpt lat="43.43387" lon="6.05136">
        <ele>258.39999389648</ele>
        <time>2015-09-09T14:05:10Z</time>
      </trkpt>
      <trkpt lat="43.43386" lon="6.0514">
        <ele>257.79998779297</ele>
        <time>2015-09-09T14:05:11Z</time>
      </trkpt>
      <trkpt lat="43.43384" lon="6.05144">
        <ele>257.60000610352</ele>
        <time>2015-09-09T14:05:12Z</time>
      </trkpt>
      <trkpt lat="43.43383" lon="6.05148">
        <ele>257.79998779297</ele>
        <time>2015-09-09T14:05:13Z</time>
      </trkpt>
      <trkpt lat="43.43382" lon="6.05152">
        <ele>258</ele>
        <time>2015-09-09T14:05:14Z</time>
      </trkpt>
      <trkpt lat="43.43381" lon="6.05158">
        <ele>257.60000610352</ele>
        <time>2015-09-09T14:05:16Z</time>
      </trkpt>
      <trkpt lat="43.43379" lon="6.05162">
        <ele>257.20001220703</ele>
        <time>2015-09-09T14:05:18Z</time>
      </trkpt>
      <trkpt lat="43.43378" lon="6.05164">
        <ele>257.20001220703</ele>
        <time>2015-09-09T14:05:20Z</time>
      </trkpt>
      <trkpt lat="43.43378" lon="6.05164">
        <ele>257.20001220703</ele>
        <time>2015-09-09T14:05:22Z</time>
      </trkpt>
      <trkpt lat="43.43378" lon="6.05164">
        <ele>257.20001220703</ele>
        <time>2015-09-09T14:05:23Z</time>
      </trkpt>
      <trkpt lat="43.43378" lon="6.05165">
        <ele>257.39999389648</ele>
        <time>2015-09-09T14:05:24Z</time>
      </trkpt>
      <trkpt lat="43.43378" lon="6.05165">
        <ele>257.20001220703</ele>
        <time>2015-09-09T14:05:26Z</time>
      </trkpt>
      <trkpt lat="43.43378" lon="6.05165">
        <ele>257.20001220703</ele>
        <time>2015-09-09T14:05:28Z</time>
      </trkpt>
      <trkpt lat="43.43378" lon="6.05165">
        <ele>257</ele>
        <time>2015-09-09T14:05:32Z</time>
      </trkpt>
      <trkpt lat="43.43378" lon="6.05165">
        <ele>256.79998779297</ele>
        <time>2015-09-09T14:05:38Z</time>
      </trkpt>
      <trkpt lat="43.43378" lon="6.05165">
        <ele>257</ele>
        <time>2015-09-09T14:05:52Z</time>
      </trkpt>
      <trkpt lat="43.43378" lon="6.05165">
        <ele>256.79998779297</ele>
        <time>2015-09-09T14:05:54Z</time>
      </trkpt>
      <trkpt lat="43.43378" lon="6.05165">
        <ele>256.79998779297</ele>
        <time>2015-09-09T14:05:58Z</time>
      </trkpt>
      <trkpt lat="43.43378" lon="6.05164">
        <ele>256.79998779297</ele>
        <time>2015-09-09T14:06:00Z</time>
      </trkpt>
      <trkpt lat="43.43376" lon="6.05164">
        <ele>257.20001220703</ele>
        <time>2015-09-09T14:06:02Z</time>
      </trkpt>
      <trkpt lat="43.43373" lon="6.05161">
        <ele>256.60000610352</ele>
        <time>2015-09-09T14:06:04Z</time>
      </trkpt>
      <trkpt lat="43.4337" lon="6.05156">
        <ele>256.79998779297</ele>
        <time>2015-09-09T14:06:06Z</time>
      </trkpt>
      <trkpt lat="43.43367" lon="6.05151">
        <ele>257</ele>
        <time>2015-09-09T14:06:08Z</time>
      </trkpt>
      <trkpt lat="43.43362" lon="6.05148">
        <ele>256.79998779297</ele>
        <time>2015-09-09T14:06:10Z</time>
      </trkpt>
      <trkpt lat="43.43358" lon="6.05145">
        <ele>257</ele>
        <time>2015-09-09T14:06:12Z</time>
      </trkpt>
      <trkpt lat="43.43353" lon="6.05143">
        <ele>257.20001220703</ele>
        <time>2015-09-09T14:06:14Z</time>
      </trkpt>
      <trkpt lat="43.43348" lon="6.05141">
        <ele>257.20001220703</ele>
        <time>2015-09-09T14:06:16Z</time>
      </trkpt>
      <trkpt lat="43.43343" lon="6.05138">
        <ele>257.79998779297</ele>
        <time>2015-09-09T14:06:18Z</time>
      </trkpt>
      <trkpt lat="43.43341" lon="6.05136">
        <ele>257.79998779297</ele>
        <time>2015-09-09T14:06:19Z</time>
      </trkpt>
      <trkpt lat="43.43339" lon="6.05135">
        <ele>258.20001220703</ele>
        <time>2015-09-09T14:06:20Z</time>
      </trkpt>
      <trkpt lat="43.43335" lon="6.05131">
        <ele>258.60000610352</ele>
        <time>2015-09-09T14:06:22Z</time>
      </trkpt>
      <trkpt lat="43.43332" lon="6.05128">
        <ele>258.79998779297</ele>
        <time>2015-09-09T14:06:24Z</time>
      </trkpt>
      <trkpt lat="43.43329" lon="6.05125">
        <ele>258.39999389648</ele>
        <time>2015-09-09T14:06:26Z</time>
      </trkpt>
      <trkpt lat="43.43325" lon="6.05121">
        <ele>259</ele>
        <time>2015-09-09T14:06:28Z</time>
      </trkpt>
      <trkpt lat="43.43319" lon="6.05113">
        <ele>260</ele>
        <time>2015-09-09T14:06:32Z</time>
      </trkpt>
      <trkpt lat="43.43316" lon="6.0511">
        <ele>260.20001220703</ele>
        <time>2015-09-09T14:06:34Z</time>
      </trkpt>
      <trkpt lat="43.43312" lon="6.05106">
        <ele>260.39999389648</ele>
        <time>2015-09-09T14:06:36Z</time>
      </trkpt>
      <trkpt lat="43.43308" lon="6.05102">
        <ele>260.39999389648</ele>
        <time>2015-09-09T14:06:38Z</time>
      </trkpt>
      <trkpt lat="43.43304" lon="6.05099">
        <ele>260.79998779297</ele>
        <time>2015-09-09T14:06:40Z</time>
      </trkpt>
      <trkpt lat="43.43301" lon="6.05096">
        <ele>261.20001220703</ele>
        <time>2015-09-09T14:06:42Z</time>
      </trkpt>
      <trkpt lat="43.43294" lon="6.0509">
        <ele>261.79998779297</ele>
        <time>2015-09-09T14:06:46Z</time>
      </trkpt>
      <trkpt lat="43.4329" lon="6.05088">
        <ele>262</ele>
        <time>2015-09-09T14:06:48Z</time>
      </trkpt>
      <trkpt lat="43.43287" lon="6.05085">
        <ele>262.39999389648</ele>
        <time>2015-09-09T14:06:50Z</time>
      </trkpt>
      <trkpt lat="43.43283" lon="6.05083">
        <ele>262.79998779297</ele>
        <time>2015-09-09T14:06:52Z</time>
      </trkpt>
      <trkpt lat="43.43279" lon="6.05081">
        <ele>263</ele>
        <time>2015-09-09T14:06:54Z</time>
      </trkpt>
      <trkpt lat="43.43274" lon="6.0508">
        <ele>263.39999389648</ele>
        <time>2015-09-09T14:06:56Z</time>
      </trkpt>
      <trkpt lat="43.43272" lon="6.0508">
        <ele>263.60000610352</ele>
        <time>2015-09-09T14:06:57Z</time>
      </trkpt>
      <trkpt lat="43.43266" lon="6.0508">
        <ele>263.39999389648</ele>
        <time>2015-09-09T14:07:00Z</time>
      </trkpt>
      <trkpt lat="43.43262" lon="6.05079">
        <ele>263.60000610352</ele>
        <time>2015-09-09T14:07:02Z</time>
      </trkpt>
      <trkpt lat="43.43257" lon="6.05079">
        <ele>263.60000610352</ele>
        <time>2015-09-09T14:07:04Z</time>
      </trkpt>
      <trkpt lat="43.43249" lon="6.05078">
        <ele>264.39999389648</ele>
        <time>2015-09-09T14:07:08Z</time>
      </trkpt>
      <trkpt lat="43.43245" lon="6.05078">
        <ele>264.79998779297</ele>
        <time>2015-09-09T14:07:10Z</time>
      </trkpt>
      <trkpt lat="43.43241" lon="6.05079">
        <ele>265.20001220703</ele>
        <time>2015-09-09T14:07:12Z</time>
      </trkpt>
      <trkpt lat="43.43237" lon="6.05079">
        <ele>265.60000610352</ele>
        <time>2015-09-09T14:07:14Z</time>
      </trkpt>
      <trkpt lat="43.43229" lon="6.0508">
        <ele>266.20001220703</ele>
        <time>2015-09-09T14:07:19Z</time>
      </trkpt>
      <trkpt lat="43.43227" lon="6.0508">
        <ele>266.39999389648</ele>
        <time>2015-09-09T14:07:20Z</time>
      </trkpt>
      <trkpt lat="43.43224" lon="6.05082">
        <ele>266.39999389648</ele>
        <time>2015-09-09T14:07:22Z</time>
      </trkpt>
      <trkpt lat="43.43214" lon="6.05084">
        <ele>266.79998779297</ele>
        <time>2015-09-09T14:07:29Z</time>
      </trkpt>
      <trkpt lat="43.43209" lon="6.05082">
        <ele>267.20001220703</ele>
        <time>2015-09-09T14:07:32Z</time>
      </trkpt>
      <trkpt lat="43.43203" lon="6.0508">
        <ele>267.20001220703</ele>
        <time>2015-09-09T14:07:36Z</time>
      </trkpt>
      <trkpt lat="43.432" lon="6.05079">
        <ele>267.60000610352</ele>
        <time>2015-09-09T14:07:38Z</time>
      </trkpt>
      <trkpt lat="43.43197" lon="6.05078">
        <ele>268</ele>
        <time>2015-09-09T14:07:40Z</time>
      </trkpt>
      <trkpt lat="43.43194" lon="6.05077">
        <ele>268</ele>
        <time>2015-09-09T14:07:42Z</time>
      </trkpt>
      <trkpt lat="43.4319" lon="6.05077">
        <ele>268.60000610352</ele>
        <time>2015-09-09T14:07:44Z</time>
      </trkpt>
      <trkpt lat="43.43187" lon="6.05077">
        <ele>268.39999389648</ele>
        <time>2015-09-09T14:07:46Z</time>
      </trkpt>
      <trkpt lat="43.43181" lon="6.05075">
        <ele>269.20001220703</ele>
        <time>2015-09-09T14:07:50Z</time>
      </trkpt>
      <trkpt lat="43.43178" lon="6.05075">
        <ele>269.79998779297</ele>
        <time>2015-09-09T14:07:52Z</time>
      </trkpt>
      <trkpt lat="43.43176" lon="6.05074">
        <ele>270.20001220703</ele>
        <time>2015-09-09T14:07:54Z</time>
      </trkpt>
      <trkpt lat="43.43172" lon="6.05073">
        <ele>270.20001220703</ele>
        <time>2015-09-09T14:07:56Z</time>
      </trkpt>
      <trkpt lat="43.43169" lon="6.05072">
        <ele>270.39999389648</ele>
        <time>2015-09-09T14:07:58Z</time>
      </trkpt>
      <trkpt lat="43.43166" lon="6.05071">
        <ele>270.60000610352</ele>
        <time>2015-09-09T14:08:00Z</time>
      </trkpt>
      <trkpt lat="43.43163" lon="6.05069">
        <ele>270.79998779297</ele>
        <time>2015-09-09T14:08:02Z</time>
      </trkpt>
      <trkpt lat="43.43159" lon="6.05067">
        <ele>271.20001220703</ele>
        <time>2015-09-09T14:08:04Z</time>
      </trkpt>
      <trkpt lat="43.43157" lon="6.05065">
        <ele>271.60000610352</ele>
        <time>2015-09-09T14:08:06Z</time>
      </trkpt>
      <trkpt lat="43.43154" lon="6.05063">
        <ele>271.60000610352</ele>
        <time>2015-09-09T14:08:08Z</time>
      </trkpt>
      <trkpt lat="43.43151" lon="6.05061">
        <ele>271.79998779297</ele>
        <time>2015-09-09T14:08:10Z</time>
      </trkpt>
      <trkpt lat="43.43148" lon="6.05058">
        <ele>271.60000610352</ele>
        <time>2015-09-09T14:08:12Z</time>
      </trkpt>
      <trkpt lat="43.43144" lon="6.05054">
        <ele>272.20001220703</ele>
        <time>2015-09-09T14:08:16Z</time>
      </trkpt>
      <trkpt lat="43.43142" lon="6.05052">
        <ele>272.60000610352</ele>
        <time>2015-09-09T14:08:18Z</time>
      </trkpt>
      <trkpt lat="43.4314" lon="6.0505">
        <ele>272.79998779297</ele>
        <time>2015-09-09T14:08:20Z</time>
      </trkpt>
      <trkpt lat="43.43137" lon="6.05047">
        <ele>273</ele>
        <time>2015-09-09T14:08:22Z</time>
      </trkpt>
      <trkpt lat="43.43136" lon="6.05045">
        <ele>273.39999389648</ele>
        <time>2015-09-09T14:08:24Z</time>
      </trkpt>
      <trkpt lat="43.43132" lon="6.05038">
        <ele>273.79998779297</ele>
        <time>2015-09-09T14:08:28Z</time>
      </trkpt>
      <trkpt lat="43.43128" lon="6.05032">
        <ele>274.60000610352</ele>
        <time>2015-09-09T14:08:32Z</time>
      </trkpt>
      <trkpt lat="43.43126" lon="6.05028">
        <ele>274.79998779297</ele>
        <time>2015-09-09T14:08:34Z</time>
      </trkpt>
      <trkpt lat="43.43125" lon="6.05027">
        <ele>274.79998779297</ele>
        <time>2015-09-09T14:08:35Z</time>
      </trkpt>
      <trkpt lat="43.43122" lon="6.05023">
        <ele>275.20001220703</ele>
        <time>2015-09-09T14:08:37Z</time>
      </trkpt>
      <trkpt lat="43.43121" lon="6.05021">
        <ele>275.20001220703</ele>
        <time>2015-09-09T14:08:38Z</time>
      </trkpt>
      <trkpt lat="43.43116" lon="6.05014">
        <ele>276</ele>
        <time>2015-09-09T14:08:42Z</time>
      </trkpt>
      <trkpt lat="43.43113" lon="6.0501">
        <ele>276.20001220703</ele>
        <time>2015-09-09T14:08:44Z</time>
      </trkpt>
      <trkpt lat="43.43111" lon="6.05006">
        <ele>276.20001220703</ele>
        <time>2015-09-09T14:08:46Z</time>
      </trkpt>
      <trkpt lat="43.43107" lon="6.04999">
        <ele>276.79998779297</ele>
        <time>2015-09-09T14:08:50Z</time>
      </trkpt>
      <trkpt lat="43.43105" lon="6.04995">
        <ele>277</ele>
        <time>2015-09-09T14:08:52Z</time>
      </trkpt>
      <trkpt lat="43.43101" lon="6.04987">
        <ele>277.20001220703</ele>
        <time>2015-09-09T14:08:56Z</time>
      </trkpt>
      <trkpt lat="43.431" lon="6.04986">
        <ele>277.20001220703</ele>
        <time>2015-09-09T14:08:57Z</time>
      </trkpt>
      <trkpt lat="43.43098" lon="6.04984">
        <ele>277.60000610352</ele>
        <time>2015-09-09T14:08:58Z</time>
      </trkpt>
      <trkpt lat="43.43096" lon="6.04981">
        <ele>277.79998779297</ele>
        <time>2015-09-09T14:09:00Z</time>
      </trkpt>
      <trkpt lat="43.43095" lon="6.04979">
        <ele>278</ele>
        <time>2015-09-09T14:09:01Z</time>
      </trkpt>
      <trkpt lat="43.43093" lon="6.04978">
        <ele>278</ele>
        <time>2015-09-09T14:09:02Z</time>
      </trkpt>
      <trkpt lat="43.4309" lon="6.04973">
        <ele>278.39999389648</ele>
        <time>2015-09-09T14:09:04Z</time>
      </trkpt>
      <trkpt lat="43.43088" lon="6.04969">
        <ele>278.79998779297</ele>
        <time>2015-09-09T14:09:06Z</time>
      </trkpt>
      <trkpt lat="43.43085" lon="6.04965">
        <ele>278.79998779297</ele>
        <time>2015-09-09T14:09:08Z</time>
      </trkpt>
      <trkpt lat="43.43082" lon="6.04962">
        <ele>279</ele>
        <time>2015-09-09T14:09:10Z</time>
      </trkpt>
      <trkpt lat="43.4308" lon="6.04958">
        <ele>279.20001220703</ele>
        <time>2015-09-09T14:09:12Z</time>
      </trkpt>
      <trkpt lat="43.43077" lon="6.04955">
        <ele>279.79998779297</ele>
        <time>2015-09-09T14:09:14Z</time>
      </trkpt>
      <trkpt lat="43.43076" lon="6.04952">
        <ele>280</ele>
        <time>2015-09-09T14:09:16Z</time>
      </trkpt>
      <trkpt lat="43.43075" lon="6.0495">
        <ele>280</ele>
        <time>2015-09-09T14:09:17Z</time>
      </trkpt>
      <trkpt lat="43.43073" lon="6.04948">
        <ele>280</ele>
        <time>2015-09-09T14:09:18Z</time>
      </trkpt>
      <trkpt lat="43.4307" lon="6.04944">
        <ele>280.39999389648</ele>
        <time>2015-09-09T14:09:20Z</time>
      </trkpt>
      <trkpt lat="43.43068" lon="6.0494">
        <ele>280.20001220703</ele>
        <time>2015-09-09T14:09:22Z</time>
      </trkpt>
      <trkpt lat="43.43066" lon="6.04937">
        <ele>280.79998779297</ele>
        <time>2015-09-09T14:09:24Z</time>
      </trkpt>
      <trkpt lat="43.43064" lon="6.04934">
        <ele>281</ele>
        <time>2015-09-09T14:09:26Z</time>
      </trkpt>
      <trkpt lat="43.4306" lon="6.04926">
        <ele>281.20001220703</ele>
        <time>2015-09-09T14:09:30Z</time>
      </trkpt>
      <trkpt lat="43.43057" lon="6.0492">
        <ele>281.39999389648</ele>
        <time>2015-09-09T14:09:33Z</time>
      </trkpt>
      <trkpt lat="43.43056" lon="6.04918">
        <ele>281.60000610352</ele>
        <time>2015-09-09T14:09:34Z</time>
      </trkpt>
      <trkpt lat="43.43054" lon="6.04913">
        <ele>282</ele>
        <time>2015-09-09T14:09:36Z</time>
      </trkpt>
      <trkpt lat="43.43053" lon="6.04909">
        <ele>282.20001220703</ele>
        <time>2015-09-09T14:09:38Z</time>
      </trkpt>
      <trkpt lat="43.43051" lon="6.04906">
        <ele>282.60000610352</ele>
        <time>2015-09-09T14:09:40Z</time>
      </trkpt>
      <trkpt lat="43.4305" lon="6.04904">
        <ele>283</ele>
        <time>2015-09-09T14:09:41Z</time>
      </trkpt>
      <trkpt lat="43.4305" lon="6.04902">
        <ele>283.20001220703</ele>
        <time>2015-09-09T14:09:42Z</time>
      </trkpt>
      <trkpt lat="43.43047" lon="6.04899">
        <ele>283.60000610352</ele>
        <time>2015-09-09T14:09:44Z</time>
      </trkpt>
      <trkpt lat="43.43045" lon="6.04895">
        <ele>283.79998779297</ele>
        <time>2015-09-09T14:09:46Z</time>
      </trkpt>
      <trkpt lat="43.43043" lon="6.04891">
        <ele>283.60000610352</ele>
        <time>2015-09-09T14:09:48Z</time>
      </trkpt>
      <trkpt lat="43.4304" lon="6.04887">
        <ele>283.79998779297</ele>
        <time>2015-09-09T14:09:50Z</time>
      </trkpt>
      <trkpt lat="43.43039" lon="6.04885">
        <ele>284.39999389648</ele>
        <time>2015-09-09T14:09:51Z</time>
      </trkpt>
      <trkpt lat="43.43037" lon="6.04883">
        <ele>284.60000610352</ele>
        <time>2015-09-09T14:09:52Z</time>
      </trkpt>
      <trkpt lat="43.43036" lon="6.0488">
        <ele>285</ele>
        <time>2015-09-09T14:09:54Z</time>
      </trkpt>
      <trkpt lat="43.43034" lon="6.04876">
        <ele>285.20001220703</ele>
        <time>2015-09-09T14:09:56Z</time>
      </trkpt>
      <trkpt lat="43.43032" lon="6.04873">
        <ele>285.20001220703</ele>
        <time>2015-09-09T14:09:58Z</time>
      </trkpt>
      <trkpt lat="43.43032" lon="6.04871">
        <ele>285.39999389648</ele>
        <time>2015-09-09T14:09:59Z</time>
      </trkpt>
      <trkpt lat="43.43031" lon="6.04864">
        <ele>286</ele>
        <time>2015-09-09T14:10:02Z</time>
      </trkpt>
      <trkpt lat="43.43029" lon="6.0486">
        <ele>286</ele>
        <time>2015-09-09T14:10:04Z</time>
      </trkpt>
      <trkpt lat="43.43027" lon="6.04853">
        <ele>286.20001220703</ele>
        <time>2015-09-09T14:10:08Z</time>
      </trkpt>
      <trkpt lat="43.43027" lon="6.04849">
        <ele>286.79998779297</ele>
        <time>2015-09-09T14:10:10Z</time>
      </trkpt>
      <trkpt lat="43.43027" lon="6.04844">
        <ele>286.79998779297</ele>
        <time>2015-09-09T14:10:12Z</time>
      </trkpt>
      <trkpt lat="43.43028" lon="6.04839">
        <ele>286.79998779297</ele>
        <time>2015-09-09T14:10:14Z</time>
      </trkpt>
      <trkpt lat="43.4303" lon="6.04831">
        <ele>287.39999389648</ele>
        <time>2015-09-09T14:10:18Z</time>
      </trkpt>
      <trkpt lat="43.43031" lon="6.04827">
        <ele>287.60000610352</ele>
        <time>2015-09-09T14:10:20Z</time>
      </trkpt>
      <trkpt lat="43.4303" lon="6.04822">
        <ele>287.60000610352</ele>
        <time>2015-09-09T14:10:22Z</time>
      </trkpt>
      <trkpt lat="43.4303" lon="6.04816">
        <ele>287.60000610352</ele>
        <time>2015-09-09T14:10:24Z</time>
      </trkpt>
      <trkpt lat="43.4303" lon="6.04811">
        <ele>287.60000610352</ele>
        <time>2015-09-09T14:10:26Z</time>
      </trkpt>
      <trkpt lat="43.43031" lon="6.04805">
        <ele>288.20001220703</ele>
        <time>2015-09-09T14:10:28Z</time>
      </trkpt>
      <trkpt lat="43.43032" lon="6.04801">
        <ele>288.79998779297</ele>
        <time>2015-09-09T14:10:30Z</time>
      </trkpt>
      <trkpt lat="43.43032" lon="6.04796">
        <ele>289.20001220703</ele>
        <time>2015-09-09T14:10:32Z</time>
      </trkpt>
      <trkpt lat="43.43034" lon="6.04792">
        <ele>289.39999389648</ele>
        <time>2015-09-09T14:10:34Z</time>
      </trkpt>
      <trkpt lat="43.43035" lon="6.04787">
        <ele>289.39999389648</ele>
        <time>2015-09-09T14:10:36Z</time>
      </trkpt>
      <trkpt lat="43.43037" lon="6.04782">
        <ele>289.60000610352</ele>
        <time>2015-09-09T14:10:38Z</time>
      </trkpt>
      <trkpt lat="43.43038" lon="6.04777">
        <ele>289.79998779297</ele>
        <time>2015-09-09T14:10:40Z</time>
      </trkpt>
      <trkpt lat="43.43039" lon="6.04772">
        <ele>290</ele>
        <time>2015-09-09T14:10:42Z</time>
      </trkpt>
      <trkpt lat="43.43043" lon="6.04762">
        <ele>290.39999389648</ele>
        <time>2015-09-09T14:10:46Z</time>
      </trkpt>
      <trkpt lat="43.43045" lon="6.04757">
        <ele>290.39999389648</ele>
        <time>2015-09-09T14:10:48Z</time>
      </trkpt>
      <trkpt lat="43.43049" lon="6.04749">
        <ele>291.39999389648</ele>
        <time>2015-09-09T14:10:52Z</time>
      </trkpt>
      <trkpt lat="43.43051" lon="6.04745">
        <ele>291.79998779297</ele>
        <time>2015-09-09T14:10:54Z</time>
      </trkpt>
      <trkpt lat="43.43055" lon="6.04738">
        <ele>291.79998779297</ele>
        <time>2015-09-09T14:10:58Z</time>
      </trkpt>
      <trkpt lat="43.43056" lon="6.04734">
        <ele>292.20001220703</ele>
        <time>2015-09-09T14:11:00Z</time>
      </trkpt>
      <trkpt lat="43.43058" lon="6.04731">
        <ele>292.39999389648</ele>
        <time>2015-09-09T14:11:02Z</time>
      </trkpt>
      <trkpt lat="43.4306" lon="6.04728">
        <ele>292.39999389648</ele>
        <time>2015-09-09T14:11:04Z</time>
      </trkpt>
      <trkpt lat="43.43062" lon="6.04724">
        <ele>293</ele>
        <time>2015-09-09T14:11:06Z</time>
      </trkpt>
      <trkpt lat="43.43063" lon="6.0472">
        <ele>293.20001220703</ele>
        <time>2015-09-09T14:11:08Z</time>
      </trkpt>
      <trkpt lat="43.43063" lon="6.04711">
        <ele>293.79998779297</ele>
        <time>2015-09-09T14:11:12Z</time>
      </trkpt>
      <trkpt lat="43.43063" lon="6.04701">
        <ele>294.20001220703</ele>
        <time>2015-09-09T14:11:16Z</time>
      </trkpt>
      <trkpt lat="43.43061" lon="6.04695">
        <ele>294.20001220703</ele>
        <time>2015-09-09T14:11:18Z</time>
      </trkpt>
      <trkpt lat="43.4306" lon="6.04689">
        <ele>294</ele>
        <time>2015-09-09T14:11:20Z</time>
      </trkpt>
      <trkpt lat="43.4306" lon="6.04683">
        <ele>294.39999389648</ele>
        <time>2015-09-09T14:11:22Z</time>
      </trkpt>
      <trkpt lat="43.4306" lon="6.04678">
        <ele>294.60000610352</ele>
        <time>2015-09-09T14:11:24Z</time>
      </trkpt>
      <trkpt lat="43.4306" lon="6.04674">
        <ele>295</ele>
        <time>2015-09-09T14:11:26Z</time>
      </trkpt>
      <trkpt lat="43.4306" lon="6.04668">
        <ele>295.20001220703</ele>
        <time>2015-09-09T14:11:28Z</time>
      </trkpt>
      <trkpt lat="43.43059" lon="6.04662">
        <ele>295.39999389648</ele>
        <time>2015-09-09T14:11:30Z</time>
      </trkpt>
      <trkpt lat="43.43057" lon="6.04656">
        <ele>295</ele>
        <time>2015-09-09T14:11:32Z</time>
      </trkpt>
      <trkpt lat="43.43056" lon="6.0465">
        <ele>295.39999389648</ele>
        <time>2015-09-09T14:11:34Z</time>
      </trkpt>
      <trkpt lat="43.43055" lon="6.04644">
        <ele>295.60000610352</ele>
        <time>2015-09-09T14:11:36Z</time>
      </trkpt>
      <trkpt lat="43.43053" lon="6.04638">
        <ele>295.39999389648</ele>
        <time>2015-09-09T14:11:38Z</time>
      </trkpt>
      <trkpt lat="43.4305" lon="6.04626">
        <ele>295.79998779297</ele>
        <time>2015-09-09T14:11:42Z</time>
      </trkpt>
      <trkpt lat="43.43049" lon="6.04621">
        <ele>296.20001220703</ele>
        <time>2015-09-09T14:11:44Z</time>
      </trkpt>
      <trkpt lat="43.43049" lon="6.04615">
        <ele>296.20001220703</ele>
        <time>2015-09-09T14:11:46Z</time>
      </trkpt>
      <trkpt lat="43.43048" lon="6.04609">
        <ele>296.39999389648</ele>
        <time>2015-09-09T14:11:48Z</time>
      </trkpt>
      <trkpt lat="43.43047" lon="6.04604">
        <ele>296.20001220703</ele>
        <time>2015-09-09T14:11:50Z</time>
      </trkpt>
      <trkpt lat="43.43047" lon="6.04599">
        <ele>296.39999389648</ele>
        <time>2015-09-09T14:11:52Z</time>
      </trkpt>
      <trkpt lat="43.43047" lon="6.04593">
        <ele>297</ele>
        <time>2015-09-09T14:11:55Z</time>
      </trkpt>
      <trkpt lat="43.43048" lon="6.04591">
        <ele>297.39999389648</ele>
        <time>2015-09-09T14:11:56Z</time>
      </trkpt>
      <trkpt lat="43.43049" lon="6.04587">
        <ele>297.20001220703</ele>
        <time>2015-09-09T14:11:58Z</time>
      </trkpt>
      <trkpt lat="43.43051" lon="6.04583">
        <ele>296.79998779297</ele>
        <time>2015-09-09T14:12:00Z</time>
      </trkpt>
      <trkpt lat="43.43052" lon="6.04574">
        <ele>297</ele>
        <time>2015-09-09T14:12:04Z</time>
      </trkpt>
      <trkpt lat="43.43053" lon="6.04569">
        <ele>297.60000610352</ele>
        <time>2015-09-09T14:12:06Z</time>
      </trkpt>
      <trkpt lat="43.43056" lon="6.04558">
        <ele>297.79998779297</ele>
        <time>2015-09-09T14:12:10Z</time>
      </trkpt>
      <trkpt lat="43.43059" lon="6.04549">
        <ele>297.60000610352</ele>
        <time>2015-09-09T14:12:13Z</time>
      </trkpt>
      <trkpt lat="43.4306" lon="6.04546">
        <ele>297.79998779297</ele>
        <time>2015-09-09T14:12:14Z</time>
      </trkpt>
      <trkpt lat="43.4306" lon="6.04539">
        <ele>298.20001220703</ele>
        <time>2015-09-09T14:12:16Z</time>
      </trkpt>
      <trkpt lat="43.43061" lon="6.04533">
        <ele>298.39999389648</ele>
        <time>2015-09-09T14:12:18Z</time>
      </trkpt>
      <trkpt lat="43.43062" lon="6.04526">
        <ele>299</ele>
        <time>2015-09-09T14:12:20Z</time>
      </trkpt>
      <trkpt lat="43.43063" lon="6.04519">
        <ele>299.39999389648</ele>
        <time>2015-09-09T14:12:22Z</time>
      </trkpt>
      <trkpt lat="43.43065" lon="6.04511">
        <ele>299.20001220703</ele>
        <time>2015-09-09T14:12:24Z</time>
      </trkpt>
      <trkpt lat="43.43066" lon="6.04503">
        <ele>298.79998779297</ele>
        <time>2015-09-09T14:12:26Z</time>
      </trkpt>
      <trkpt lat="43.43068" lon="6.04495">
        <ele>299.79998779297</ele>
        <time>2015-09-09T14:12:28Z</time>
      </trkpt>
      <trkpt lat="43.43069" lon="6.04488">
        <ele>300.20001220703</ele>
        <time>2015-09-09T14:12:30Z</time>
      </trkpt>
      <trkpt lat="43.43073" lon="6.04473">
        <ele>300.39999389648</ele>
        <time>2015-09-09T14:12:34Z</time>
      </trkpt>
      <trkpt lat="43.43074" lon="6.04465">
        <ele>300.60000610352</ele>
        <time>2015-09-09T14:12:36Z</time>
      </trkpt>
      <trkpt lat="43.43076" lon="6.04458">
        <ele>300.39999389648</ele>
        <time>2015-09-09T14:12:38Z</time>
      </trkpt>
      <trkpt lat="43.43078" lon="6.04451">
        <ele>300.79998779297</ele>
        <time>2015-09-09T14:12:40Z</time>
      </trkpt>
      <trkpt lat="43.4308" lon="6.04446">
        <ele>301.20001220703</ele>
        <time>2015-09-09T14:12:42Z</time>
      </trkpt>
      <trkpt lat="43.43083" lon="6.04432">
        <ele>301.60000610352</ele>
        <time>2015-09-09T14:12:46Z</time>
      </trkpt>
      <trkpt lat="43.43085" lon="6.04418">
        <ele>301.79998779297</ele>
        <time>2015-09-09T14:12:50Z</time>
      </trkpt>
      <trkpt lat="43.43087" lon="6.04412">
        <ele>302</ele>
        <time>2015-09-09T14:12:52Z</time>
      </trkpt>
      <trkpt lat="43.43089" lon="6.04405">
        <ele>302</ele>
        <time>2015-09-09T14:12:54Z</time>
      </trkpt>
      <trkpt lat="43.43092" lon="6.04398">
        <ele>302.20001220703</ele>
        <time>2015-09-09T14:12:56Z</time>
      </trkpt>
      <trkpt lat="43.43093" lon="6.04396">
        <ele>302.39999389648</ele>
        <time>2015-09-09T14:12:57Z</time>
      </trkpt>
      <trkpt lat="43.43098" lon="6.04388">
        <ele>303</ele>
        <time>2015-09-09T14:13:00Z</time>
      </trkpt>
      <trkpt lat="43.43101" lon="6.04383">
        <ele>303</ele>
        <time>2015-09-09T14:13:02Z</time>
      </trkpt>
      <trkpt lat="43.43104" lon="6.04377">
        <ele>303.39999389648</ele>
        <time>2015-09-09T14:13:04Z</time>
      </trkpt>
      <trkpt lat="43.43105" lon="6.04374">
        <ele>303.60000610352</ele>
        <time>2015-09-09T14:13:05Z</time>
      </trkpt>
      <trkpt lat="43.43106" lon="6.04371">
        <ele>303.79998779297</ele>
        <time>2015-09-09T14:13:06Z</time>
      </trkpt>
      <trkpt lat="43.43107" lon="6.04364">
        <ele>304</ele>
        <time>2015-09-09T14:13:08Z</time>
      </trkpt>
      <trkpt lat="43.43107" lon="6.04357">
        <ele>304</ele>
        <time>2015-09-09T14:13:10Z</time>
      </trkpt>
      <trkpt lat="43.43108" lon="6.0435">
        <ele>304.79998779297</ele>
        <time>2015-09-09T14:13:12Z</time>
      </trkpt>
      <trkpt lat="43.43108" lon="6.04347">
        <ele>304.79998779297</ele>
        <time>2015-09-09T14:13:13Z</time>
      </trkpt>
      <trkpt lat="43.43108" lon="6.04344">
        <ele>304.79998779297</ele>
        <time>2015-09-09T14:13:14Z</time>
      </trkpt>
      <trkpt lat="43.43107" lon="6.04338">
        <ele>305.20001220703</ele>
        <time>2015-09-09T14:13:16Z</time>
      </trkpt>
      <trkpt lat="43.43107" lon="6.04332">
        <ele>305.60000610352</ele>
        <time>2015-09-09T14:13:18Z</time>
      </trkpt>
      <trkpt lat="43.43106" lon="6.04326">
        <ele>305.39999389648</ele>
        <time>2015-09-09T14:13:20Z</time>
      </trkpt>
      <trkpt lat="43.43106" lon="6.04315">
        <ele>306</ele>
        <time>2015-09-09T14:13:24Z</time>
      </trkpt>
      <trkpt lat="43.43105" lon="6.0431">
        <ele>306.39999389648</ele>
        <time>2015-09-09T14:13:26Z</time>
      </trkpt>
      <trkpt lat="43.43103" lon="6.04299">
        <ele>306.79998779297</ele>
        <time>2015-09-09T14:13:30Z</time>
      </trkpt>
      <trkpt lat="43.43103" lon="6.04296">
        <ele>307</ele>
        <time>2015-09-09T14:13:31Z</time>
      </trkpt>
      <trkpt lat="43.43103" lon="6.04294">
        <ele>307</ele>
        <time>2015-09-09T14:13:32Z</time>
      </trkpt>
      <trkpt lat="43.43102" lon="6.04288">
        <ele>307.20001220703</ele>
        <time>2015-09-09T14:13:34Z</time>
      </trkpt>
      <trkpt lat="43.431" lon="6.04275">
        <ele>307.79998779297</ele>
        <time>2015-09-09T14:13:38Z</time>
      </trkpt>
      <trkpt lat="43.43099" lon="6.04269">
        <ele>307.60000610352</ele>
        <time>2015-09-09T14:13:40Z</time>
      </trkpt>
      <trkpt lat="43.43094" lon="6.04249">
        <ele>308</ele>
        <time>2015-09-09T14:13:46Z</time>
      </trkpt>
      <trkpt lat="43.43092" lon="6.04242">
        <ele>308</ele>
        <time>2015-09-09T14:13:48Z</time>
      </trkpt>
      <trkpt lat="43.43089" lon="6.04235">
        <ele>308.20001220703</ele>
        <time>2015-09-09T14:13:50Z</time>
      </trkpt>
      <trkpt lat="43.43086" lon="6.04229">
        <ele>308.20001220703</ele>
        <time>2015-09-09T14:13:52Z</time>
      </trkpt>
      <trkpt lat="43.43084" lon="6.04223">
        <ele>308.39999389648</ele>
        <time>2015-09-09T14:13:54Z</time>
      </trkpt>
      <trkpt lat="43.43082" lon="6.04218">
        <ele>308.60000610352</ele>
        <time>2015-09-09T14:13:56Z</time>
      </trkpt>
      <trkpt lat="43.43079" lon="6.04212">
        <ele>309</ele>
        <time>2015-09-09T14:13:58Z</time>
      </trkpt>
      <trkpt lat="43.43079" lon="6.04208">
        <ele>309.20001220703</ele>
        <time>2015-09-09T14:13:59Z</time>
      </trkpt>
      <trkpt lat="43.43078" lon="6.04204">
        <ele>309.20001220703</ele>
        <time>2015-09-09T14:14:00Z</time>
      </trkpt>
      <trkpt lat="43.43078" lon="6.04198">
        <ele>309</ele>
        <time>2015-09-09T14:14:02Z</time>
      </trkpt>
      <trkpt lat="43.43079" lon="6.04191">
        <ele>308.79998779297</ele>
        <time>2015-09-09T14:14:04Z</time>
      </trkpt>
      <trkpt lat="43.43081" lon="6.04184">
        <ele>309.20001220703</ele>
        <time>2015-09-09T14:14:06Z</time>
      </trkpt>
      <trkpt lat="43.43082" lon="6.04177">
        <ele>309.20001220703</ele>
        <time>2015-09-09T14:14:08Z</time>
      </trkpt>
      <trkpt lat="43.43081" lon="6.04165">
        <ele>309.39999389648</ele>
        <time>2015-09-09T14:14:11Z</time>
      </trkpt>
      <trkpt lat="43.43081" lon="6.04161">
        <ele>309.60000610352</ele>
        <time>2015-09-09T14:14:12Z</time>
      </trkpt>
      <trkpt lat="43.43079" lon="6.04154">
        <ele>309.79998779297</ele>
        <time>2015-09-09T14:14:14Z</time>
      </trkpt>
      <trkpt lat="43.43079" lon="6.04147">
        <ele>309.79998779297</ele>
        <time>2015-09-09T14:14:16Z</time>
      </trkpt>
      <trkpt lat="43.43079" lon="6.04143">
        <ele>309.79998779297</ele>
        <time>2015-09-09T14:14:17Z</time>
      </trkpt>
      <trkpt lat="43.4308" lon="6.0414">
        <ele>309.79998779297</ele>
        <time>2015-09-09T14:14:18Z</time>
      </trkpt>
      <trkpt lat="43.43082" lon="6.04133">
        <ele>309.79998779297</ele>
        <time>2015-09-09T14:14:20Z</time>
      </trkpt>
      <trkpt lat="43.43084" lon="6.04126">
        <ele>309.79998779297</ele>
        <time>2015-09-09T14:14:22Z</time>
      </trkpt>
      <trkpt lat="43.43086" lon="6.0412">
        <ele>310.20001220703</ele>
        <time>2015-09-09T14:14:24Z</time>
      </trkpt>
      <trkpt lat="43.43087" lon="6.04112">
        <ele>310.20001220703</ele>
        <time>2015-09-09T14:14:26Z</time>
      </trkpt>
      <trkpt lat="43.43088" lon="6.04105">
        <ele>310.20001220703</ele>
        <time>2015-09-09T14:14:28Z</time>
      </trkpt>
      <trkpt lat="43.43087" lon="6.04096">
        <ele>310</ele>
        <time>2015-09-09T14:14:30Z</time>
      </trkpt>
      <trkpt lat="43.43087" lon="6.04087">
        <ele>310.39999389648</ele>
        <time>2015-09-09T14:14:32Z</time>
      </trkpt>
      <trkpt lat="43.43085" lon="6.04079">
        <ele>310.60000610352</ele>
        <time>2015-09-09T14:14:34Z</time>
      </trkpt>
      <trkpt lat="43.43085" lon="6.04064">
        <ele>311.39999389648</ele>
        <time>2015-09-09T14:14:38Z</time>
      </trkpt>
      <trkpt lat="43.43084" lon="6.04058">
        <ele>311.79998779297</ele>
        <time>2015-09-09T14:14:40Z</time>
      </trkpt>
      <trkpt lat="43.43084" lon="6.0405">
        <ele>311.60000610352</ele>
        <time>2015-09-09T14:14:42Z</time>
      </trkpt>
      <trkpt lat="43.43084" lon="6.04043">
        <ele>312</ele>
        <time>2015-09-09T14:14:44Z</time>
      </trkpt>
      <trkpt lat="43.43083" lon="6.04036">
        <ele>312.39999389648</ele>
        <time>2015-09-09T14:14:46Z</time>
      </trkpt>
      <trkpt lat="43.43082" lon="6.04028">
        <ele>312.60000610352</ele>
        <time>2015-09-09T14:14:48Z</time>
      </trkpt>
      <trkpt lat="43.4308" lon="6.04023">
        <ele>312.60000610352</ele>
        <time>2015-09-09T14:14:50Z</time>
      </trkpt>
      <trkpt lat="43.43077" lon="6.04022">
        <ele>313.20001220703</ele>
        <time>2015-09-09T14:14:52Z</time>
      </trkpt>
      <trkpt lat="43.43075" lon="6.0402">
        <ele>313.39999389648</ele>
        <time>2015-09-09T14:14:54Z</time>
      </trkpt>
      <trkpt lat="43.43074" lon="6.0402">
        <ele>313.60000610352</ele>
        <time>2015-09-09T14:14:58Z</time>
      </trkpt>
      <trkpt lat="43.43074" lon="6.0402">
        <ele>313.79998779297</ele>
        <time>2015-09-09T14:15:02Z</time>
      </trkpt>
      <trkpt lat="43.43074" lon="6.0402">
        <ele>313.79998779297</ele>
        <time>2015-09-09T14:15:06Z</time>
      </trkpt>
      <trkpt lat="43.43074" lon="6.0402">
        <ele>314</ele>
        <time>2015-09-09T14:15:12Z</time>
      </trkpt>
      <trkpt lat="43.43074" lon="6.04019">
        <ele>313.60000610352</ele>
        <time>2015-09-09T14:15:24Z</time>
      </trkpt>
      <trkpt lat="43.43074" lon="6.04019">
        <ele>313.79998779297</ele>
        <time>2015-09-09T14:17:10Z</time>
      </trkpt>
      <trkpt lat="43.43074" lon="6.04019">
        <ele>314</ele>
        <time>2015-09-09T14:17:32Z</time>
      </trkpt>
      <trkpt lat="43.43074" lon="6.04019">
        <ele>314</ele>
        <time>2015-09-09T14:17:52Z</time>
      </trkpt>
      <trkpt lat="43.43074" lon="6.04019">
        <ele>314</ele>
        <time>2015-09-09T14:18:02Z</time>
      </trkpt>
      <trkpt lat="43.43074" lon="6.04019">
        <ele>314</ele>
        <time>2015-09-09T14:18:06Z</time>
      </trkpt>
      <trkpt lat="43.43074" lon="6.04019">
        <ele>313.79998779297</ele>
        <time>2015-09-09T14:18:16Z</time>
      </trkpt>
      <trkpt lat="43.43074" lon="6.04019">
        <ele>314.20001220703</ele>
        <time>2015-09-09T14:18:28Z</time>
      </trkpt>
      <trkpt lat="43.43074" lon="6.04019">
        <ele>314.20001220703</ele>
        <time>2015-09-09T14:18:30Z</time>
      </trkpt>
      <trkpt lat="43.43075" lon="6.04018">
        <ele>314.20001220703</ele>
        <time>2015-09-09T14:18:32Z</time>
      </trkpt>
      <trkpt lat="43.43075" lon="6.04018">
        <ele>314</ele>
        <time>2015-09-09T14:18:34Z</time>
      </trkpt>
      <trkpt lat="43.43075" lon="6.04018">
        <ele>314</ele>
        <time>2015-09-09T14:18:36Z</time>
      </trkpt>
      <trkpt lat="43.43075" lon="6.04018">
        <ele>314</ele>
        <time>2015-09-09T14:18:38Z</time>
      </trkpt>
      <trkpt lat="43.43074" lon="6.04018">
        <ele>313.79998779297</ele>
        <time>2015-09-09T14:18:40Z</time>
      </trkpt>
      <trkpt lat="43.43074" lon="6.04018">
        <ele>313.79998779297</ele>
        <time>2015-09-09T14:18:46Z</time>
      </trkpt>
      <trkpt lat="43.43074" lon="6.04018">
        <ele>314</ele>
        <time>2015-09-09T14:19:18Z</time>
      </trkpt>
      <trkpt lat="43.43074" lon="6.04019">
        <ele>314</ele>
        <time>2015-09-09T14:19:44Z</time>
      </trkpt>
      <trkpt lat="43.43074" lon="6.04019">
        <ele>314</ele>
        <time>2015-09-09T14:19:48Z</time>
      </trkpt>
      <trkpt lat="43.43074" lon="6.04019">
        <ele>314.20001220703</ele>
        <time>2015-09-09T14:19:56Z</time>
      </trkpt>
      <trkpt lat="43.43074" lon="6.04019">
        <ele>314</ele>
        <time>2015-09-09T14:20:02Z</time>
      </trkpt>
      <trkpt lat="43.43074" lon="6.04019">
        <ele>314</ele>
        <time>2015-09-09T14:20:08Z</time>
      </trkpt>
      <trkpt lat="43.43074" lon="6.04019">
        <ele>314</ele>
        <time>2015-09-09T14:20:14Z</time>
      </trkpt>
      <trkpt lat="43.43072" lon="6.04021">
        <ele>313.79998779297</ele>
        <time>2015-09-09T14:20:16Z</time>
      </trkpt>
      <trkpt lat="43.43069" lon="6.04026">
        <ele>313.60000610352</ele>
        <time>2015-09-09T14:20:18Z</time>
      </trkpt>
      <trkpt lat="43.43067" lon="6.04034">
        <ele>313.39999389648</ele>
        <time>2015-09-09T14:20:20Z</time>
      </trkpt>
      <trkpt lat="43.43066" lon="6.04038">
        <ele>313.39999389648</ele>
        <time>2015-09-09T14:20:21Z</time>
      </trkpt>
      <trkpt lat="43.43064" lon="6.04043">
        <ele>313.60000610352</ele>
        <time>2015-09-09T14:20:22Z</time>
      </trkpt>
      <trkpt lat="43.43061" lon="6.04054">
        <ele>313.39999389648</ele>
        <time>2015-09-09T14:20:24Z</time>
      </trkpt>
      <trkpt lat="43.43058" lon="6.04065">
        <ele>313.20001220703</ele>
        <time>2015-09-09T14:20:26Z</time>
      </trkpt>
      <trkpt lat="43.43056" lon="6.0407">
        <ele>312.79998779297</ele>
        <time>2015-09-09T14:20:27Z</time>
      </trkpt>
      <trkpt lat="43.43053" lon="6.04082">
        <ele>312.79998779297</ele>
        <time>2015-09-09T14:20:29Z</time>
      </trkpt>
      <trkpt lat="43.43051" lon="6.04088">
        <ele>313</ele>
        <time>2015-09-09T14:20:30Z</time>
      </trkpt>
      <trkpt lat="43.43048" lon="6.04102">
        <ele>313.39999389648</ele>
        <time>2015-09-09T14:20:32Z</time>
      </trkpt>
      <trkpt lat="43.43045" lon="6.04113">
        <ele>313.79998779297</ele>
        <time>2015-09-09T14:20:34Z</time>
      </trkpt>
      <trkpt lat="43.43044" lon="6.04117">
        <ele>313.60000610352</ele>
        <time>2015-09-09T14:20:35Z</time>
      </trkpt>
      <trkpt lat="43.43044" lon="6.0412">
        <ele>313.39999389648</ele>
        <time>2015-09-09T14:20:36Z</time>
      </trkpt>
      <trkpt lat="43.43044" lon="6.04124">
        <ele>312.79998779297</ele>
        <time>2015-09-09T14:20:38Z</time>
      </trkpt>
      <trkpt lat="43.43043" lon="6.04127">
        <ele>312.60000610352</ele>
        <time>2015-09-09T14:20:39Z</time>
      </trkpt>
      <trkpt lat="43.43042" lon="6.0413">
        <ele>312.60000610352</ele>
        <time>2015-09-09T14:20:40Z</time>
      </trkpt>
      <trkpt lat="43.43039" lon="6.04138">
        <ele>312.39999389648</ele>
        <time>2015-09-09T14:20:42Z</time>
      </trkpt>
      <trkpt lat="43.43037" lon="6.04148">
        <ele>312.79998779297</ele>
        <time>2015-09-09T14:20:44Z</time>
      </trkpt>
      <trkpt lat="43.43035" lon="6.04159">
        <ele>312.39999389648</ele>
        <time>2015-09-09T14:20:46Z</time>
      </trkpt>
      <trkpt lat="43.43032" lon="6.04169">
        <ele>312.39999389648</ele>
        <time>2015-09-09T14:20:48Z</time>
      </trkpt>
      <trkpt lat="43.4303" lon="6.0418">
        <ele>312.60000610352</ele>
        <time>2015-09-09T14:20:50Z</time>
      </trkpt>
      <trkpt lat="43.43028" lon="6.04191">
        <ele>312.79998779297</ele>
        <time>2015-09-09T14:20:52Z</time>
      </trkpt>
      <trkpt lat="43.43024" lon="6.04212">
        <ele>313.20001220703</ele>
        <time>2015-09-09T14:20:56Z</time>
      </trkpt>
      <trkpt lat="43.43021" lon="6.04222">
        <ele>313.60000610352</ele>
        <time>2015-09-09T14:20:58Z</time>
      </trkpt>
      <trkpt lat="43.4302" lon="6.04227">
        <ele>313.39999389648</ele>
        <time>2015-09-09T14:20:59Z</time>
      </trkpt>
      <trkpt lat="43.43018" lon="6.04238">
        <ele>313.60000610352</ele>
        <time>2015-09-09T14:21:01Z</time>
      </trkpt>
      <trkpt lat="43.43016" lon="6.04244">
        <ele>313.79998779297</ele>
        <time>2015-09-09T14:21:02Z</time>
      </trkpt>
      <trkpt lat="43.43014" lon="6.04255">
        <ele>313.20001220703</ele>
        <time>2015-09-09T14:21:04Z</time>
      </trkpt>
      <trkpt lat="43.43011" lon="6.04268">
        <ele>312.79998779297</ele>
        <time>2015-09-09T14:21:06Z</time>
      </trkpt>
      <trkpt lat="43.43009" lon="6.04282">
        <ele>313</ele>
        <time>2015-09-09T14:21:08Z</time>
      </trkpt>
      <trkpt lat="43.43007" lon="6.04297">
        <ele>313.39999389648</ele>
        <time>2015-09-09T14:21:10Z</time>
      </trkpt>
      <trkpt lat="43.43006" lon="6.04314">
        <ele>311.79998779297</ele>
        <time>2015-09-09T14:21:12Z</time>
      </trkpt>
      <trkpt lat="43.43004" lon="6.0433">
        <ele>311.20001220703</ele>
        <time>2015-09-09T14:21:14Z</time>
      </trkpt>
      <trkpt lat="43.43003" lon="6.04337">
        <ele>311</ele>
        <time>2015-09-09T14:21:15Z</time>
      </trkpt>
      <trkpt lat="43.43003" lon="6.04345">
        <ele>310.60000610352</ele>
        <time>2015-09-09T14:21:16Z</time>
      </trkpt>
      <trkpt lat="43.43002" lon="6.0436">
        <ele>310.60000610352</ele>
        <time>2015-09-09T14:21:18Z</time>
      </trkpt>
      <trkpt lat="43.43001" lon="6.04367">
        <ele>311.60000610352</ele>
        <time>2015-09-09T14:21:19Z</time>
      </trkpt>
      <trkpt lat="43.43" lon="6.04373">
        <ele>311.79998779297</ele>
        <time>2015-09-09T14:21:20Z</time>
      </trkpt>
      <trkpt lat="43.42999" lon="6.04384">
        <ele>313</ele>
        <time>2015-09-09T14:21:22Z</time>
      </trkpt>
      <trkpt lat="43.42997" lon="6.04394">
        <ele>313</ele>
        <time>2015-09-09T14:21:24Z</time>
      </trkpt>
      <trkpt lat="43.42995" lon="6.04404">
        <ele>313.60000610352</ele>
        <time>2015-09-09T14:21:26Z</time>
      </trkpt>
      <trkpt lat="43.42994" lon="6.04412">
        <ele>314</ele>
        <time>2015-09-09T14:21:28Z</time>
      </trkpt>
      <trkpt lat="43.42993" lon="6.04415">
        <ele>314</ele>
        <time>2015-09-09T14:21:29Z</time>
      </trkpt>
      <trkpt lat="43.42993" lon="6.0442">
        <ele>314.20001220703</ele>
        <time>2015-09-09T14:21:30Z</time>
      </trkpt>
      <trkpt lat="43.42992" lon="6.04429">
        <ele>314.60000610352</ele>
        <time>2015-09-09T14:21:32Z</time>
      </trkpt>
      <trkpt lat="43.42991" lon="6.04442">
        <ele>313.79998779297</ele>
        <time>2015-09-09T14:21:35Z</time>
      </trkpt>
      <trkpt lat="43.4299" lon="6.04446">
        <ele>314.20001220703</ele>
        <time>2015-09-09T14:21:36Z</time>
      </trkpt>
      <trkpt lat="43.42988" lon="6.04455">
        <ele>314.20001220703</ele>
        <time>2015-09-09T14:21:38Z</time>
      </trkpt>
      <trkpt lat="43.42985" lon="6.04465">
        <ele>314.20001220703</ele>
        <time>2015-09-09T14:21:40Z</time>
      </trkpt>
      <trkpt lat="43.42982" lon="6.04476">
        <ele>313.20001220703</ele>
        <time>2015-09-09T14:21:42Z</time>
      </trkpt>
      <trkpt lat="43.42979" lon="6.0449">
        <ele>312.20001220703</ele>
        <time>2015-09-09T14:21:44Z</time>
      </trkpt>
      <trkpt lat="43.42977" lon="6.04504">
        <ele>311</ele>
        <time>2015-09-09T14:21:46Z</time>
      </trkpt>
      <trkpt lat="43.42977" lon="6.04513">
        <ele>310.20001220703</ele>
        <time>2015-09-09T14:21:47Z</time>
      </trkpt>
      <trkpt lat="43.42977" lon="6.04523">
        <ele>309.20001220703</ele>
        <time>2015-09-09T14:21:48Z</time>
      </trkpt>
      <trkpt lat="43.42977" lon="6.04535">
        <ele>307.39999389648</ele>
        <time>2015-09-09T14:21:49Z</time>
      </trkpt>
      <trkpt lat="43.42977" lon="6.04547">
        <ele>306</ele>
        <time>2015-09-09T14:21:50Z</time>
      </trkpt>
      <trkpt lat="43.42977" lon="6.04558">
        <ele>305.79998779297</ele>
        <time>2015-09-09T14:21:51Z</time>
      </trkpt>
      <trkpt lat="43.42977" lon="6.04568">
        <ele>305</ele>
        <time>2015-09-09T14:21:52Z</time>
      </trkpt>
      <trkpt lat="43.42976" lon="6.04576">
        <ele>305.60000610352</ele>
        <time>2015-09-09T14:21:53Z</time>
      </trkpt>
      <trkpt lat="43.42975" lon="6.04582">
        <ele>305.79998779297</ele>
        <time>2015-09-09T14:21:54Z</time>
      </trkpt>
      <trkpt lat="43.42973" lon="6.04592">
        <ele>307.39999389648</ele>
        <time>2015-09-09T14:21:56Z</time>
      </trkpt>
      <trkpt lat="43.42972" lon="6.04601">
        <ele>307.60000610352</ele>
        <time>2015-09-09T14:21:58Z</time>
      </trkpt>
      <trkpt lat="43.42972" lon="6.04605">
        <ele>307.20001220703</ele>
        <time>2015-09-09T14:21:59Z</time>
      </trkpt>
      <trkpt lat="43.42971" lon="6.0461">
        <ele>307.39999389648</ele>
        <time>2015-09-09T14:22:00Z</time>
      </trkpt>
      <trkpt lat="43.4297" lon="6.04619">
        <ele>308.20001220703</ele>
        <time>2015-09-09T14:22:02Z</time>
      </trkpt>
      <trkpt lat="43.4297" lon="6.04623">
        <ele>308.39999389648</ele>
        <time>2015-09-09T14:22:03Z</time>
      </trkpt>
      <trkpt lat="43.42969" lon="6.04628">
        <ele>308.39999389648</ele>
        <time>2015-09-09T14:22:04Z</time>
      </trkpt>
      <trkpt lat="43.42968" lon="6.04639">
        <ele>308</ele>
        <time>2015-09-09T14:22:06Z</time>
      </trkpt>
      <trkpt lat="43.42964" lon="6.04673">
        <ele>308.20001220703</ele>
        <time>2015-09-09T14:22:12Z</time>
      </trkpt>
      <trkpt lat="43.42963" lon="6.04685">
        <ele>308.39999389648</ele>
        <time>2015-09-09T14:22:14Z</time>
      </trkpt>
      <trkpt lat="43.42962" lon="6.04696">
        <ele>308.60000610352</ele>
        <time>2015-09-09T14:22:16Z</time>
      </trkpt>
      <trkpt lat="43.4296" lon="6.04707">
        <ele>308.60000610352</ele>
        <time>2015-09-09T14:22:18Z</time>
      </trkpt>
      <trkpt lat="43.42958" lon="6.04717">
        <ele>308.60000610352</ele>
        <time>2015-09-09T14:22:20Z</time>
      </trkpt>
      <trkpt lat="43.42958" lon="6.04722">
        <ele>308.39999389648</ele>
        <time>2015-09-09T14:22:21Z</time>
      </trkpt>
      <trkpt lat="43.42957" lon="6.04733">
        <ele>308.39999389648</ele>
        <time>2015-09-09T14:22:23Z</time>
      </trkpt>
      <trkpt lat="43.42953" lon="6.04762">
        <ele>307.79998779297</ele>
        <time>2015-09-09T14:22:28Z</time>
      </trkpt>
      <trkpt lat="43.42953" lon="6.04775">
        <ele>308</ele>
        <time>2015-09-09T14:22:30Z</time>
      </trkpt>
      <trkpt lat="43.42952" lon="6.0479">
        <ele>307.39999389648</ele>
        <time>2015-09-09T14:22:32Z</time>
      </trkpt>
      <trkpt lat="43.42951" lon="6.04797">
        <ele>307.20001220703</ele>
        <time>2015-09-09T14:22:33Z</time>
      </trkpt>
      <trkpt lat="43.4295" lon="6.04805">
        <ele>306.60000610352</ele>
        <time>2015-09-09T14:22:34Z</time>
      </trkpt>
      <trkpt lat="43.42949" lon="6.04812">
        <ele>306</ele>
        <time>2015-09-09T14:22:35Z</time>
      </trkpt>
      <trkpt lat="43.42948" lon="6.0482">
        <ele>306</ele>
        <time>2015-09-09T14:22:36Z</time>
      </trkpt>
      <trkpt lat="43.42946" lon="6.04834">
        <ele>305.60000610352</ele>
        <time>2015-09-09T14:22:38Z</time>
      </trkpt>
      <trkpt lat="43.42945" lon="6.0484">
        <ele>305.39999389648</ele>
        <time>2015-09-09T14:22:39Z</time>
      </trkpt>
      <trkpt lat="43.42943" lon="6.04846">
        <ele>305.60000610352</ele>
        <time>2015-09-09T14:22:40Z</time>
      </trkpt>
      <trkpt lat="43.42941" lon="6.04856">
        <ele>306.39999389648</ele>
        <time>2015-09-09T14:22:42Z</time>
      </trkpt>
      <trkpt lat="43.42938" lon="6.04863">
        <ele>307</ele>
        <time>2015-09-09T14:22:44Z</time>
      </trkpt>
      <trkpt lat="43.42937" lon="6.04869">
        <ele>307.20001220703</ele>
        <time>2015-09-09T14:22:46Z</time>
      </trkpt>
      <trkpt lat="43.42936" lon="6.04875">
        <ele>307.20001220703</ele>
        <time>2015-09-09T14:22:48Z</time>
      </trkpt>
      <trkpt lat="43.42935" lon="6.0488">
        <ele>308</ele>
        <time>2015-09-09T14:22:50Z</time>
      </trkpt>
      <trkpt lat="43.42935" lon="6.04884">
        <ele>308.79998779297</ele>
        <time>2015-09-09T14:22:52Z</time>
      </trkpt>
      <trkpt lat="43.42934" lon="6.04889">
        <ele>309.20001220703</ele>
        <time>2015-09-09T14:22:54Z</time>
      </trkpt>
      <trkpt lat="43.42934" lon="6.04897">
        <ele>310.20001220703</ele>
        <time>2015-09-09T14:22:58Z</time>
      </trkpt>
      <trkpt lat="43.42933" lon="6.04905">
        <ele>311</ele>
        <time>2015-09-09T14:23:02Z</time>
      </trkpt>
      <trkpt lat="43.42934" lon="6.04912">
        <ele>311.79998779297</ele>
        <time>2015-09-09T14:23:06Z</time>
      </trkpt>
      <trkpt lat="43.42933" lon="6.04916">
        <ele>311.79998779297</ele>
        <time>2015-09-09T14:23:08Z</time>
      </trkpt>
      <trkpt lat="43.42933" lon="6.04919">
        <ele>311.79998779297</ele>
        <time>2015-09-09T14:23:10Z</time>
      </trkpt>
      <trkpt lat="43.42934" lon="6.04927">
        <ele>312.20001220703</ele>
        <time>2015-09-09T14:23:14Z</time>
      </trkpt>
      <trkpt lat="43.42934" lon="6.04932">
        <ele>312</ele>
        <time>2015-09-09T14:23:16Z</time>
      </trkpt>
      <trkpt lat="43.42933" lon="6.04935">
        <ele>312.20001220703</ele>
        <time>2015-09-09T14:23:18Z</time>
      </trkpt>
      <trkpt lat="43.42933" lon="6.04939">
        <ele>312.20001220703</ele>
        <time>2015-09-09T14:23:20Z</time>
      </trkpt>
      <trkpt lat="43.42933" lon="6.04943">
        <ele>312.60000610352</ele>
        <time>2015-09-09T14:23:22Z</time>
      </trkpt>
      <trkpt lat="43.42932" lon="6.04951">
        <ele>313</ele>
        <time>2015-09-09T14:23:25Z</time>
      </trkpt>
      <trkpt lat="43.42932" lon="6.04954">
        <ele>313</ele>
        <time>2015-09-09T14:23:26Z</time>
      </trkpt>
      <trkpt lat="43.42931" lon="6.04959">
        <ele>313</ele>
        <time>2015-09-09T14:23:28Z</time>
      </trkpt>
      <trkpt lat="43.42931" lon="6.04965">
        <ele>313</ele>
        <time>2015-09-09T14:23:30Z</time>
      </trkpt>
      <trkpt lat="43.42929" lon="6.04971">
        <ele>313.60000610352</ele>
        <time>2015-09-09T14:23:32Z</time>
      </trkpt>
      <trkpt lat="43.42928" lon="6.04983">
        <ele>313.60000610352</ele>
        <time>2015-09-09T14:23:36Z</time>
      </trkpt>
      <trkpt lat="43.42928" lon="6.04988">
        <ele>313.79998779297</ele>
        <time>2015-09-09T14:23:38Z</time>
      </trkpt>
      <trkpt lat="43.42926" lon="6.04994">
        <ele>313.79998779297</ele>
        <time>2015-09-09T14:23:40Z</time>
      </trkpt>
      <trkpt lat="43.42926" lon="6.05">
        <ele>313.60000610352</ele>
        <time>2015-09-09T14:23:42Z</time>
      </trkpt>
      <trkpt lat="43.42925" lon="6.05006">
        <ele>314.39999389648</ele>
        <time>2015-09-09T14:23:44Z</time>
      </trkpt>
      <trkpt lat="43.42924" lon="6.05012">
        <ele>314.39999389648</ele>
        <time>2015-09-09T14:23:46Z</time>
      </trkpt>
      <trkpt lat="43.42924" lon="6.05025">
        <ele>314.60000610352</ele>
        <time>2015-09-09T14:23:50Z</time>
      </trkpt>
      <trkpt lat="43.42919" lon="6.05076">
        <ele>315.39999389648</ele>
        <time>2015-09-09T14:24:04Z</time>
      </trkpt>
      <trkpt lat="43.42918" lon="6.05084">
        <ele>315.39999389648</ele>
        <time>2015-09-09T14:24:06Z</time>
      </trkpt>
      <trkpt lat="43.42918" lon="6.05093">
        <ele>315.60000610352</ele>
        <time>2015-09-09T14:24:08Z</time>
      </trkpt>
      <trkpt lat="43.42917" lon="6.05101">
        <ele>315.60000610352</ele>
        <time>2015-09-09T14:24:10Z</time>
      </trkpt>
      <trkpt lat="43.42916" lon="6.0511">
        <ele>314.79998779297</ele>
        <time>2015-09-09T14:24:12Z</time>
      </trkpt>
      <trkpt lat="43.42915" lon="6.0512">
        <ele>316.20001220703</ele>
        <time>2015-09-09T14:24:14Z</time>
      </trkpt>
      <trkpt lat="43.42913" lon="6.05128">
        <ele>317</ele>
        <time>2015-09-09T14:24:16Z</time>
      </trkpt>
      <trkpt lat="43.42912" lon="6.05137">
        <ele>317</ele>
        <time>2015-09-09T14:24:18Z</time>
      </trkpt>
      <trkpt lat="43.42911" lon="6.05141">
        <ele>317.60000610352</ele>
        <time>2015-09-09T14:24:19Z</time>
      </trkpt>
      <trkpt lat="43.4291" lon="6.05145">
        <ele>317.60000610352</ele>
        <time>2015-09-09T14:24:20Z</time>
      </trkpt>
      <trkpt lat="43.42908" lon="6.05153">
        <ele>317.60000610352</ele>
        <time>2015-09-09T14:24:22Z</time>
      </trkpt>
      <trkpt lat="43.42907" lon="6.05161">
        <ele>317.39999389648</ele>
        <time>2015-09-09T14:24:24Z</time>
      </trkpt>
      <trkpt lat="43.42906" lon="6.0517">
        <ele>318.20001220703</ele>
        <time>2015-09-09T14:24:26Z</time>
      </trkpt>
      <trkpt lat="43.42906" lon="6.05178">
        <ele>317.79998779297</ele>
        <time>2015-09-09T14:24:28Z</time>
      </trkpt>
      <trkpt lat="43.42905" lon="6.05186">
        <ele>318.39999389648</ele>
        <time>2015-09-09T14:24:30Z</time>
      </trkpt>
      <trkpt lat="43.42904" lon="6.0519">
        <ele>318.39999389648</ele>
        <time>2015-09-09T14:24:31Z</time>
      </trkpt>
      <trkpt lat="43.42903" lon="6.05197">
        <ele>318.39999389648</ele>
        <time>2015-09-09T14:24:33Z</time>
      </trkpt>
      <trkpt lat="43.42901" lon="6.0521">
        <ele>318.79998779297</ele>
        <time>2015-09-09T14:24:36Z</time>
      </trkpt>
      <trkpt lat="43.42898" lon="6.05229">
        <ele>319</ele>
        <time>2015-09-09T14:24:40Z</time>
      </trkpt>
      <trkpt lat="43.42898" lon="6.05233">
        <ele>319.20001220703</ele>
        <time>2015-09-09T14:24:41Z</time>
      </trkpt>
      <trkpt lat="43.42897" lon="6.05238">
        <ele>319.20001220703</ele>
        <time>2015-09-09T14:24:42Z</time>
      </trkpt>
      <trkpt lat="43.42896" lon="6.05246">
        <ele>319</ele>
        <time>2015-09-09T14:24:44Z</time>
      </trkpt>
      <trkpt lat="43.42895" lon="6.05254">
        <ele>319</ele>
        <time>2015-09-09T14:24:46Z</time>
      </trkpt>
      <trkpt lat="43.42894" lon="6.05263">
        <ele>319</ele>
        <time>2015-09-09T14:24:48Z</time>
      </trkpt>
      <trkpt lat="43.42893" lon="6.05271">
        <ele>319</ele>
        <time>2015-09-09T14:24:50Z</time>
      </trkpt>
      <trkpt lat="43.42892" lon="6.05278">
        <ele>319.20001220703</ele>
        <time>2015-09-09T14:24:52Z</time>
      </trkpt>
      <trkpt lat="43.42892" lon="6.05286">
        <ele>319.39999389648</ele>
        <time>2015-09-09T14:24:54Z</time>
      </trkpt>
      <trkpt lat="43.42891" lon="6.05291">
        <ele>319.39999389648</ele>
        <time>2015-09-09T14:24:55Z</time>
      </trkpt>
      <trkpt lat="43.42891" lon="6.05295">
        <ele>319.39999389648</ele>
        <time>2015-09-09T14:24:56Z</time>
      </trkpt>
      <trkpt lat="43.42889" lon="6.05315">
        <ele>320</ele>
        <time>2015-09-09T14:25:00Z</time>
      </trkpt>
      <trkpt lat="43.42887" lon="6.05326">
        <ele>319</ele>
        <time>2015-09-09T14:25:02Z</time>
      </trkpt>
      <trkpt lat="43.42885" lon="6.05338">
        <ele>318.39999389648</ele>
        <time>2015-09-09T14:25:04Z</time>
      </trkpt>
      <trkpt lat="43.42884" lon="6.0535">
        <ele>317.79998779297</ele>
        <time>2015-09-09T14:25:06Z</time>
      </trkpt>
      <trkpt lat="43.42883" lon="6.05357">
        <ele>317.79998779297</ele>
        <time>2015-09-09T14:25:07Z</time>
      </trkpt>
      <trkpt lat="43.42882" lon="6.05363">
        <ele>317.60000610352</ele>
        <time>2015-09-09T14:25:08Z</time>
      </trkpt>
      <trkpt lat="43.42882" lon="6.0537">
        <ele>317.20001220703</ele>
        <time>2015-09-09T14:25:09Z</time>
      </trkpt>
      <trkpt lat="43.42881" lon="6.05377">
        <ele>317.20001220703</ele>
        <time>2015-09-09T14:25:10Z</time>
      </trkpt>
      <trkpt lat="43.42881" lon="6.05391">
        <ele>317.60000610352</ele>
        <time>2015-09-09T14:25:12Z</time>
      </trkpt>
      <trkpt lat="43.4288" lon="6.05405">
        <ele>316.60000610352</ele>
        <time>2015-09-09T14:25:14Z</time>
      </trkpt>
      <trkpt lat="43.42879" lon="6.05412">
        <ele>315.39999389648</ele>
        <time>2015-09-09T14:25:15Z</time>
      </trkpt>
      <trkpt lat="43.42876" lon="6.05432">
        <ele>315</ele>
        <time>2015-09-09T14:25:18Z</time>
      </trkpt>
      <trkpt lat="43.42873" lon="6.05445">
        <ele>315.39999389648</ele>
        <time>2015-09-09T14:25:20Z</time>
      </trkpt>
      <trkpt lat="43.42873" lon="6.05452">
        <ele>315.20001220703</ele>
        <time>2015-09-09T14:25:21Z</time>
      </trkpt>
      <trkpt lat="43.42871" lon="6.05459">
        <ele>314.79998779297</ele>
        <time>2015-09-09T14:25:22Z</time>
      </trkpt>
      <trkpt lat="43.42871" lon="6.05466">
        <ele>314.20001220703</ele>
        <time>2015-09-09T14:25:23Z</time>
      </trkpt>
      <trkpt lat="43.42869" lon="6.05488">
        <ele>314</ele>
        <time>2015-09-09T14:25:26Z</time>
      </trkpt>
      <trkpt lat="43.42868" lon="6.05495">
        <ele>314</ele>
        <time>2015-09-09T14:25:27Z</time>
      </trkpt>
      <trkpt lat="43.42868" lon="6.05502">
        <ele>314</ele>
        <time>2015-09-09T14:25:28Z</time>
      </trkpt>
      <trkpt lat="43.42866" lon="6.05516">
        <ele>314</ele>
        <time>2015-09-09T14:25:30Z</time>
      </trkpt>
      <trkpt lat="43.42865" lon="6.0553">
        <ele>314.20001220703</ele>
        <time>2015-09-09T14:25:32Z</time>
      </trkpt>
      <trkpt lat="43.42862" lon="6.05543">
        <ele>314</ele>
        <time>2015-09-09T14:25:34Z</time>
      </trkpt>
      <trkpt lat="43.42859" lon="6.05557">
        <ele>313.39999389648</ele>
        <time>2015-09-09T14:25:36Z</time>
      </trkpt>
      <trkpt lat="43.42857" lon="6.0557">
        <ele>313.39999389648</ele>
        <time>2015-09-09T14:25:38Z</time>
      </trkpt>
      <trkpt lat="43.42855" lon="6.05593">
        <ele>314</ele>
        <time>2015-09-09T14:25:42Z</time>
      </trkpt>
      <trkpt lat="43.42854" lon="6.05603">
        <ele>314.20001220703</ele>
        <time>2015-09-09T14:25:44Z</time>
      </trkpt>
      <trkpt lat="43.42853" lon="6.05614">
        <ele>314.60000610352</ele>
        <time>2015-09-09T14:25:46Z</time>
      </trkpt>
      <trkpt lat="43.42852" lon="6.05626">
        <ele>314.60000610352</ele>
        <time>2015-09-09T14:25:48Z</time>
      </trkpt>
      <trkpt lat="43.42852" lon="6.05632">
        <ele>314.60000610352</ele>
        <time>2015-09-09T14:25:49Z</time>
      </trkpt>
      <trkpt lat="43.42851" lon="6.05638">
        <ele>314.60000610352</ele>
        <time>2015-09-09T14:25:50Z</time>
      </trkpt>
      <trkpt lat="43.42849" lon="6.05649">
        <ele>314.60000610352</ele>
        <time>2015-09-09T14:25:52Z</time>
      </trkpt>
      <trkpt lat="43.42848" lon="6.05659">
        <ele>315</ele>
        <time>2015-09-09T14:25:54Z</time>
      </trkpt>
      <trkpt lat="43.42847" lon="6.05668">
        <ele>314.79998779297</ele>
        <time>2015-09-09T14:25:56Z</time>
      </trkpt>
      <trkpt lat="43.42847" lon="6.05672">
        <ele>315.20001220703</ele>
        <time>2015-09-09T14:25:57Z</time>
      </trkpt>
      <trkpt lat="43.42846" lon="6.05677">
        <ele>315.39999389648</ele>
        <time>2015-09-09T14:25:58Z</time>
      </trkpt>
      <trkpt lat="43.42845" lon="6.05686">
        <ele>315.60000610352</ele>
        <time>2015-09-09T14:26:00Z</time>
      </trkpt>
      <trkpt lat="43.42844" lon="6.05696">
        <ele>315.60000610352</ele>
        <time>2015-09-09T14:26:02Z</time>
      </trkpt>
      <trkpt lat="43.42842" lon="6.05706">
        <ele>315.60000610352</ele>
        <time>2015-09-09T14:26:04Z</time>
      </trkpt>
      <trkpt lat="43.42841" lon="6.05717">
        <ele>315.60000610352</ele>
        <time>2015-09-09T14:26:06Z</time>
      </trkpt>
      <trkpt lat="43.4284" lon="6.05728">
        <ele>315.60000610352</ele>
        <time>2015-09-09T14:26:08Z</time>
      </trkpt>
      <trkpt lat="43.42839" lon="6.05741">
        <ele>314.60000610352</ele>
        <time>2015-09-09T14:26:10Z</time>
      </trkpt>
      <trkpt lat="43.42839" lon="6.05747">
        <ele>314.60000610352</ele>
        <time>2015-09-09T14:26:11Z</time>
      </trkpt>
      <trkpt lat="43.42838" lon="6.05753">
        <ele>314.60000610352</ele>
        <time>2015-09-09T14:26:12Z</time>
      </trkpt>
      <trkpt lat="43.42837" lon="6.05765">
        <ele>314.20001220703</ele>
        <time>2015-09-09T14:26:14Z</time>
      </trkpt>
      <trkpt lat="43.42835" lon="6.05776">
        <ele>313.79998779297</ele>
        <time>2015-09-09T14:26:16Z</time>
      </trkpt>
      <trkpt lat="43.42834" lon="6.05787">
        <ele>314.60000610352</ele>
        <time>2015-09-09T14:26:18Z</time>
      </trkpt>
      <trkpt lat="43.42833" lon="6.05792">
        <ele>314.20001220703</ele>
        <time>2015-09-09T14:26:19Z</time>
      </trkpt>
      <trkpt lat="43.42832" lon="6.05796">
        <ele>314.20001220703</ele>
        <time>2015-09-09T14:26:20Z</time>
      </trkpt>
      <trkpt lat="43.42831" lon="6.05805">
        <ele>315</ele>
        <time>2015-09-09T14:26:22Z</time>
      </trkpt>
      <trkpt lat="43.4283" lon="6.05812">
        <ele>315.20001220703</ele>
        <time>2015-09-09T14:26:24Z</time>
      </trkpt>
      <trkpt lat="43.4283" lon="6.05819">
        <ele>315.60000610352</ele>
        <time>2015-09-09T14:26:26Z</time>
      </trkpt>
      <trkpt lat="43.42828" lon="6.05827">
        <ele>315.79998779297</ele>
        <time>2015-09-09T14:26:28Z</time>
      </trkpt>
      <trkpt lat="43.42828" lon="6.05833">
        <ele>316.20001220703</ele>
        <time>2015-09-09T14:26:30Z</time>
      </trkpt>
      <trkpt lat="43.42827" lon="6.05839">
        <ele>316.60000610352</ele>
        <time>2015-09-09T14:26:32Z</time>
      </trkpt>
      <trkpt lat="43.42826" lon="6.05844">
        <ele>317.20001220703</ele>
        <time>2015-09-09T14:26:34Z</time>
      </trkpt>
      <trkpt lat="43.42826" lon="6.05849">
        <ele>318</ele>
        <time>2015-09-09T14:26:36Z</time>
      </trkpt>
      <trkpt lat="43.42825" lon="6.05854">
        <ele>318.39999389648</ele>
        <time>2015-09-09T14:26:38Z</time>
      </trkpt>
      <trkpt lat="43.42824" lon="6.05858">
        <ele>319</ele>
        <time>2015-09-09T14:26:40Z</time>
      </trkpt>
      <trkpt lat="43.42822" lon="6.05862">
        <ele>319.39999389648</ele>
        <time>2015-09-09T14:26:42Z</time>
      </trkpt>
      <trkpt lat="43.42818" lon="6.05869">
        <ele>320.20001220703</ele>
        <time>2015-09-09T14:26:46Z</time>
      </trkpt>
      <trkpt lat="43.42817" lon="6.05873">
        <ele>320.39999389648</ele>
        <time>2015-09-09T14:26:48Z</time>
      </trkpt>
      <trkpt lat="43.42814" lon="6.05877">
        <ele>320.79998779297</ele>
        <time>2015-09-09T14:26:50Z</time>
      </trkpt>
      <trkpt lat="43.42813" lon="6.05881">
        <ele>321.20001220703</ele>
        <time>2015-09-09T14:26:52Z</time>
      </trkpt>
      <trkpt lat="43.4281" lon="6.05886">
        <ele>321.20001220703</ele>
        <time>2015-09-09T14:26:55Z</time>
      </trkpt>
      <trkpt lat="43.42809" lon="6.05887">
        <ele>321.20001220703</ele>
        <time>2015-09-09T14:26:56Z</time>
      </trkpt>
      <trkpt lat="43.42808" lon="6.05889">
        <ele>321.79998779297</ele>
        <time>2015-09-09T14:26:57Z</time>
      </trkpt>
      <trkpt lat="43.42807" lon="6.0589">
        <ele>322.20001220703</ele>
        <time>2015-09-09T14:26:58Z</time>
      </trkpt>
      <trkpt lat="43.42806" lon="6.05893">
        <ele>322.60000610352</ele>
        <time>2015-09-09T14:27:00Z</time>
      </trkpt>
      <trkpt lat="43.42805" lon="6.05897">
        <ele>322.60000610352</ele>
        <time>2015-09-09T14:27:02Z</time>
      </trkpt>
      <trkpt lat="43.42804" lon="6.059">
        <ele>322.79998779297</ele>
        <time>2015-09-09T14:27:04Z</time>
      </trkpt>
      <trkpt lat="43.42803" lon="6.05903">
        <ele>323</ele>
        <time>2015-09-09T14:27:06Z</time>
      </trkpt>
      <trkpt lat="43.42801" lon="6.05906">
        <ele>323.79998779297</ele>
        <time>2015-09-09T14:27:08Z</time>
      </trkpt>
      <trkpt lat="43.42801" lon="6.05907">
        <ele>323.79998779297</ele>
        <time>2015-09-09T14:27:09Z</time>
      </trkpt>
      <trkpt lat="43.42798" lon="6.05912">
        <ele>323.79998779297</ele>
        <time>2015-09-09T14:27:12Z</time>
      </trkpt>
      <trkpt lat="43.42796" lon="6.05914">
        <ele>324.20001220703</ele>
        <time>2015-09-09T14:27:14Z</time>
      </trkpt>
      <trkpt lat="43.42794" lon="6.05916">
        <ele>324.79998779297</ele>
        <time>2015-09-09T14:27:16Z</time>
      </trkpt>
      <trkpt lat="43.42793" lon="6.05918">
        <ele>325</ele>
        <time>2015-09-09T14:27:18Z</time>
      </trkpt>
      <trkpt lat="43.42792" lon="6.05922">
        <ele>325.20001220703</ele>
        <time>2015-09-09T14:27:20Z</time>
      </trkpt>
      <trkpt lat="43.42791" lon="6.05925">
        <ele>325.39999389648</ele>
        <time>2015-09-09T14:27:22Z</time>
      </trkpt>
      <trkpt lat="43.42789" lon="6.05928">
        <ele>325.60000610352</ele>
        <time>2015-09-09T14:27:24Z</time>
      </trkpt>
      <trkpt lat="43.42788" lon="6.05932">
        <ele>326</ele>
        <time>2015-09-09T14:27:27Z</time>
      </trkpt>
      <trkpt lat="43.42788" lon="6.05934">
        <ele>326</ele>
        <time>2015-09-09T14:27:28Z</time>
      </trkpt>
      <trkpt lat="43.42786" lon="6.05938">
        <ele>326</ele>
        <time>2015-09-09T14:27:30Z</time>
      </trkpt>
      <trkpt lat="43.42786" lon="6.05939">
        <ele>326.39999389648</ele>
        <time>2015-09-09T14:27:31Z</time>
      </trkpt>
      <trkpt lat="43.42785" lon="6.05941">
        <ele>326.39999389648</ele>
        <time>2015-09-09T14:27:32Z</time>
      </trkpt>
      <trkpt lat="43.42784" lon="6.05943">
        <ele>326.60000610352</ele>
        <time>2015-09-09T14:27:34Z</time>
      </trkpt>
      <trkpt lat="43.42783" lon="6.05947">
        <ele>326.79998779297</ele>
        <time>2015-09-09T14:27:36Z</time>
      </trkpt>
      <trkpt lat="43.42782" lon="6.0595">
        <ele>326.60000610352</ele>
        <time>2015-09-09T14:27:38Z</time>
      </trkpt>
      <trkpt lat="43.42781" lon="6.05954">
        <ele>326.60000610352</ele>
        <time>2015-09-09T14:27:40Z</time>
      </trkpt>
      <trkpt lat="43.4278" lon="6.05961">
        <ele>326.60000610352</ele>
        <time>2015-09-09T14:27:44Z</time>
      </trkpt>
      <trkpt lat="43.42779" lon="6.05966">
        <ele>327</ele>
        <time>2015-09-09T14:27:47Z</time>
      </trkpt>
      <trkpt lat="43.42778" lon="6.05974">
        <ele>327.20001220703</ele>
        <time>2015-09-09T14:27:52Z</time>
      </trkpt>
      <trkpt lat="43.42778" lon="6.05977">
        <ele>327.20001220703</ele>
        <time>2015-09-09T14:27:54Z</time>
      </trkpt>
      <trkpt lat="43.42777" lon="6.05979">
        <ele>327.39999389648</ele>
        <time>2015-09-09T14:27:56Z</time>
      </trkpt>
      <trkpt lat="43.42775" lon="6.05979">
        <ele>327.39999389648</ele>
        <time>2015-09-09T14:27:58Z</time>
      </trkpt>
      <trkpt lat="43.42775" lon="6.05979">
        <ele>327.60000610352</ele>
        <time>2015-09-09T14:27:59Z</time>
      </trkpt>
      <trkpt lat="43.42775" lon="6.05975">
        <ele>327.79998779297</ele>
        <time>2015-09-09T14:28:02Z</time>
      </trkpt>
      <trkpt lat="43.42773" lon="6.05973">
        <ele>328</ele>
        <time>2015-09-09T14:28:04Z</time>
      </trkpt>
      <trkpt lat="43.42772" lon="6.05973">
        <ele>328.20001220703</ele>
        <time>2015-09-09T14:28:05Z</time>
      </trkpt>
      <trkpt lat="43.42771" lon="6.05972">
        <ele>328.39999389648</ele>
        <time>2015-09-09T14:28:06Z</time>
      </trkpt>
      <trkpt lat="43.4277" lon="6.05974">
        <ele>329</ele>
        <time>2015-09-09T14:28:08Z</time>
      </trkpt>
      <trkpt lat="43.4277" lon="6.05976">
        <ele>329</ele>
        <time>2015-09-09T14:28:10Z</time>
      </trkpt>
      <trkpt lat="43.4277" lon="6.05977">
        <ele>329.20001220703</ele>
        <time>2015-09-09T14:28:11Z</time>
      </trkpt>
      <trkpt lat="43.42771" lon="6.05978">
        <ele>329.20001220703</ele>
        <time>2015-09-09T14:28:12Z</time>
      </trkpt>
      <trkpt lat="43.42772" lon="6.05978">
        <ele>329</ele>
        <time>2015-09-09T14:28:14Z</time>
      </trkpt>
      <trkpt lat="43.42775" lon="6.05978">
        <ele>328.20001220703</ele>
        <time>2015-09-09T14:28:16Z</time>
      </trkpt>
      <trkpt lat="43.42778" lon="6.05976">
        <ele>327.79998779297</ele>
        <time>2015-09-09T14:28:18Z</time>
      </trkpt>
      <trkpt lat="43.4278" lon="6.05975">
        <ele>327.79998779297</ele>
        <time>2015-09-09T14:28:20Z</time>
      </trkpt>
      <trkpt lat="43.4278" lon="6.05974">
        <ele>327.60000610352</ele>
        <time>2015-09-09T14:28:21Z</time>
      </trkpt>
      <trkpt lat="43.4278" lon="6.05972">
        <ele>327.60000610352</ele>
        <time>2015-09-09T14:28:22Z</time>
      </trkpt>
      <trkpt lat="43.42779" lon="6.05971">
        <ele>327.60000610352</ele>
        <time>2015-09-09T14:28:24Z</time>
      </trkpt>
      <trkpt lat="43.42779" lon="6.05971">
        <ele>327.60000610352</ele>
        <time>2015-09-09T14:28:25Z</time>
      </trkpt>
      <trkpt lat="43.42778" lon="6.05971">
        <ele>327.60000610352</ele>
        <time>2015-09-09T14:28:26Z</time>
      </trkpt>
      <trkpt lat="43.42778" lon="6.05971">
        <ele>327.79998779297</ele>
        <time>2015-09-09T14:28:28Z</time>
      </trkpt>
      <trkpt lat="43.42778" lon="6.05971">
        <ele>327.79998779297</ele>
        <time>2015-09-09T14:28:32Z</time>
      </trkpt>
      <trkpt lat="43.42778" lon="6.05971">
        <ele>327.39999389648</ele>
        <time>2015-09-09T14:28:42Z</time>
      </trkpt>
      <trkpt lat="43.42778" lon="6.05971">
        <ele>327.39999389648</ele>
        <time>2015-09-09T14:29:18Z</time>
      </trkpt>
      <trkpt lat="43.42778" lon="6.05971">
        <ele>327.60000610352</ele>
        <time>2015-09-09T14:29:36Z</time>
      </trkpt>
      <trkpt lat="43.42778" lon="6.05971">
        <ele>327.60000610352</ele>
        <time>2015-09-09T14:30:00Z</time>
      </trkpt>
      <trkpt lat="43.42778" lon="6.05972">
        <ele>327.79998779297</ele>
        <time>2015-09-09T14:30:18Z</time>
      </trkpt>
      <trkpt lat="43.42778" lon="6.05972">
        <ele>327.79998779297</ele>
        <time>2015-09-09T14:30:44Z</time>
      </trkpt>
      <trkpt lat="43.42778" lon="6.05972">
        <ele>327.79998779297</ele>
        <time>2015-09-09T14:30:50Z</time>
      </trkpt>
      <trkpt lat="43.42778" lon="6.05972">
        <ele>327.79998779297</ele>
        <time>2015-09-09T14:30:52Z</time>
      </trkpt>
      <trkpt lat="43.42778" lon="6.05971">
        <ele>327.60000610352</ele>
        <time>2015-09-09T14:30:54Z</time>
      </trkpt>
      <trkpt lat="43.42779" lon="6.05969">
        <ele>327.60000610352</ele>
        <time>2015-09-09T14:30:58Z</time>
      </trkpt>
      <trkpt lat="43.4278" lon="6.05967">
        <ele>327.60000610352</ele>
        <time>2015-09-09T14:30:59Z</time>
      </trkpt>
      <trkpt lat="43.4278" lon="6.05965">
        <ele>327.79998779297</ele>
        <time>2015-09-09T14:31:00Z</time>
      </trkpt>
      <trkpt lat="43.42783" lon="6.0596">
        <ele>327.79998779297</ele>
        <time>2015-09-09T14:31:02Z</time>
      </trkpt>
      <trkpt lat="43.42785" lon="6.05954">
        <ele>327.39999389648</ele>
        <time>2015-09-09T14:31:04Z</time>
      </trkpt>
      <trkpt lat="43.42786" lon="6.0595">
        <ele>327.39999389648</ele>
        <time>2015-09-09T14:31:05Z</time>
      </trkpt>
      <trkpt lat="43.42786" lon="6.05946">
        <ele>327</ele>
        <time>2015-09-09T14:31:06Z</time>
      </trkpt>
      <trkpt lat="43.42786" lon="6.05938">
        <ele>327</ele>
        <time>2015-09-09T14:31:08Z</time>
      </trkpt>
      <trkpt lat="43.42787" lon="6.05929">
        <ele>327.20001220703</ele>
        <time>2015-09-09T14:31:10Z</time>
      </trkpt>
      <trkpt lat="43.42789" lon="6.0592">
        <ele>327.20001220703</ele>
        <time>2015-09-09T14:31:12Z</time>
      </trkpt>
      <trkpt lat="43.42791" lon="6.0591">
        <ele>326.79998779297</ele>
        <time>2015-09-09T14:31:14Z</time>
      </trkpt>
      <trkpt lat="43.42793" lon="6.05905">
        <ele>326.39999389648</ele>
        <time>2015-09-09T14:31:15Z</time>
      </trkpt>
      <trkpt lat="43.42796" lon="6.05899">
        <ele>326.20001220703</ele>
        <time>2015-09-09T14:31:16Z</time>
      </trkpt>
      <trkpt lat="43.42798" lon="6.05893">
        <ele>325.60000610352</ele>
        <time>2015-09-09T14:31:17Z</time>
      </trkpt>
      <trkpt lat="43.42807" lon="6.05871">
        <ele>323.79998779297</ele>
        <time>2015-09-09T14:31:20Z</time>
      </trkpt>
      <trkpt lat="43.4281" lon="6.05864">
        <ele>322.60000610352</ele>
        <time>2015-09-09T14:31:21Z</time>
      </trkpt>
      <trkpt lat="43.42814" lon="6.05855">
        <ele>321.60000610352</ele>
        <time>2015-09-09T14:31:22Z</time>
      </trkpt>
      <trkpt lat="43.4282" lon="6.0584">
        <ele>320.20001220703</ele>
        <time>2015-09-09T14:31:24Z</time>
      </trkpt>
      <trkpt lat="43.42822" lon="6.05831">
        <ele>319.60000610352</ele>
        <time>2015-09-09T14:31:25Z</time>
      </trkpt>
      <trkpt lat="43.42824" lon="6.05821">
        <ele>318.20001220703</ele>
        <time>2015-09-09T14:31:26Z</time>
      </trkpt>
      <trkpt lat="43.42826" lon="6.058">
        <ele>317.60000610352</ele>
        <time>2015-09-09T14:31:28Z</time>
      </trkpt>
      <trkpt lat="43.42827" lon="6.0579">
        <ele>317.20001220703</ele>
        <time>2015-09-09T14:31:29Z</time>
      </trkpt>
      <trkpt lat="43.42828" lon="6.05779">
        <ele>316.20001220703</ele>
        <time>2015-09-09T14:31:30Z</time>
      </trkpt>
      <trkpt lat="43.42831" lon="6.0576">
        <ele>315.79998779297</ele>
        <time>2015-09-09T14:31:32Z</time>
      </trkpt>
      <trkpt lat="43.42833" lon="6.05743">
        <ele>315.79998779297</ele>
        <time>2015-09-09T14:31:34Z</time>
      </trkpt>
      <trkpt lat="43.42834" lon="6.05736">
        <ele>316</ele>
        <time>2015-09-09T14:31:35Z</time>
      </trkpt>
      <trkpt lat="43.42836" lon="6.05728">
        <ele>316.20001220703</ele>
        <time>2015-09-09T14:31:36Z</time>
      </trkpt>
      <trkpt lat="43.42841" lon="6.05716">
        <ele>316.39999389648</ele>
        <time>2015-09-09T14:31:38Z</time>
      </trkpt>
      <trkpt lat="43.42844" lon="6.05707">
        <ele>316</ele>
        <time>2015-09-09T14:31:40Z</time>
      </trkpt>
      <trkpt lat="43.42846" lon="6.05696">
        <ele>316.20001220703</ele>
        <time>2015-09-09T14:31:42Z</time>
      </trkpt>
      <trkpt lat="43.42846" lon="6.05691">
        <ele>316.39999389648</ele>
        <time>2015-09-09T14:31:43Z</time>
      </trkpt>
      <trkpt lat="43.42847" lon="6.05685">
        <ele>316.60000610352</ele>
        <time>2015-09-09T14:31:44Z</time>
      </trkpt>
      <trkpt lat="43.42849" lon="6.05664">
        <ele>316.79998779297</ele>
        <time>2015-09-09T14:31:48Z</time>
      </trkpt>
      <trkpt lat="43.4285" lon="6.05652">
        <ele>316.39999389648</ele>
        <time>2015-09-09T14:31:50Z</time>
      </trkpt>
      <trkpt lat="43.42852" lon="6.05639">
        <ele>316</ele>
        <time>2015-09-09T14:31:52Z</time>
      </trkpt>
      <trkpt lat="43.42853" lon="6.05627">
        <ele>315.39999389648</ele>
        <time>2015-09-09T14:31:54Z</time>
      </trkpt>
      <trkpt lat="43.42854" lon="6.05621">
        <ele>315.20001220703</ele>
        <time>2015-09-09T14:31:55Z</time>
      </trkpt>
      <trkpt lat="43.42854" lon="6.05615">
        <ele>315.20001220703</ele>
        <time>2015-09-09T14:31:56Z</time>
      </trkpt>
      <trkpt lat="43.42854" lon="6.05606">
        <ele>315.79998779297</ele>
        <time>2015-09-09T14:31:58Z</time>
      </trkpt>
      <trkpt lat="43.42854" lon="6.05603">
        <ele>316</ele>
        <time>2015-09-09T14:32:00Z</time>
      </trkpt>
      <trkpt lat="43.42854" lon="6.05603">
        <ele>315.79998779297</ele>
        <time>2015-09-09T14:32:01Z</time>
      </trkpt>
      <trkpt lat="43.42854" lon="6.05603">
        <ele>315.60000610352</ele>
        <time>2015-09-09T14:32:02Z</time>
      </trkpt>
      <trkpt lat="43.42854" lon="6.05603">
        <ele>315</ele>
        <time>2015-09-09T14:32:04Z</time>
      </trkpt>
      <trkpt lat="43.42854" lon="6.05604">
        <ele>314.79998779297</ele>
        <time>2015-09-09T14:32:08Z</time>
      </trkpt>
      <trkpt lat="43.42854" lon="6.05604">
        <ele>315</ele>
        <time>2015-09-09T14:32:13Z</time>
      </trkpt>
      <trkpt lat="43.42854" lon="6.05605">
        <ele>314.60000610352</ele>
        <time>2015-09-09T14:39:00Z</time>
      </trkpt>
      <trkpt lat="43.42854" lon="6.05605">
        <ele>314.79998779297</ele>
        <time>2015-09-09T14:39:04Z</time>
      </trkpt>
      <trkpt lat="43.42854" lon="6.05605">
        <ele>315</ele>
        <time>2015-09-09T14:39:06Z</time>
      </trkpt>
      <trkpt lat="43.42855" lon="6.05605">
        <ele>315.20001220703</ele>
        <time>2015-09-09T14:39:08Z</time>
      </trkpt>
      <trkpt lat="43.42855" lon="6.05606">
        <ele>315</ele>
        <time>2015-09-09T14:39:09Z</time>
      </trkpt>
      <trkpt lat="43.42854" lon="6.05607">
        <ele>315</ele>
        <time>2015-09-09T14:39:10Z</time>
      </trkpt>
      <trkpt lat="43.42854" lon="6.05608">
        <ele>315.20001220703</ele>
        <time>2015-09-09T14:39:12Z</time>
      </trkpt>
      <trkpt lat="43.42854" lon="6.05613">
        <ele>315</ele>
        <time>2015-09-09T14:39:16Z</time>
      </trkpt>
      <trkpt lat="43.42853" lon="6.05618">
        <ele>315</ele>
        <time>2015-09-09T14:39:18Z</time>
      </trkpt>
      <trkpt lat="43.42852" lon="6.05624">
        <ele>314.79998779297</ele>
        <time>2015-09-09T14:39:20Z</time>
      </trkpt>
      <trkpt lat="43.42852" lon="6.05632">
        <ele>314.79998779297</ele>
        <time>2015-09-09T14:39:22Z</time>
      </trkpt>
      <trkpt lat="43.42851" lon="6.0564">
        <ele>314.60000610352</ele>
        <time>2015-09-09T14:39:24Z</time>
      </trkpt>
      <trkpt lat="43.4285" lon="6.05649">
        <ele>314.79998779297</ele>
        <time>2015-09-09T14:39:26Z</time>
      </trkpt>
      <trkpt lat="43.42849" lon="6.05657">
        <ele>315.20001220703</ele>
        <time>2015-09-09T14:39:28Z</time>
      </trkpt>
      <trkpt lat="43.42848" lon="6.05664">
        <ele>315.60000610352</ele>
        <time>2015-09-09T14:39:30Z</time>
      </trkpt>
      <trkpt lat="43.42847" lon="6.05668">
        <ele>315.79998779297</ele>
        <time>2015-09-09T14:39:31Z</time>
      </trkpt>
      <trkpt lat="43.42847" lon="6.05672">
        <ele>316</ele>
        <time>2015-09-09T14:39:32Z</time>
      </trkpt>
      <trkpt lat="43.42844" lon="6.057">
        <ele>316.39999389648</ele>
        <time>2015-09-09T14:39:38Z</time>
      </trkpt>
      <trkpt lat="43.42843" lon="6.0571">
        <ele>316</ele>
        <time>2015-09-09T14:39:40Z</time>
      </trkpt>
      <trkpt lat="43.4284" lon="6.05732">
        <ele>315.60000610352</ele>
        <time>2015-09-09T14:39:44Z</time>
      </trkpt>
      <trkpt lat="43.42839" lon="6.05744">
        <ele>314.79998779297</ele>
        <time>2015-09-09T14:39:46Z</time>
      </trkpt>
      <trkpt lat="43.42839" lon="6.0575">
        <ele>314.79998779297</ele>
        <time>2015-09-09T14:39:47Z</time>
      </trkpt>
      <trkpt lat="43.42838" lon="6.05757">
        <ele>315.20001220703</ele>
        <time>2015-09-09T14:39:48Z</time>
      </trkpt>
      <trkpt lat="43.42836" lon="6.05774">
        <ele>314.79998779297</ele>
        <time>2015-09-09T14:39:51Z</time>
      </trkpt>
      <trkpt lat="43.42836" lon="6.0578">
        <ele>314.79998779297</ele>
        <time>2015-09-09T14:39:52Z</time>
      </trkpt>
      <trkpt lat="43.42834" lon="6.05791">
        <ele>314.79998779297</ele>
        <time>2015-09-09T14:39:54Z</time>
      </trkpt>
      <trkpt lat="43.42834" lon="6.05795">
        <ele>314.79998779297</ele>
        <time>2015-09-09T14:39:55Z</time>
      </trkpt>
      <trkpt lat="43.42833" lon="6.058">
        <ele>315.20001220703</ele>
        <time>2015-09-09T14:39:56Z</time>
      </trkpt>
      <trkpt lat="43.42833" lon="6.05808">
        <ele>315</ele>
        <time>2015-09-09T14:39:58Z</time>
      </trkpt>
      <trkpt lat="43.42831" lon="6.05821">
        <ele>316.20001220703</ele>
        <time>2015-09-09T14:40:02Z</time>
      </trkpt>
      <trkpt lat="43.4283" lon="6.05826">
        <ele>316</ele>
        <time>2015-09-09T14:40:04Z</time>
      </trkpt>
      <trkpt lat="43.4283" lon="6.05831">
        <ele>316.39999389648</ele>
        <time>2015-09-09T14:40:06Z</time>
      </trkpt>
      <trkpt lat="43.42829" lon="6.05834">
        <ele>316.60000610352</ele>
        <time>2015-09-09T14:40:07Z</time>
      </trkpt>
      <trkpt lat="43.42827" lon="6.05842">
        <ele>317.39999389648</ele>
        <time>2015-09-09T14:40:10Z</time>
      </trkpt>
      <trkpt lat="43.42826" lon="6.05847">
        <ele>318</ele>
        <time>2015-09-09T14:40:12Z</time>
      </trkpt>
      <trkpt lat="43.42825" lon="6.05855">
        <ele>318.79998779297</ele>
        <time>2015-09-09T14:40:16Z</time>
      </trkpt>
      <trkpt lat="43.42824" lon="6.05858">
        <ele>319.20001220703</ele>
        <time>2015-09-09T14:40:18Z</time>
      </trkpt>
      <trkpt lat="43.42822" lon="6.05862">
        <ele>319.60000610352</ele>
        <time>2015-09-09T14:40:20Z</time>
      </trkpt>
      <trkpt lat="43.4282" lon="6.05865">
        <ele>320</ele>
        <time>2015-09-09T14:40:22Z</time>
      </trkpt>
      <trkpt lat="43.4282" lon="6.05866">
        <ele>320.39999389648</ele>
        <time>2015-09-09T14:40:23Z</time>
      </trkpt>
      <trkpt lat="43.42819" lon="6.05868">
        <ele>320.39999389648</ele>
        <time>2015-09-09T14:40:24Z</time>
      </trkpt>
      <trkpt lat="43.42815" lon="6.05874">
        <ele>321.20001220703</ele>
        <time>2015-09-09T14:40:28Z</time>
      </trkpt>
      <trkpt lat="43.42815" lon="6.05876">
        <ele>321.39999389648</ele>
        <time>2015-09-09T14:40:29Z</time>
      </trkpt>
      <trkpt lat="43.42814" lon="6.05877">
        <ele>321.39999389648</ele>
        <time>2015-09-09T14:40:30Z</time>
      </trkpt>
      <trkpt lat="43.42812" lon="6.05881">
        <ele>321.60000610352</ele>
        <time>2015-09-09T14:40:32Z</time>
      </trkpt>
      <trkpt lat="43.4281" lon="6.05885">
        <ele>321.79998779297</ele>
        <time>2015-09-09T14:40:34Z</time>
      </trkpt>
      <trkpt lat="43.42807" lon="6.05891">
        <ele>322.20001220703</ele>
        <time>2015-09-09T14:40:38Z</time>
      </trkpt>
      <trkpt lat="43.42806" lon="6.05894">
        <ele>322.60000610352</ele>
        <time>2015-09-09T14:40:40Z</time>
      </trkpt>
      <trkpt lat="43.42802" lon="6.05903">
        <ele>323.60000610352</ele>
        <time>2015-09-09T14:40:46Z</time>
      </trkpt>
      <trkpt lat="43.42799" lon="6.05909">
        <ele>324</ele>
        <time>2015-09-09T14:40:50Z</time>
      </trkpt>
      <trkpt lat="43.42796" lon="6.05916">
        <ele>325.20001220703</ele>
        <time>2015-09-09T14:40:55Z</time>
      </trkpt>
      <trkpt lat="43.42795" lon="6.05917">
        <ele>325.39999389648</ele>
        <time>2015-09-09T14:40:56Z</time>
      </trkpt>
      <trkpt lat="43.42794" lon="6.0592">
        <ele>325.60000610352</ele>
        <time>2015-09-09T14:40:58Z</time>
      </trkpt>
      <trkpt lat="43.42792" lon="6.05924">
        <ele>326</ele>
        <time>2015-09-09T14:41:00Z</time>
      </trkpt>
      <trkpt lat="43.4279" lon="6.05928">
        <ele>326.20001220703</ele>
        <time>2015-09-09T14:41:02Z</time>
      </trkpt>
      <trkpt lat="43.42789" lon="6.0593">
        <ele>326.20001220703</ele>
        <time>2015-09-09T14:41:03Z</time>
      </trkpt>
      <trkpt lat="43.42788" lon="6.05932">
        <ele>326.60000610352</ele>
        <time>2015-09-09T14:41:04Z</time>
      </trkpt>
      <trkpt lat="43.42787" lon="6.05936">
        <ele>326.79998779297</ele>
        <time>2015-09-09T14:41:06Z</time>
      </trkpt>
      <trkpt lat="43.42786" lon="6.0594">
        <ele>326.79998779297</ele>
        <time>2015-09-09T14:41:08Z</time>
      </trkpt>
      <trkpt lat="43.42783" lon="6.05948">
        <ele>326.79998779297</ele>
        <time>2015-09-09T14:41:12Z</time>
      </trkpt>
      <trkpt lat="43.42782" lon="6.05953">
        <ele>327</ele>
        <time>2015-09-09T14:41:14Z</time>
      </trkpt>
      <trkpt lat="43.42781" lon="6.05957">
        <ele>327</ele>
        <time>2015-09-09T14:41:16Z</time>
      </trkpt>
      <trkpt lat="43.4278" lon="6.05961">
        <ele>327.20001220703</ele>
        <time>2015-09-09T14:41:18Z</time>
      </trkpt>
      <trkpt lat="43.42779" lon="6.05964">
        <ele>327.39999389648</ele>
        <time>2015-09-09T14:41:20Z</time>
      </trkpt>
      <trkpt lat="43.42778" lon="6.05967">
        <ele>327.60000610352</ele>
        <time>2015-09-09T14:41:22Z</time>
      </trkpt>
      <trkpt lat="43.42778" lon="6.05972">
        <ele>327.60000610352</ele>
        <time>2015-09-09T14:41:24Z</time>
      </trkpt>
      <trkpt lat="43.42777" lon="6.05976">
        <ele>327.79998779297</ele>
        <time>2015-09-09T14:41:26Z</time>
      </trkpt>
      <trkpt lat="43.42776" lon="6.05981">
        <ele>327.79998779297</ele>
        <time>2015-09-09T14:41:28Z</time>
      </trkpt>
      <trkpt lat="43.42776" lon="6.05985">
        <ele>327.79998779297</ele>
        <time>2015-09-09T14:41:30Z</time>
      </trkpt>
      <trkpt lat="43.42777" lon="6.05988">
        <ele>327.39999389648</ele>
        <time>2015-09-09T14:41:32Z</time>
      </trkpt>
      <trkpt lat="43.42778" lon="6.0599">
        <ele>327.20001220703</ele>
        <time>2015-09-09T14:41:34Z</time>
      </trkpt>
      <trkpt lat="43.42782" lon="6.05991">
        <ele>326.79998779297</ele>
        <time>2015-09-09T14:41:36Z</time>
      </trkpt>
      <trkpt lat="43.42786" lon="6.05991">
        <ele>326.79998779297</ele>
        <time>2015-09-09T14:41:38Z</time>
      </trkpt>
      <trkpt lat="43.4279" lon="6.0599">
        <ele>326.60000610352</ele>
        <time>2015-09-09T14:41:39Z</time>
      </trkpt>
      <trkpt lat="43.42794" lon="6.0599">
        <ele>326.20001220703</ele>
        <time>2015-09-09T14:41:40Z</time>
      </trkpt>
      <trkpt lat="43.42802" lon="6.05989">
        <ele>325.39999389648</ele>
        <time>2015-09-09T14:41:42Z</time>
      </trkpt>
      <trkpt lat="43.42806" lon="6.0599">
        <ele>325</ele>
        <time>2015-09-09T14:41:43Z</time>
      </trkpt>
      <trkpt lat="43.42811" lon="6.05992">
        <ele>324.20001220703</ele>
        <time>2015-09-09T14:41:44Z</time>
      </trkpt>
      <trkpt lat="43.42814" lon="6.05993">
        <ele>323.20001220703</ele>
        <time>2015-09-09T14:41:45Z</time>
      </trkpt>
      <trkpt lat="43.42818" lon="6.05995">
        <ele>322.60000610352</ele>
        <time>2015-09-09T14:41:46Z</time>
      </trkpt>
      <trkpt lat="43.42824" lon="6.05998">
        <ele>322</ele>
        <time>2015-09-09T14:41:48Z</time>
      </trkpt>
      <trkpt lat="43.42829" lon="6.06002">
        <ele>320.79998779297</ele>
        <time>2015-09-09T14:41:50Z</time>
      </trkpt>
      <trkpt lat="43.42833" lon="6.06008">
        <ele>320.39999389648</ele>
        <time>2015-09-09T14:41:52Z</time>
      </trkpt>
      <trkpt lat="43.42838" lon="6.06016">
        <ele>319</ele>
        <time>2015-09-09T14:41:54Z</time>
      </trkpt>
      <trkpt lat="43.42843" lon="6.06025">
        <ele>319.20001220703</ele>
        <time>2015-09-09T14:41:56Z</time>
      </trkpt>
      <trkpt lat="43.42846" lon="6.0603">
        <ele>316.60000610352</ele>
        <time>2015-09-09T14:41:57Z</time>
      </trkpt>
      <trkpt lat="43.42849" lon="6.06034">
        <ele>315</ele>
        <time>2015-09-09T14:41:58Z</time>
      </trkpt>
      <trkpt lat="43.42856" lon="6.0604">
        <ele>314.79998779297</ele>
        <time>2015-09-09T14:42:00Z</time>
      </trkpt>
      <trkpt lat="43.42862" lon="6.06045">
        <ele>313.39999389648</ele>
        <time>2015-09-09T14:42:02Z</time>
      </trkpt>
      <trkpt lat="43.42865" lon="6.06049">
        <ele>312.60000610352</ele>
        <time>2015-09-09T14:42:03Z</time>
      </trkpt>
      <trkpt lat="43.42867" lon="6.06055">
        <ele>311.79998779297</ele>
        <time>2015-09-09T14:42:04Z</time>
      </trkpt>
      <trkpt lat="43.42869" lon="6.06068">
        <ele>311</ele>
        <time>2015-09-09T14:42:06Z</time>
      </trkpt>
      <trkpt lat="43.42869" lon="6.06074">
        <ele>310.20001220703</ele>
        <time>2015-09-09T14:42:07Z</time>
      </trkpt>
      <trkpt lat="43.42868" lon="6.0608">
        <ele>309.20001220703</ele>
        <time>2015-09-09T14:42:08Z</time>
      </trkpt>
      <trkpt lat="43.42867" lon="6.06085">
        <ele>309</ele>
        <time>2015-09-09T14:42:09Z</time>
      </trkpt>
      <trkpt lat="43.42866" lon="6.06095">
        <ele>309</ele>
        <time>2015-09-09T14:42:11Z</time>
      </trkpt>
      <trkpt lat="43.42865" lon="6.06101">
        <ele>308.79998779297</ele>
        <time>2015-09-09T14:42:12Z</time>
      </trkpt>
      <trkpt lat="43.42863" lon="6.06112">
        <ele>307</ele>
        <time>2015-09-09T14:42:14Z</time>
      </trkpt>
      <trkpt lat="43.42863" lon="6.06117">
        <ele>305.79998779297</ele>
        <time>2015-09-09T14:42:15Z</time>
      </trkpt>
      <trkpt lat="43.42864" lon="6.06124">
        <ele>305</ele>
        <time>2015-09-09T14:42:16Z</time>
      </trkpt>
      <trkpt lat="43.42865" lon="6.06129">
        <ele>304.20001220703</ele>
        <time>2015-09-09T14:42:17Z</time>
      </trkpt>
      <trkpt lat="43.42867" lon="6.06135">
        <ele>303.79998779297</ele>
        <time>2015-09-09T14:42:18Z</time>
      </trkpt>
      <trkpt lat="43.42869" lon="6.06145">
        <ele>303.20001220703</ele>
        <time>2015-09-09T14:42:20Z</time>
      </trkpt>
      <trkpt lat="43.4287" lon="6.06151">
        <ele>302.20001220703</ele>
        <time>2015-09-09T14:42:22Z</time>
      </trkpt>
      <trkpt lat="43.4287" lon="6.06152">
        <ele>301.39999389648</ele>
        <time>2015-09-09T14:42:23Z</time>
      </trkpt>
      <trkpt lat="43.4287" lon="6.06153">
        <ele>301</ele>
        <time>2015-09-09T14:42:25Z</time>
      </trkpt>
      <trkpt lat="43.42871" lon="6.06153">
        <ele>301</ele>
        <time>2015-09-09T14:42:26Z</time>
      </trkpt>
      <trkpt lat="43.42871" lon="6.06153">
        <ele>301.20001220703</ele>
        <time>2015-09-09T14:42:30Z</time>
      </trkpt>
      <trkpt lat="43.42871" lon="6.06153">
        <ele>301.20001220703</ele>
        <time>2015-09-09T14:42:32Z</time>
      </trkpt>
      <trkpt lat="43.42871" lon="6.06153">
        <ele>300.79998779297</ele>
        <time>2015-09-09T14:42:36Z</time>
      </trkpt>
      <trkpt lat="43.42871" lon="6.06155">
        <ele>300.79998779297</ele>
        <time>2015-09-09T14:42:38Z</time>
      </trkpt>
      <trkpt lat="43.42871" lon="6.06159">
        <ele>300.79998779297</ele>
        <time>2015-09-09T14:42:40Z</time>
      </trkpt>
      <trkpt lat="43.42871" lon="6.06165">
        <ele>300.39999389648</ele>
        <time>2015-09-09T14:42:42Z</time>
      </trkpt>
      <trkpt lat="43.42872" lon="6.06171">
        <ele>300.20001220703</ele>
        <time>2015-09-09T14:42:44Z</time>
      </trkpt>
      <trkpt lat="43.42874" lon="6.06179">
        <ele>299.39999389648</ele>
        <time>2015-09-09T14:42:46Z</time>
      </trkpt>
      <trkpt lat="43.42874" lon="6.06182">
        <ele>299</ele>
        <time>2015-09-09T14:42:47Z</time>
      </trkpt>
      <trkpt lat="43.42874" lon="6.06186">
        <ele>298.79998779297</ele>
        <time>2015-09-09T14:42:48Z</time>
      </trkpt>
      <trkpt lat="43.42874" lon="6.0619">
        <ele>298.39999389648</ele>
        <time>2015-09-09T14:42:49Z</time>
      </trkpt>
      <trkpt lat="43.42874" lon="6.06195">
        <ele>298</ele>
        <time>2015-09-09T14:42:50Z</time>
      </trkpt>
      <trkpt lat="43.42873" lon="6.06207">
        <ele>296.79998779297</ele>
        <time>2015-09-09T14:42:52Z</time>
      </trkpt>
      <trkpt lat="43.42872" lon="6.06213">
        <ele>296.60000610352</ele>
        <time>2015-09-09T14:42:53Z</time>
      </trkpt>
      <trkpt lat="43.4287" lon="6.06218">
        <ele>296</ele>
        <time>2015-09-09T14:42:54Z</time>
      </trkpt>
      <trkpt lat="43.42867" lon="6.06222">
        <ele>295.39999389648</ele>
        <time>2015-09-09T14:42:55Z</time>
      </trkpt>
      <trkpt lat="43.42864" lon="6.06224">
        <ele>294.79998779297</ele>
        <time>2015-09-09T14:42:56Z</time>
      </trkpt>
      <trkpt lat="43.42859" lon="6.06228">
        <ele>294.39999389648</ele>
        <time>2015-09-09T14:42:58Z</time>
      </trkpt>
      <trkpt lat="43.42857" lon="6.06231">
        <ele>293.60000610352</ele>
        <time>2015-09-09T14:43:00Z</time>
      </trkpt>
      <trkpt lat="43.42856" lon="6.06232">
        <ele>293.20001220703</ele>
        <time>2015-09-09T14:43:01Z</time>
      </trkpt>
      <trkpt lat="43.42856" lon="6.06232">
        <ele>293.20001220703</ele>
        <time>2015-09-09T14:43:02Z</time>
      </trkpt>
      <trkpt lat="43.42856" lon="6.06233">
        <ele>293</ele>
        <time>2015-09-09T14:43:04Z</time>
      </trkpt>
      <trkpt lat="43.42855" lon="6.06234">
        <ele>293</ele>
        <time>2015-09-09T14:43:06Z</time>
      </trkpt>
      <trkpt lat="43.42852" lon="6.06234">
        <ele>293</ele>
        <time>2015-09-09T14:43:09Z</time>
      </trkpt>
      <trkpt lat="43.42851" lon="6.06233">
        <ele>293</ele>
        <time>2015-09-09T14:43:10Z</time>
      </trkpt>
      <trkpt lat="43.42847" lon="6.06229">
        <ele>292.60000610352</ele>
        <time>2015-09-09T14:43:12Z</time>
      </trkpt>
      <trkpt lat="43.42844" lon="6.06227">
        <ele>292.20001220703</ele>
        <time>2015-09-09T14:43:13Z</time>
      </trkpt>
      <trkpt lat="43.42841" lon="6.06226">
        <ele>292</ele>
        <time>2015-09-09T14:43:14Z</time>
      </trkpt>
      <trkpt lat="43.42836" lon="6.06228">
        <ele>290.79998779297</ele>
        <time>2015-09-09T14:43:16Z</time>
      </trkpt>
      <trkpt lat="43.42833" lon="6.06232">
        <ele>289.60000610352</ele>
        <time>2015-09-09T14:43:18Z</time>
      </trkpt>
      <trkpt lat="43.4283" lon="6.06234">
        <ele>289</ele>
        <time>2015-09-09T14:43:19Z</time>
      </trkpt>
      <trkpt lat="43.42828" lon="6.06236">
        <ele>288.60000610352</ele>
        <time>2015-09-09T14:43:20Z</time>
      </trkpt>
      <trkpt lat="43.42827" lon="6.06238">
        <ele>288.20001220703</ele>
        <time>2015-09-09T14:43:21Z</time>
      </trkpt>
      <trkpt lat="43.42827" lon="6.06241">
        <ele>288.20001220703</ele>
        <time>2015-09-09T14:43:22Z</time>
      </trkpt>
      <trkpt lat="43.42826" lon="6.06249">
        <ele>287.79998779297</ele>
        <time>2015-09-09T14:43:24Z</time>
      </trkpt>
      <trkpt lat="43.42826" lon="6.06252">
        <ele>287.39999389648</ele>
        <time>2015-09-09T14:43:25Z</time>
      </trkpt>
      <trkpt lat="43.42826" lon="6.06256">
        <ele>287.39999389648</ele>
        <time>2015-09-09T14:43:26Z</time>
      </trkpt>
      <trkpt lat="43.42827" lon="6.06263">
        <ele>287.39999389648</ele>
        <time>2015-09-09T14:43:28Z</time>
      </trkpt>
      <trkpt lat="43.42828" lon="6.06268">
        <ele>287.60000610352</ele>
        <time>2015-09-09T14:43:30Z</time>
      </trkpt>
      <trkpt lat="43.42828" lon="6.06276">
        <ele>287.20001220703</ele>
        <time>2015-09-09T14:43:32Z</time>
      </trkpt>
      <trkpt lat="43.42828" lon="6.06285">
        <ele>286.39999389648</ele>
        <time>2015-09-09T14:43:34Z</time>
      </trkpt>
      <trkpt lat="43.42828" lon="6.06288">
        <ele>286</ele>
        <time>2015-09-09T14:43:35Z</time>
      </trkpt>
      <trkpt lat="43.42828" lon="6.0629">
        <ele>285.79998779297</ele>
        <time>2015-09-09T14:43:36Z</time>
      </trkpt>
      <trkpt lat="43.42828" lon="6.06291">
        <ele>285.39999389648</ele>
        <time>2015-09-09T14:43:37Z</time>
      </trkpt>
      <trkpt lat="43.42828" lon="6.06293">
        <ele>285.39999389648</ele>
        <time>2015-09-09T14:43:38Z</time>
      </trkpt>
      <trkpt lat="43.42828" lon="6.06294">
        <ele>285.20001220703</ele>
        <time>2015-09-09T14:43:39Z</time>
      </trkpt>
      <trkpt lat="43.42828" lon="6.06294">
        <ele>285.20001220703</ele>
        <time>2015-09-09T14:43:40Z</time>
      </trkpt>
      <trkpt lat="43.42827" lon="6.06297">
        <ele>285</ele>
        <time>2015-09-09T14:43:42Z</time>
      </trkpt>
      <trkpt lat="43.42826" lon="6.06299">
        <ele>284.60000610352</ele>
        <time>2015-09-09T14:43:44Z</time>
      </trkpt>
      <trkpt lat="43.42823" lon="6.063">
        <ele>284.60000610352</ele>
        <time>2015-09-09T14:43:46Z</time>
      </trkpt>
      <trkpt lat="43.42822" lon="6.06299">
        <ele>284.39999389648</ele>
        <time>2015-09-09T14:43:47Z</time>
      </trkpt>
      <trkpt lat="43.42817" lon="6.06299">
        <ele>283.79998779297</ele>
        <time>2015-09-09T14:43:50Z</time>
      </trkpt>
      <trkpt lat="43.42815" lon="6.063">
        <ele>283.79998779297</ele>
        <time>2015-09-09T14:43:51Z</time>
      </trkpt>
      <trkpt lat="43.42813" lon="6.06302">
        <ele>283.79998779297</ele>
        <time>2015-09-09T14:43:52Z</time>
      </trkpt>
      <trkpt lat="43.4281" lon="6.06305">
        <ele>283.39999389648</ele>
        <time>2015-09-09T14:43:54Z</time>
      </trkpt>
      <trkpt lat="43.42808" lon="6.06306">
        <ele>283</ele>
        <time>2015-09-09T14:43:55Z</time>
      </trkpt>
      <trkpt lat="43.42805" lon="6.06307">
        <ele>282.39999389648</ele>
        <time>2015-09-09T14:43:57Z</time>
      </trkpt>
      <trkpt lat="43.42804" lon="6.06308">
        <ele>282.39999389648</ele>
        <time>2015-09-09T14:43:58Z</time>
      </trkpt>
      <trkpt lat="43.428" lon="6.0631">
        <ele>281.60000610352</ele>
        <time>2015-09-09T14:44:01Z</time>
      </trkpt>
      <trkpt lat="43.42797" lon="6.06309">
        <ele>281</ele>
        <time>2015-09-09T14:44:02Z</time>
      </trkpt>
      <trkpt lat="43.42796" lon="6.06308">
        <ele>280.79998779297</ele>
        <time>2015-09-09T14:44:03Z</time>
      </trkpt>
      <trkpt lat="43.42793" lon="6.06307">
        <ele>279.39999389648</ele>
        <time>2015-09-09T14:44:04Z</time>
      </trkpt>
      <trkpt lat="43.42787" lon="6.06307">
        <ele>279.39999389648</ele>
        <time>2015-09-09T14:44:06Z</time>
      </trkpt>
      <trkpt lat="43.42781" lon="6.06306">
        <ele>279.39999389648</ele>
        <time>2015-09-09T14:44:08Z</time>
      </trkpt>
      <trkpt lat="43.42774" lon="6.06301">
        <ele>278.79998779297</ele>
        <time>2015-09-09T14:44:10Z</time>
      </trkpt>
      <trkpt lat="43.42768" lon="6.06298">
        <ele>278.79998779297</ele>
        <time>2015-09-09T14:44:12Z</time>
      </trkpt>
      <trkpt lat="43.4276" lon="6.063">
        <ele>278.39999389648</ele>
        <time>2015-09-09T14:44:14Z</time>
      </trkpt>
      <trkpt lat="43.42752" lon="6.063">
        <ele>277.20001220703</ele>
        <time>2015-09-09T14:44:16Z</time>
      </trkpt>
      <trkpt lat="43.42743" lon="6.063">
        <ele>276.60000610352</ele>
        <time>2015-09-09T14:44:18Z</time>
      </trkpt>
      <trkpt lat="43.42735" lon="6.06301">
        <ele>276.20001220703</ele>
        <time>2015-09-09T14:44:20Z</time>
      </trkpt>
      <trkpt lat="43.42722" lon="6.06307">
        <ele>276.39999389648</ele>
        <time>2015-09-09T14:44:23Z</time>
      </trkpt>
      <trkpt lat="43.42719" lon="6.06309">
        <ele>275.79998779297</ele>
        <time>2015-09-09T14:44:24Z</time>
      </trkpt>
      <trkpt lat="43.42712" lon="6.06315">
        <ele>275</ele>
        <time>2015-09-09T14:44:26Z</time>
      </trkpt>
      <trkpt lat="43.42709" lon="6.06318">
        <ele>275</ele>
        <time>2015-09-09T14:44:27Z</time>
      </trkpt>
      <trkpt lat="43.42707" lon="6.0632">
        <ele>275</ele>
        <time>2015-09-09T14:44:28Z</time>
      </trkpt>
      <trkpt lat="43.42702" lon="6.0632">
        <ele>275.20001220703</ele>
        <time>2015-09-09T14:44:30Z</time>
      </trkpt>
      <trkpt lat="43.42697" lon="6.0632">
        <ele>275.20001220703</ele>
        <time>2015-09-09T14:44:32Z</time>
      </trkpt>
      <trkpt lat="43.4269" lon="6.06323">
        <ele>275</ele>
        <time>2015-09-09T14:44:35Z</time>
      </trkpt>
      <trkpt lat="43.42688" lon="6.06323">
        <ele>275</ele>
        <time>2015-09-09T14:44:36Z</time>
      </trkpt>
      <trkpt lat="43.42683" lon="6.06321">
        <ele>275.39999389648</ele>
        <time>2015-09-09T14:44:38Z</time>
      </trkpt>
      <trkpt lat="43.42678" lon="6.06318">
        <ele>274.79998779297</ele>
        <time>2015-09-09T14:44:40Z</time>
      </trkpt>
      <trkpt lat="43.4267" lon="6.06315">
        <ele>275</ele>
        <time>2015-09-09T14:44:42Z</time>
      </trkpt>
      <trkpt lat="43.42665" lon="6.06313">
        <ele>274.39999389648</ele>
        <time>2015-09-09T14:44:43Z</time>
      </trkpt>
      <trkpt lat="43.42661" lon="6.06312">
        <ele>273.79998779297</ele>
        <time>2015-09-09T14:44:44Z</time>
      </trkpt>
      <trkpt lat="43.42653" lon="6.06312">
        <ele>273.39999389648</ele>
        <time>2015-09-09T14:44:46Z</time>
      </trkpt>
      <trkpt lat="43.42648" lon="6.06311">
        <ele>273.20001220703</ele>
        <time>2015-09-09T14:44:47Z</time>
      </trkpt>
      <trkpt lat="43.42645" lon="6.06311">
        <ele>273.20001220703</ele>
        <time>2015-09-09T14:44:48Z</time>
      </trkpt>
      <trkpt lat="43.4264" lon="6.0631">
        <ele>273</ele>
        <time>2015-09-09T14:44:50Z</time>
      </trkpt>
      <trkpt lat="43.42638" lon="6.0631">
        <ele>272.39999389648</ele>
        <time>2015-09-09T14:44:52Z</time>
      </trkpt>
      <trkpt lat="43.42638" lon="6.0631">
        <ele>272.20001220703</ele>
        <time>2015-09-09T14:44:54Z</time>
      </trkpt>
      <trkpt lat="43.42638" lon="6.0631">
        <ele>272.20001220703</ele>
        <time>2015-09-09T14:44:56Z</time>
      </trkpt>
      <trkpt lat="43.42638" lon="6.0631">
        <ele>272</ele>
        <time>2015-09-09T14:44:58Z</time>
      </trkpt>
      <trkpt lat="43.42638" lon="6.0631">
        <ele>272.20001220703</ele>
        <time>2015-09-09T14:45:02Z</time>
      </trkpt>
      <trkpt lat="43.42638" lon="6.0631">
        <ele>272.39999389648</ele>
        <time>2015-09-09T14:45:04Z</time>
      </trkpt>
      <trkpt lat="43.42638" lon="6.0631">
        <ele>272.39999389648</ele>
        <time>2015-09-09T14:45:06Z</time>
      </trkpt>
      <trkpt lat="43.42637" lon="6.0631">
        <ele>272.60000610352</ele>
        <time>2015-09-09T14:45:08Z</time>
      </trkpt>
      <trkpt lat="43.42637" lon="6.0631">
        <ele>272.79998779297</ele>
        <time>2015-09-09T14:45:09Z</time>
      </trkpt>
      <trkpt lat="43.42637" lon="6.0631">
        <ele>272.39999389648</ele>
        <time>2015-09-09T14:45:12Z</time>
      </trkpt>
      <trkpt lat="43.42635" lon="6.06309">
        <ele>272.39999389648</ele>
        <time>2015-09-09T14:45:14Z</time>
      </trkpt>
      <trkpt lat="43.42633" lon="6.0631">
        <ele>272.20001220703</ele>
        <time>2015-09-09T14:45:16Z</time>
      </trkpt>
      <trkpt lat="43.42632" lon="6.06311">
        <ele>272.20001220703</ele>
        <time>2015-09-09T14:45:18Z</time>
      </trkpt>
      <trkpt lat="43.4263" lon="6.06311">
        <ele>272.20001220703</ele>
        <time>2015-09-09T14:45:20Z</time>
      </trkpt>
      <trkpt lat="43.42627" lon="6.0631">
        <ele>272</ele>
        <time>2015-09-09T14:45:22Z</time>
      </trkpt>
      <trkpt lat="43.42625" lon="6.06308">
        <ele>271.79998779297</ele>
        <time>2015-09-09T14:45:23Z</time>
      </trkpt>
      <trkpt lat="43.42622" lon="6.06307">
        <ele>271.79998779297</ele>
        <time>2015-09-09T14:45:24Z</time>
      </trkpt>
      <trkpt lat="43.4262" lon="6.06306">
        <ele>271.39999389648</ele>
        <time>2015-09-09T14:45:25Z</time>
      </trkpt>
      <trkpt lat="43.42617" lon="6.06305">
        <ele>271.39999389648</ele>
        <time>2015-09-09T14:45:26Z</time>
      </trkpt>
      <trkpt lat="43.42613" lon="6.06303">
        <ele>271.39999389648</ele>
        <time>2015-09-09T14:45:28Z</time>
      </trkpt>
      <trkpt lat="43.42609" lon="6.06302">
        <ele>271.20001220703</ele>
        <time>2015-09-09T14:45:30Z</time>
      </trkpt>
      <trkpt lat="43.42607" lon="6.06302">
        <ele>271</ele>
        <time>2015-09-09T14:45:32Z</time>
      </trkpt>
      <trkpt lat="43.42604" lon="6.06302">
        <ele>271</ele>
        <time>2015-09-09T14:45:34Z</time>
      </trkpt>
      <trkpt lat="43.42602" lon="6.06303">
        <ele>270.79998779297</ele>
        <time>2015-09-09T14:45:35Z</time>
      </trkpt>
      <trkpt lat="43.42601" lon="6.06304">
        <ele>270.79998779297</ele>
        <time>2015-09-09T14:45:36Z</time>
      </trkpt>
      <trkpt lat="43.42596" lon="6.06305">
        <ele>271</ele>
        <time>2015-09-09T14:45:38Z</time>
      </trkpt>
      <trkpt lat="43.4259" lon="6.06307">
        <ele>271.20001220703</ele>
        <time>2015-09-09T14:45:40Z</time>
      </trkpt>
      <trkpt lat="43.42583" lon="6.06312">
        <ele>271.20001220703</ele>
        <time>2015-09-09T14:45:42Z</time>
      </trkpt>
      <trkpt lat="43.4258" lon="6.06315">
        <ele>270.60000610352</ele>
        <time>2015-09-09T14:45:43Z</time>
      </trkpt>
      <trkpt lat="43.42571" lon="6.06324">
        <ele>269.20001220703</ele>
        <time>2015-09-09T14:45:45Z</time>
      </trkpt>
      <trkpt lat="43.42567" lon="6.06328">
        <ele>268.20001220703</ele>
        <time>2015-09-09T14:45:46Z</time>
      </trkpt>
      <trkpt lat="43.42563" lon="6.06331">
        <ele>267</ele>
        <time>2015-09-09T14:45:47Z</time>
      </trkpt>
      <trkpt lat="43.42558" lon="6.06334">
        <ele>266.60000610352</ele>
        <time>2015-09-09T14:45:48Z</time>
      </trkpt>
      <trkpt lat="43.4255" lon="6.0634">
        <ele>266.79998779297</ele>
        <time>2015-09-09T14:45:50Z</time>
      </trkpt>
      <trkpt lat="43.4254" lon="6.06346">
        <ele>266</ele>
        <time>2015-09-09T14:45:52Z</time>
      </trkpt>
      <trkpt lat="43.42536" lon="6.06349">
        <ele>265.79998779297</ele>
        <time>2015-09-09T14:45:53Z</time>
      </trkpt>
      <trkpt lat="43.42531" lon="6.06351">
        <ele>265.79998779297</ele>
        <time>2015-09-09T14:45:54Z</time>
      </trkpt>
      <trkpt lat="43.42521" lon="6.06353">
        <ele>266</ele>
        <time>2015-09-09T14:45:56Z</time>
      </trkpt>
      <trkpt lat="43.42509" lon="6.06357">
        <ele>265.60000610352</ele>
        <time>2015-09-09T14:45:58Z</time>
      </trkpt>
      <trkpt lat="43.42498" lon="6.06361">
        <ele>264.60000610352</ele>
        <time>2015-09-09T14:46:00Z</time>
      </trkpt>
      <trkpt lat="43.42492" lon="6.06363">
        <ele>264.39999389648</ele>
        <time>2015-09-09T14:46:01Z</time>
      </trkpt>
      <trkpt lat="43.42486" lon="6.06364">
        <ele>264.20001220703</ele>
        <time>2015-09-09T14:46:02Z</time>
      </trkpt>
      <trkpt lat="43.42468" lon="6.06365">
        <ele>263.79998779297</ele>
        <time>2015-09-09T14:46:05Z</time>
      </trkpt>
      <trkpt lat="43.42462" lon="6.06366">
        <ele>263.60000610352</ele>
        <time>2015-09-09T14:46:06Z</time>
      </trkpt>
      <trkpt lat="43.4245" lon="6.06369">
        <ele>263.39999389648</ele>
        <time>2015-09-09T14:46:08Z</time>
      </trkpt>
      <trkpt lat="43.42445" lon="6.06372">
        <ele>263.39999389648</ele>
        <time>2015-09-09T14:46:09Z</time>
      </trkpt>
      <trkpt lat="43.4243" lon="6.06384">
        <ele>262.79998779297</ele>
        <time>2015-09-09T14:46:12Z</time>
      </trkpt>
      <trkpt lat="43.42419" lon="6.0639">
        <ele>262.60000610352</ele>
        <time>2015-09-09T14:46:14Z</time>
      </trkpt>
      <trkpt lat="43.42408" lon="6.0639">
        <ele>263.20001220703</ele>
        <time>2015-09-09T14:46:16Z</time>
      </trkpt>
      <trkpt lat="43.42391" lon="6.06385">
        <ele>262.39999389648</ele>
        <time>2015-09-09T14:46:19Z</time>
      </trkpt>
      <trkpt lat="43.42384" lon="6.06383">
        <ele>261.79998779297</ele>
        <time>2015-09-09T14:46:20Z</time>
      </trkpt>
      <trkpt lat="43.42372" lon="6.06387">
        <ele>261</ele>
        <time>2015-09-09T14:46:22Z</time>
      </trkpt>
      <trkpt lat="43.42361" lon="6.06397">
        <ele>261</ele>
        <time>2015-09-09T14:46:24Z</time>
      </trkpt>
      <trkpt lat="43.4235" lon="6.06409">
        <ele>260.79998779297</ele>
        <time>2015-09-09T14:46:26Z</time>
      </trkpt>
      <trkpt lat="43.42345" lon="6.06413">
        <ele>260.39999389648</ele>
        <time>2015-09-09T14:46:27Z</time>
      </trkpt>
      <trkpt lat="43.42327" lon="6.06426">
        <ele>260.20001220703</ele>
        <time>2015-09-09T14:46:30Z</time>
      </trkpt>
      <trkpt lat="43.42317" lon="6.06436">
        <ele>260.20001220703</ele>
        <time>2015-09-09T14:46:32Z</time>
      </trkpt>
      <trkpt lat="43.42306" lon="6.06449">
        <ele>259.39999389648</ele>
        <time>2015-09-09T14:46:34Z</time>
      </trkpt>
      <trkpt lat="43.42295" lon="6.06462">
        <ele>258.20001220703</ele>
        <time>2015-09-09T14:46:36Z</time>
      </trkpt>
      <trkpt lat="43.4229" lon="6.0647">
        <ele>257.39999389648</ele>
        <time>2015-09-09T14:46:37Z</time>
      </trkpt>
      <trkpt lat="43.42284" lon="6.06477">
        <ele>257</ele>
        <time>2015-09-09T14:46:38Z</time>
      </trkpt>
      <trkpt lat="43.42272" lon="6.0649">
        <ele>256.39999389648</ele>
        <time>2015-09-09T14:46:40Z</time>
      </trkpt>
      <trkpt lat="43.42266" lon="6.06495">
        <ele>256</ele>
        <time>2015-09-09T14:46:41Z</time>
      </trkpt>
      <trkpt lat="43.42259" lon="6.06499">
        <ele>255</ele>
        <time>2015-09-09T14:46:42Z</time>
      </trkpt>
      <trkpt lat="43.42253" lon="6.065">
        <ele>254.60000610352</ele>
        <time>2015-09-09T14:46:43Z</time>
      </trkpt>
      <trkpt lat="43.42248" lon="6.06501">
        <ele>254.39999389648</ele>
        <time>2015-09-09T14:46:44Z</time>
      </trkpt>
      <trkpt lat="43.42242" lon="6.065">
        <ele>253.60000610352</ele>
        <time>2015-09-09T14:46:45Z</time>
      </trkpt>
      <trkpt lat="43.42236" lon="6.06499">
        <ele>253</ele>
        <time>2015-09-09T14:46:46Z</time>
      </trkpt>
      <trkpt lat="43.42223" lon="6.06495">
        <ele>252.60000610352</ele>
        <time>2015-09-09T14:46:48Z</time>
      </trkpt>
      <trkpt lat="43.4221" lon="6.06495">
        <ele>251.80000305176</ele>
        <time>2015-09-09T14:46:50Z</time>
      </trkpt>
      <trkpt lat="43.42199" lon="6.06496">
        <ele>250</ele>
        <time>2015-09-09T14:46:52Z</time>
      </trkpt>
      <trkpt lat="43.42195" lon="6.06494">
        <ele>250</ele>
        <time>2015-09-09T14:46:53Z</time>
      </trkpt>
      <trkpt lat="43.42193" lon="6.0649">
        <ele>249.80000305176</ele>
        <time>2015-09-09T14:46:54Z</time>
      </trkpt>
      <trkpt lat="43.4219" lon="6.06481">
        <ele>249.80000305176</ele>
        <time>2015-09-09T14:46:56Z</time>
      </trkpt>
      <trkpt lat="43.42188" lon="6.0647">
        <ele>249.80000305176</ele>
        <time>2015-09-09T14:46:58Z</time>
      </trkpt>
      <trkpt lat="43.42186" lon="6.06458">
        <ele>249.39999389648</ele>
        <time>2015-09-09T14:47:00Z</time>
      </trkpt>
      <trkpt lat="43.42184" lon="6.06445">
        <ele>249.19999694824</ele>
        <time>2015-09-09T14:47:02Z</time>
      </trkpt>
      <trkpt lat="43.42183" lon="6.06439">
        <ele>249.19999694824</ele>
        <time>2015-09-09T14:47:03Z</time>
      </trkpt>
      <trkpt lat="43.42181" lon="6.06432">
        <ele>249.39999389648</ele>
        <time>2015-09-09T14:47:04Z</time>
      </trkpt>
      <trkpt lat="43.42179" lon="6.06418">
        <ele>249.60000610352</ele>
        <time>2015-09-09T14:47:06Z</time>
      </trkpt>
      <trkpt lat="43.42176" lon="6.06405">
        <ele>249.60000610352</ele>
        <time>2015-09-09T14:47:08Z</time>
      </trkpt>
      <trkpt lat="43.42173" lon="6.06391">
        <ele>249.39999389648</ele>
        <time>2015-09-09T14:47:10Z</time>
      </trkpt>
      <trkpt lat="43.42168" lon="6.06365">
        <ele>249.19999694824</ele>
        <time>2015-09-09T14:47:14Z</time>
      </trkpt>
      <trkpt lat="43.42166" lon="6.06353">
        <ele>249.39999389648</ele>
        <time>2015-09-09T14:47:16Z</time>
      </trkpt>
      <trkpt lat="43.42162" lon="6.0633">
        <ele>249.80000305176</ele>
        <time>2015-09-09T14:47:20Z</time>
      </trkpt>
      <trkpt lat="43.42158" lon="6.06297">
        <ele>251</ele>
        <time>2015-09-09T14:47:26Z</time>
      </trkpt>
      <trkpt lat="43.42157" lon="6.06287">
        <ele>251.80000305176</ele>
        <time>2015-09-09T14:47:28Z</time>
      </trkpt>
      <trkpt lat="43.42157" lon="6.06282">
        <ele>252</ele>
        <time>2015-09-09T14:47:29Z</time>
      </trkpt>
      <trkpt lat="43.42156" lon="6.06276">
        <ele>252.39999389648</ele>
        <time>2015-09-09T14:47:30Z</time>
      </trkpt>
      <trkpt lat="43.42157" lon="6.06266">
        <ele>252.80000305176</ele>
        <time>2015-09-09T14:47:32Z</time>
      </trkpt>
      <trkpt lat="43.42157" lon="6.06239">
        <ele>255</ele>
        <time>2015-09-09T14:47:38Z</time>
      </trkpt>
      <trkpt lat="43.42157" lon="6.06235">
        <ele>255.19999694824</ele>
        <time>2015-09-09T14:47:39Z</time>
      </trkpt>
      <trkpt lat="43.42156" lon="6.06231">
        <ele>255.19999694824</ele>
        <time>2015-09-09T14:47:40Z</time>
      </trkpt>
      <trkpt lat="43.42154" lon="6.06225">
        <ele>255.19999694824</ele>
        <time>2015-09-09T14:47:42Z</time>
      </trkpt>
      <trkpt lat="43.42152" lon="6.06223">
        <ele>255.60000610352</ele>
        <time>2015-09-09T14:47:43Z</time>
      </trkpt>
      <trkpt lat="43.42148" lon="6.0622">
        <ele>256</ele>
        <time>2015-09-09T14:47:45Z</time>
      </trkpt>
      <trkpt lat="43.42145" lon="6.0622">
        <ele>256</ele>
        <time>2015-09-09T14:47:46Z</time>
      </trkpt>
      <trkpt lat="43.4214" lon="6.06221">
        <ele>256</ele>
        <time>2015-09-09T14:47:48Z</time>
      </trkpt>
      <trkpt lat="43.42133" lon="6.06223">
        <ele>255.60000610352</ele>
        <time>2015-09-09T14:47:50Z</time>
      </trkpt>
      <trkpt lat="43.42122" lon="6.06226">
        <ele>255</ele>
        <time>2015-09-09T14:47:53Z</time>
      </trkpt>
      <trkpt lat="43.42117" lon="6.06228">
        <ele>254.60000610352</ele>
        <time>2015-09-09T14:47:54Z</time>
      </trkpt>
      <trkpt lat="43.42106" lon="6.06232">
        <ele>254</ele>
        <time>2015-09-09T14:47:56Z</time>
      </trkpt>
      <trkpt lat="43.42101" lon="6.06234">
        <ele>253.39999389648</ele>
        <time>2015-09-09T14:47:57Z</time>
      </trkpt>
      <trkpt lat="43.42095" lon="6.06236">
        <ele>253</ele>
        <time>2015-09-09T14:47:58Z</time>
      </trkpt>
      <trkpt lat="43.42082" lon="6.0624">
        <ele>252.60000610352</ele>
        <time>2015-09-09T14:48:00Z</time>
      </trkpt>
      <trkpt lat="43.4206" lon="6.06248">
        <ele>250</ele>
        <time>2015-09-09T14:48:03Z</time>
      </trkpt>
      <trkpt lat="43.4205" lon="6.06251">
        <ele>248.80000305176</ele>
        <time>2015-09-09T14:48:04Z</time>
      </trkpt>
      <trkpt lat="43.42031" lon="6.06257">
        <ele>246.80000305176</ele>
        <time>2015-09-09T14:48:06Z</time>
      </trkpt>
      <trkpt lat="43.42021" lon="6.0626">
        <ele>245.60000610352</ele>
        <time>2015-09-09T14:48:07Z</time>
      </trkpt>
      <trkpt lat="43.4201" lon="6.06263">
        <ele>245</ele>
        <time>2015-09-09T14:48:08Z</time>
      </trkpt>
      <trkpt lat="43.42001" lon="6.06267">
        <ele>244.19999694824</ele>
        <time>2015-09-09T14:48:09Z</time>
      </trkpt>
      <trkpt lat="43.41989" lon="6.06271">
        <ele>243</ele>
        <time>2015-09-09T14:48:10Z</time>
      </trkpt>
      <trkpt lat="43.41978" lon="6.06275">
        <ele>241.60000610352</ele>
        <time>2015-09-09T14:48:11Z</time>
      </trkpt>
      <trkpt lat="43.41966" lon="6.06279">
        <ele>240.19999694824</ele>
        <time>2015-09-09T14:48:12Z</time>
      </trkpt>
      <trkpt lat="43.41955" lon="6.06283">
        <ele>238.80000305176</ele>
        <time>2015-09-09T14:48:13Z</time>
      </trkpt>
      <trkpt lat="43.41944" lon="6.06287">
        <ele>237.39999389648</ele>
        <time>2015-09-09T14:48:14Z</time>
      </trkpt>
      <trkpt lat="43.41934" lon="6.0629">
        <ele>237</ele>
        <time>2015-09-09T14:48:15Z</time>
      </trkpt>
      <trkpt lat="43.41924" lon="6.06293">
        <ele>236.80000305176</ele>
        <time>2015-09-09T14:48:16Z</time>
      </trkpt>
      <trkpt lat="43.41915" lon="6.06295">
        <ele>236.60000610352</ele>
        <time>2015-09-09T14:48:17Z</time>
      </trkpt>
      <trkpt lat="43.41904" lon="6.06295">
        <ele>236.19999694824</ele>
        <time>2015-09-09T14:48:18Z</time>
      </trkpt>
      <trkpt lat="43.41895" lon="6.06295">
        <ele>235</ele>
        <time>2015-09-09T14:48:19Z</time>
      </trkpt>
      <trkpt lat="43.41885" lon="6.06294">
        <ele>234.19999694824</ele>
        <time>2015-09-09T14:48:20Z</time>
      </trkpt>
      <trkpt lat="43.41875" lon="6.06294">
        <ele>233.60000610352</ele>
        <time>2015-09-09T14:48:21Z</time>
      </trkpt>
      <trkpt lat="43.41865" lon="6.06293">
        <ele>233</ele>
        <time>2015-09-09T14:48:22Z</time>
      </trkpt>
      <trkpt lat="43.41845" lon="6.06292">
        <ele>232.19999694824</ele>
        <time>2015-09-09T14:48:24Z</time>
      </trkpt>
      <trkpt lat="43.41824" lon="6.06292">
        <ele>230.80000305176</ele>
        <time>2015-09-09T14:48:26Z</time>
      </trkpt>
      <trkpt lat="43.41805" lon="6.06288">
        <ele>229.80000305176</ele>
        <time>2015-09-09T14:48:28Z</time>
      </trkpt>
      <trkpt lat="43.41798" lon="6.06283">
        <ele>229.19999694824</ele>
        <time>2015-09-09T14:48:29Z</time>
      </trkpt>
      <trkpt lat="43.4179" lon="6.06276">
        <ele>228.80000305176</ele>
        <time>2015-09-09T14:48:30Z</time>
      </trkpt>
      <trkpt lat="43.41783" lon="6.0627">
        <ele>228.39999389648</ele>
        <time>2015-09-09T14:48:31Z</time>
      </trkpt>
      <trkpt lat="43.41775" lon="6.06265">
        <ele>228</ele>
        <time>2015-09-09T14:48:32Z</time>
      </trkpt>
      <trkpt lat="43.41768" lon="6.0626">
        <ele>227.39999389648</ele>
        <time>2015-09-09T14:48:33Z</time>
      </trkpt>
      <trkpt lat="43.4176" lon="6.06256">
        <ele>227</ele>
        <time>2015-09-09T14:48:34Z</time>
      </trkpt>
      <trkpt lat="43.41752" lon="6.06254">
        <ele>226.39999389648</ele>
        <time>2015-09-09T14:48:35Z</time>
      </trkpt>
      <trkpt lat="43.41743" lon="6.06252">
        <ele>225.80000305176</ele>
        <time>2015-09-09T14:48:36Z</time>
      </trkpt>
      <trkpt lat="43.41726" lon="6.0625">
        <ele>224.39999389648</ele>
        <time>2015-09-09T14:48:38Z</time>
      </trkpt>
      <trkpt lat="43.41709" lon="6.06249">
        <ele>224.19999694824</ele>
        <time>2015-09-09T14:48:40Z</time>
      </trkpt>
      <trkpt lat="43.41693" lon="6.06249">
        <ele>224.19999694824</ele>
        <time>2015-09-09T14:48:42Z</time>
      </trkpt>
      <trkpt lat="43.41678" lon="6.06247">
        <ele>223.19999694824</ele>
        <time>2015-09-09T14:48:44Z</time>
      </trkpt>
      <trkpt lat="43.41665" lon="6.06245">
        <ele>223.60000610352</ele>
        <time>2015-09-09T14:48:46Z</time>
      </trkpt>
      <trkpt lat="43.41653" lon="6.06242">
        <ele>223.80000305176</ele>
        <time>2015-09-09T14:48:48Z</time>
      </trkpt>
      <trkpt lat="43.41642" lon="6.06238">
        <ele>223.60000610352</ele>
        <time>2015-09-09T14:48:50Z</time>
      </trkpt>
      <trkpt lat="43.41632" lon="6.06233">
        <ele>222.80000305176</ele>
        <time>2015-09-09T14:48:52Z</time>
      </trkpt>
      <trkpt lat="43.41624" lon="6.06231">
        <ele>222.19999694824</ele>
        <time>2015-09-09T14:48:54Z</time>
      </trkpt>
      <trkpt lat="43.41622" lon="6.06231">
        <ele>222.60000610352</ele>
        <time>2015-09-09T14:48:55Z</time>
      </trkpt>
      <trkpt lat="43.41619" lon="6.06232">
        <ele>222.80000305176</ele>
        <time>2015-09-09T14:48:56Z</time>
      </trkpt>
      <trkpt lat="43.41615" lon="6.06233">
        <ele>222.19999694824</ele>
        <time>2015-09-09T14:48:58Z</time>
      </trkpt>
      <trkpt lat="43.41613" lon="6.06233">
        <ele>222.39999389648</ele>
        <time>2015-09-09T14:48:59Z</time>
      </trkpt>
      <trkpt lat="43.41611" lon="6.06234">
        <ele>222.39999389648</ele>
        <time>2015-09-09T14:49:00Z</time>
      </trkpt>
      <trkpt lat="43.4161" lon="6.06234">
        <ele>222</ele>
        <time>2015-09-09T14:49:01Z</time>
      </trkpt>
      <trkpt lat="43.4161" lon="6.06235">
        <ele>221.80000305176</ele>
        <time>2015-09-09T14:49:02Z</time>
      </trkpt>
      <trkpt lat="43.4161" lon="6.06235">
        <ele>221.80000305176</ele>
        <time>2015-09-09T14:49:04Z</time>
      </trkpt>
      <trkpt lat="43.4161" lon="6.06235">
        <ele>221.60000610352</ele>
        <time>2015-09-09T14:49:08Z</time>
      </trkpt>
      <trkpt lat="43.4161" lon="6.06235">
        <ele>221.80000305176</ele>
        <time>2015-09-09T14:49:12Z</time>
      </trkpt>
      <trkpt lat="43.4161" lon="6.06235">
        <ele>221.80000305176</ele>
        <time>2015-09-09T14:49:14Z</time>
      </trkpt>
      <trkpt lat="43.4161" lon="6.06235">
        <ele>221.80000305176</ele>
        <time>2015-09-09T14:49:16Z</time>
      </trkpt>
      <trkpt lat="43.41609" lon="6.06235">
        <ele>221.80000305176</ele>
        <time>2015-09-09T14:49:18Z</time>
      </trkpt>
      <trkpt lat="43.41608" lon="6.06236">
        <ele>221.80000305176</ele>
        <time>2015-09-09T14:49:20Z</time>
      </trkpt>
      <trkpt lat="43.41608" lon="6.06236">
        <ele>221.80000305176</ele>
        <time>2015-09-09T14:49:22Z</time>
      </trkpt>
      <trkpt lat="43.41608" lon="6.06236">
        <ele>221.80000305176</ele>
        <time>2015-09-09T14:49:24Z</time>
      </trkpt>
      <trkpt lat="43.41608" lon="6.06236">
        <ele>222</ele>
        <time>2015-09-09T14:49:26Z</time>
      </trkpt>
      <trkpt lat="43.41608" lon="6.06236">
        <ele>222</ele>
        <time>2015-09-09T14:49:28Z</time>
      </trkpt>
      <trkpt lat="43.41607" lon="6.06237">
        <ele>221.80000305176</ele>
        <time>2015-09-09T14:49:29Z</time>
      </trkpt>
      <trkpt lat="43.41607" lon="6.06239">
        <ele>221.80000305176</ele>
        <time>2015-09-09T14:49:30Z</time>
      </trkpt>
      <trkpt lat="43.41606" lon="6.06241">
        <ele>221.80000305176</ele>
        <time>2015-09-09T14:49:31Z</time>
      </trkpt>
      <trkpt lat="43.41605" lon="6.06244">
        <ele>221.60000610352</ele>
        <time>2015-09-09T14:49:32Z</time>
      </trkpt>
      <trkpt lat="43.41604" lon="6.0625">
        <ele>221.60000610352</ele>
        <time>2015-09-09T14:49:34Z</time>
      </trkpt>
      <trkpt lat="43.41602" lon="6.06257">
        <ele>221.60000610352</ele>
        <time>2015-09-09T14:49:36Z</time>
      </trkpt>
      <trkpt lat="43.41598" lon="6.0626">
        <ele>222</ele>
        <time>2015-09-09T14:49:38Z</time>
      </trkpt>
      <trkpt lat="43.41592" lon="6.06265">
        <ele>221.60000610352</ele>
        <time>2015-09-09T14:49:40Z</time>
      </trkpt>
      <trkpt lat="43.41588" lon="6.06274">
        <ele>221.19999694824</ele>
        <time>2015-09-09T14:49:42Z</time>
      </trkpt>
      <trkpt lat="43.41588" lon="6.0628">
        <ele>220.80000305176</ele>
        <time>2015-09-09T14:49:43Z</time>
      </trkpt>
      <trkpt lat="43.41587" lon="6.06286">
        <ele>220.80000305176</ele>
        <time>2015-09-09T14:49:44Z</time>
      </trkpt>
      <trkpt lat="43.41587" lon="6.063">
        <ele>220.39999389648</ele>
        <time>2015-09-09T14:49:46Z</time>
      </trkpt>
      <trkpt lat="43.41586" lon="6.06307">
        <ele>220</ele>
        <time>2015-09-09T14:49:47Z</time>
      </trkpt>
      <trkpt lat="43.41584" lon="6.06314">
        <ele>220</ele>
        <time>2015-09-09T14:49:48Z</time>
      </trkpt>
      <trkpt lat="43.41577" lon="6.06326">
        <ele>219.80000305176</ele>
        <time>2015-09-09T14:49:50Z</time>
      </trkpt>
      <trkpt lat="43.41573" lon="6.06332">
        <ele>219.60000610352</ele>
        <time>2015-09-09T14:49:51Z</time>
      </trkpt>
      <trkpt lat="43.41569" lon="6.06339">
        <ele>219.19999694824</ele>
        <time>2015-09-09T14:49:52Z</time>
      </trkpt>
      <trkpt lat="43.41562" lon="6.06353">
        <ele>218.80000305176</ele>
        <time>2015-09-09T14:49:54Z</time>
      </trkpt>
      <trkpt lat="43.41557" lon="6.0637">
        <ele>217.80000305176</ele>
        <time>2015-09-09T14:49:56Z</time>
      </trkpt>
      <trkpt lat="43.41555" lon="6.06379">
        <ele>217</ele>
        <time>2015-09-09T14:49:57Z</time>
      </trkpt>
      <trkpt lat="43.41553" lon="6.0639">
        <ele>216.19999694824</ele>
        <time>2015-09-09T14:49:58Z</time>
      </trkpt>
      <trkpt lat="43.41552" lon="6.06399">
        <ele>215.39999389648</ele>
        <time>2015-09-09T14:49:59Z</time>
      </trkpt>
      <trkpt lat="43.41549" lon="6.0641">
        <ele>214.60000610352</ele>
        <time>2015-09-09T14:50:00Z</time>
      </trkpt>
      <trkpt lat="43.41546" lon="6.06432">
        <ele>214</ele>
        <time>2015-09-09T14:50:02Z</time>
      </trkpt>
      <trkpt lat="43.41545" lon="6.06453">
        <ele>213</ele>
        <time>2015-09-09T14:50:04Z</time>
      </trkpt>
      <trkpt lat="43.41546" lon="6.06473">
        <ele>211.80000305176</ele>
        <time>2015-09-09T14:50:06Z</time>
      </trkpt>
      <trkpt lat="43.41542" lon="6.06488">
        <ele>212</ele>
        <time>2015-09-09T14:50:08Z</time>
      </trkpt>
      <trkpt lat="43.41538" lon="6.06493">
        <ele>212</ele>
        <time>2015-09-09T14:50:09Z</time>
      </trkpt>
      <trkpt lat="43.41534" lon="6.065">
        <ele>211.80000305176</ele>
        <time>2015-09-09T14:50:10Z</time>
      </trkpt>
      <trkpt lat="43.41528" lon="6.06514">
        <ele>211.60000610352</ele>
        <time>2015-09-09T14:50:12Z</time>
      </trkpt>
      <trkpt lat="43.41525" lon="6.06522">
        <ele>211.39999389648</ele>
        <time>2015-09-09T14:50:13Z</time>
      </trkpt>
      <trkpt lat="43.4152" lon="6.06554">
        <ele>210.80000305176</ele>
        <time>2015-09-09T14:50:17Z</time>
      </trkpt>
      <trkpt lat="43.41518" lon="6.06563">
        <ele>210.60000610352</ele>
        <time>2015-09-09T14:50:18Z</time>
      </trkpt>
      <trkpt lat="43.41513" lon="6.06595">
        <ele>210.80000305176</ele>
        <time>2015-09-09T14:50:22Z</time>
      </trkpt>
      <trkpt lat="43.41508" lon="6.06626">
        <ele>210.60000610352</ele>
        <time>2015-09-09T14:50:26Z</time>
      </trkpt>
      <trkpt lat="43.41506" lon="6.06642">
        <ele>210.19999694824</ele>
        <time>2015-09-09T14:50:28Z</time>
      </trkpt>
      <trkpt lat="43.41504" lon="6.06658">
        <ele>210.39999389648</ele>
        <time>2015-09-09T14:50:30Z</time>
      </trkpt>
      <trkpt lat="43.41501" lon="6.06673">
        <ele>210.39999389648</ele>
        <time>2015-09-09T14:50:32Z</time>
      </trkpt>
      <trkpt lat="43.41499" lon="6.06689">
        <ele>210</ele>
        <time>2015-09-09T14:50:34Z</time>
      </trkpt>
      <trkpt lat="43.41499" lon="6.06706">
        <ele>209.80000305176</ele>
        <time>2015-09-09T14:50:36Z</time>
      </trkpt>
      <trkpt lat="43.41499" lon="6.06722">
        <ele>209.39999389648</ele>
        <time>2015-09-09T14:50:38Z</time>
      </trkpt>
      <trkpt lat="43.41497" lon="6.06739">
        <ele>209</ele>
        <time>2015-09-09T14:50:40Z</time>
      </trkpt>
      <trkpt lat="43.41496" lon="6.06757">
        <ele>208.80000305176</ele>
        <time>2015-09-09T14:50:42Z</time>
      </trkpt>
      <trkpt lat="43.41494" lon="6.06774">
        <ele>208.39999389648</ele>
        <time>2015-09-09T14:50:44Z</time>
      </trkpt>
      <trkpt lat="43.41491" lon="6.06792">
        <ele>208</ele>
        <time>2015-09-09T14:50:46Z</time>
      </trkpt>
      <trkpt lat="43.41487" lon="6.06809">
        <ele>208</ele>
        <time>2015-09-09T14:50:48Z</time>
      </trkpt>
      <trkpt lat="43.41483" lon="6.06825">
        <ele>207.80000305176</ele>
        <time>2015-09-09T14:50:50Z</time>
      </trkpt>
      <trkpt lat="43.41481" lon="6.06832">
        <ele>207.80000305176</ele>
        <time>2015-09-09T14:50:51Z</time>
      </trkpt>
      <trkpt lat="43.41479" lon="6.06838">
        <ele>207.80000305176</ele>
        <time>2015-09-09T14:50:52Z</time>
      </trkpt>
      <trkpt lat="43.41476" lon="6.06851">
        <ele>207.60000610352</ele>
        <time>2015-09-09T14:50:54Z</time>
      </trkpt>
      <trkpt lat="43.41476" lon="6.06856">
        <ele>207.60000610352</ele>
        <time>2015-09-09T14:50:55Z</time>
      </trkpt>
      <trkpt lat="43.41476" lon="6.06862">
        <ele>207.60000610352</ele>
        <time>2015-09-09T14:50:56Z</time>
      </trkpt>
      <trkpt lat="43.41477" lon="6.06871">
        <ele>208</ele>
        <time>2015-09-09T14:50:58Z</time>
      </trkpt>
      <trkpt lat="43.41478" lon="6.06874">
        <ele>208</ele>
        <time>2015-09-09T14:50:59Z</time>
      </trkpt>
      <trkpt lat="43.41478" lon="6.06877">
        <ele>208</ele>
        <time>2015-09-09T14:51:00Z</time>
      </trkpt>
      <trkpt lat="43.41478" lon="6.06879">
        <ele>208</ele>
        <time>2015-09-09T14:51:02Z</time>
      </trkpt>
      <trkpt lat="43.41478" lon="6.06879">
        <ele>208</ele>
        <time>2015-09-09T14:51:03Z</time>
      </trkpt>
      <trkpt lat="43.41478" lon="6.06879">
        <ele>208</ele>
        <time>2015-09-09T14:51:04Z</time>
      </trkpt>
      <trkpt lat="43.41478" lon="6.06879">
        <ele>208.19999694824</ele>
        <time>2015-09-09T14:51:06Z</time>
      </trkpt>
      <trkpt lat="43.41478" lon="6.06879">
        <ele>207.80000305176</ele>
        <time>2015-09-09T14:51:12Z</time>
      </trkpt>
      <trkpt lat="43.41478" lon="6.06879">
        <ele>208</ele>
        <time>2015-09-09T14:51:24Z</time>
      </trkpt>
      <trkpt lat="43.41478" lon="6.06879">
        <ele>207.80000305176</ele>
        <time>2015-09-09T14:51:28Z</time>
      </trkpt>
      <trkpt lat="43.41478" lon="6.0688">
        <ele>207.60000610352</ele>
        <time>2015-09-09T14:51:30Z</time>
      </trkpt>
      <trkpt lat="43.41478" lon="6.06882">
        <ele>207.60000610352</ele>
        <time>2015-09-09T14:51:31Z</time>
      </trkpt>
      <trkpt lat="43.41477" lon="6.06885">
        <ele>207.60000610352</ele>
        <time>2015-09-09T14:51:32Z</time>
      </trkpt>
      <trkpt lat="43.41476" lon="6.06891">
        <ele>207.80000305176</ele>
        <time>2015-09-09T14:51:34Z</time>
      </trkpt>
      <trkpt lat="43.41477" lon="6.06898">
        <ele>207.80000305176</ele>
        <time>2015-09-09T14:51:36Z</time>
      </trkpt>
      <trkpt lat="43.41477" lon="6.06902">
        <ele>207.80000305176</ele>
        <time>2015-09-09T14:51:37Z</time>
      </trkpt>
      <trkpt lat="43.41477" lon="6.06906">
        <ele>207.80000305176</ele>
        <time>2015-09-09T14:51:38Z</time>
      </trkpt>
      <trkpt lat="43.41475" lon="6.06914">
        <ele>207.80000305176</ele>
        <time>2015-09-09T14:51:40Z</time>
      </trkpt>
      <trkpt lat="43.41472" lon="6.06922">
        <ele>207.60000610352</ele>
        <time>2015-09-09T14:51:42Z</time>
      </trkpt>
      <trkpt lat="43.4147" lon="6.06929">
        <ele>207.19999694824</ele>
        <time>2015-09-09T14:51:44Z</time>
      </trkpt>
      <trkpt lat="43.4147" lon="6.06932">
        <ele>207</ele>
        <time>2015-09-09T14:51:45Z</time>
      </trkpt>
      <trkpt lat="43.41471" lon="6.06935">
        <ele>207</ele>
        <time>2015-09-09T14:51:46Z</time>
      </trkpt>
      <trkpt lat="43.41475" lon="6.06942">
        <ele>206.80000305176</ele>
        <time>2015-09-09T14:51:48Z</time>
      </trkpt>
      <trkpt lat="43.41481" lon="6.06947">
        <ele>206.60000610352</ele>
        <time>2015-09-09T14:51:50Z</time>
      </trkpt>
      <trkpt lat="43.41484" lon="6.06949">
        <ele>206.80000305176</ele>
        <time>2015-09-09T14:51:51Z</time>
      </trkpt>
      <trkpt lat="43.41487" lon="6.06952">
        <ele>206.80000305176</ele>
        <time>2015-09-09T14:51:52Z</time>
      </trkpt>
      <trkpt lat="43.41492" lon="6.06959">
        <ele>206.80000305176</ele>
        <time>2015-09-09T14:51:54Z</time>
      </trkpt>
      <trkpt lat="43.41497" lon="6.06965">
        <ele>206.80000305176</ele>
        <time>2015-09-09T14:51:56Z</time>
      </trkpt>
      <trkpt lat="43.41507" lon="6.06972">
        <ele>206.80000305176</ele>
        <time>2015-09-09T14:52:00Z</time>
      </trkpt>
      <trkpt lat="43.41511" lon="6.06974">
        <ele>206.80000305176</ele>
        <time>2015-09-09T14:52:02Z</time>
      </trkpt>
      <trkpt lat="43.41516" lon="6.06975">
        <ele>206.60000610352</ele>
        <time>2015-09-09T14:52:04Z</time>
      </trkpt>
      <trkpt lat="43.41523" lon="6.06975">
        <ele>206.80000305176</ele>
        <time>2015-09-09T14:52:06Z</time>
      </trkpt>
      <trkpt lat="43.41526" lon="6.06975">
        <ele>206.80000305176</ele>
        <time>2015-09-09T14:52:07Z</time>
      </trkpt>
      <trkpt lat="43.4153" lon="6.06974">
        <ele>207</ele>
        <time>2015-09-09T14:52:08Z</time>
      </trkpt>
      <trkpt lat="43.41537" lon="6.06973">
        <ele>206.80000305176</ele>
        <time>2015-09-09T14:52:10Z</time>
      </trkpt>
      <trkpt lat="43.4155" lon="6.06972">
        <ele>207.19999694824</ele>
        <time>2015-09-09T14:52:14Z</time>
      </trkpt>
      <trkpt lat="43.41553" lon="6.06971">
        <ele>207.19999694824</ele>
        <time>2015-09-09T14:52:15Z</time>
      </trkpt>
      <trkpt lat="43.41557" lon="6.0697">
        <ele>207.19999694824</ele>
        <time>2015-09-09T14:52:16Z</time>
      </trkpt>
      <trkpt lat="43.41563" lon="6.06969">
        <ele>207.19999694824</ele>
        <time>2015-09-09T14:52:18Z</time>
      </trkpt>
      <trkpt lat="43.41568" lon="6.06968">
        <ele>207.80000305176</ele>
        <time>2015-09-09T14:52:20Z</time>
      </trkpt>
      <trkpt lat="43.4157" lon="6.06968">
        <ele>208</ele>
        <time>2015-09-09T14:52:21Z</time>
      </trkpt>
      <trkpt lat="43.41572" lon="6.0697">
        <ele>208.19999694824</ele>
        <time>2015-09-09T14:52:22Z</time>
      </trkpt>
      <trkpt lat="43.41573" lon="6.06973">
        <ele>208.39999389648</ele>
        <time>2015-09-09T14:52:23Z</time>
      </trkpt>
      <trkpt lat="43.41573" lon="6.06976">
        <ele>208.60000610352</ele>
        <time>2015-09-09T14:52:24Z</time>
      </trkpt>
      <trkpt lat="43.41573" lon="6.06984">
        <ele>208</ele>
        <time>2015-09-09T14:52:26Z</time>
      </trkpt>
      <trkpt lat="43.41574" lon="6.06992">
        <ele>207.80000305176</ele>
        <time>2015-09-09T14:52:28Z</time>
      </trkpt>
      <trkpt lat="43.41574" lon="6.07">
        <ele>207.80000305176</ele>
        <time>2015-09-09T14:52:30Z</time>
      </trkpt>
      <trkpt lat="43.41575" lon="6.07004">
        <ele>208</ele>
        <time>2015-09-09T14:52:31Z</time>
      </trkpt>
      <trkpt lat="43.41576" lon="6.07008">
        <ele>208</ele>
        <time>2015-09-09T14:52:32Z</time>
      </trkpt>
      <trkpt lat="43.41577" lon="6.07015">
        <ele>207.80000305176</ele>
        <time>2015-09-09T14:52:34Z</time>
      </trkpt>
      <trkpt lat="43.41578" lon="6.07022">
        <ele>208</ele>
        <time>2015-09-09T14:52:36Z</time>
      </trkpt>
      <trkpt lat="43.41579" lon="6.07028">
        <ele>208.19999694824</ele>
        <time>2015-09-09T14:52:38Z</time>
      </trkpt>
      <trkpt lat="43.41579" lon="6.07032">
        <ele>208.19999694824</ele>
        <time>2015-09-09T14:52:40Z</time>
      </trkpt>
      <trkpt lat="43.4158" lon="6.07033">
        <ele>208</ele>
        <time>2015-09-09T14:52:42Z</time>
      </trkpt>
      <trkpt lat="43.4158" lon="6.07033">
        <ele>208.19999694824</ele>
        <time>2015-09-09T14:52:44Z</time>
      </trkpt>
      <trkpt lat="43.4158" lon="6.07033">
        <ele>208.19999694824</ele>
        <time>2015-09-09T14:52:45Z</time>
      </trkpt>
      <trkpt lat="43.4158" lon="6.07033">
        <ele>208.19999694824</ele>
        <time>2015-09-09T14:52:46Z</time>
      </trkpt>
      <trkpt lat="43.4158" lon="6.07033">
        <ele>208</ele>
        <time>2015-09-09T14:52:47Z</time>
      </trkpt>
    </trkseg>
  </trk>
</gpx>